<?xml version='1.0' encoding='UTF-8'?><gpx version="1.1" creator="JPX - https://github.com/jenetics/jpx" xmlns="http://www.topografix.com/GPX/1/1"><trk><trkseg><trkpt lat="45.7961209" lon="11.5710639"><ele>752.0</ele><time>2026-04-29T14:02:52.263Z</time></trkpt><trkpt lat="45.7961861" lon="11.5710543"><ele>752.0</ele><time>2026-04-29T14:04:17.184Z</time></trkpt><trkpt lat="45.7961837" lon="11.5711779"><ele>752.0</ele><time>2026-04-29T14:04:20.185Z</time></trkpt><trkpt lat="45.7961454" lon="11.571301"><ele>752.0</ele><time>2026-04-29T14:04:22.185Z</time></trkpt><trkpt lat="45.7960677" lon="11.571418"><ele>752.0</ele><time>2026-04-29T14:04:24.185Z</time></trkpt><trkpt lat="45.7959471" lon="11.5714991"><ele>749.3333333333333</ele><time>2026-04-29T14:04:26.185Z</time></trkpt><trkpt lat="45.7958916" lon="11.5715798"><ele>746.6666666666666</ele><time>2026-04-29T14:04:27.184Z</time></trkpt><trkpt lat="45.7958525" lon="11.5716787"><ele>744.0</ele><time>2026-04-29T14:04:28.185Z</time></trkpt><trkpt lat="45.7958348" lon="11.5717894"><ele>741.3333333333334</ele><time>2026-04-29T14:04:29.185Z</time></trkpt><trkpt lat="45.7958271" lon="11.5719111"><ele>738.6666666666667</ele><time>2026-04-29T14:04:30.185Z</time></trkpt><trkpt lat="45.7958166" lon="11.5720467"><ele>736.0</ele><time>2026-04-29T14:04:31.185Z</time></trkpt><trkpt lat="45.795798" lon="11.5721903"><ele>735.5</ele><time>2026-04-29T14:04:32.185Z</time></trkpt><trkpt lat="45.7957663" lon="11.5723471"><ele>735.0</ele><time>2026-04-29T14:04:33.184Z</time></trkpt><trkpt lat="45.7957208" lon="11.5725026"><ele>734.5</ele><time>2026-04-29T14:04:34.185Z</time></trkpt><trkpt lat="45.7956666" lon="11.5726592"><ele>734.0</ele><time>2026-04-29T14:04:35.184Z</time></trkpt><trkpt lat="45.7956053" lon="11.5728127"><ele>732.5</ele><time>2026-04-29T14:04:36.184Z</time></trkpt><trkpt lat="45.7955434" lon="11.5729692"><ele>731.0</ele><time>2026-04-29T14:04:37.185Z</time></trkpt><trkpt lat="45.7954843" lon="11.5731274"><ele>729.5</ele><time>2026-04-29T14:04:38.185Z</time></trkpt><trkpt lat="45.7954239" lon="11.573289"><ele>728.0</ele><time>2026-04-29T14:04:39.184Z</time></trkpt><trkpt lat="45.7953611" lon="11.5734541"><ele>728.0</ele><time>2026-04-29T14:04:40.185Z</time></trkpt><trkpt lat="45.7952957" lon="11.573618"><ele>728.0</ele><time>2026-04-29T14:04:41.185Z</time></trkpt><trkpt lat="45.7952273" lon="11.5737714"><ele>728.0</ele><time>2026-04-29T14:04:42.185Z</time></trkpt><trkpt lat="45.7951513" lon="11.5739203"><ele>728.0</ele><time>2026-04-29T14:04:43.185Z</time></trkpt><trkpt lat="45.7950653" lon="11.5740685"><ele>729.5</ele><time>2026-04-29T14:04:44.185Z</time></trkpt><trkpt lat="45.7949649" lon="11.5742124"><ele>731.0</ele><time>2026-04-29T14:04:45.185Z</time></trkpt><trkpt lat="45.7948531" lon="11.5743394"><ele>732.5</ele><time>2026-04-29T14:04:46.185Z</time></trkpt><trkpt lat="45.7947271" lon="11.5744532"><ele>734.0</ele><time>2026-04-29T14:04:47.184Z</time></trkpt><trkpt lat="45.7945917" lon="11.5745386"><ele>734.0</ele><time>2026-04-29T14:04:48.185Z</time></trkpt><trkpt lat="45.7944481" lon="11.5746071"><ele>734.0</ele><time>2026-04-29T14:04:49.185Z</time></trkpt><trkpt lat="45.79431" lon="11.5746654"><ele>734.0</ele><time>2026-04-29T14:04:50.185Z</time></trkpt><trkpt lat="45.7941685" lon="11.5747152"><ele>734.0</ele><time>2026-04-29T14:04:51.185Z</time></trkpt><trkpt lat="45.794031" lon="11.5747612"><ele>737.5</ele><time>2026-04-29T14:04:52.185Z</time></trkpt><trkpt lat="45.7938986" lon="11.5748325"><ele>741.0</ele><time>2026-04-29T14:04:53.185Z</time></trkpt><trkpt lat="45.7937849" lon="11.5749326"><ele>744.5</ele><time>2026-04-29T14:04:54.185Z</time></trkpt><trkpt lat="45.7936908" lon="11.5750572"><ele>748.0</ele><time>2026-04-29T14:04:55.184Z</time></trkpt><trkpt lat="45.7936124" lon="11.5751875"><ele>748.0</ele><time>2026-04-29T14:04:56.185Z</time></trkpt><trkpt lat="45.7935299" lon="11.5753122"><ele>748.0</ele><time>2026-04-29T14:04:57.185Z</time></trkpt><trkpt lat="45.7934403" lon="11.5754233"><ele>748.0</ele><time>2026-04-29T14:04:58.185Z</time></trkpt><trkpt lat="45.7933396" lon="11.5755187"><ele>748.0</ele><time>2026-04-29T14:04:59.185Z</time></trkpt><trkpt lat="45.7932411" lon="11.5756012"><ele>750.5999999999999</ele><time>2026-04-29T14:05:00.184Z</time></trkpt><trkpt lat="45.7931512" lon="11.5756875"><ele>753.1999999999999</ele><time>2026-04-29T14:05:01.185Z</time></trkpt><trkpt lat="45.7930751" lon="11.5757905"><ele>755.8</ele><time>2026-04-29T14:05:02.185Z</time></trkpt><trkpt lat="45.7930053" lon="11.5758996"><ele>758.4</ele><time>2026-04-29T14:05:03.184Z</time></trkpt><trkpt lat="45.792945" lon="11.575988"><ele>761.0</ele><time>2026-04-29T14:05:04.184Z</time></trkpt><trkpt lat="45.7928867" lon="11.5760523"><ele>761.0</ele><time>2026-04-29T14:05:05.186Z</time></trkpt><trkpt lat="45.7927693" lon="11.5760771"><ele>761.0</ele><time>2026-04-29T14:05:07.186Z</time></trkpt><trkpt lat="45.7927002" lon="11.5760478"><ele>761.0</ele><time>2026-04-29T14:05:08.185Z</time></trkpt><trkpt lat="45.7926171" lon="11.5760102"><ele>761.0</ele><time>2026-04-29T14:05:09.186Z</time></trkpt><trkpt lat="45.7925189" lon="11.5759754"><ele>761.0</ele><time>2026-04-29T14:05:10.186Z</time></trkpt><trkpt lat="45.7924274" lon="11.5759293"><ele>761.1999999999999</ele><time>2026-04-29T14:05:11.186Z</time></trkpt><trkpt lat="45.792335" lon="11.575871"><ele>761.4</ele><time>2026-04-29T14:05:12.186Z</time></trkpt><trkpt lat="45.7922356" lon="11.5758262"><ele>761.6</ele><time>2026-04-29T14:05:13.186Z</time></trkpt><trkpt lat="45.7921299" lon="11.5757794"><ele>761.8</ele><time>2026-04-29T14:05:14.186Z</time></trkpt><trkpt lat="45.7920129" lon="11.5757191"><ele>762.0</ele><time>2026-04-29T14:05:15.186Z</time></trkpt><trkpt lat="45.7918942" lon="11.5756469"><ele>762.25</ele><time>2026-04-29T14:05:16.185Z</time></trkpt><trkpt lat="45.7917813" lon="11.5755652"><ele>762.5</ele><time>2026-04-29T14:05:17.186Z</time></trkpt><trkpt lat="45.7916885" lon="11.5754687"><ele>762.75</ele><time>2026-04-29T14:05:18.186Z</time></trkpt><trkpt lat="45.7916119" lon="11.5753583"><ele>763.0</ele><time>2026-04-29T14:05:19.186Z</time></trkpt><trkpt lat="45.7915423" lon="11.5752347"><ele>763.0</ele><time>2026-04-29T14:05:20.186Z</time></trkpt><trkpt lat="45.7914756" lon="11.5750903"><ele>763.0</ele><time>2026-04-29T14:05:21.186Z</time></trkpt><trkpt lat="45.7914038" lon="11.5749435"><ele>763.0</ele><time>2026-04-29T14:05:22.186Z</time></trkpt><trkpt lat="45.7913175" lon="11.5748225"><ele>763.0</ele><time>2026-04-29T14:05:23.185Z</time></trkpt><trkpt lat="45.7912137" lon="11.5747325"><ele>763.0</ele><time>2026-04-29T14:05:24.186Z</time></trkpt><trkpt lat="45.7910979" lon="11.5746657"><ele>763.0</ele><time>2026-04-29T14:05:25.185Z</time></trkpt><trkpt lat="45.7909825" lon="11.5745918"><ele>763.0</ele><time>2026-04-29T14:05:26.185Z</time></trkpt><trkpt lat="45.7908751" lon="11.5744934"><ele>763.0</ele><time>2026-04-29T14:05:27.186Z</time></trkpt><trkpt lat="45.7907712" lon="11.5743864"><ele>763.5</ele><time>2026-04-29T14:05:28.186Z</time></trkpt><trkpt lat="45.7906745" lon="11.5742706"><ele>764.0</ele><time>2026-04-29T14:05:29.186Z</time></trkpt><trkpt lat="45.7905775" lon="11.5741464"><ele>764.5</ele><time>2026-04-29T14:05:30.186Z</time></trkpt><trkpt lat="45.7904805" lon="11.5740214"><ele>765.0</ele><time>2026-04-29T14:05:31.186Z</time></trkpt><trkpt lat="45.7903805" lon="11.5739"><ele>765.0</ele><time>2026-04-29T14:05:32.185Z</time></trkpt><trkpt lat="45.7902818" lon="11.5737817"><ele>765.0</ele><time>2026-04-29T14:05:33.186Z</time></trkpt><trkpt lat="45.7901836" lon="11.5736638"><ele>765.0</ele><time>2026-04-29T14:05:34.186Z</time></trkpt><trkpt lat="45.7900871" lon="11.5735482"><ele>765.0</ele><time>2026-04-29T14:05:35.186Z</time></trkpt><trkpt lat="45.789988" lon="11.573438"><ele>764.0</ele><time>2026-04-29T14:05:36.186Z</time></trkpt><trkpt lat="45.7898802" lon="11.5733352"><ele>763.0</ele><time>2026-04-29T14:05:37.185Z</time></trkpt><trkpt lat="45.7897649" lon="11.5732529"><ele>762.0</ele><time>2026-04-29T14:05:38.186Z</time></trkpt><trkpt lat="45.7896445" lon="11.5731893"><ele>761.0</ele><time>2026-04-29T14:05:39.186Z</time></trkpt><trkpt lat="45.7895259" lon="11.5731521"><ele>761.0</ele><time>2026-04-29T14:05:40.186Z</time></trkpt><trkpt lat="45.7894108" lon="11.5731403"><ele>761.0</ele><time>2026-04-29T14:05:41.186Z</time></trkpt><trkpt lat="45.789294" lon="11.5731522"><ele>761.0</ele><time>2026-04-29T14:05:42.186Z</time></trkpt><trkpt lat="45.7891729" lon="11.5731817"><ele>761.0</ele><time>2026-04-29T14:05:43.186Z</time></trkpt><trkpt lat="45.789046" lon="11.5732268"><ele>758.75</ele><time>2026-04-29T14:05:44.186Z</time></trkpt><trkpt lat="45.7889182" lon="11.5733132"><ele>756.5</ele><time>2026-04-29T14:05:45.186Z</time></trkpt><trkpt lat="45.7888021" lon="11.573424"><ele>754.25</ele><time>2026-04-29T14:05:46.186Z</time></trkpt><trkpt lat="45.788682" lon="11.5735511"><ele>752.0</ele><time>2026-04-29T14:05:47.186Z</time></trkpt><trkpt lat="45.7885588" lon="11.5737122"><ele>747.0</ele><time>2026-04-29T14:05:48.186Z</time></trkpt><trkpt lat="45.7884406" lon="11.5739224"><ele>742.0</ele><time>2026-04-29T14:05:49.186Z</time></trkpt><trkpt lat="45.7883079" lon="11.5741436"><ele>737.0</ele><time>2026-04-29T14:05:50.185Z</time></trkpt><trkpt lat="45.7881667" lon="11.5743594"><ele>731.6666666666666</ele><time>2026-04-29T14:05:51.186Z</time></trkpt><trkpt lat="45.78804" lon="11.574602"><ele>726.3333333333334</ele><time>2026-04-29T14:05:52.186Z</time></trkpt><trkpt lat="45.7879172" lon="11.5747504"><ele>721.0</ele><time>2026-04-29T14:05:53.186Z</time></trkpt><trkpt lat="45.7878103" lon="11.5748457"><ele>721.0</ele><time>2026-04-29T14:05:54.186Z</time></trkpt><trkpt lat="45.7877059" lon="11.5749924"><ele>721.0</ele><time>2026-04-29T14:05:55.186Z</time></trkpt><trkpt lat="45.7876202" lon="11.5751602"><ele>721.0</ele><time>2026-04-29T14:05:56.186Z</time></trkpt><trkpt lat="45.7875581" lon="11.5753315"><ele>721.0</ele><time>2026-04-29T14:05:57.185Z</time></trkpt><trkpt lat="45.7875111" lon="11.5755451"><ele>722.0</ele><time>2026-04-29T14:05:58.185Z</time></trkpt><trkpt lat="45.7874714" lon="11.5757742"><ele>723.0</ele><time>2026-04-29T14:05:59.186Z</time></trkpt><trkpt lat="45.7874428" lon="11.5759832"><ele>724.0</ele><time>2026-04-29T14:06:00.187Z</time></trkpt><trkpt lat="45.7874401" lon="11.5761186"><ele>725.0</ele><time>2026-04-29T14:06:01.186Z</time></trkpt><trkpt lat="45.7874398" lon="11.5762657"><ele>725.0</ele><time>2026-04-29T14:06:02.187Z</time></trkpt><trkpt lat="45.7873621" lon="11.5763673"><ele>725.0</ele><time>2026-04-29T14:06:04.187Z</time></trkpt><trkpt lat="45.7873438" lon="11.5765517"><ele>725.0</ele><time>2026-04-29T14:06:05.187Z</time></trkpt><trkpt lat="45.787325" lon="11.5766871"><ele>725.0</ele><time>2026-04-29T14:06:06.187Z</time></trkpt><trkpt lat="45.7873469" lon="11.5768176"><ele>725.0</ele><time>2026-04-29T14:06:07.187Z</time></trkpt><trkpt lat="45.7873366" lon="11.576951"><ele>724.4</ele><time>2026-04-29T14:06:08.187Z</time></trkpt><trkpt lat="45.7873018" lon="11.577092"><ele>723.8</ele><time>2026-04-29T14:06:09.186Z</time></trkpt><trkpt lat="45.7872732" lon="11.5772447"><ele>723.2</ele><time>2026-04-29T14:06:10.187Z</time></trkpt><trkpt lat="45.7872639" lon="11.5773906"><ele>722.6</ele><time>2026-04-29T14:06:11.187Z</time></trkpt><trkpt lat="45.7872503" lon="11.5775546"><ele>722.0</ele><time>2026-04-29T14:06:12.186Z</time></trkpt><trkpt lat="45.787257" lon="11.5777167"><ele>722.0</ele><time>2026-04-29T14:06:13.186Z</time></trkpt><trkpt lat="45.7872542" lon="11.5778581"><ele>722.0</ele><time>2026-04-29T14:06:14.186Z</time></trkpt><trkpt lat="45.7872618" lon="11.5776072"><ele>722.0</ele><time>2026-04-29T14:06:15.186Z</time></trkpt><trkpt lat="45.7872747" lon="11.5777006"><ele>722.0</ele><time>2026-04-29T14:06:16.187Z</time></trkpt><trkpt lat="45.7872807" lon="11.5777925"><ele>722.0</ele><time>2026-04-29T14:06:17.187Z</time></trkpt><trkpt lat="45.7872666" lon="11.5778845"><ele>721.8333333333333</ele><time>2026-04-29T14:06:18.187Z</time></trkpt><trkpt lat="45.7872513" lon="11.5779785"><ele>721.6666666666666</ele><time>2026-04-29T14:06:19.187Z</time></trkpt><trkpt lat="45.7871811" lon="11.5781249"><ele>721.5</ele><time>2026-04-29T14:06:21.187Z</time></trkpt><trkpt lat="45.7871957" lon="11.5782428"><ele>721.3333333333334</ele><time>2026-04-29T14:06:22.187Z</time></trkpt><trkpt lat="45.7871362" lon="11.5783375"><ele>721.1666666666667</ele><time>2026-04-29T14:06:23.187Z</time></trkpt><trkpt lat="45.78709" lon="11.578425"><ele>721.0</ele><time>2026-04-29T14:06:24.187Z</time></trkpt><trkpt lat="45.7870237" lon="11.5784906"><ele>721.0</ele><time>2026-04-29T14:06:25.187Z</time></trkpt><trkpt lat="45.7869652" lon="11.5785443"><ele>721.0</ele><time>2026-04-29T14:06:26.186Z</time></trkpt><trkpt lat="45.7868869" lon="11.5786158"><ele>721.0</ele><time>2026-04-29T14:06:28.187Z</time></trkpt><trkpt lat="45.7868" lon="11.578577"><ele>721.0</ele><time>2026-04-29T14:06:31.186Z</time></trkpt><trkpt lat="45.7867418" lon="11.5785224"><ele>721.0</ele><time>2026-04-29T14:06:32.187Z</time></trkpt><trkpt lat="45.7866765" lon="11.5784676"><ele>721.0</ele><time>2026-04-29T14:06:33.187Z</time></trkpt><trkpt lat="45.7865946" lon="11.5783698"><ele>724.0</ele><time>2026-04-29T14:06:34.187Z</time></trkpt><trkpt lat="45.7865363" lon="11.5782695"><ele>727.0</ele><time>2026-04-29T14:06:35.187Z</time></trkpt><trkpt lat="45.7864781" lon="11.5781151"><ele>730.0</ele><time>2026-04-29T14:06:36.187Z</time></trkpt><trkpt lat="45.786423" lon="11.5779754"><ele>733.0</ele><time>2026-04-29T14:06:37.187Z</time></trkpt><trkpt lat="45.7863635" lon="11.5778092"><ele>736.0</ele><time>2026-04-29T14:06:38.186Z</time></trkpt><trkpt lat="45.786303" lon="11.5776237"><ele>739.0</ele><time>2026-04-29T14:06:39.187Z</time></trkpt><trkpt lat="45.7862333" lon="11.5774376"><ele>742.0</ele><time>2026-04-29T14:06:40.187Z</time></trkpt><trkpt lat="45.7861419" lon="11.5772974"><ele>745.0</ele><time>2026-04-29T14:06:41.187Z</time></trkpt><trkpt lat="45.7860776" lon="11.57711"><ele>747.0</ele><time>2026-04-29T14:06:42.187Z</time></trkpt><trkpt lat="45.7860344" lon="11.5769382"><ele>749.0</ele><time>2026-04-29T14:06:43.187Z</time></trkpt><trkpt lat="45.7860088" lon="11.57679"><ele>751.0</ele><time>2026-04-29T14:06:44.186Z</time></trkpt><trkpt lat="45.7859827" lon="11.5766539"><ele>753.0</ele><time>2026-04-29T14:06:45.187Z</time></trkpt><trkpt lat="45.7859418" lon="11.5764876"><ele>753.5999999999999</ele><time>2026-04-29T14:06:46.187Z</time></trkpt><trkpt lat="45.7859001" lon="11.5763347"><ele>754.1999999999999</ele><time>2026-04-29T14:06:47.187Z</time></trkpt><trkpt lat="45.7858606" lon="11.5761849"><ele>754.8</ele><time>2026-04-29T14:06:48.186Z</time></trkpt><trkpt lat="45.7858175" lon="11.5760425"><ele>755.4</ele><time>2026-04-29T14:06:49.186Z</time></trkpt><trkpt lat="45.7857666" lon="11.5759146"><ele>756.0</ele><time>2026-04-29T14:06:50.187Z</time></trkpt><trkpt lat="45.7857062" lon="11.575766"><ele>758.4</ele><time>2026-04-29T14:06:51.187Z</time></trkpt><trkpt lat="45.7856386" lon="11.5756333"><ele>760.8</ele><time>2026-04-29T14:06:52.187Z</time></trkpt><trkpt lat="45.7855813" lon="11.5755158"><ele>763.1999999999999</ele><time>2026-04-29T14:06:53.187Z</time></trkpt><trkpt lat="45.7855371" lon="11.5753995"><ele>765.5999999999999</ele><time>2026-04-29T14:06:54.188Z</time></trkpt><trkpt lat="45.7854947" lon="11.5752908"><ele>768.0</ele><time>2026-04-29T14:06:55.188Z</time></trkpt><trkpt lat="45.7854477" lon="11.5751848"><ele>771.0</ele><time>2026-04-29T14:06:56.187Z</time></trkpt><trkpt lat="45.7853923" lon="11.5750811"><ele>774.0</ele><time>2026-04-29T14:06:57.188Z</time></trkpt><trkpt lat="45.7853222" lon="11.5749681"><ele>777.0</ele><time>2026-04-29T14:06:58.188Z</time></trkpt><trkpt lat="45.7852621" lon="11.5748446"><ele>780.0</ele><time>2026-04-29T14:06:59.187Z</time></trkpt><trkpt lat="45.7852001" lon="11.5747076"><ele>783.0</ele><time>2026-04-29T14:07:00.188Z</time></trkpt><trkpt lat="45.7851411" lon="11.5745915"><ele>780.2</ele><time>2026-04-29T14:07:01.188Z</time></trkpt><trkpt lat="45.7850832" lon="11.5744776"><ele>777.4</ele><time>2026-04-29T14:07:02.188Z</time></trkpt><trkpt lat="45.7850135" lon="11.5743522"><ele>774.6</ele><time>2026-04-29T14:07:03.188Z</time></trkpt><trkpt lat="45.7849364" lon="11.5742358"><ele>771.8000000000001</ele><time>2026-04-29T14:07:04.188Z</time></trkpt><trkpt lat="45.7848636" lon="11.5741241"><ele>769.0</ele><time>2026-04-29T14:07:05.187Z</time></trkpt><trkpt lat="45.7847985" lon="11.5740135"><ele>769.0</ele><time>2026-04-29T14:07:06.188Z</time></trkpt><trkpt lat="45.7847287" lon="11.5739045"><ele>769.0</ele><time>2026-04-29T14:07:07.188Z</time></trkpt><trkpt lat="45.7846613" lon="11.5738001"><ele>769.0</ele><time>2026-04-29T14:07:08.187Z</time></trkpt><trkpt lat="45.7845953" lon="11.5736994"><ele>769.0</ele><time>2026-04-29T14:07:09.188Z</time></trkpt><trkpt lat="45.7838148" lon="11.5729753"><ele>771.6</ele><time>2026-04-29T14:07:10.188Z</time></trkpt><trkpt lat="45.783758" lon="11.5728623"><ele>774.2</ele><time>2026-04-29T14:07:11.187Z</time></trkpt><trkpt lat="45.7837004" lon="11.5727433"><ele>776.8000000000001</ele><time>2026-04-29T14:07:12.187Z</time></trkpt><trkpt lat="45.7836364" lon="11.5726255"><ele>779.4000000000001</ele><time>2026-04-29T14:07:13.187Z</time></trkpt><trkpt lat="45.78357" lon="11.5725159"><ele>782.0</ele><time>2026-04-29T14:07:14.188Z</time></trkpt><trkpt lat="45.7834984" lon="11.5724004"><ele>778.5</ele><time>2026-04-29T14:07:15.188Z</time></trkpt><trkpt lat="45.7834224" lon="11.5722743"><ele>775.0</ele><time>2026-04-29T14:07:16.188Z</time></trkpt><trkpt lat="45.7833457" lon="11.5721473"><ele>771.5</ele><time>2026-04-29T14:07:17.187Z</time></trkpt><trkpt lat="45.783266" lon="11.5720162"><ele>768.0</ele><time>2026-04-29T14:07:18.188Z</time></trkpt><trkpt lat="45.7831922" lon="11.5718743"><ele>768.0</ele><time>2026-04-29T14:07:19.188Z</time></trkpt><trkpt lat="45.7831227" lon="11.5717232"><ele>768.0</ele><time>2026-04-29T14:07:20.188Z</time></trkpt><trkpt lat="45.7830432" lon="11.5715742"><ele>768.0</ele><time>2026-04-29T14:07:21.187Z</time></trkpt><trkpt lat="45.782961" lon="11.5714356"><ele>768.0</ele><time>2026-04-29T14:07:22.187Z</time></trkpt><trkpt lat="45.7828849" lon="11.5712936"><ele>763.75</ele><time>2026-04-29T14:07:23.187Z</time></trkpt><trkpt lat="45.7828102" lon="11.5711543"><ele>759.5</ele><time>2026-04-29T14:07:24.188Z</time></trkpt><trkpt lat="45.7827284" lon="11.5710204"><ele>755.25</ele><time>2026-04-29T14:07:25.187Z</time></trkpt><trkpt lat="45.782628" lon="11.5709004"><ele>751.0</ele><time>2026-04-29T14:07:26.188Z</time></trkpt><trkpt lat="45.7825162" lon="11.5707954"><ele>751.0</ele><time>2026-04-29T14:07:27.188Z</time></trkpt><trkpt lat="45.7823973" lon="11.5706867"><ele>751.0</ele><time>2026-04-29T14:07:28.188Z</time></trkpt><trkpt lat="45.7822738" lon="11.570575"><ele>751.0</ele><time>2026-04-29T14:07:29.187Z</time></trkpt><trkpt lat="45.7821467" lon="11.5704731"><ele>751.0</ele><time>2026-04-29T14:07:30.187Z</time></trkpt><trkpt lat="45.7820116" lon="11.5703915"><ele>752.5</ele><time>2026-04-29T14:07:31.188Z</time></trkpt><trkpt lat="45.7818711" lon="11.5703248"><ele>754.0</ele><time>2026-04-29T14:07:32.187Z</time></trkpt><trkpt lat="45.7817257" lon="11.5702728"><ele>755.5</ele><time>2026-04-29T14:07:33.188Z</time></trkpt><trkpt lat="45.7815841" lon="11.5702087"><ele>757.0</ele><time>2026-04-29T14:07:34.188Z</time></trkpt><trkpt lat="45.7814556" lon="11.5701446"><ele>757.0</ele><time>2026-04-29T14:07:35.188Z</time></trkpt><trkpt lat="45.781327" lon="11.570077"><ele>757.0</ele><time>2026-04-29T14:07:36.187Z</time></trkpt><trkpt lat="45.7811965" lon="11.5700036"><ele>757.0</ele><time>2026-04-29T14:07:37.188Z</time></trkpt><trkpt lat="45.7810668" lon="11.5699283"><ele>757.0</ele><time>2026-04-29T14:07:38.188Z</time></trkpt><trkpt lat="45.7809339" lon="11.5698497"><ele>751.5</ele><time>2026-04-29T14:07:39.187Z</time></trkpt><trkpt lat="45.7808052" lon="11.5697832"><ele>746.0</ele><time>2026-04-29T14:07:40.188Z</time></trkpt><trkpt lat="45.7806764" lon="11.569724"><ele>740.5</ele><time>2026-04-29T14:07:41.188Z</time></trkpt><trkpt lat="45.7805412" lon="11.5696675"><ele>735.0</ele><time>2026-04-29T14:07:42.188Z</time></trkpt><trkpt lat="45.7804119" lon="11.5696081"><ele>735.0</ele><time>2026-04-29T14:07:43.188Z</time></trkpt><trkpt lat="45.780288" lon="11.5695597"><ele>735.0</ele><time>2026-04-29T14:07:44.187Z</time></trkpt><trkpt lat="45.7801707" lon="11.5695297"><ele>735.0</ele><time>2026-04-29T14:07:45.188Z</time></trkpt><trkpt lat="45.7800554" lon="11.5695179"><ele>735.0</ele><time>2026-04-29T14:07:46.187Z</time></trkpt><trkpt lat="45.7799258" lon="11.5695554"><ele>731.0</ele><time>2026-04-29T14:07:47.188Z</time></trkpt><trkpt lat="45.7798001" lon="11.5696072"><ele>727.0</ele><time>2026-04-29T14:07:48.188Z</time></trkpt><trkpt lat="45.7796831" lon="11.5696759"><ele>723.0</ele><time>2026-04-29T14:07:49.189Z</time></trkpt><trkpt lat="45.7795707" lon="11.5697601"><ele>719.0</ele><time>2026-04-29T14:07:50.189Z</time></trkpt><trkpt lat="45.7794692" lon="11.5698535"><ele>719.0</ele><time>2026-04-29T14:07:51.189Z</time></trkpt><trkpt lat="45.7793784" lon="11.5699398"><ele>719.0</ele><time>2026-04-29T14:07:52.189Z</time></trkpt><trkpt lat="45.7792806" lon="11.5700176"><ele>719.0</ele><time>2026-04-29T14:07:53.189Z</time></trkpt><trkpt lat="45.77918" lon="11.5700907"><ele>719.0</ele><time>2026-04-29T14:07:54.189Z</time></trkpt><trkpt lat="45.779075" lon="11.5701388"><ele>719.0</ele><time>2026-04-29T14:07:55.189Z</time></trkpt><trkpt lat="45.7789606" lon="11.5701522"><ele>723.0</ele><time>2026-04-29T14:07:56.188Z</time></trkpt><trkpt lat="45.7788418" lon="11.5701582"><ele>727.0</ele><time>2026-04-29T14:07:57.189Z</time></trkpt><trkpt lat="45.7787159" lon="11.570157"><ele>731.0</ele><time>2026-04-29T14:07:58.189Z</time></trkpt><trkpt lat="45.7785905" lon="11.570176"><ele>735.0</ele><time>2026-04-29T14:07:59.189Z</time></trkpt><trkpt lat="45.7784561" lon="11.5702086"><ele>736.25</ele><time>2026-04-29T14:08:00.188Z</time></trkpt><trkpt lat="45.7783213" lon="11.5702399"><ele>737.5</ele><time>2026-04-29T14:08:01.188Z</time></trkpt><trkpt lat="45.7781942" lon="11.570275"><ele>738.75</ele><time>2026-04-29T14:08:02.189Z</time></trkpt><trkpt lat="45.7780748" lon="11.5703242"><ele>740.0</ele><time>2026-04-29T14:08:03.189Z</time></trkpt><trkpt lat="45.777966" lon="11.5703836"><ele>733.8</ele><time>2026-04-29T14:08:04.189Z</time></trkpt><trkpt lat="45.7778698" lon="11.5704486"><ele>727.6</ele><time>2026-04-29T14:08:05.189Z</time></trkpt><trkpt lat="45.7777682" lon="11.5705111"><ele>721.4000000000001</ele><time>2026-04-29T14:08:06.189Z</time></trkpt><trkpt lat="45.7776603" lon="11.570562"><ele>715.2</ele><time>2026-04-29T14:08:07.188Z</time></trkpt><trkpt lat="45.777563" lon="11.5705614"><ele>709.0</ele><time>2026-04-29T14:08:08.189Z</time></trkpt><trkpt lat="45.7774796" lon="11.5705044"><ele>709.0</ele><time>2026-04-29T14:08:09.189Z</time></trkpt><trkpt lat="45.777396" lon="11.5704568"><ele>709.0</ele><time>2026-04-29T14:08:10.189Z</time></trkpt><trkpt lat="45.7772957" lon="11.570386"><ele>709.0</ele><time>2026-04-29T14:08:11.188Z</time></trkpt><trkpt lat="45.777182" lon="11.5703293"><ele>709.0</ele><time>2026-04-29T14:08:12.188Z</time></trkpt><trkpt lat="45.7770651" lon="11.5702879"><ele>709.0</ele><time>2026-04-29T14:08:13.189Z</time></trkpt><trkpt lat="45.7769538" lon="11.5702226"><ele>712.5</ele><time>2026-04-29T14:08:14.189Z</time></trkpt><trkpt lat="45.7768358" lon="11.5701527"><ele>716.0</ele><time>2026-04-29T14:08:15.188Z</time></trkpt><trkpt lat="45.7767135" lon="11.5700681"><ele>719.5</ele><time>2026-04-29T14:08:16.189Z</time></trkpt><trkpt lat="45.7765935" lon="11.5699793"><ele>723.0</ele><time>2026-04-29T14:08:17.189Z</time></trkpt><trkpt lat="45.7764815" lon="11.5698928"><ele>723.0</ele><time>2026-04-29T14:08:18.188Z</time></trkpt><trkpt lat="45.7763742" lon="11.5698088"><ele>723.0</ele><time>2026-04-29T14:08:19.189Z</time></trkpt><trkpt lat="45.7762716" lon="11.5697289"><ele>723.0</ele><time>2026-04-29T14:08:20.188Z</time></trkpt><trkpt lat="45.776171" lon="11.5696522"><ele>723.0</ele><time>2026-04-29T14:08:21.189Z</time></trkpt><trkpt lat="45.7760761" lon="11.5695798"><ele>722.4</ele><time>2026-04-29T14:08:22.189Z</time></trkpt><trkpt lat="45.775983" lon="11.5695115"><ele>721.8</ele><time>2026-04-29T14:08:23.189Z</time></trkpt><trkpt lat="45.7758969" lon="11.5694437"><ele>721.2</ele><time>2026-04-29T14:08:24.189Z</time></trkpt><trkpt lat="45.7758131" lon="11.5693772"><ele>720.6</ele><time>2026-04-29T14:08:25.189Z</time></trkpt><trkpt lat="45.7757331" lon="11.569306"><ele>720.0</ele><time>2026-04-29T14:08:26.189Z</time></trkpt><trkpt lat="45.7756536" lon="11.5692303"><ele>720.0</ele><time>2026-04-29T14:08:27.189Z</time></trkpt><trkpt lat="45.7755697" lon="11.5691406"><ele>720.0</ele><time>2026-04-29T14:08:28.189Z</time></trkpt><trkpt lat="45.7754837" lon="11.5690279"><ele>720.0</ele><time>2026-04-29T14:08:29.188Z</time></trkpt><trkpt lat="45.775404" lon="11.5688923"><ele>720.0</ele><time>2026-04-29T14:08:30.188Z</time></trkpt><trkpt lat="45.7753283" lon="11.5687423"><ele>719.75</ele><time>2026-04-29T14:08:31.189Z</time></trkpt><trkpt lat="45.7752558" lon="11.5685878"><ele>719.5</ele><time>2026-04-29T14:08:32.188Z</time></trkpt><trkpt lat="45.7751878" lon="11.5684388"><ele>719.25</ele><time>2026-04-29T14:08:33.189Z</time></trkpt><trkpt lat="45.7751232" lon="11.5682947"><ele>719.0</ele><time>2026-04-29T14:08:34.189Z</time></trkpt><trkpt lat="45.7750652" lon="11.5681678"><ele>716.9999999999999</ele><time>2026-04-29T14:08:35.189Z</time></trkpt><trkpt lat="45.7750177" lon="11.5680597"><ele>715.0</ele><time>2026-04-29T14:08:36.189Z</time></trkpt><trkpt lat="45.7749783" lon="11.5679802"><ele>713.0</ele><time>2026-04-29T14:08:37.189Z</time></trkpt><trkpt lat="45.7749361" lon="11.5679131"><ele>711.0</ele><time>2026-04-29T14:08:38.189Z</time></trkpt><trkpt lat="45.774877" lon="11.5678578"><ele>709.0</ele><time>2026-04-29T14:08:39.188Z</time></trkpt><trkpt lat="45.7748116" lon="11.5678074"><ele>706.9999999999999</ele><time>2026-04-29T14:08:40.188Z</time></trkpt><trkpt lat="45.7747448" lon="11.5677499"><ele>705.0</ele><time>2026-04-29T14:08:41.189Z</time></trkpt><trkpt lat="45.774677" lon="11.5676803"><ele>705.0</ele><time>2026-04-29T14:08:42.189Z</time></trkpt><trkpt lat="45.7746105" lon="11.5675767"><ele>705.0</ele><time>2026-04-29T14:08:43.19Z</time></trkpt><trkpt lat="45.7745589" lon="11.5674427"><ele>705.0</ele><time>2026-04-29T14:08:44.189Z</time></trkpt><trkpt lat="45.7745389" lon="11.5672902"><ele>705.0</ele><time>2026-04-29T14:08:45.19Z</time></trkpt><trkpt lat="45.7745389" lon="11.5671365"><ele>705.0</ele><time>2026-04-29T14:08:46.19Z</time></trkpt><trkpt lat="45.7745476" lon="11.5669996"><ele>704.0</ele><time>2026-04-29T14:08:47.19Z</time></trkpt><trkpt lat="45.7745567" lon="11.5668843"><ele>703.0</ele><time>2026-04-29T14:08:48.189Z</time></trkpt><trkpt lat="45.7745537" lon="11.566779"><ele>702.0</ele><time>2026-04-29T14:08:49.19Z</time></trkpt><trkpt lat="45.7745476" lon="11.5666825"><ele>701.0</ele><time>2026-04-29T14:08:50.19Z</time></trkpt><trkpt lat="45.7745243" lon="11.5665949"><ele>700.0</ele><time>2026-04-29T14:08:51.19Z</time></trkpt><trkpt lat="45.7744813" lon="11.5665269"><ele>699.0</ele><time>2026-04-29T14:08:52.189Z</time></trkpt><trkpt lat="45.774376" lon="11.5665002"><ele>697.3333333333334</ele><time>2026-04-29T14:08:54.19Z</time></trkpt><trkpt lat="45.7743214" lon="11.5665641"><ele>695.6666666666666</ele><time>2026-04-29T14:08:55.19Z</time></trkpt><trkpt lat="45.7742905" lon="11.5666686"><ele>694.0</ele><time>2026-04-29T14:08:56.19Z</time></trkpt><trkpt lat="45.7742825" lon="11.5668002"><ele>692.3333333333333</ele><time>2026-04-29T14:08:57.19Z</time></trkpt><trkpt lat="45.7742786" lon="11.5669451"><ele>690.6666666666666</ele><time>2026-04-29T14:08:58.19Z</time></trkpt><trkpt lat="45.7742746" lon="11.5670928"><ele>689.0</ele><time>2026-04-29T14:08:59.19Z</time></trkpt><trkpt lat="45.7742715" lon="11.5672328"><ele>689.0</ele><time>2026-04-29T14:09:00.19Z</time></trkpt><trkpt lat="45.7742841" lon="11.5673477"><ele>689.0</ele><time>2026-04-29T14:09:01.189Z</time></trkpt><trkpt lat="45.7742875" lon="11.5674612"><ele>689.0</ele><time>2026-04-29T14:09:02.19Z</time></trkpt><trkpt lat="45.7743035" lon="11.5675885"><ele>689.0</ele><time>2026-04-29T14:09:03.189Z</time></trkpt><trkpt lat="45.7743145" lon="11.5677041"><ele>689.0</ele><time>2026-04-29T14:09:04.189Z</time></trkpt><trkpt lat="45.7743343" lon="11.5678279"><ele>689.0</ele><time>2026-04-29T14:09:05.19Z</time></trkpt><trkpt lat="45.7743584" lon="11.5679539"><ele>691.8000000000001</ele><time>2026-04-29T14:09:06.19Z</time></trkpt><trkpt lat="45.7743855" lon="11.5680755"><ele>694.6</ele><time>2026-04-29T14:09:07.19Z</time></trkpt><trkpt lat="45.7744147" lon="11.5681953"><ele>697.4</ele><time>2026-04-29T14:09:08.19Z</time></trkpt><trkpt lat="45.7744474" lon="11.5683208"><ele>700.2</ele><time>2026-04-29T14:09:09.189Z</time></trkpt><trkpt lat="45.7744877" lon="11.5684395"><ele>703.0</ele><time>2026-04-29T14:09:10.189Z</time></trkpt><trkpt lat="45.7745186" lon="11.5685809"><ele>701.8</ele><time>2026-04-29T14:09:11.189Z</time></trkpt><trkpt lat="45.7745542" lon="11.568722"><ele>700.5999999999999</ele><time>2026-04-29T14:09:12.19Z</time></trkpt><trkpt lat="45.7745742" lon="11.5688691"><ele>699.4000000000001</ele><time>2026-04-29T14:09:13.19Z</time></trkpt><trkpt lat="45.7745832" lon="11.5690107"><ele>698.2</ele><time>2026-04-29T14:09:14.19Z</time></trkpt><trkpt lat="45.7745889" lon="11.569145"><ele>697.0</ele><time>2026-04-29T14:09:15.19Z</time></trkpt><trkpt lat="45.7745939" lon="11.5692555"><ele>697.0</ele><time>2026-04-29T14:09:16.19Z</time></trkpt><trkpt lat="45.7746062" lon="11.5693555"><ele>697.0</ele><time>2026-04-29T14:09:17.19Z</time></trkpt><trkpt lat="45.7746128" lon="11.569452"><ele>697.0</ele><time>2026-04-29T14:09:18.19Z</time></trkpt><trkpt lat="45.7746201" lon="11.5695429"><ele>697.0</ele><time>2026-04-29T14:09:19.19Z</time></trkpt><trkpt lat="45.7746099" lon="11.5696895"><ele>697.0</ele><time>2026-04-29T14:09:21.19Z</time></trkpt><trkpt lat="45.7745263" lon="11.5696991"><ele>697.0</ele><time>2026-04-29T14:09:23.19Z</time></trkpt><trkpt lat="45.7744511" lon="11.5695429"><ele>697.0</ele><time>2026-04-29T14:09:25.189Z</time></trkpt><trkpt lat="45.7744172" lon="11.5694156"><ele>697.0</ele><time>2026-04-29T14:09:26.19Z</time></trkpt><trkpt lat="45.774376" lon="11.5692747"><ele>697.0</ele><time>2026-04-29T14:09:27.19Z</time></trkpt><trkpt lat="45.7743193" lon="11.569135"><ele>697.0</ele><time>2026-04-29T14:09:28.19Z</time></trkpt><trkpt lat="45.7742431" lon="11.5689947"><ele>697.0</ele><time>2026-04-29T14:09:29.189Z</time></trkpt><trkpt lat="45.7741631" lon="11.5688618"><ele>694.4000000000001</ele><time>2026-04-29T14:09:30.19Z</time></trkpt><trkpt lat="45.7740834" lon="11.5687371"><ele>691.8000000000001</ele><time>2026-04-29T14:09:31.19Z</time></trkpt><trkpt lat="45.7740026" lon="11.5686302"><ele>689.2</ele><time>2026-04-29T14:09:32.19Z</time></trkpt><trkpt lat="45.7739151" lon="11.5685375"><ele>686.6</ele><time>2026-04-29T14:09:33.19Z</time></trkpt><trkpt lat="45.7738143" lon="11.568486"><ele>684.0</ele><time>2026-04-29T14:09:34.19Z</time></trkpt><trkpt lat="45.7737158" lon="11.5684531"><ele>684.0</ele><time>2026-04-29T14:09:35.19Z</time></trkpt><trkpt lat="45.7736212" lon="11.568415"><ele>684.0</ele><time>2026-04-29T14:09:36.191Z</time></trkpt><trkpt lat="45.7735299" lon="11.5683686"><ele>684.0</ele><time>2026-04-29T14:09:37.191Z</time></trkpt><trkpt lat="45.7734386" lon="11.5683167"><ele>684.0</ele><time>2026-04-29T14:09:38.19Z</time></trkpt><trkpt lat="45.7733485" lon="11.5682459"><ele>684.0</ele><time>2026-04-29T14:09:39.191Z</time></trkpt><trkpt lat="45.7732648" lon="11.5681533"><ele>679.5</ele><time>2026-04-29T14:09:40.19Z</time></trkpt><trkpt lat="45.7731991" lon="11.5680306"><ele>675.0</ele><time>2026-04-29T14:09:41.191Z</time></trkpt><trkpt lat="45.7731436" lon="11.5678879"><ele>670.5</ele><time>2026-04-29T14:09:42.191Z</time></trkpt><trkpt lat="45.7730947" lon="11.5677215"><ele>666.0</ele><time>2026-04-29T14:09:43.191Z</time></trkpt><trkpt lat="45.773063" lon="11.5675547"><ele>666.0</ele><time>2026-04-29T14:09:44.191Z</time></trkpt><trkpt lat="45.7730378" lon="11.567389"><ele>666.0</ele><time>2026-04-29T14:09:45.191Z</time></trkpt><trkpt lat="45.773018" lon="11.5672409"><ele>666.0</ele><time>2026-04-29T14:09:46.19Z</time></trkpt><trkpt lat="45.7730013" lon="11.5671005"><ele>666.0</ele><time>2026-04-29T14:09:47.191Z</time></trkpt><trkpt lat="45.7729815" lon="11.5669627"><ele>666.0</ele><time>2026-04-29T14:09:48.191Z</time></trkpt><trkpt lat="45.7729619" lon="11.5668241"><ele>667.75</ele><time>2026-04-29T14:09:49.191Z</time></trkpt><trkpt lat="45.7729319" lon="11.5666799"><ele>669.5</ele><time>2026-04-29T14:09:50.191Z</time></trkpt><trkpt lat="45.7728859" lon="11.566535"><ele>671.25</ele><time>2026-04-29T14:09:51.191Z</time></trkpt><trkpt lat="45.7728184" lon="11.5663966"><ele>673.0</ele><time>2026-04-29T14:09:52.191Z</time></trkpt><trkpt lat="45.7727405" lon="11.5662637"><ele>670.0</ele><time>2026-04-29T14:09:53.19Z</time></trkpt><trkpt lat="45.7726641" lon="11.5661342"><ele>667.0</ele><time>2026-04-29T14:09:54.191Z</time></trkpt><trkpt lat="45.7725948" lon="11.5660011"><ele>664.0</ele><time>2026-04-29T14:09:55.191Z</time></trkpt><trkpt lat="45.7725284" lon="11.5658667"><ele>661.0</ele><time>2026-04-29T14:09:56.19Z</time></trkpt><trkpt lat="45.7724625" lon="11.5657428"><ele>661.0</ele><time>2026-04-29T14:09:57.19Z</time></trkpt><trkpt lat="45.7723998" lon="11.565619"><ele>661.0</ele><time>2026-04-29T14:09:58.19Z</time></trkpt><trkpt lat="45.7723423" lon="11.565494"><ele>661.0</ele><time>2026-04-29T14:09:59.191Z</time></trkpt><trkpt lat="45.7722923" lon="11.5653887"><ele>661.0</ele><time>2026-04-29T14:10:00.191Z</time></trkpt><trkpt lat="45.7722558" lon="11.5652869"><ele>661.0</ele><time>2026-04-29T14:10:01.191Z</time></trkpt><trkpt lat="45.7722398" lon="11.5651836"><ele>660.8</ele><time>2026-04-29T14:10:02.191Z</time></trkpt><trkpt lat="45.7722478" lon="11.5650684"><ele>660.5999999999999</ele><time>2026-04-29T14:10:03.191Z</time></trkpt><trkpt lat="45.772275" lon="11.5649488"><ele>660.4</ele><time>2026-04-29T14:10:04.193Z</time></trkpt><trkpt lat="45.7723132" lon="11.5648294"><ele>660.2</ele><time>2026-04-29T14:10:05.19Z</time></trkpt><trkpt lat="45.7723615" lon="11.5647064"><ele>660.0</ele><time>2026-04-29T14:10:06.191Z</time></trkpt><trkpt lat="45.7724216" lon="11.5645801"><ele>658.2</ele><time>2026-04-29T14:10:07.191Z</time></trkpt><trkpt lat="45.7724865" lon="11.5644603"><ele>656.4</ele><time>2026-04-29T14:10:08.191Z</time></trkpt><trkpt lat="45.7725469" lon="11.5643402"><ele>654.5999999999999</ele><time>2026-04-29T14:10:09.191Z</time></trkpt><trkpt lat="45.7726008" lon="11.5642123"><ele>652.8</ele><time>2026-04-29T14:10:10.191Z</time></trkpt><trkpt lat="45.7726408" lon="11.5640727"><ele>651.0</ele><time>2026-04-29T14:10:11.191Z</time></trkpt><trkpt lat="45.7726777" lon="11.5639307"><ele>651.1999999999999</ele><time>2026-04-29T14:10:12.191Z</time></trkpt><trkpt lat="45.772717" lon="11.5637868"><ele>651.4</ele><time>2026-04-29T14:10:13.191Z</time></trkpt><trkpt lat="45.7727664" lon="11.5636416"><ele>651.6</ele><time>2026-04-29T14:10:14.191Z</time></trkpt><trkpt lat="45.7728159" lon="11.5635135"><ele>651.8</ele><time>2026-04-29T14:10:15.191Z</time></trkpt><trkpt lat="45.7728695" lon="11.5634022"><ele>652.0</ele><time>2026-04-29T14:10:16.191Z</time></trkpt><trkpt lat="45.7729167" lon="11.5632922"><ele>652.0</ele><time>2026-04-29T14:10:17.191Z</time></trkpt><trkpt lat="45.7729637" lon="11.5631836"><ele>652.0</ele><time>2026-04-29T14:10:18.191Z</time></trkpt><trkpt lat="45.7729987" lon="11.5630694"><ele>652.0</ele><time>2026-04-29T14:10:19.191Z</time></trkpt><trkpt lat="45.7730304" lon="11.5629498"><ele>652.0</ele><time>2026-04-29T14:10:20.19Z</time></trkpt><trkpt lat="45.7730521" lon="11.5628337"><ele>652.0</ele><time>2026-04-29T14:10:21.19Z</time></trkpt><trkpt lat="45.7730661" lon="11.5627164"><ele>652.0</ele><time>2026-04-29T14:10:22.191Z</time></trkpt><trkpt lat="45.7730787" lon="11.5625975"><ele>650.3333333333334</ele><time>2026-04-29T14:10:23.191Z</time></trkpt><trkpt lat="45.7730949" lon="11.5624798"><ele>648.6666666666667</ele><time>2026-04-29T14:10:24.191Z</time></trkpt><trkpt lat="45.7731175" lon="11.5623604"><ele>647.0</ele><time>2026-04-29T14:10:25.191Z</time></trkpt><trkpt lat="45.7731542" lon="11.5622391"><ele>645.3333333333334</ele><time>2026-04-29T14:10:26.191Z</time></trkpt><trkpt lat="45.7732094" lon="11.5621446"><ele>643.6666666666666</ele><time>2026-04-29T14:10:27.191Z</time></trkpt><trkpt lat="45.7732886" lon="11.5620747"><ele>642.0</ele><time>2026-04-29T14:10:28.191Z</time></trkpt><trkpt lat="45.773379" lon="11.5620208"><ele>640.2</ele><time>2026-04-29T14:10:29.192Z</time></trkpt><trkpt lat="45.77347" lon="11.5619755"><ele>638.4000000000001</ele><time>2026-04-29T14:10:30.192Z</time></trkpt><trkpt lat="45.7735555" lon="11.5619474"><ele>636.5999999999999</ele><time>2026-04-29T14:10:31.192Z</time></trkpt><trkpt lat="45.7736337" lon="11.5619199"><ele>634.8</ele><time>2026-04-29T14:10:32.192Z</time></trkpt><trkpt lat="45.7736955" lon="11.5618845"><ele>633.0</ele><time>2026-04-29T14:10:33.192Z</time></trkpt><trkpt lat="45.7738252" lon="11.5618782"><ele>632.3333333333334</ele><time>2026-04-29T14:10:35.191Z</time></trkpt><trkpt lat="45.7738915" lon="11.561925"><ele>631.6666666666666</ele><time>2026-04-29T14:10:36.192Z</time></trkpt><trkpt lat="45.7739626" lon="11.5620173"><ele>631.0</ele><time>2026-04-29T14:10:37.191Z</time></trkpt><trkpt lat="45.7740258" lon="11.5621295"><ele>630.3333333333333</ele><time>2026-04-29T14:10:38.192Z</time></trkpt><trkpt lat="45.7740828" lon="11.5622313"><ele>629.6666666666666</ele><time>2026-04-29T14:10:39.192Z</time></trkpt><trkpt lat="45.7741343" lon="11.5623253"><ele>629.0</ele><time>2026-04-29T14:10:40.191Z</time></trkpt><trkpt lat="45.7741859" lon="11.5624069"><ele>629.6666666666666</ele><time>2026-04-29T14:10:41.192Z</time></trkpt><trkpt lat="45.7742408" lon="11.562489"><ele>630.3333333333333</ele><time>2026-04-29T14:10:42.191Z</time></trkpt><trkpt lat="45.7742973" lon="11.5625655"><ele>631.0</ele><time>2026-04-29T14:10:43.192Z</time></trkpt><trkpt lat="45.774363" lon="11.562625"><ele>631.6666666666666</ele><time>2026-04-29T14:10:44.192Z</time></trkpt><trkpt lat="45.7744337" lon="11.5626826"><ele>632.3333333333334</ele><time>2026-04-29T14:10:45.192Z</time></trkpt><trkpt lat="45.7745093" lon="11.5627292"><ele>633.0</ele><time>2026-04-29T14:10:46.192Z</time></trkpt><trkpt lat="45.7745908" lon="11.5627643"><ele>633.0</ele><time>2026-04-29T14:10:47.192Z</time></trkpt><trkpt lat="45.7746747" lon="11.5627876"><ele>633.0</ele><time>2026-04-29T14:10:48.192Z</time></trkpt><trkpt lat="45.7747621" lon="11.5628075"><ele>633.0</ele><time>2026-04-29T14:10:49.192Z</time></trkpt><trkpt lat="45.7748574" lon="11.5627932"><ele>633.0</ele><time>2026-04-29T14:10:50.192Z</time></trkpt><trkpt lat="45.7749565" lon="11.562739"><ele>633.0</ele><time>2026-04-29T14:10:51.192Z</time></trkpt><trkpt lat="45.7750271" lon="11.5626553"><ele>633.0</ele><time>2026-04-29T14:10:52.192Z</time></trkpt><trkpt lat="45.7750966" lon="11.5625669"><ele>633.0</ele><time>2026-04-29T14:10:53.192Z</time></trkpt><trkpt lat="45.7751505" lon="11.5624755"><ele>633.0</ele><time>2026-04-29T14:10:54.191Z</time></trkpt><trkpt lat="45.7752146" lon="11.562385"><ele>633.0</ele><time>2026-04-29T14:10:55.192Z</time></trkpt><trkpt lat="45.7752966" lon="11.5623104"><ele>633.0</ele><time>2026-04-29T14:10:56.191Z</time></trkpt><trkpt lat="45.775377" lon="11.562226"><ele>634.0</ele><time>2026-04-29T14:10:57.192Z</time></trkpt><trkpt lat="45.7754599" lon="11.562152"><ele>635.0</ele><time>2026-04-29T14:10:58.192Z</time></trkpt><trkpt lat="45.7755391" lon="11.5620706"><ele>636.0</ele><time>2026-04-29T14:10:59.192Z</time></trkpt><trkpt lat="45.7756166" lon="11.5619879"><ele>637.0</ele><time>2026-04-29T14:11:00.192Z</time></trkpt><trkpt lat="45.7756908" lon="11.5619043"><ele>638.0</ele><time>2026-04-29T14:11:01.192Z</time></trkpt><trkpt lat="45.7757644" lon="11.5618235"><ele>634.8333333333333</ele><time>2026-04-29T14:11:02.192Z</time></trkpt><trkpt lat="45.775836" lon="11.5617402"><ele>631.6666666666666</ele><time>2026-04-29T14:11:03.192Z</time></trkpt><trkpt lat="45.7759057" lon="11.5616538"><ele>628.5</ele><time>2026-04-29T14:11:04.192Z</time></trkpt><trkpt lat="45.7759666" lon="11.5615628"><ele>625.3333333333334</ele><time>2026-04-29T14:11:05.192Z</time></trkpt><trkpt lat="45.7760162" lon="11.5614673"><ele>622.1666666666667</ele><time>2026-04-29T14:11:06.191Z</time></trkpt><trkpt lat="45.7760602" lon="11.5613855"><ele>619.0</ele><time>2026-04-29T14:11:07.192Z</time></trkpt><trkpt lat="45.7761375" lon="11.5612631"><ele>615.5</ele><time>2026-04-29T14:11:09.191Z</time></trkpt><trkpt lat="45.7762353" lon="11.5612694"><ele>612.0</ele><time>2026-04-29T14:11:11.191Z</time></trkpt><trkpt lat="45.7762703" lon="11.561345"><ele>608.5</ele><time>2026-04-29T14:11:12.192Z</time></trkpt><trkpt lat="45.7762947" lon="11.5614538"><ele>605.0</ele><time>2026-04-29T14:11:13.192Z</time></trkpt><trkpt lat="45.7763244" lon="11.5615867"><ele>601.5</ele><time>2026-04-29T14:11:14.192Z</time></trkpt><trkpt lat="45.7763567" lon="11.5617342"><ele>598.0</ele><time>2026-04-29T14:11:15.192Z</time></trkpt><trkpt lat="45.776391" lon="11.5618898"><ele>601.4</ele><time>2026-04-29T14:11:16.192Z</time></trkpt><trkpt lat="45.7764272" lon="11.5620459"><ele>604.8</ele><time>2026-04-29T14:11:17.192Z</time></trkpt><trkpt lat="45.7764659" lon="11.5621985"><ele>608.2</ele><time>2026-04-29T14:11:18.192Z</time></trkpt><trkpt lat="45.7765066" lon="11.5622909"><ele>611.6</ele><time>2026-04-29T14:11:19.192Z</time></trkpt><trkpt lat="45.7765445" lon="11.5624162"><ele>615.0</ele><time>2026-04-29T14:11:20.192Z</time></trkpt><trkpt lat="45.7765871" lon="11.5625421"><ele>615.0</ele><time>2026-04-29T14:11:21.192Z</time></trkpt><trkpt lat="45.776635" lon="11.5626742"><ele>615.0</ele><time>2026-04-29T14:11:22.192Z</time></trkpt><trkpt lat="45.7766918" lon="11.5628049"><ele>615.0</ele><time>2026-04-29T14:11:23.193Z</time></trkpt><trkpt lat="45.7767624" lon="11.5629382"><ele>615.0</ele><time>2026-04-29T14:11:24.193Z</time></trkpt><trkpt lat="45.7768353" lon="11.5630722"><ele>615.0</ele><time>2026-04-29T14:11:25.193Z</time></trkpt><trkpt lat="45.7769172" lon="11.5632052"><ele>610.5</ele><time>2026-04-29T14:11:26.193Z</time></trkpt><trkpt lat="45.7770053" lon="11.5633362"><ele>606.0</ele><time>2026-04-29T14:11:27.192Z</time></trkpt><trkpt lat="45.7770973" lon="11.5634608"><ele>601.5</ele><time>2026-04-29T14:11:28.192Z</time></trkpt><trkpt lat="45.7771893" lon="11.563576"><ele>597.0</ele><time>2026-04-29T14:11:29.193Z</time></trkpt><trkpt lat="45.7772757" lon="11.5636841"><ele>603.8000000000001</ele><time>2026-04-29T14:11:30.193Z</time></trkpt><trkpt lat="45.7773548" lon="11.5637859"><ele>610.6</ele><time>2026-04-29T14:11:31.193Z</time></trkpt><trkpt lat="45.7774215" lon="11.5638967"><ele>617.4000000000001</ele><time>2026-04-29T14:11:32.193Z</time></trkpt><trkpt lat="45.777476" lon="11.5640048"><ele>624.2</ele><time>2026-04-29T14:11:33.193Z</time></trkpt><trkpt lat="45.7775255" lon="11.564099"><ele>631.0</ele><time>2026-04-29T14:11:34.193Z</time></trkpt><trkpt lat="45.7775729" lon="11.5641751"><ele>631.0</ele><time>2026-04-29T14:11:35.193Z</time></trkpt><trkpt lat="45.7776264" lon="11.5642284"><ele>631.0</ele><time>2026-04-29T14:11:36.193Z</time></trkpt><trkpt lat="45.7777497" lon="11.564255"><ele>631.0</ele><time>2026-04-29T14:11:38.193Z</time></trkpt><trkpt lat="45.7778512" lon="11.5641548"><ele>631.0</ele><time>2026-04-29T14:11:40.192Z</time></trkpt><trkpt lat="45.7778869" lon="11.5640554"><ele>631.0</ele><time>2026-04-29T14:11:41.193Z</time></trkpt><trkpt lat="45.7779158" lon="11.5639417"><ele>631.8333333333334</ele><time>2026-04-29T14:11:42.193Z</time></trkpt><trkpt lat="45.7779473" lon="11.5638404"><ele>632.6666666666667</ele><time>2026-04-29T14:11:43.193Z</time></trkpt><trkpt lat="45.7779851" lon="11.5637372"><ele>633.5</ele><time>2026-04-29T14:11:44.193Z</time></trkpt><trkpt lat="45.7780216" lon="11.5636325"><ele>634.3333333333334</ele><time>2026-04-29T14:11:45.193Z</time></trkpt><trkpt lat="45.7780497" lon="11.5635154"><ele>635.1666666666666</ele><time>2026-04-29T14:11:46.193Z</time></trkpt><trkpt lat="45.7780614" lon="11.5633829"><ele>636.0</ele><time>2026-04-29T14:11:47.193Z</time></trkpt><trkpt lat="45.778068" lon="11.5632553"><ele>632.8</ele><time>2026-04-29T14:11:48.193Z</time></trkpt><trkpt lat="45.7780764" lon="11.5631185"><ele>629.6</ele><time>2026-04-29T14:11:49.192Z</time></trkpt><trkpt lat="45.7780806" lon="11.5629752"><ele>626.4</ele><time>2026-04-29T14:11:50.193Z</time></trkpt><trkpt lat="45.7780797" lon="11.5628268"><ele>623.2</ele><time>2026-04-29T14:11:51.193Z</time></trkpt><trkpt lat="45.7780766" lon="11.5626755"><ele>620.0</ele><time>2026-04-29T14:11:52.193Z</time></trkpt><trkpt lat="45.7780761" lon="11.5625328"><ele>617.8</ele><time>2026-04-29T14:11:53.193Z</time></trkpt><trkpt lat="45.7780767" lon="11.5623924"><ele>615.6</ele><time>2026-04-29T14:11:54.192Z</time></trkpt><trkpt lat="45.778082" lon="11.5622464"><ele>613.4</ele><time>2026-04-29T14:11:55.193Z</time></trkpt><trkpt lat="45.7780878" lon="11.5621003"><ele>611.2</ele><time>2026-04-29T14:11:56.193Z</time></trkpt><trkpt lat="45.7780962" lon="11.5619548"><ele>609.0</ele><time>2026-04-29T14:11:57.193Z</time></trkpt><trkpt lat="45.7781074" lon="11.5618086"><ele>606.8</ele><time>2026-04-29T14:11:58.193Z</time></trkpt><trkpt lat="45.7781188" lon="11.5616608"><ele>604.5999999999999</ele><time>2026-04-29T14:11:59.193Z</time></trkpt><trkpt lat="45.778134" lon="11.5615058"><ele>602.4</ele><time>2026-04-29T14:12:00.193Z</time></trkpt><trkpt lat="45.7781453" lon="11.5613518"><ele>600.1999999999999</ele><time>2026-04-29T14:12:01.193Z</time></trkpt><trkpt lat="45.7781553" lon="11.5611965"><ele>598.0</ele><time>2026-04-29T14:12:02.193Z</time></trkpt><trkpt lat="45.7781731" lon="11.5610391"><ele>596.0</ele><time>2026-04-29T14:12:03.193Z</time></trkpt><trkpt lat="45.7781929" lon="11.5608933"><ele>594.0</ele><time>2026-04-29T14:12:04.193Z</time></trkpt><trkpt lat="45.7782151" lon="11.5607459"><ele>592.0</ele><time>2026-04-29T14:12:05.193Z</time></trkpt><trkpt lat="45.778239" lon="11.5605959"><ele>590.0</ele><time>2026-04-29T14:12:06.192Z</time></trkpt><trkpt lat="45.7782651" lon="11.5604426"><ele>588.0</ele><time>2026-04-29T14:12:07.192Z</time></trkpt><trkpt lat="45.7782898" lon="11.5602798"><ele>585.75</ele><time>2026-04-29T14:12:08.193Z</time></trkpt><trkpt lat="45.7783206" lon="11.5601161"><ele>583.5</ele><time>2026-04-29T14:12:09.193Z</time></trkpt><trkpt lat="45.7783552" lon="11.5599444"><ele>581.25</ele><time>2026-04-29T14:12:10.193Z</time></trkpt><trkpt lat="45.7783893" lon="11.5597851"><ele>579.0</ele><time>2026-04-29T14:12:11.193Z</time></trkpt><trkpt lat="45.778438" lon="11.5596055"><ele>579.5</ele><time>2026-04-29T14:12:12.575Z</time></trkpt><trkpt lat="45.7784778" lon="11.5594481"><ele>580.0</ele><time>2026-04-29T14:12:13.587Z</time></trkpt><trkpt lat="45.7785168" lon="11.5592802"><ele>580.5</ele><time>2026-04-29T14:12:14.735Z</time></trkpt><trkpt lat="45.7785476" lon="11.5590582"><ele>581.0</ele><time>2026-04-29T14:12:16.618Z</time></trkpt><trkpt lat="45.7785713" lon="11.5589483"><ele>581.0</ele><time>2026-04-29T14:12:17.582Z</time></trkpt><trkpt lat="45.7785983" lon="11.5588306"><ele>581.0</ele><time>2026-04-29T14:12:18.605Z</time></trkpt><trkpt lat="45.7786255" lon="11.5587186"><ele>581.0</ele><time>2026-04-29T14:12:19.622Z</time></trkpt><trkpt lat="45.7786509" lon="11.5586055"><ele>581.0</ele><time>2026-04-29T14:12:20.641Z</time></trkpt><trkpt lat="45.7786864" lon="11.558504"><ele>581.0</ele><time>2026-04-29T14:12:21.623Z</time></trkpt><trkpt lat="45.7787372" lon="11.5584222"><ele>581.0</ele><time>2026-04-29T14:12:22.649Z</time></trkpt><trkpt lat="45.7788584" lon="11.5583838"><ele>581.0</ele><time>2026-04-29T14:12:24.62Z</time></trkpt><trkpt lat="45.7789312" lon="11.5584141"><ele>581.0</ele><time>2026-04-29T14:12:25.716Z</time></trkpt><trkpt lat="45.7790217" lon="11.5585256"><ele>581.0</ele><time>2026-04-29T14:12:27.618Z</time></trkpt><trkpt lat="45.7790789" lon="11.5586225"><ele>581.0</ele><time>2026-04-29T14:12:28.613Z</time></trkpt><trkpt lat="45.7791504" lon="11.5587213"><ele>581.0</ele><time>2026-04-29T14:12:29.62Z</time></trkpt><trkpt lat="45.7792235" lon="11.558828"><ele>581.0</ele><time>2026-04-29T14:12:30.64Z</time></trkpt><trkpt lat="45.7793012" lon="11.5589608"><ele>581.0</ele><time>2026-04-29T14:12:31.823Z</time></trkpt><trkpt lat="45.779406" lon="11.5591748"><ele>581.0</ele><time>2026-04-29T14:12:33.625Z</time></trkpt><trkpt lat="45.7794582" lon="11.5592821"><ele>581.0</ele><time>2026-04-29T14:12:34.632Z</time></trkpt><trkpt lat="45.7795087" lon="11.5593994"><ele>573.8</ele><time>2026-04-29T14:12:35.628Z</time></trkpt><trkpt lat="45.7795557" lon="11.5595075"><ele>566.6</ele><time>2026-04-29T14:12:36.606Z</time></trkpt><trkpt lat="45.7796028" lon="11.5596252"><ele>559.4</ele><time>2026-04-29T14:12:37.625Z</time></trkpt><trkpt lat="45.779642" lon="11.5597391"><ele>552.2</ele><time>2026-04-29T14:12:38.606Z</time></trkpt><trkpt lat="45.7796693" lon="11.5598645"><ele>545.0</ele><time>2026-04-29T14:12:39.604Z</time></trkpt><trkpt lat="45.7796842" lon="11.5599919"><ele>545.0</ele><time>2026-04-29T14:12:40.587Z</time></trkpt><trkpt lat="45.7796847" lon="11.5601353"><ele>545.0</ele><time>2026-04-29T14:12:41.601Z</time></trkpt><trkpt lat="45.7796801" lon="11.5602627"><ele>545.0</ele><time>2026-04-29T14:12:42.576Z</time></trkpt><trkpt lat="45.7796745" lon="11.5603731"><ele>545.0</ele><time>2026-04-29T14:12:43.579Z</time></trkpt><trkpt lat="45.7796705" lon="11.5604747"><ele>545.0</ele><time>2026-04-29T14:12:44.569Z</time></trkpt><trkpt lat="45.7796672" lon="11.5605752"><ele>545.0</ele><time>2026-04-29T14:12:45.578Z</time></trkpt><trkpt lat="45.7796653" lon="11.5606863"><ele>547.8333333333333</ele><time>2026-04-29T14:12:46.582Z</time></trkpt><trkpt lat="45.779676" lon="11.5607975"><ele>550.6666666666666</ele><time>2026-04-29T14:12:47.585Z</time></trkpt><trkpt lat="45.7797012" lon="11.5608904"><ele>553.5</ele><time>2026-04-29T14:12:48.576Z</time></trkpt><trkpt lat="45.7797482" lon="11.5609841"><ele>556.3333333333334</ele><time>2026-04-29T14:12:49.581Z</time></trkpt><trkpt lat="45.7798091" lon="11.5610608"><ele>559.1666666666667</ele><time>2026-04-29T14:12:50.588Z</time></trkpt><trkpt lat="45.7798818" lon="11.561114"><ele>562.0</ele><time>2026-04-29T14:12:51.59Z</time></trkpt><trkpt lat="45.7799781" lon="11.5611517"><ele>562.0</ele><time>2026-04-29T14:12:52.558Z</time></trkpt><trkpt lat="45.7800643" lon="11.5611767"><ele>562.0</ele><time>2026-04-29T14:12:53.531Z</time></trkpt><trkpt lat="45.7801638" lon="11.5612035"><ele>562.0</ele><time>2026-04-29T14:12:54.558Z</time></trkpt><trkpt lat="45.7802629" lon="11.561224"><ele>562.0</ele><time>2026-04-29T14:12:55.554Z</time></trkpt><trkpt lat="45.7803656" lon="11.5612418"><ele>562.0</ele><time>2026-04-29T14:12:56.597Z</time></trkpt><trkpt lat="45.7804515" lon="11.5612573"><ele>560.0</ele><time>2026-04-29T14:12:57.554Z</time></trkpt><trkpt lat="45.7805349" lon="11.5612626"><ele>558.0</ele><time>2026-04-29T14:12:58.541Z</time></trkpt><trkpt lat="45.7806139" lon="11.5612562"><ele>556.0</ele><time>2026-04-29T14:12:59.545Z</time></trkpt><trkpt lat="45.780701" lon="11.5612259"><ele>554.0</ele><time>2026-04-29T14:13:00.555Z</time></trkpt><trkpt lat="45.780771" lon="11.5611605"><ele>552.0</ele><time>2026-04-29T14:13:01.563Z</time></trkpt><trkpt lat="45.780849" lon="11.5610817"><ele>550.0</ele><time>2026-04-29T14:13:02.595Z</time></trkpt><trkpt lat="45.7809091" lon="11.5610105"><ele>550.0</ele><time>2026-04-29T14:13:03.564Z</time></trkpt><trkpt lat="45.7809831" lon="11.5609523"><ele>550.0</ele><time>2026-04-29T14:13:04.585Z</time></trkpt><trkpt lat="45.7810494" lon="11.5609169"><ele>550.0</ele><time>2026-04-29T14:13:05.578Z</time></trkpt><trkpt lat="45.7811255" lon="11.5609071"><ele>550.0</ele><time>2026-04-29T14:13:06.583Z</time></trkpt><trkpt lat="45.7812154" lon="11.5609122"><ele>550.0</ele><time>2026-04-29T14:13:07.57Z</time></trkpt><trkpt lat="45.7813038" lon="11.5609214"><ele>550.0</ele><time>2026-04-29T14:13:08.57Z</time></trkpt><trkpt lat="45.7813865" lon="11.5609404"><ele>550.1666666666667</ele><time>2026-04-29T14:13:09.552Z</time></trkpt><trkpt lat="45.7814648" lon="11.5609542"><ele>550.3333333333334</ele><time>2026-04-29T14:13:10.578Z</time></trkpt><trkpt lat="45.7815347" lon="11.5609745"><ele>550.5</ele><time>2026-04-29T14:13:11.591Z</time></trkpt><trkpt lat="45.7816045" lon="11.5610125"><ele>550.6666666666666</ele><time>2026-04-29T14:13:12.575Z</time></trkpt><trkpt lat="45.7816654" lon="11.5610578"><ele>550.8333333333333</ele><time>2026-04-29T14:13:13.599Z</time></trkpt><trkpt lat="45.7817493" lon="11.5611087"><ele>551.0</ele><time>2026-04-29T14:13:14.629Z</time></trkpt><trkpt lat="45.7818133" lon="11.5611542"><ele>551.5714285714286</ele><time>2026-04-29T14:13:15.578Z</time></trkpt><trkpt lat="45.7818881" lon="11.5612237"><ele>552.1428571428571</ele><time>2026-04-29T14:13:16.634Z</time></trkpt><trkpt lat="45.7819545" lon="11.5612652"><ele>552.7142857142858</ele><time>2026-04-29T14:13:17.593Z</time></trkpt><trkpt lat="45.7820252" lon="11.5613117"><ele>553.2857142857142</ele><time>2026-04-29T14:13:18.565Z</time></trkpt><trkpt lat="45.7820902" lon="11.5613463"><ele>553.8571428571429</ele><time>2026-04-29T14:13:19.585Z</time></trkpt><trkpt lat="45.7821577" lon="11.5613706"><ele>554.4285714285714</ele><time>2026-04-29T14:13:20.575Z</time></trkpt><trkpt lat="45.7822196" lon="11.5614208"><ele>555.0</ele><time>2026-04-29T14:13:21.575Z</time></trkpt><trkpt lat="45.7822712" lon="11.5614757"><ele>555.0</ele><time>2026-04-29T14:13:22.554Z</time></trkpt><trkpt lat="45.7823716" lon="11.561589"><ele>555.0</ele><time>2026-04-29T14:13:24.694Z</time></trkpt><trkpt lat="45.7824699" lon="11.5616784"><ele>555.0</ele><time>2026-04-29T14:13:26.638Z</time></trkpt><trkpt lat="45.7825177" lon="11.5617427"><ele>555.0</ele><time>2026-04-29T14:13:27.566Z</time></trkpt><trkpt lat="45.7825674" lon="11.5618378"><ele>555.0</ele><time>2026-04-29T14:13:28.593Z</time></trkpt><trkpt lat="45.7825987" lon="11.5619476"><ele>556.6666666666666</ele><time>2026-04-29T14:13:29.585Z</time></trkpt><trkpt lat="45.7826152" lon="11.5620384"><ele>558.3333333333334</ele><time>2026-04-29T14:13:30.579Z</time></trkpt><trkpt lat="45.7826726" lon="11.562141"><ele>560.0</ele><time>2026-04-29T14:13:32.568Z</time></trkpt><trkpt lat="45.782784" lon="11.5621737"><ele>561.6666666666667</ele><time>2026-04-29T14:13:34.57Z</time></trkpt><trkpt lat="45.7828518" lon="11.5621383"><ele>563.3333333333334</ele><time>2026-04-29T14:13:35.615Z</time></trkpt><trkpt lat="45.7829042" lon="11.562052"><ele>565.0</ele><time>2026-04-29T14:13:36.573Z</time></trkpt><trkpt lat="45.782917" lon="11.5619147"><ele>565.0</ele><time>2026-04-29T14:13:37.712Z</time></trkpt><trkpt lat="45.7828971" lon="11.5616341"><ele>565.0</ele><time>2026-04-29T14:13:39.586Z</time></trkpt><trkpt lat="45.7828917" lon="11.5614681"><ele>565.0</ele><time>2026-04-29T14:13:40.579Z</time></trkpt><trkpt lat="45.7828986" lon="11.5613085"><ele>565.0</ele><time>2026-04-29T14:13:41.628Z</time></trkpt><trkpt lat="45.782902" lon="11.5611647"><ele>564.8</ele><time>2026-04-29T14:13:42.679Z</time></trkpt><trkpt lat="45.7828871" lon="11.5610416"><ele>564.6</ele><time>2026-04-29T14:13:43.592Z</time></trkpt><trkpt lat="45.7828652" lon="11.560905"><ele>564.4</ele><time>2026-04-29T14:13:44.633Z</time></trkpt><trkpt lat="45.7828454" lon="11.560773"><ele>564.2</ele><time>2026-04-29T14:13:45.69Z</time></trkpt><trkpt lat="45.7828111" lon="11.5605421"><ele>564.0</ele><time>2026-04-29T14:13:47.63Z</time></trkpt><trkpt lat="45.7828119" lon="11.5604323"><ele>565.1666666666666</ele><time>2026-04-29T14:13:48.597Z</time></trkpt><trkpt lat="45.782819" lon="11.5603097"><ele>566.3333333333334</ele><time>2026-04-29T14:13:49.58Z</time></trkpt><trkpt lat="45.7828499" lon="11.5601903"><ele>567.5</ele><time>2026-04-29T14:13:50.584Z</time></trkpt><trkpt lat="45.7828672" lon="11.5600776"><ele>568.6666666666667</ele><time>2026-04-29T14:13:51.578Z</time></trkpt><trkpt lat="45.7828661" lon="11.5599564"><ele>569.8333333333334</ele><time>2026-04-29T14:13:52.597Z</time></trkpt><trkpt lat="45.7828533" lon="11.5598319"><ele>571.0</ele><time>2026-04-29T14:13:53.686Z</time></trkpt><trkpt lat="45.7828248" lon="11.5596209"><ele>571.1666666666667</ele><time>2026-04-29T14:13:55.56Z</time></trkpt><trkpt lat="45.7828213" lon="11.5595138"><ele>571.3333333333334</ele><time>2026-04-29T14:13:56.567Z</time></trkpt><trkpt lat="45.7828253" lon="11.559407"><ele>571.5</ele><time>2026-04-29T14:13:57.545Z</time></trkpt><trkpt lat="45.7828304" lon="11.5593062"><ele>571.6666666666666</ele><time>2026-04-29T14:13:58.584Z</time></trkpt><trkpt lat="45.7827695" lon="11.559147"><ele>571.8333333333333</ele><time>2026-04-29T14:14:00.569Z</time></trkpt><trkpt lat="45.7827096" lon="11.559104"><ele>572.0</ele><time>2026-04-29T14:14:01.537Z</time></trkpt><trkpt lat="45.7826195" lon="11.5590809"><ele>566.6</ele><time>2026-04-29T14:14:02.632Z</time></trkpt><trkpt lat="45.7825359" lon="11.5590785"><ele>561.2</ele><time>2026-04-29T14:14:03.535Z</time></trkpt><trkpt lat="45.7824408" lon="11.5590649"><ele>555.8</ele><time>2026-04-29T14:14:04.525Z</time></trkpt><trkpt lat="45.782345" lon="11.5590325"><ele>550.4</ele><time>2026-04-29T14:14:05.533Z</time></trkpt><trkpt lat="45.7822516" lon="11.5589751"><ele>545.0</ele><time>2026-04-29T14:14:06.544Z</time></trkpt><trkpt lat="45.7821665" lon="11.5588929"><ele>545.0</ele><time>2026-04-29T14:14:07.559Z</time></trkpt><trkpt lat="45.7820946" lon="11.5588133"><ele>545.0</ele><time>2026-04-29T14:14:08.531Z</time></trkpt><trkpt lat="45.7820115" lon="11.5587317"><ele>545.0</ele><time>2026-04-29T14:14:09.592Z</time></trkpt><trkpt lat="45.7819396" lon="11.5586515"><ele>545.0</ele><time>2026-04-29T14:14:10.553Z</time></trkpt><trkpt lat="45.7818665" lon="11.5585694"><ele>545.0</ele><time>2026-04-29T14:14:11.554Z</time></trkpt><trkpt lat="45.7817967" lon="11.5584775"><ele>542.6</ele><time>2026-04-29T14:14:12.562Z</time></trkpt><trkpt lat="45.7817249" lon="11.5583889"><ele>540.2</ele><time>2026-04-29T14:14:13.636Z</time></trkpt><trkpt lat="45.7816733" lon="11.5583133"><ele>537.8</ele><time>2026-04-29T14:14:14.571Z</time></trkpt><trkpt lat="45.781626" lon="11.5582257"><ele>535.4</ele><time>2026-04-29T14:14:15.575Z</time></trkpt><trkpt lat="45.7815895" lon="11.5581327"><ele>533.0</ele><time>2026-04-29T14:14:16.663Z</time></trkpt><trkpt lat="45.7815947" lon="11.5579335"><ele>533.6666666666666</ele><time>2026-04-29T14:14:18.594Z</time></trkpt><trkpt lat="45.7816231" lon="11.5578131"><ele>534.3333333333333</ele><time>2026-04-29T14:14:19.586Z</time></trkpt><trkpt lat="45.7816465" lon="11.5576977"><ele>535.0</ele><time>2026-04-29T14:14:20.598Z</time></trkpt><trkpt lat="45.7816479" lon="11.5575827"><ele>535.6666666666666</ele><time>2026-04-29T14:14:21.608Z</time></trkpt><trkpt lat="45.7816276" lon="11.5574707"><ele>536.3333333333334</ele><time>2026-04-29T14:14:22.635Z</time></trkpt><trkpt lat="45.7815969" lon="11.5573523"><ele>537.0</ele><time>2026-04-29T14:14:23.583Z</time></trkpt><trkpt lat="45.7815608" lon="11.5572218"><ele>537.0</ele><time>2026-04-29T14:14:24.587Z</time></trkpt><trkpt lat="45.7815181" lon="11.5571017"><ele>537.0</ele><time>2026-04-29T14:14:25.594Z</time></trkpt><trkpt lat="45.78146" lon="11.5569935"><ele>537.0</ele><time>2026-04-29T14:14:26.598Z</time></trkpt><trkpt lat="45.7814016" lon="11.5568984"><ele>537.0</ele><time>2026-04-29T14:14:27.58Z</time></trkpt><trkpt lat="45.7813478" lon="11.5568103"><ele>537.0</ele><time>2026-04-29T14:14:28.567Z</time></trkpt><trkpt lat="45.7812891" lon="11.5567151"><ele>537.0</ele><time>2026-04-29T14:14:29.692Z</time></trkpt><trkpt lat="45.7812334" lon="11.556499"><ele>537.8000000000001</ele><time>2026-04-29T14:14:31.629Z</time></trkpt><trkpt lat="45.781233" lon="11.5563694"><ele>538.6</ele><time>2026-04-29T14:14:32.6Z</time></trkpt><trkpt lat="45.7812491" lon="11.5562402"><ele>539.4000000000001</ele><time>2026-04-29T14:14:33.582Z</time></trkpt><trkpt lat="45.7812693" lon="11.5560902"><ele>540.2</ele><time>2026-04-29T14:14:34.626Z</time></trkpt><trkpt lat="45.7812879" lon="11.5559487"><ele>541.0</ele><time>2026-04-29T14:14:35.599Z</time></trkpt><trkpt lat="45.7812968" lon="11.5557867"><ele>541.6</ele><time>2026-04-29T14:14:36.665Z</time></trkpt><trkpt lat="45.7813042" lon="11.5556557"><ele>542.2</ele><time>2026-04-29T14:14:37.584Z</time></trkpt><trkpt lat="45.7813056" lon="11.5555229"><ele>542.8</ele><time>2026-04-29T14:14:38.591Z</time></trkpt><trkpt lat="45.781305" lon="11.555401"><ele>543.4</ele><time>2026-04-29T14:14:39.592Z</time></trkpt><trkpt lat="45.7813118" lon="11.5552748"><ele>544.0</ele><time>2026-04-29T14:14:40.633Z</time></trkpt><trkpt lat="45.7813311" lon="11.5551439"><ele>544.0</ele><time>2026-04-29T14:14:41.629Z</time></trkpt><trkpt lat="45.7813473" lon="11.555018"><ele>544.0</ele><time>2026-04-29T14:14:42.703Z</time></trkpt><trkpt lat="45.781372" lon="11.5549084"><ele>544.0</ele><time>2026-04-29T14:14:43.635Z</time></trkpt><trkpt lat="45.7813767" lon="11.5547812"><ele>544.0</ele><time>2026-04-29T14:14:44.608Z</time></trkpt><trkpt lat="45.7813539" lon="11.5546554"><ele>544.0</ele><time>2026-04-29T14:14:45.594Z</time></trkpt><trkpt lat="45.7812964" lon="11.5545435"><ele>544.0</ele><time>2026-04-29T14:14:46.589Z</time></trkpt><trkpt lat="45.7812293" lon="11.5544405"><ele>545.6</ele><time>2026-04-29T14:14:47.553Z</time></trkpt><trkpt lat="45.7811464" lon="11.5543392"><ele>547.2</ele><time>2026-04-29T14:14:48.585Z</time></trkpt><trkpt lat="45.7810561" lon="11.554249"><ele>548.8000000000001</ele><time>2026-04-29T14:14:49.556Z</time></trkpt><trkpt lat="45.7809581" lon="11.554159"><ele>550.4</ele><time>2026-04-29T14:14:50.557Z</time></trkpt><trkpt lat="45.7808664" lon="11.5540692"><ele>552.0</ele><time>2026-04-29T14:14:51.571Z</time></trkpt><trkpt lat="45.7807923" lon="11.5539757"><ele>548.4</ele><time>2026-04-29T14:14:52.564Z</time></trkpt><trkpt lat="45.7807312" lon="11.5538696"><ele>544.8000000000001</ele><time>2026-04-29T14:14:53.578Z</time></trkpt><trkpt lat="45.7806793" lon="11.5537622"><ele>541.2</ele><time>2026-04-29T14:14:54.576Z</time></trkpt><trkpt lat="45.7806351" lon="11.5536539"><ele>537.6</ele><time>2026-04-29T14:14:55.58Z</time></trkpt><trkpt lat="45.7806052" lon="11.5535277"><ele>534.0</ele><time>2026-04-29T14:14:56.577Z</time></trkpt><trkpt lat="45.7805918" lon="11.5533968"><ele>534.0</ele><time>2026-04-29T14:14:57.6Z</time></trkpt><trkpt lat="45.7805633" lon="11.5532759"><ele>534.0</ele><time>2026-04-29T14:14:58.572Z</time></trkpt><trkpt lat="45.7805045" lon="11.5531577"><ele>534.0</ele><time>2026-04-29T14:14:59.584Z</time></trkpt><trkpt lat="45.7804265" lon="11.5530743"><ele>534.0</ele><time>2026-04-29T14:15:00.576Z</time></trkpt><trkpt lat="45.7803322" lon="11.5530112"><ele>534.0</ele><time>2026-04-29T14:15:01.578Z</time></trkpt><trkpt lat="45.7802459" lon="11.5529286"><ele>529.2</ele><time>2026-04-29T14:15:02.573Z</time></trkpt><trkpt lat="45.7801692" lon="11.5528163"><ele>524.4</ele><time>2026-04-29T14:15:03.583Z</time></trkpt><trkpt lat="45.7800949" lon="11.5526951"><ele>519.6</ele><time>2026-04-29T14:15:04.569Z</time></trkpt><trkpt lat="45.7800209" lon="11.5525653"><ele>514.8</ele><time>2026-04-29T14:15:05.578Z</time></trkpt><trkpt lat="45.7799578" lon="11.5524442"><ele>510.0</ele><time>2026-04-29T14:15:06.597Z</time></trkpt><trkpt lat="45.7799005" lon="11.5523381"><ele>510.0</ele><time>2026-04-29T14:15:07.571Z</time></trkpt><trkpt lat="45.7798489" lon="11.5522388"><ele>510.0</ele><time>2026-04-29T14:15:08.609Z</time></trkpt><trkpt lat="45.7798156" lon="11.5521393"><ele>510.0</ele><time>2026-04-29T14:15:09.59Z</time></trkpt><trkpt lat="45.7798127" lon="11.55203"><ele>510.0</ele><time>2026-04-29T14:15:10.591Z</time></trkpt><trkpt lat="45.7798167" lon="11.5519256"><ele>510.0</ele><time>2026-04-29T14:15:11.585Z</time></trkpt><trkpt lat="45.7798139" lon="11.5518178"><ele>510.0</ele><time>2026-04-29T14:15:12.575Z</time></trkpt><trkpt lat="45.7797797" lon="11.5517234"><ele>509.5</ele><time>2026-04-29T14:15:13.585Z</time></trkpt><trkpt lat="45.779722" lon="11.5516634"><ele>509.0</ele><time>2026-04-29T14:15:14.598Z</time></trkpt><trkpt lat="45.7796551" lon="11.551631"><ele>508.5</ele><time>2026-04-29T14:15:15.565Z</time></trkpt><trkpt lat="45.7795746" lon="11.5516366"><ele>508.0</ele><time>2026-04-29T14:15:16.586Z</time></trkpt><trkpt lat="45.7794828" lon="11.5516612"><ele>507.5</ele><time>2026-04-29T14:15:17.552Z</time></trkpt><trkpt lat="45.7793952" lon="11.5516842"><ele>507.0</ele><time>2026-04-29T14:15:18.55Z</time></trkpt><trkpt lat="45.7793113" lon="11.5516947"><ele>507.0</ele><time>2026-04-29T14:15:19.546Z</time></trkpt><trkpt lat="45.7792189" lon="11.5517145"><ele>507.0</ele><time>2026-04-29T14:15:20.554Z</time></trkpt><trkpt lat="45.7791389" lon="11.5517234"><ele>507.0</ele><time>2026-04-29T14:15:21.552Z</time></trkpt><trkpt lat="45.7790612" lon="11.5517192"><ele>507.0</ele><time>2026-04-29T14:15:22.571Z</time></trkpt><trkpt lat="45.7789822" lon="11.5517153"><ele>507.0</ele><time>2026-04-29T14:15:23.568Z</time></trkpt><trkpt lat="45.7788966" lon="11.5516971"><ele>507.0</ele><time>2026-04-29T14:15:24.612Z</time></trkpt><trkpt lat="45.7788159" lon="11.5516614"><ele>507.0</ele><time>2026-04-29T14:15:25.555Z</time></trkpt><trkpt lat="45.7787178" lon="11.5516135"><ele>507.00000000000006</ele><time>2026-04-29T14:15:26.564Z</time></trkpt><trkpt lat="45.7786134" lon="11.5515661"><ele>507.00000000000006</ele><time>2026-04-29T14:15:27.578Z</time></trkpt><trkpt lat="45.7785154" lon="11.551527"><ele>507.0</ele><time>2026-04-29T14:15:28.579Z</time></trkpt><trkpt lat="45.7784186" lon="11.5515014"><ele>507.0</ele><time>2026-04-29T14:15:29.555Z</time></trkpt><trkpt lat="45.778307" lon="11.551481"><ele>504.0</ele><time>2026-04-29T14:15:30.598Z</time></trkpt><trkpt lat="45.7781921" lon="11.5514543"><ele>501.00000000000006</ele><time>2026-04-29T14:15:31.676Z</time></trkpt><trkpt lat="45.7780987" lon="11.5514146"><ele>498.00000000000006</ele><time>2026-04-29T14:15:32.576Z</time></trkpt><trkpt lat="45.7779963" lon="11.5513679"><ele>495.0</ele><time>2026-04-29T14:15:33.591Z</time></trkpt><trkpt lat="45.777891" lon="11.5513216"><ele>492.0</ele><time>2026-04-29T14:15:34.694Z</time></trkpt><trkpt lat="45.7777207" lon="11.5512601"><ele>488.6</ele><time>2026-04-29T14:15:36.581Z</time></trkpt><trkpt lat="45.7776245" lon="11.5512322"><ele>485.20000000000005</ele><time>2026-04-29T14:15:37.567Z</time></trkpt><trkpt lat="45.7775201" lon="11.5512102"><ele>481.8</ele><time>2026-04-29T14:15:38.562Z</time></trkpt><trkpt lat="45.7774143" lon="11.5511856"><ele>478.4</ele><time>2026-04-29T14:15:39.56Z</time></trkpt><trkpt lat="45.7773043" lon="11.5511668"><ele>475.0</ele><time>2026-04-29T14:15:40.572Z</time></trkpt><trkpt lat="45.7771951" lon="11.5511561"><ele>480.2</ele><time>2026-04-29T14:15:41.554Z</time></trkpt><trkpt lat="45.7770771" lon="11.551159"><ele>485.4</ele><time>2026-04-29T14:15:42.603Z</time></trkpt><trkpt lat="45.7769761" lon="11.551161"><ele>490.6</ele><time>2026-04-29T14:15:43.574Z</time></trkpt><trkpt lat="45.7768737" lon="11.5511602"><ele>495.8</ele><time>2026-04-29T14:15:44.597Z</time></trkpt><trkpt lat="45.7767839" lon="11.5511498"><ele>501.0</ele><time>2026-04-29T14:15:45.543Z</time></trkpt><trkpt lat="45.7766839" lon="11.5511265"><ele>501.0</ele><time>2026-04-29T14:15:46.583Z</time></trkpt><trkpt lat="45.77659" lon="11.5510749"><ele>501.0</ele><time>2026-04-29T14:15:47.601Z</time></trkpt><trkpt lat="45.7764968" lon="11.5510197"><ele>501.0</ele><time>2026-04-29T14:15:48.566Z</time></trkpt><trkpt lat="45.776397" lon="11.5509708"><ele>501.0</ele><time>2026-04-29T14:15:49.58Z</time></trkpt><trkpt lat="45.776297" lon="11.5509289"><ele>501.0</ele><time>2026-04-29T14:15:50.568Z</time></trkpt><trkpt lat="45.7761973" lon="11.5508859"><ele>501.0</ele><time>2026-04-29T14:15:51.56Z</time></trkpt><trkpt lat="45.7760964" lon="11.5508419"><ele>501.0</ele><time>2026-04-29T14:15:52.597Z</time></trkpt><trkpt lat="45.7760022" lon="11.5507981"><ele>501.0</ele><time>2026-04-29T14:15:53.658Z</time></trkpt><trkpt lat="45.7759181" lon="11.5507586"><ele>501.0</ele><time>2026-04-29T14:15:54.694Z</time></trkpt><trkpt lat="45.7758153" lon="11.5506714"><ele>501.0</ele><time>2026-04-29T14:15:56.627Z</time></trkpt><trkpt lat="45.7757156" lon="11.5506139"><ele>501.0</ele><time>2026-04-29T14:15:58.679Z</time></trkpt><trkpt lat="45.7756594" lon="11.5506853"><ele>501.0</ele><time>2026-04-29T14:16:00.559Z</time></trkpt><trkpt lat="45.7757298" lon="11.5507797"><ele>501.0</ele><time>2026-04-29T14:16:02.638Z</time></trkpt><trkpt lat="45.775873" lon="11.5508359"><ele>501.0</ele><time>2026-04-29T14:16:04.582Z</time></trkpt><trkpt lat="45.7759631" lon="11.5508735"><ele>501.0</ele><time>2026-04-29T14:16:05.566Z</time></trkpt><trkpt lat="45.776059" lon="11.5509356"><ele>501.0</ele><time>2026-04-29T14:16:06.557Z</time></trkpt><trkpt lat="45.7761583" lon="11.5510189"><ele>501.0</ele><time>2026-04-29T14:16:07.584Z</time></trkpt><trkpt lat="45.7762417" lon="11.5511053"><ele>501.0</ele><time>2026-04-29T14:16:08.551Z</time></trkpt><trkpt lat="45.7763253" lon="11.5511872"><ele>501.0</ele><time>2026-04-29T14:16:09.566Z</time></trkpt><trkpt lat="45.7764027" lon="11.5512633"><ele>501.0</ele><time>2026-04-29T14:16:10.567Z</time></trkpt><trkpt lat="45.776474" lon="11.5513365"><ele>495.8</ele><time>2026-04-29T14:16:11.541Z</time></trkpt><trkpt lat="45.7765472" lon="11.5514051"><ele>490.6</ele><time>2026-04-29T14:16:12.546Z</time></trkpt><trkpt lat="45.7766252" lon="11.5514627"><ele>485.4</ele><time>2026-04-29T14:16:13.558Z</time></trkpt><trkpt lat="45.7767254" lon="11.5515103"><ele>480.2</ele><time>2026-04-29T14:16:14.658Z</time></trkpt><trkpt lat="45.7768128" lon="11.5515322"><ele>475.0</ele><time>2026-04-29T14:16:15.569Z</time></trkpt><trkpt lat="45.7769118" lon="11.5515615"><ele>475.0</ele><time>2026-04-29T14:16:16.569Z</time></trkpt><trkpt lat="45.7770131" lon="11.5515943"><ele>475.0</ele><time>2026-04-29T14:16:17.596Z</time></trkpt><trkpt lat="45.7771019" lon="11.551636"><ele>475.0</ele><time>2026-04-29T14:16:18.572Z</time></trkpt><trkpt lat="45.7772016" lon="11.5516834"><ele>475.0</ele><time>2026-04-29T14:16:19.571Z</time></trkpt><trkpt lat="45.7772936" lon="11.5517276"><ele>475.0</ele><time>2026-04-29T14:16:20.555Z</time></trkpt><trkpt lat="45.7773965" lon="11.5517781"><ele>475.00000000000006</ele><time>2026-04-29T14:16:21.79Z</time></trkpt><trkpt lat="45.777524" lon="11.5518482"><ele>475.0</ele><time>2026-04-29T14:16:23.564Z</time></trkpt><trkpt lat="45.7775894" lon="11.5518719"><ele>475.0</ele><time>2026-04-29T14:16:24.512Z</time></trkpt><trkpt lat="45.7776645" lon="11.5518907"><ele>475.0</ele><time>2026-04-29T14:16:25.541Z</time></trkpt><trkpt lat="45.7777361" lon="11.5518942"><ele>475.00000000000006</ele><time>2026-04-29T14:16:26.563Z</time></trkpt><trkpt lat="45.7778015" lon="11.5518959"><ele>475.0</ele><time>2026-04-29T14:16:27.559Z</time></trkpt><trkpt lat="45.7778816" lon="11.5519762"><ele>475.0</ele><time>2026-04-29T14:16:29.54Z</time></trkpt><trkpt lat="45.7778245" lon="11.552064"><ele>475.0</ele><time>2026-04-29T14:16:31.554Z</time></trkpt><trkpt lat="45.7777051" lon="11.5519995"><ele>475.0</ele><time>2026-04-29T14:16:33.551Z</time></trkpt><trkpt lat="45.777619" lon="11.5519682"><ele>475.0</ele><time>2026-04-29T14:16:34.579Z</time></trkpt><trkpt lat="45.7775314" lon="11.5519616"><ele>475.0</ele><time>2026-04-29T14:16:35.529Z</time></trkpt><trkpt lat="45.7774328" lon="11.5519651"><ele>475.0</ele><time>2026-04-29T14:16:36.528Z</time></trkpt><trkpt lat="45.777336" lon="11.5519776"><ele>475.0</ele><time>2026-04-29T14:16:37.55Z</time></trkpt><trkpt lat="45.7771715" lon="11.5520326"><ele>475.0</ele><time>2026-04-29T14:16:39.474Z</time></trkpt><trkpt lat="45.7771016" lon="11.5520602"><ele>475.0</ele><time>2026-04-29T14:16:40.46Z</time></trkpt><trkpt lat="45.7770192" lon="11.5520769"><ele>475.0</ele><time>2026-04-29T14:16:41.455Z</time></trkpt><trkpt lat="45.7769387" lon="11.5520818"><ele>472.2</ele><time>2026-04-29T14:16:42.428Z</time></trkpt><trkpt lat="45.776849" lon="11.5520767"><ele>469.4</ele><time>2026-04-29T14:16:43.444Z</time></trkpt><trkpt lat="45.7767472" lon="11.5520619"><ele>466.6</ele><time>2026-04-29T14:16:44.461Z</time></trkpt><trkpt lat="45.7766449" lon="11.5520365"><ele>463.8</ele><time>2026-04-29T14:16:45.429Z</time></trkpt><trkpt lat="45.7765473" lon="11.5519841"><ele>461.0</ele><time>2026-04-29T14:16:46.475Z</time></trkpt><trkpt lat="45.7764625" lon="11.5519288"><ele>461.0</ele><time>2026-04-29T14:16:47.441Z</time></trkpt><trkpt lat="45.7763708" lon="11.5518554"><ele>461.0</ele><time>2026-04-29T14:16:48.439Z</time></trkpt><trkpt lat="45.7762882" lon="11.5517759"><ele>461.0</ele><time>2026-04-29T14:16:49.449Z</time></trkpt><trkpt lat="45.7761986" lon="11.5517058"><ele>461.0</ele><time>2026-04-29T14:16:50.45Z</time></trkpt><trkpt lat="45.7761042" lon="11.551635"><ele>461.0</ele><time>2026-04-29T14:16:51.479Z</time></trkpt><trkpt lat="45.776017" lon="11.5515744"><ele>458.0</ele><time>2026-04-29T14:16:52.463Z</time></trkpt><trkpt lat="45.7759251" lon="11.5515197"><ele>455.0</ele><time>2026-04-29T14:16:53.45Z</time></trkpt><trkpt lat="45.775818" lon="11.5514777"><ele>452.0</ele><time>2026-04-29T14:16:54.56Z</time></trkpt><trkpt lat="45.7757251" lon="11.5514557"><ele>449.0</ele><time>2026-04-29T14:16:55.47Z</time></trkpt><trkpt lat="45.7756229" lon="11.5514437"><ele>446.0</ele><time>2026-04-29T14:16:56.477Z</time></trkpt><trkpt lat="45.7755266" lon="11.5514352"><ele>445.99999999999994</ele><time>2026-04-29T14:16:57.51Z</time></trkpt><trkpt lat="45.7754493" lon="11.551427"><ele>446.0</ele><time>2026-04-29T14:16:58.452Z</time></trkpt><trkpt lat="45.7753779" lon="11.5514209"><ele>446.0</ele><time>2026-04-29T14:16:59.431Z</time></trkpt><trkpt lat="45.7753089" lon="11.5514104"><ele>446.0</ele><time>2026-04-29T14:17:00.465Z</time></trkpt><trkpt lat="45.7752296" lon="11.5514024"><ele>445.99999999999994</ele><time>2026-04-29T14:17:01.69Z</time></trkpt><trkpt lat="45.7751056" lon="11.5514053"><ele>446.0</ele><time>2026-04-29T14:17:03.476Z</time></trkpt><trkpt lat="45.7749882" lon="11.5514043"><ele>444.0</ele><time>2026-04-29T14:17:05.45Z</time></trkpt><trkpt lat="45.7749144" lon="11.551373"><ele>442.0</ele><time>2026-04-29T14:17:06.461Z</time></trkpt><trkpt lat="45.7748237" lon="11.5513423"><ele>440.0</ele><time>2026-04-29T14:17:07.509Z</time></trkpt><trkpt lat="45.7747362" lon="11.5512907"><ele>438.0</ele><time>2026-04-29T14:17:08.485Z</time></trkpt><trkpt lat="45.7746637" lon="11.5512156"><ele>436.0</ele><time>2026-04-29T14:17:09.457Z</time></trkpt><trkpt lat="45.7745904" lon="11.5511281"><ele>437.00000000000006</ele><time>2026-04-29T14:17:10.458Z</time></trkpt><trkpt lat="45.7745216" lon="11.5510487"><ele>438.0</ele><time>2026-04-29T14:17:11.459Z</time></trkpt><trkpt lat="45.7744549" lon="11.550973"><ele>439.0</ele><time>2026-04-29T14:17:12.492Z</time></trkpt><trkpt lat="45.7743991" lon="11.5509043"><ele>440.0</ele><time>2026-04-29T14:17:13.473Z</time></trkpt><trkpt lat="45.7743445" lon="11.5508383"><ele>441.00000000000006</ele><time>2026-04-29T14:17:14.48Z</time></trkpt><trkpt lat="45.7742926" lon="11.5507662"><ele>442.0</ele><time>2026-04-29T14:17:15.495Z</time></trkpt><trkpt lat="45.7742424" lon="11.5506942"><ele>442.0</ele><time>2026-04-29T14:17:16.487Z</time></trkpt><trkpt lat="45.774202" lon="11.5505877"><ele>442.00000000000006</ele><time>2026-04-29T14:17:17.626Z</time></trkpt><trkpt lat="45.7741732" lon="11.5503545"><ele>442.00000000000006</ele><time>2026-04-29T14:17:19.492Z</time></trkpt><trkpt lat="45.774168" lon="11.5502214"><ele>442.0</ele><time>2026-04-29T14:17:20.46Z</time></trkpt><trkpt lat="45.7741409" lon="11.550078"><ele>442.0</ele><time>2026-04-29T14:17:21.469Z</time></trkpt><trkpt lat="45.7740941" lon="11.5499352"><ele>441.25</ele><time>2026-04-29T14:17:22.477Z</time></trkpt><trkpt lat="45.7740379" lon="11.5497996"><ele>440.5</ele><time>2026-04-29T14:17:23.468Z</time></trkpt><trkpt lat="45.7739732" lon="11.5496666"><ele>439.75</ele><time>2026-04-29T14:17:24.461Z</time></trkpt><trkpt lat="45.7739017" lon="11.5495399"><ele>439.0</ele><time>2026-04-29T14:17:25.47Z</time></trkpt><trkpt lat="45.7738185" lon="11.5494114"><ele>439.0</ele><time>2026-04-29T14:17:26.477Z</time></trkpt><trkpt lat="45.7737214" lon="11.5492925"><ele>439.0</ele><time>2026-04-29T14:17:27.484Z</time></trkpt><trkpt lat="45.7736237" lon="11.5492018"><ele>439.0</ele><time>2026-04-29T14:17:28.503Z</time></trkpt><trkpt lat="45.7735158" lon="11.5491214"><ele>439.0</ele><time>2026-04-29T14:17:29.599Z</time></trkpt><trkpt lat="45.7733671" lon="11.5490106"><ele>437.6666666666667</ele><time>2026-04-29T14:17:31.519Z</time></trkpt><trkpt lat="45.7733068" lon="11.5489643"><ele>436.33333333333337</ele><time>2026-04-29T14:17:32.473Z</time></trkpt><trkpt lat="45.7732425" lon="11.5489183"><ele>435.0</ele><time>2026-04-29T14:17:33.581Z</time></trkpt><trkpt lat="45.7731361" lon="11.5488441"><ele>433.66666666666663</ele><time>2026-04-29T14:17:35.455Z</time></trkpt><trkpt lat="45.7730781" lon="11.5488078"><ele>432.3333333333333</ele><time>2026-04-29T14:17:36.45Z</time></trkpt><trkpt lat="45.7730129" lon="11.5487622"><ele>431.0</ele><time>2026-04-29T14:17:37.446Z</time></trkpt><trkpt lat="45.7729427" lon="11.5487103"><ele>432.5</ele><time>2026-04-29T14:17:38.456Z</time></trkpt><trkpt lat="45.7728588" lon="11.5486564"><ele>434.0</ele><time>2026-04-29T14:17:39.474Z</time></trkpt><trkpt lat="45.7727683" lon="11.548612"><ele>435.5</ele><time>2026-04-29T14:17:40.451Z</time></trkpt><trkpt lat="45.7726498" lon="11.5485758"><ele>437.0</ele><time>2026-04-29T14:17:41.59Z</time></trkpt><trkpt lat="45.7724636" lon="11.5485377"><ele>437.0</ele><time>2026-04-29T14:17:43.478Z</time></trkpt><trkpt lat="45.7723699" lon="11.5485217"><ele>437.00000000000006</ele><time>2026-04-29T14:17:44.468Z</time></trkpt><trkpt lat="45.7722804" lon="11.5485046"><ele>437.00000000000006</ele><time>2026-04-29T14:17:45.469Z</time></trkpt><trkpt lat="45.7721931" lon="11.5484912"><ele>437.0</ele><time>2026-04-29T14:17:46.466Z</time></trkpt><trkpt lat="45.7720972" lon="11.5484679"><ele>437.0</ele><time>2026-04-29T14:17:47.47Z</time></trkpt><trkpt lat="45.7719964" lon="11.5484373"><ele>437.0</ele><time>2026-04-29T14:17:48.485Z</time></trkpt><trkpt lat="45.7719008" lon="11.5483837"><ele>437.00000000000006</ele><time>2026-04-29T14:17:49.458Z</time></trkpt><trkpt lat="45.7717984" lon="11.54832"><ele>437.00000000000006</ele><time>2026-04-29T14:17:50.527Z</time></trkpt><trkpt lat="45.7717154" lon="11.5482583"><ele>437.0</ele><time>2026-04-29T14:17:51.479Z</time></trkpt><trkpt lat="45.7716306" lon="11.5481923"><ele>437.0</ele><time>2026-04-29T14:17:52.47Z</time></trkpt><trkpt lat="45.7715502" lon="11.5481167"><ele>440.0</ele><time>2026-04-29T14:17:53.455Z</time></trkpt><trkpt lat="45.7714625" lon="11.5480246"><ele>443.00000000000006</ele><time>2026-04-29T14:17:54.525Z</time></trkpt><trkpt lat="45.7713823" lon="11.5479405"><ele>446.00000000000006</ele><time>2026-04-29T14:17:55.559Z</time></trkpt><trkpt lat="45.7713137" lon="11.5478579"><ele>449.0</ele><time>2026-04-29T14:17:56.471Z</time></trkpt><trkpt lat="45.7712353" lon="11.5477842"><ele>452.0</ele><time>2026-04-29T14:17:57.48Z</time></trkpt><trkpt lat="45.7711434" lon="11.5477347"><ele>452.0</ele><time>2026-04-29T14:17:58.461Z</time></trkpt><trkpt lat="45.7710483" lon="11.5477002"><ele>452.00000000000006</ele><time>2026-04-29T14:17:59.438Z</time></trkpt><trkpt lat="45.7709429" lon="11.5476675"><ele>452.00000000000006</ele><time>2026-04-29T14:18:00.476Z</time></trkpt><trkpt lat="45.770839" lon="11.5476458"><ele>452.0</ele><time>2026-04-29T14:18:01.46Z</time></trkpt><trkpt lat="45.7707437" lon="11.5476346"><ele>452.0</ele><time>2026-04-29T14:18:02.469Z</time></trkpt><trkpt lat="45.7706606" lon="11.5476295"><ele>448.66666666666663</ele><time>2026-04-29T14:18:03.459Z</time></trkpt><trkpt lat="45.7705826" lon="11.5476397"><ele>445.3333333333333</ele><time>2026-04-29T14:18:04.476Z</time></trkpt><trkpt lat="45.7705028" lon="11.5476528"><ele>442.0</ele><time>2026-04-29T14:18:05.5Z</time></trkpt><trkpt lat="45.7704261" lon="11.5476502"><ele>438.66666666666663</ele><time>2026-04-29T14:18:06.485Z</time></trkpt><trkpt lat="45.7703406" lon="11.5476326"><ele>435.3333333333333</ele><time>2026-04-29T14:18:07.5Z</time></trkpt><trkpt lat="45.7702678" lon="11.5475823"><ele>432.0</ele><time>2026-04-29T14:18:08.475Z</time></trkpt><trkpt lat="45.7702085" lon="11.5474948"><ele>433.0</ele><time>2026-04-29T14:18:09.485Z</time></trkpt><trkpt lat="45.7701548" lon="11.5473796"><ele>434.00000000000006</ele><time>2026-04-29T14:18:10.587Z</time></trkpt><trkpt lat="45.770083" lon="11.5471525"><ele>435.00000000000006</ele><time>2026-04-29T14:18:12.496Z</time></trkpt><trkpt lat="45.7700584" lon="11.5470408"><ele>436.0</ele><time>2026-04-29T14:18:13.451Z</time></trkpt><trkpt lat="45.7700348" lon="11.5469504"><ele>437.0</ele><time>2026-04-29T14:18:14.451Z</time></trkpt><trkpt lat="45.7700079" lon="11.546866"><ele>437.0</ele><time>2026-04-29T14:18:15.55Z</time></trkpt><trkpt lat="45.7699712" lon="11.5467496"><ele>437.00000000000006</ele><time>2026-04-29T14:18:17.485Z</time></trkpt><trkpt lat="45.7698828" lon="11.5467833"><ele>437.00000000000006</ele><time>2026-04-29T14:18:21.594Z</time></trkpt><trkpt lat="45.7699071" lon="11.546931"><ele>437.0</ele><time>2026-04-29T14:18:23.444Z</time></trkpt><trkpt lat="45.7699428" lon="11.5470397"><ele>437.0</ele><time>2026-04-29T14:18:24.48Z</time></trkpt><trkpt lat="45.7699782" lon="11.5471442"><ele>436.2857142857143</ele><time>2026-04-29T14:18:25.478Z</time></trkpt><trkpt lat="45.7700105" lon="11.547251"><ele>435.5714285714286</ele><time>2026-04-29T14:18:26.501Z</time></trkpt><trkpt lat="45.7700358" lon="11.5473474"><ele>434.8571428571429</ele><time>2026-04-29T14:18:27.459Z</time></trkpt><trkpt lat="45.7700652" lon="11.5474485"><ele>434.1428571428571</ele><time>2026-04-29T14:18:28.452Z</time></trkpt><trkpt lat="45.7700998" lon="11.5475424"><ele>433.42857142857144</ele><time>2026-04-29T14:18:29.453Z</time></trkpt><trkpt lat="45.7701278" lon="11.5476412"><ele>432.7142857142857</ele><time>2026-04-29T14:18:30.474Z</time></trkpt><trkpt lat="45.7701522" lon="11.547737"><ele>432.0</ele><time>2026-04-29T14:18:31.5Z</time></trkpt><trkpt lat="45.7702061" lon="11.5478697"><ele>424.40000000000003</ele><time>2026-04-29T14:18:33.581Z</time></trkpt><trkpt lat="45.7702797" lon="11.5479474"><ele>416.80000000000007</ele><time>2026-04-29T14:18:35.484Z</time></trkpt><trkpt lat="45.7703418" lon="11.5479669"><ele>409.2</ele><time>2026-04-29T14:18:36.503Z</time></trkpt><trkpt lat="45.7704699" lon="11.5479873"><ele>401.6</ele><time>2026-04-29T14:18:38.46Z</time></trkpt><trkpt lat="45.7705373" lon="11.5479891"><ele>394.0</ele><time>2026-04-29T14:18:39.471Z</time></trkpt><trkpt lat="45.7706708" lon="11.5480097"><ele>394.00000000000006</ele><time>2026-04-29T14:18:41.47Z</time></trkpt><trkpt lat="45.7707381" lon="11.548034"><ele>394.0</ele><time>2026-04-29T14:18:42.442Z</time></trkpt><trkpt lat="45.7707994" lon="11.5480619"><ele>394.0</ele><time>2026-04-29T14:18:43.442Z</time></trkpt><trkpt lat="45.7708694" lon="11.5480951"><ele>394.0</ele><time>2026-04-29T14:18:44.484Z</time></trkpt><trkpt lat="45.7709857" lon="11.5481676"><ele>394.00000000000006</ele><time>2026-04-29T14:18:46.423Z</time></trkpt><trkpt lat="45.7710424" lon="11.5482331"><ele>394.0</ele><time>2026-04-29T14:18:47.461Z</time></trkpt><trkpt lat="45.7710931" lon="11.5482941"><ele>393.83333333333337</ele><time>2026-04-29T14:18:48.446Z</time></trkpt><trkpt lat="45.7711444" lon="11.5483545"><ele>393.6666666666667</ele><time>2026-04-29T14:18:49.447Z</time></trkpt><trkpt lat="45.7712282" lon="11.5484609"><ele>393.5</ele><time>2026-04-29T14:18:51.473Z</time></trkpt><trkpt lat="45.7712946" lon="11.548558"><ele>393.33333333333337</ele><time>2026-04-29T14:18:53.552Z</time></trkpt><trkpt lat="45.7713407" lon="11.5486435"><ele>393.1666666666667</ele><time>2026-04-29T14:18:55.46Z</time></trkpt><trkpt lat="45.7713123" lon="11.5487669"><ele>393.0</ele><time>2026-04-29T14:18:58.515Z</time></trkpt><trkpt lat="45.7712253" lon="11.5487723"><ele>393.0</ele><time>2026-04-29T14:19:00.466Z</time></trkpt><trkpt lat="45.771116" lon="11.5487259"><ele>393.0</ele><time>2026-04-29T14:19:02.456Z</time></trkpt><trkpt lat="45.77105" lon="11.5487027"><ele>393.0</ele><time>2026-04-29T14:19:03.492Z</time></trkpt><trkpt lat="45.7709846" lon="11.548678"><ele>393.0</ele><time>2026-04-29T14:19:04.443Z</time></trkpt><trkpt lat="45.7709137" lon="11.5486501"><ele>393.0</ele><time>2026-04-29T14:19:05.459Z</time></trkpt><trkpt lat="45.7708376" lon="11.5486219"><ele>393.0</ele><time>2026-04-29T14:19:06.48Z</time></trkpt><trkpt lat="45.7707584" lon="11.5485975"><ele>393.1666666666667</ele><time>2026-04-29T14:19:07.455Z</time></trkpt><trkpt lat="45.7706882" lon="11.548582"><ele>393.33333333333337</ele><time>2026-04-29T14:19:08.51Z</time></trkpt><trkpt lat="45.77058" lon="11.5485827"><ele>393.5</ele><time>2026-04-29T14:19:10.461Z</time></trkpt><trkpt lat="45.7705143" lon="11.5486015"><ele>393.6666666666667</ele><time>2026-04-29T14:19:11.487Z</time></trkpt><trkpt lat="45.7704429" lon="11.5486201"><ele>393.83333333333337</ele><time>2026-04-29T14:19:12.462Z</time></trkpt><trkpt lat="45.7703734" lon="11.5486406"><ele>394.0</ele><time>2026-04-29T14:19:13.486Z</time></trkpt><trkpt lat="45.7702411" lon="11.5486527"><ele>389.79999999999995</ele><time>2026-04-29T14:19:15.497Z</time></trkpt><trkpt lat="45.7701388" lon="11.5486527"><ele>385.59999999999997</ele><time>2026-04-29T14:19:17.564Z</time></trkpt><trkpt lat="45.7700174" lon="11.5486267"><ele>381.4</ele><time>2026-04-29T14:19:19.593Z</time></trkpt><trkpt lat="45.7699377" lon="11.5485456"><ele>377.2</ele><time>2026-04-29T14:19:21.462Z</time></trkpt><trkpt lat="45.7698652" lon="11.5484149"><ele>373.0</ele><time>2026-04-29T14:19:23.442Z</time></trkpt><trkpt lat="45.7697767" lon="11.5483155"><ele>373.0</ele><time>2026-04-29T14:19:25.433Z</time></trkpt><trkpt lat="45.7696968" lon="11.5482518"><ele>373.0</ele><time>2026-04-29T14:19:27.479Z</time></trkpt><trkpt lat="45.7696243" lon="11.5481872"><ele>373.0</ele><time>2026-04-29T14:19:29.48Z</time></trkpt><trkpt lat="45.7695648" lon="11.5481553"><ele>373.0</ele><time>2026-04-29T14:19:31.46Z</time></trkpt><trkpt lat="45.7695581" lon="11.5482667"><ele>373.0</ele><time>2026-04-29T14:19:34.456Z</time></trkpt><trkpt lat="45.7696425" lon="11.5483795"><ele>373.0</ele><time>2026-04-29T14:19:36.538Z</time></trkpt><trkpt lat="45.7696949" lon="11.548443"><ele>373.0</ele><time>2026-04-29T14:19:37.55Z</time></trkpt><trkpt lat="45.7697395" lon="11.5485076"><ele>373.0</ele><time>2026-04-29T14:19:38.522Z</time></trkpt><trkpt lat="45.769795" lon="11.5486157"><ele>373.0</ele><time>2026-04-29T14:19:40.515Z</time></trkpt><trkpt lat="45.7698352" lon="11.5487066"><ele>373.0</ele><time>2026-04-29T14:19:42.56Z</time></trkpt><trkpt lat="45.7698179" lon="11.5488083"><ele>373.0</ele><time>2026-04-29T14:19:45.5Z</time></trkpt><trkpt lat="45.7697596" lon="11.54877"><ele>373.0</ele><time>2026-04-29T14:19:47.529Z</time></trkpt><trkpt lat="45.7697228" lon="11.5486699"><ele>373.0</ele><time>2026-04-29T14:19:49.543Z</time></trkpt><trkpt lat="45.7696487" lon="11.5486265"><ele>368.3333333333333</ele><time>2026-04-29T14:19:52.531Z</time></trkpt><trkpt lat="45.769628" lon="11.5487128"><ele>363.66666666666663</ele><time>2026-04-29T14:19:54.547Z</time></trkpt><trkpt lat="45.7696487" lon="11.5488147"><ele>359.0</ele><time>2026-04-29T14:19:56.496Z</time></trkpt><trkpt lat="45.7697074" lon="11.5488989"><ele>354.3333333333333</ele><time>2026-04-29T14:19:58.516Z</time></trkpt><trkpt lat="45.7697859" lon="11.548944"><ele>349.6666666666667</ele><time>2026-04-29T14:20:00.498Z</time></trkpt><trkpt lat="45.7698601" lon="11.549021"><ele>345.0</ele><time>2026-04-29T14:20:02.506Z</time></trkpt><trkpt lat="45.7699246" lon="11.5491301"><ele>345.0</ele><time>2026-04-29T14:20:04.5Z</time></trkpt><trkpt lat="45.7699862" lon="11.5492484"><ele>345.0</ele><time>2026-04-29T14:20:06.489Z</time></trkpt><trkpt lat="45.7700159" lon="11.5493423"><ele>345.0</ele><time>2026-04-29T14:20:08.524Z</time></trkpt><trkpt lat="45.7699566" lon="11.5494401"><ele>345.0</ele><time>2026-04-29T14:20:11.509Z</time></trkpt><trkpt lat="45.7698939" lon="11.5494896"><ele>345.0</ele><time>2026-04-29T14:20:13.541Z</time></trkpt><trkpt lat="45.7698317" lon="11.5495799"><ele>345.0</ele><time>2026-04-29T14:20:15.528Z</time></trkpt><trkpt lat="45.7698043" lon="11.5497241"><ele>345.2</ele><time>2026-04-29T14:20:17.518Z</time></trkpt><trkpt lat="45.7697558" lon="11.5498488"><ele>345.4</ele><time>2026-04-29T14:20:19.52Z</time></trkpt><trkpt lat="45.7696615" lon="11.5499368"><ele>345.6</ele><time>2026-04-29T14:20:21.542Z</time></trkpt><trkpt lat="45.7695648" lon="11.5499591"><ele>345.8</ele><time>2026-04-29T14:20:23.509Z</time></trkpt><trkpt lat="45.7694777" lon="11.5499554"><ele>346.0</ele><time>2026-04-29T14:20:25.585Z</time></trkpt><trkpt lat="45.7693659" lon="11.5499569"><ele>342.3333333333333</ele><time>2026-04-29T14:20:27.571Z</time></trkpt><trkpt lat="45.7693014" lon="11.5499565"><ele>338.66666666666663</ele><time>2026-04-29T14:20:28.569Z</time></trkpt><trkpt lat="45.7692284" lon="11.5499435"><ele>335.0</ele><time>2026-04-29T14:20:29.538Z</time></trkpt><trkpt lat="45.7691563" lon="11.5499267"><ele>331.3333333333333</ele><time>2026-04-29T14:20:30.54Z</time></trkpt><trkpt lat="45.7690859" lon="11.5499142"><ele>327.6666666666667</ele><time>2026-04-29T14:20:31.509Z</time></trkpt><trkpt lat="45.7690164" lon="11.5498908"><ele>324.0</ele><time>2026-04-29T14:20:32.549Z</time></trkpt><trkpt lat="45.7689101" lon="11.5498798"><ele>324.0</ele><time>2026-04-29T14:20:34.549Z</time></trkpt><trkpt lat="45.7688016" lon="11.5499174"><ele>324.0</ele><time>2026-04-29T14:20:36.556Z</time></trkpt><trkpt lat="45.76873" lon="11.5499638"><ele>324.0</ele><time>2026-04-29T14:20:37.563Z</time></trkpt><trkpt lat="45.7686697" lon="11.5500221"><ele>324.0</ele><time>2026-04-29T14:20:38.536Z</time></trkpt><trkpt lat="45.7686075" lon="11.5500771"><ele>324.0</ele><time>2026-04-29T14:20:39.556Z</time></trkpt><trkpt lat="45.7685375" lon="11.5501256"><ele>324.0</ele><time>2026-04-29T14:20:40.551Z</time></trkpt><trkpt lat="45.7684686" lon="11.5501635"><ele>321.2</ele><time>2026-04-29T14:20:41.558Z</time></trkpt><trkpt lat="45.7684046" lon="11.5501936"><ele>318.4</ele><time>2026-04-29T14:20:42.53Z</time></trkpt><trkpt lat="45.7682877" lon="11.5502415"><ele>315.6</ele><time>2026-04-29T14:20:44.53Z</time></trkpt><trkpt lat="45.7681736" lon="11.5502823"><ele>312.8</ele><time>2026-04-29T14:20:46.559Z</time></trkpt><trkpt lat="45.7680707" lon="11.5503019"><ele>310.0</ele><time>2026-04-29T14:20:48.578Z</time></trkpt><trkpt lat="45.7679759" lon="11.5503182"><ele>310.0</ele><time>2026-04-29T14:20:50.55Z</time></trkpt><trkpt lat="45.767859" lon="11.5503663"><ele>310.0</ele><time>2026-04-29T14:20:52.555Z</time></trkpt><trkpt lat="45.7678025" lon="11.5504262"><ele>310.0</ele><time>2026-04-29T14:20:53.596Z</time></trkpt><trkpt lat="45.7677589" lon="11.5505046"><ele>310.0</ele><time>2026-04-29T14:20:54.572Z</time></trkpt><trkpt lat="45.7677123" lon="11.5505898"><ele>310.0</ele><time>2026-04-29T14:20:55.619Z</time></trkpt><trkpt lat="45.7676755" lon="11.5506651"><ele>310.0</ele><time>2026-04-29T14:20:56.57Z</time></trkpt><trkpt lat="45.7676131" lon="11.5508118"><ele>307.8333333333333</ele><time>2026-04-29T14:20:58.563Z</time></trkpt><trkpt lat="45.767565" lon="11.5509344"><ele>305.66666666666663</ele><time>2026-04-29T14:21:00.567Z</time></trkpt><trkpt lat="45.7674854" lon="11.5509784"><ele>303.5</ele><time>2026-04-29T14:21:02.576Z</time></trkpt><trkpt lat="45.7673868" lon="11.5508994"><ele>301.3333333333333</ele><time>2026-04-29T14:21:04.57Z</time></trkpt><trkpt lat="45.7673372" lon="11.5508333"><ele>299.1666666666667</ele><time>2026-04-29T14:21:05.557Z</time></trkpt><trkpt lat="45.7672868" lon="11.5507658"><ele>297.0</ele><time>2026-04-29T14:21:06.582Z</time></trkpt><trkpt lat="45.7672379" lon="11.5507053"><ele>297.0</ele><time>2026-04-29T14:21:07.581Z</time></trkpt><trkpt lat="45.767193" lon="11.550635"><ele>297.0</ele><time>2026-04-29T14:21:08.658Z</time></trkpt><trkpt lat="45.767159" lon="11.5504707"><ele>297.0</ele><time>2026-04-29T14:21:10.631Z</time></trkpt><trkpt lat="45.7671699" lon="11.5503086"><ele>297.0</ele><time>2026-04-29T14:21:12.603Z</time></trkpt><trkpt lat="45.7672291" lon="11.5501786"><ele>297.0</ele><time>2026-04-29T14:21:14.575Z</time></trkpt><trkpt lat="45.7672941" lon="11.5500609"><ele>296.4</ele><time>2026-04-29T14:21:16.583Z</time></trkpt><trkpt lat="45.7673" lon="11.5499276"><ele>295.79999999999995</ele><time>2026-04-29T14:21:18.697Z</time></trkpt><trkpt lat="45.7672543" lon="11.5498227"><ele>295.2</ele><time>2026-04-29T14:21:20.576Z</time></trkpt><trkpt lat="45.7671925" lon="11.5496827"><ele>294.59999999999997</ele><time>2026-04-29T14:21:22.585Z</time></trkpt><trkpt lat="45.76713" lon="11.5495614"><ele>294.0</ele><time>2026-04-29T14:21:24.593Z</time></trkpt><trkpt lat="45.7670801" lon="11.549498"><ele>294.0</ele><time>2026-04-29T14:21:26.583Z</time></trkpt><trkpt lat="45.7669823" lon="11.5494272"><ele>294.0</ele><time>2026-04-29T14:21:29.578Z</time></trkpt><trkpt lat="45.7669038" lon="11.5493644"><ele>294.0</ele><time>2026-04-29T14:21:31.578Z</time></trkpt><trkpt lat="45.7667975" lon="11.5493089"><ele>294.0</ele><time>2026-04-29T14:21:33.56Z</time></trkpt><trkpt lat="45.7667153" lon="11.5492692"><ele>294.0</ele><time>2026-04-29T14:21:35.498Z</time></trkpt><trkpt lat="45.7666403" lon="11.5491921"><ele>292.1666666666667</ele><time>2026-04-29T14:21:37.498Z</time></trkpt><trkpt lat="45.7665827" lon="11.5490832"><ele>290.3333333333333</ele><time>2026-04-29T14:21:39.496Z</time></trkpt><trkpt lat="45.7665192" lon="11.5489941"><ele>288.5</ele><time>2026-04-29T14:21:41.534Z</time></trkpt><trkpt lat="45.7664498" lon="11.5489509"><ele>286.66666666666663</ele><time>2026-04-29T14:21:43.47Z</time></trkpt><trkpt lat="45.7663802" lon="11.5489466"><ele>284.8333333333333</ele><time>2026-04-29T14:21:46.551Z</time></trkpt><trkpt lat="45.7663199" lon="11.5489117"><ele>283.0</ele><time>2026-04-29T14:22:35.539Z</time></trkpt><trkpt lat="45.766257" lon="11.5488535"><ele>283.0</ele><time>2026-04-29T14:22:37.57Z</time></trkpt><trkpt lat="45.766201" lon="11.5487761"><ele>283.0</ele><time>2026-04-29T14:22:39.468Z</time></trkpt><trkpt lat="45.76614" lon="11.5486794"><ele>283.0</ele><time>2026-04-29T14:22:41.466Z</time></trkpt><trkpt lat="45.7660759" lon="11.5485632"><ele>283.0</ele><time>2026-04-29T14:22:43.455Z</time></trkpt><trkpt lat="45.7659956" lon="11.5484638"><ele>283.0</ele><time>2026-04-29T14:22:45.456Z</time></trkpt><trkpt lat="45.7659006" lon="11.5484218"><ele>281.5</ele><time>2026-04-29T14:22:47.491Z</time></trkpt><trkpt lat="45.765806" lon="11.5483643"><ele>280.0</ele><time>2026-04-29T14:22:49.584Z</time></trkpt><trkpt lat="45.765732" lon="11.5483275"><ele>278.5</ele><time>2026-04-29T14:22:51.459Z</time></trkpt><trkpt lat="45.7656478" lon="11.5483367"><ele>277.0</ele><time>2026-04-29T14:22:53.44Z</time></trkpt><trkpt lat="45.7655688" lon="11.5483191"><ele>275.5</ele><time>2026-04-29T14:22:55.445Z</time></trkpt><trkpt lat="45.7655531" lon="11.5481873"><ele>274.0</ele><time>2026-04-29T14:22:58.452Z</time></trkpt><trkpt lat="45.7655605" lon="11.5480766"><ele>274.0</ele><time>2026-04-29T14:23:00.504Z</time></trkpt><trkpt lat="45.7654928" lon="11.5479161"><ele>274.0</ele><time>2026-04-29T14:23:03.593Z</time></trkpt><trkpt lat="45.765404" lon="11.5478593"><ele>274.0</ele><time>2026-04-29T14:23:05.576Z</time></trkpt><trkpt lat="45.7653198" lon="11.5477768"><ele>274.0</ele><time>2026-04-29T14:23:07.494Z</time></trkpt><trkpt lat="45.7652162" lon="11.5476934"><ele>274.0</ele><time>2026-04-29T14:23:09.488Z</time></trkpt><trkpt lat="45.7651011" lon="11.5476224"><ele>276.0</ele><time>2026-04-29T14:23:11.501Z</time></trkpt><trkpt lat="45.764985" lon="11.5476417"><ele>278.0</ele><time>2026-04-29T14:23:13.492Z</time></trkpt><trkpt lat="45.7648794" lon="11.5477037"><ele>280.0</ele><time>2026-04-29T14:23:15.582Z</time></trkpt><trkpt lat="45.7647518" lon="11.547729"><ele>282.0</ele><time>2026-04-29T14:23:17.489Z</time></trkpt><trkpt lat="45.7646818" lon="11.5477378"><ele>284.0</ele><time>2026-04-29T14:23:18.456Z</time></trkpt><trkpt lat="45.7646157" lon="11.5477651"><ele>284.0</ele><time>2026-04-29T14:23:19.476Z</time></trkpt><trkpt lat="45.7645081" lon="11.5478278"><ele>284.0</ele><time>2026-04-29T14:23:21.472Z</time></trkpt><trkpt lat="45.7643814" lon="11.5477995"><ele>284.0</ele><time>2026-04-29T14:23:23.485Z</time></trkpt><trkpt lat="45.764315" lon="11.5477461"><ele>284.0</ele><time>2026-04-29T14:23:24.57Z</time></trkpt><trkpt lat="45.7642004" lon="11.5476548"><ele>284.0</ele><time>2026-04-29T14:23:26.461Z</time></trkpt><trkpt lat="45.764139" lon="11.5476104"><ele>284.0</ele><time>2026-04-29T14:23:27.441Z</time></trkpt><trkpt lat="45.764064" lon="11.5475661"><ele>284.0</ele><time>2026-04-29T14:23:28.448Z</time></trkpt><trkpt lat="45.7639923" lon="11.5475426"><ele>284.0</ele><time>2026-04-29T14:23:29.462Z</time></trkpt><trkpt lat="45.7639074" lon="11.5475365"><ele>284.0</ele><time>2026-04-29T14:23:30.545Z</time></trkpt><trkpt lat="45.7637262" lon="11.5475595"><ele>284.0</ele><time>2026-04-29T14:23:32.503Z</time></trkpt><trkpt lat="45.7636461" lon="11.5475612"><ele>284.0</ele><time>2026-04-29T14:23:33.453Z</time></trkpt><trkpt lat="45.7635619" lon="11.5475553"><ele>284.0</ele><time>2026-04-29T14:23:34.491Z</time></trkpt><trkpt lat="45.7634884" lon="11.5475546"><ele>284.0</ele><time>2026-04-29T14:23:35.443Z</time></trkpt><trkpt lat="45.763408" lon="11.5475769"><ele>284.0</ele><time>2026-04-29T14:23:36.475Z</time></trkpt><trkpt lat="45.7633364" lon="11.5476168"><ele>284.0</ele><time>2026-04-29T14:23:37.456Z</time></trkpt><trkpt lat="45.7632694" lon="11.5476731"><ele>285.0</ele><time>2026-04-29T14:23:38.447Z</time></trkpt><trkpt lat="45.7632077" lon="11.5477277"><ele>286.0</ele><time>2026-04-29T14:23:39.456Z</time></trkpt><trkpt lat="45.7630892" lon="11.5478027"><ele>287.0</ele><time>2026-04-29T14:23:41.517Z</time></trkpt><trkpt lat="45.7630254" lon="11.5478287"><ele>288.0</ele><time>2026-04-29T14:23:42.454Z</time></trkpt><trkpt lat="45.7629068" lon="11.5478461"><ele>289.0</ele><time>2026-04-29T14:23:44.477Z</time></trkpt><trkpt lat="45.7628224" lon="11.5477969"><ele>289.0</ele><time>2026-04-29T14:23:46.451Z</time></trkpt><trkpt lat="45.7627794" lon="11.5477244"><ele>289.0</ele><time>2026-04-29T14:23:47.475Z</time></trkpt><trkpt lat="45.7627313" lon="11.5476337"><ele>289.0</ele><time>2026-04-29T14:23:48.474Z</time></trkpt><trkpt lat="45.7626828" lon="11.5475273"><ele>289.0</ele><time>2026-04-29T14:23:49.472Z</time></trkpt><trkpt lat="45.7626297" lon="11.5474084"><ele>289.0</ele><time>2026-04-29T14:23:50.463Z</time></trkpt><trkpt lat="45.7625714" lon="11.5472825"><ele>289.0</ele><time>2026-04-29T14:23:51.463Z</time></trkpt><trkpt lat="45.7625032" lon="11.5471456"><ele>292.4</ele><time>2026-04-29T14:23:52.464Z</time></trkpt><trkpt lat="45.7624265" lon="11.5470064"><ele>295.79999999999995</ele><time>2026-04-29T14:23:53.466Z</time></trkpt><trkpt lat="45.7623581" lon="11.5468818"><ele>299.20000000000005</ele><time>2026-04-29T14:23:54.503Z</time></trkpt><trkpt lat="45.7623061" lon="11.5467726"><ele>302.6</ele><time>2026-04-29T14:23:55.477Z</time></trkpt><trkpt lat="45.7622728" lon="11.5466694"><ele>306.0</ele><time>2026-04-29T14:23:56.475Z</time></trkpt><trkpt lat="45.7622433" lon="11.5465743"><ele>306.0</ele><time>2026-04-29T14:23:57.546Z</time></trkpt><trkpt lat="45.7621785" lon="11.5464119"><ele>306.0</ele><time>2026-04-29T14:23:59.523Z</time></trkpt><trkpt lat="45.7621362" lon="11.5463417"><ele>306.0</ele><time>2026-04-29T14:24:00.446Z</time></trkpt><trkpt lat="45.7620898" lon="11.546255"><ele>306.0</ele><time>2026-04-29T14:24:01.595Z</time></trkpt><trkpt lat="45.7620424" lon="11.5461089"><ele>306.0</ele><time>2026-04-29T14:24:03.519Z</time></trkpt><trkpt lat="45.7619899" lon="11.5459457"><ele>304.3333333333333</ele><time>2026-04-29T14:24:05.492Z</time></trkpt><trkpt lat="45.7619562" lon="11.545864"><ele>302.6666666666667</ele><time>2026-04-29T14:24:06.545Z</time></trkpt><trkpt lat="45.7618762" lon="11.545752"><ele>301.0</ele><time>2026-04-29T14:24:08.206Z</time></trkpt><trkpt lat="45.7618521" lon="11.5456586"><ele>299.33333333333337</ele><time>2026-04-29T14:24:09.206Z</time></trkpt><trkpt lat="45.7618427" lon="11.5455456"><ele>297.6666666666667</ele><time>2026-04-29T14:24:10.205Z</time></trkpt><trkpt lat="45.7618332" lon="11.5454183"><ele>296.0</ele><time>2026-04-29T14:24:11.206Z</time></trkpt><trkpt lat="45.7618304" lon="11.5452854"><ele>296.0</ele><time>2026-04-29T14:24:12.491Z</time></trkpt><trkpt lat="45.7618291" lon="11.5451768"><ele>296.0</ele><time>2026-04-29T14:24:13.466Z</time></trkpt><trkpt lat="45.7618198" lon="11.5450862"><ele>296.0</ele><time>2026-04-29T14:24:14.467Z</time></trkpt><trkpt lat="45.7617762" lon="11.5449374"><ele>296.0</ele><time>2026-04-29T14:24:16.574Z</time></trkpt><trkpt lat="45.7617284" lon="11.5447468"><ele>296.0</ele><time>2026-04-29T14:24:18.763Z</time></trkpt><trkpt lat="45.7616891" lon="11.5445736"><ele>297.1666666666667</ele><time>2026-04-29T14:24:20.5Z</time></trkpt><trkpt lat="45.7616673" lon="11.5444819"><ele>298.33333333333337</ele><time>2026-04-29T14:24:21.538Z</time></trkpt><trkpt lat="45.7616213" lon="11.544317"><ele>299.5</ele><time>2026-04-29T14:24:23.546Z</time></trkpt><trkpt lat="45.7615505" lon="11.5441685"><ele>300.6666666666667</ele><time>2026-04-29T14:24:25.491Z</time></trkpt><trkpt lat="45.7615053" lon="11.5440986"><ele>301.8333333333333</ele><time>2026-04-29T14:24:26.486Z</time></trkpt><trkpt lat="45.7614641" lon="11.5440295"><ele>303.0</ele><time>2026-04-29T14:24:27.459Z</time></trkpt><trkpt lat="45.7614298" lon="11.5439456"><ele>303.0</ele><time>2026-04-29T14:24:28.488Z</time></trkpt><trkpt lat="45.7613933" lon="11.5437863"><ele>303.0</ele><time>2026-04-29T14:24:30.467Z</time></trkpt><trkpt lat="45.761368" lon="11.5436321"><ele>303.0</ele><time>2026-04-29T14:24:32.476Z</time></trkpt><trkpt lat="45.7613435" lon="11.5434629"><ele>303.0</ele><time>2026-04-29T14:24:34.513Z</time></trkpt><trkpt lat="45.7613236" lon="11.5433667"><ele>303.0</ele><time>2026-04-29T14:24:35.584Z</time></trkpt><trkpt lat="45.7612705" lon="11.5432078"><ele>304.0</ele><time>2026-04-29T14:24:37.484Z</time></trkpt><trkpt lat="45.7612223" lon="11.5431279"><ele>305.0</ele><time>2026-04-29T14:24:38.588Z</time></trkpt><trkpt lat="45.7611382" lon="11.5429849"><ele>306.0</ele><time>2026-04-29T14:24:40.52Z</time></trkpt><trkpt lat="45.7610861" lon="11.5429202"><ele>307.0</ele><time>2026-04-29T14:24:41.528Z</time></trkpt><trkpt lat="45.7610144" lon="11.5428685"><ele>308.0</ele><time>2026-04-29T14:24:42.616Z</time></trkpt><trkpt lat="45.7609441" lon="11.54284"><ele>309.0</ele><time>2026-04-29T14:24:43.618Z</time></trkpt><trkpt lat="45.7608782" lon="11.5428236"><ele>306.2</ele><time>2026-04-29T14:24:44.519Z</time></trkpt><trkpt lat="45.7608053" lon="11.5428182"><ele>303.4</ele><time>2026-04-29T14:24:45.525Z</time></trkpt><trkpt lat="45.7607332" lon="11.5428205"><ele>300.6</ele><time>2026-04-29T14:24:46.504Z</time></trkpt><trkpt lat="45.7606686" lon="11.5428227"><ele>297.8</ele><time>2026-04-29T14:24:47.503Z</time></trkpt><trkpt lat="45.7605521" lon="11.5427647"><ele>295.0</ele><time>2026-04-29T14:24:49.575Z</time></trkpt><trkpt lat="45.7604625" lon="11.5426111"><ele>295.00000000000006</ele><time>2026-04-29T14:24:51.523Z</time></trkpt><trkpt lat="45.7604308" lon="11.5425081"><ele>295.0</ele><time>2026-04-29T14:24:52.559Z</time></trkpt><trkpt lat="45.7604272" lon="11.5424096"><ele>295.0</ele><time>2026-04-29T14:24:53.531Z</time></trkpt><trkpt lat="45.7604176" lon="11.5423066"><ele>295.0</ele><time>2026-04-29T14:24:54.518Z</time></trkpt><trkpt lat="45.7604151" lon="11.5422064"><ele>295.0</ele><time>2026-04-29T14:24:55.66Z</time></trkpt><trkpt lat="45.7603819" lon="11.5420952"><ele>295.00000000000006</ele><time>2026-04-29T14:24:57.504Z</time></trkpt><trkpt lat="45.760312" lon="11.5420693"><ele>295.0</ele><time>2026-04-29T14:24:59.504Z</time></trkpt><trkpt lat="45.7602486" lon="11.5420976"><ele>294.8333333333333</ele><time>2026-04-29T14:25:01.512Z</time></trkpt><trkpt lat="45.7601618" lon="11.5421838"><ele>294.66666666666663</ele><time>2026-04-29T14:25:03.485Z</time></trkpt><trkpt lat="45.7601257" lon="11.5422676"><ele>294.5</ele><time>2026-04-29T14:25:04.51Z</time></trkpt><trkpt lat="45.7601042" lon="11.5423671"><ele>294.3333333333333</ele><time>2026-04-29T14:25:05.567Z</time></trkpt><trkpt lat="45.76003" lon="11.5424826"><ele>294.1666666666667</ele><time>2026-04-29T14:25:07.549Z</time></trkpt><trkpt lat="45.7599655" lon="11.542513"><ele>294.0</ele><time>2026-04-29T14:25:08.589Z</time></trkpt><trkpt lat="45.7598365" lon="11.542558"><ele>294.0</ele><time>2026-04-29T14:25:10.516Z</time></trkpt><trkpt lat="45.7597688" lon="11.5426102"><ele>294.0</ele><time>2026-04-29T14:25:11.507Z</time></trkpt><trkpt lat="45.7597107" lon="11.5426944"><ele>294.0</ele><time>2026-04-29T14:25:12.537Z</time></trkpt><trkpt lat="45.759653" lon="11.542787"><ele>294.0</ele><time>2026-04-29T14:25:13.515Z</time></trkpt><trkpt lat="45.7595397" lon="11.5429072"><ele>294.0</ele><time>2026-04-29T14:25:15.507Z</time></trkpt><trkpt lat="45.7594695" lon="11.5429511"><ele>294.6666666666667</ele><time>2026-04-29T14:25:16.542Z</time></trkpt><trkpt lat="45.7594032" lon="11.5429668"><ele>295.3333333333333</ele><time>2026-04-29T14:25:17.57Z</time></trkpt><trkpt lat="45.7593389" lon="11.5429825"><ele>296.0</ele><time>2026-04-29T14:25:18.53Z</time></trkpt><trkpt lat="45.7592308" lon="11.5429626"><ele>296.66666666666663</ele><time>2026-04-29T14:25:20.505Z</time></trkpt><trkpt lat="45.7591698" lon="11.5428342"><ele>297.3333333333333</ele><time>2026-04-29T14:25:22.591Z</time></trkpt><trkpt lat="45.7591413" lon="11.54274"><ele>298.0</ele><time>2026-04-29T14:25:23.61Z</time></trkpt><trkpt lat="45.7591043" lon="11.5426487"><ele>298.66666666666663</ele><time>2026-04-29T14:25:24.563Z</time></trkpt><trkpt lat="45.7590591" lon="11.5425534"><ele>299.3333333333333</ele><time>2026-04-29T14:25:25.552Z</time></trkpt><trkpt lat="45.7590075" lon="11.5424503"><ele>300.0</ele><time>2026-04-29T14:25:26.563Z</time></trkpt><trkpt lat="45.7589454" lon="11.5423459"><ele>300.6666666666667</ele><time>2026-04-29T14:25:27.599Z</time></trkpt><trkpt lat="45.7588913" lon="11.5422459"><ele>301.33333333333337</ele><time>2026-04-29T14:25:28.55Z</time></trkpt><trkpt lat="45.7588366" lon="11.5421469"><ele>302.0</ele><time>2026-04-29T14:25:29.538Z</time></trkpt><trkpt lat="45.7587741" lon="11.5420533"><ele>305.2</ele><time>2026-04-29T14:25:30.618Z</time></trkpt><trkpt lat="45.758671" lon="11.5419216"><ele>308.4</ele><time>2026-04-29T14:25:32.547Z</time></trkpt><trkpt lat="45.7586142" lon="11.5418797"><ele>311.6</ele><time>2026-04-29T14:25:33.513Z</time></trkpt><trkpt lat="45.7585268" lon="11.5418501"><ele>314.8</ele><time>2026-04-29T14:25:35.499Z</time></trkpt><trkpt lat="45.758424" lon="11.5418235"><ele>318.0</ele><time>2026-04-29T14:25:37.536Z</time></trkpt><trkpt lat="45.7583464" lon="11.5418127"><ele>318.6</ele><time>2026-04-29T14:25:38.556Z</time></trkpt><trkpt lat="45.7582706" lon="11.5418132"><ele>319.20000000000005</ele><time>2026-04-29T14:25:39.568Z</time></trkpt><trkpt lat="45.7582014" lon="11.5418155"><ele>319.8</ele><time>2026-04-29T14:25:40.496Z</time></trkpt><trkpt lat="45.7581089" lon="11.5418306"><ele>320.40000000000003</ele><time>2026-04-29T14:25:41.616Z</time></trkpt><trkpt lat="45.7580274" lon="11.5418466"><ele>321.0</ele><time>2026-04-29T14:25:42.62Z</time></trkpt><trkpt lat="45.7578877" lon="11.541884"><ele>321.0</ele><time>2026-04-29T14:25:44.535Z</time></trkpt><trkpt lat="45.7578104" lon="11.5419074"><ele>321.0</ele><time>2026-04-29T14:25:45.604Z</time></trkpt><trkpt lat="45.757743" lon="11.5419348"><ele>321.0</ele><time>2026-04-29T14:25:46.637Z</time></trkpt><trkpt lat="45.7576269" lon="11.5419898"><ele>321.0</ele><time>2026-04-29T14:25:48.552Z</time></trkpt><trkpt lat="45.7575041" lon="11.5420236"><ele>321.0</ele><time>2026-04-29T14:25:50.521Z</time></trkpt><trkpt lat="45.7574382" lon="11.5420324"><ele>321.1666666666667</ele><time>2026-04-29T14:25:51.496Z</time></trkpt><trkpt lat="45.7573713" lon="11.5420399"><ele>321.3333333333333</ele><time>2026-04-29T14:25:52.51Z</time></trkpt><trkpt lat="45.7572454" lon="11.5420526"><ele>321.5</ele><time>2026-04-29T14:25:54.514Z</time></trkpt><trkpt lat="45.7571719" lon="11.5420634"><ele>321.66666666666663</ele><time>2026-04-29T14:25:55.535Z</time></trkpt><trkpt lat="45.7571017" lon="11.5420715"><ele>321.8333333333333</ele><time>2026-04-29T14:25:56.518Z</time></trkpt><trkpt lat="45.7570363" lon="11.5420777"><ele>322.0</ele><time>2026-04-29T14:25:57.517Z</time></trkpt><trkpt lat="45.7569708" lon="11.5420768"><ele>320.66666666666663</ele><time>2026-04-29T14:25:58.527Z</time></trkpt><trkpt lat="45.7569043" lon="11.5420617"><ele>319.3333333333333</ele><time>2026-04-29T14:25:59.538Z</time></trkpt><trkpt lat="45.7568351" lon="11.5420372"><ele>318.0</ele><time>2026-04-29T14:26:00.547Z</time></trkpt><trkpt lat="45.7567645" lon="11.5420025"><ele>316.6666666666667</ele><time>2026-04-29T14:26:01.544Z</time></trkpt><trkpt lat="45.7566955" lon="11.5419518"><ele>315.33333333333337</ele><time>2026-04-29T14:26:02.522Z</time></trkpt><trkpt lat="45.7566261" lon="11.541887"><ele>314.0</ele><time>2026-04-29T14:26:03.537Z</time></trkpt><trkpt lat="45.7565633" lon="11.5418229"><ele>313.99999999999994</ele><time>2026-04-29T14:26:04.498Z</time></trkpt><trkpt lat="45.7565005" lon="11.5417587"><ele>314.0</ele><time>2026-04-29T14:26:05.496Z</time></trkpt><trkpt lat="45.7564454" lon="11.5416935"><ele>314.0</ele><time>2026-04-29T14:26:06.516Z</time></trkpt><trkpt lat="45.7563968" lon="11.5416305"><ele>314.0</ele><time>2026-04-29T14:26:07.548Z</time></trkpt><trkpt lat="45.756343" lon="11.5415589"><ele>314.0</ele><time>2026-04-29T14:26:08.671Z</time></trkpt><trkpt lat="45.7562893" lon="11.5414926"><ele>313.99999999999994</ele><time>2026-04-29T14:26:09.592Z</time></trkpt><trkpt lat="45.7562217" lon="11.5414106"><ele>314.0</ele><time>2026-04-29T14:26:10.665Z</time></trkpt><trkpt lat="45.7561519" lon="11.5413426"><ele>314.0</ele><time>2026-04-29T14:26:11.736Z</time></trkpt><trkpt lat="45.7560931" lon="11.5412898"><ele>314.0</ele><time>2026-04-29T14:26:12.638Z</time></trkpt><trkpt lat="45.756029" lon="11.5412253"><ele>314.0</ele><time>2026-04-29T14:26:13.658Z</time></trkpt><trkpt lat="45.7559342" lon="11.5411235"><ele>314.0</ele><time>2026-04-29T14:26:15.599Z</time></trkpt><trkpt lat="45.7558406" lon="11.5410078"><ele>314.0</ele><time>2026-04-29T14:26:17.643Z</time></trkpt><trkpt lat="45.7557457" lon="11.5408792"><ele>314.0</ele><time>2026-04-29T14:26:19.771Z</time></trkpt><trkpt lat="45.7556517" lon="11.5407367"><ele>314.0</ele><time>2026-04-29T14:26:21.63Z</time></trkpt><trkpt lat="45.7556034" lon="11.5406518"><ele>314.0</ele><time>2026-04-29T14:26:22.611Z</time></trkpt><trkpt lat="45.7555512" lon="11.5405671"><ele>314.0</ele><time>2026-04-29T14:26:23.658Z</time></trkpt><trkpt lat="45.7555083" lon="11.5404928"><ele>314.0</ele><time>2026-04-29T14:26:24.632Z</time></trkpt><trkpt lat="45.7554661" lon="11.5404211"><ele>314.0</ele><time>2026-04-29T14:26:25.65Z</time></trkpt><trkpt lat="45.7553863" lon="11.5402926"><ele>314.0</ele><time>2026-04-29T14:26:27.615Z</time></trkpt><trkpt lat="45.7553161" lon="11.5401443"><ele>314.0</ele><time>2026-04-29T14:26:29.604Z</time></trkpt><trkpt lat="45.7552871" lon="11.5400554"><ele>314.0</ele><time>2026-04-29T14:26:30.61Z</time></trkpt><trkpt lat="45.7552655" lon="11.539953"><ele>314.0</ele><time>2026-04-29T14:26:31.599Z</time></trkpt><trkpt lat="45.7552508" lon="11.5398261"><ele>314.0</ele><time>2026-04-29T14:26:32.616Z</time></trkpt><trkpt lat="45.7552419" lon="11.5396914"><ele>313.83333333333337</ele><time>2026-04-29T14:26:33.594Z</time></trkpt><trkpt lat="45.7552385" lon="11.539549"><ele>313.6666666666667</ele><time>2026-04-29T14:26:34.611Z</time></trkpt><trkpt lat="45.7552489" lon="11.5394173"><ele>313.5</ele><time>2026-04-29T14:26:35.608Z</time></trkpt><trkpt lat="45.7552564" lon="11.5392854"><ele>313.3333333333333</ele><time>2026-04-29T14:26:36.649Z</time></trkpt><trkpt lat="45.7552353" lon="11.5391678"><ele>313.16666666666663</ele><time>2026-04-29T14:26:37.646Z</time></trkpt><trkpt lat="45.7551896" lon="11.5390774"><ele>313.0</ele><time>2026-04-29T14:26:38.638Z</time></trkpt><trkpt lat="45.7551355" lon="11.539005"><ele>310.8333333333333</ele><time>2026-04-29T14:26:39.637Z</time></trkpt><trkpt lat="45.7550756" lon="11.5389535"><ele>308.66666666666663</ele><time>2026-04-29T14:26:40.621Z</time></trkpt><trkpt lat="45.7550025" lon="11.5388992"><ele>306.5</ele><time>2026-04-29T14:26:41.608Z</time></trkpt><trkpt lat="45.7549157" lon="11.5388472"><ele>304.3333333333333</ele><time>2026-04-29T14:26:42.635Z</time></trkpt><trkpt lat="45.7548344" lon="11.5388064"><ele>302.1666666666667</ele><time>2026-04-29T14:26:43.64Z</time></trkpt><trkpt lat="45.7547587" lon="11.5387693"><ele>300.0</ele><time>2026-04-29T14:26:44.612Z</time></trkpt><trkpt lat="45.754684" lon="11.5387284"><ele>299.6666666666667</ele><time>2026-04-29T14:26:45.616Z</time></trkpt><trkpt lat="45.7546134" lon="11.5386852"><ele>299.3333333333333</ele><time>2026-04-29T14:26:46.628Z</time></trkpt><trkpt lat="45.7545446" lon="11.5386448"><ele>299.0</ele><time>2026-04-29T14:26:47.612Z</time></trkpt><trkpt lat="45.7544739" lon="11.5386002"><ele>298.66666666666663</ele><time>2026-04-29T14:26:48.631Z</time></trkpt><trkpt lat="45.7544056" lon="11.5385529"><ele>298.3333333333333</ele><time>2026-04-29T14:26:49.637Z</time></trkpt><trkpt lat="45.754353" lon="11.5384761"><ele>298.0</ele><time>2026-04-29T14:26:50.649Z</time></trkpt><trkpt lat="45.7543343" lon="11.5383775"><ele>296.6</ele><time>2026-04-29T14:26:51.654Z</time></trkpt><trkpt lat="45.7543395" lon="11.5382768"><ele>295.20000000000005</ele><time>2026-04-29T14:26:52.639Z</time></trkpt><trkpt lat="45.7543495" lon="11.5381603"><ele>293.8</ele><time>2026-04-29T14:26:53.764Z</time></trkpt><trkpt lat="45.7543579" lon="11.5379518"><ele>292.40000000000003</ele><time>2026-04-29T14:26:55.634Z</time></trkpt><trkpt lat="45.7543712" lon="11.5378374"><ele>291.0</ele><time>2026-04-29T14:26:56.606Z</time></trkpt><trkpt lat="45.7544125" lon="11.5377292"><ele>291.0</ele><time>2026-04-29T14:26:57.628Z</time></trkpt><trkpt lat="45.7544681" lon="11.5376439"><ele>291.0</ele><time>2026-04-29T14:26:58.62Z</time></trkpt><trkpt lat="45.7545437" lon="11.53757"><ele>291.0</ele><time>2026-04-29T14:26:59.612Z</time></trkpt><trkpt lat="45.7546189" lon="11.5374908"><ele>291.0</ele><time>2026-04-29T14:27:00.636Z</time></trkpt><trkpt lat="45.7546843" lon="11.5374065"><ele>291.0</ele><time>2026-04-29T14:27:01.594Z</time></trkpt><trkpt lat="45.7547356" lon="11.5372921"><ele>291.0</ele><time>2026-04-29T14:27:02.626Z</time></trkpt><trkpt lat="45.754758" lon="11.5371684"><ele>292.1666666666667</ele><time>2026-04-29T14:27:03.605Z</time></trkpt><trkpt lat="45.7547538" lon="11.5370419"><ele>293.3333333333333</ele><time>2026-04-29T14:27:04.593Z</time></trkpt><trkpt lat="45.7547206" lon="11.536949"><ele>294.5</ele><time>2026-04-29T14:27:05.585Z</time></trkpt><trkpt lat="45.7546512" lon="11.5368928"><ele>295.66666666666663</ele><time>2026-04-29T14:27:06.603Z</time></trkpt><trkpt lat="45.7545783" lon="11.5368291"><ele>296.8333333333333</ele><time>2026-04-29T14:27:07.706Z</time></trkpt><trkpt lat="45.7545278" lon="11.5367523"><ele>298.0</ele><time>2026-04-29T14:27:08.668Z</time></trkpt><trkpt lat="45.7544842" lon="11.5366419"><ele>298.0</ele><time>2026-04-29T14:27:09.804Z</time></trkpt><trkpt lat="45.7544444" lon="11.5364735"><ele>298.0</ele><time>2026-04-29T14:27:11.645Z</time></trkpt><trkpt lat="45.7544134" lon="11.5363384"><ele>298.0</ele><time>2026-04-29T14:27:13.638Z</time></trkpt><trkpt lat="45.7543928" lon="11.5362456"><ele>298.0</ele><time>2026-04-29T14:27:14.653Z</time></trkpt><trkpt lat="45.7543656" lon="11.5361522"><ele>298.0</ele><time>2026-04-29T14:27:15.661Z</time></trkpt><trkpt lat="45.7543376" lon="11.5360512"><ele>298.0</ele><time>2026-04-29T14:27:16.62Z</time></trkpt><trkpt lat="45.7542956" lon="11.5359347"><ele>295.8</ele><time>2026-04-29T14:27:17.669Z</time></trkpt><trkpt lat="45.7542429" lon="11.5358251"><ele>293.6</ele><time>2026-04-29T14:27:18.651Z</time></trkpt><trkpt lat="45.7541676" lon="11.5357197"><ele>291.4</ele><time>2026-04-29T14:27:19.69Z</time></trkpt><trkpt lat="45.7540887" lon="11.5356318"><ele>289.2</ele><time>2026-04-29T14:27:20.663Z</time></trkpt><trkpt lat="45.753994" lon="11.5355467"><ele>287.0</ele><time>2026-04-29T14:27:21.658Z</time></trkpt><trkpt lat="45.7539117" lon="11.5354651"><ele>287.83333333333337</ele><time>2026-04-29T14:27:22.648Z</time></trkpt><trkpt lat="45.7538359" lon="11.5353852"><ele>288.6666666666667</ele><time>2026-04-29T14:27:23.639Z</time></trkpt><trkpt lat="45.7537702" lon="11.5353155"><ele>289.5</ele><time>2026-04-29T14:27:24.672Z</time></trkpt><trkpt lat="45.7537132" lon="11.5352568"><ele>290.3333333333333</ele><time>2026-04-29T14:27:25.673Z</time></trkpt><trkpt lat="45.7536637" lon="11.5351981"><ele>291.16666666666663</ele><time>2026-04-29T14:27:26.774Z</time></trkpt><trkpt lat="45.753606" lon="11.5351204"><ele>292.0</ele><time>2026-04-29T14:27:28.691Z</time></trkpt><trkpt lat="45.7535559" lon="11.5350628"><ele>292.0</ele><time>2026-04-29T14:27:30.788Z</time></trkpt><trkpt lat="45.7534997" lon="11.534943"><ele>292.0</ele><time>2026-04-29T14:27:33.664Z</time></trkpt><trkpt lat="45.7534848" lon="11.5348193"><ele>292.0</ele><time>2026-04-29T14:27:35.675Z</time></trkpt><trkpt lat="45.753525" lon="11.5346765"><ele>292.0</ele><time>2026-04-29T14:27:37.675Z</time></trkpt><trkpt lat="45.7535583" lon="11.5345993"><ele>292.0</ele><time>2026-04-29T14:27:38.666Z</time></trkpt><trkpt lat="45.75361" lon="11.5344494"><ele>291.5</ele><time>2026-04-29T14:27:40.678Z</time></trkpt><trkpt lat="45.7536374" lon="11.5343142"><ele>291.0</ele><time>2026-04-29T14:27:42.645Z</time></trkpt><trkpt lat="45.7536818" lon="11.5341635"><ele>290.5</ele><time>2026-04-29T14:27:44.664Z</time></trkpt><trkpt lat="45.7537695" lon="11.5340497"><ele>290.0</ele><time>2026-04-29T14:27:46.792Z</time></trkpt><trkpt lat="45.7538872" lon="11.5340087"><ele>290.0</ele><time>2026-04-29T14:27:48.688Z</time></trkpt><trkpt lat="45.7539579" lon="11.5339818"><ele>290.0</ele><time>2026-04-29T14:27:49.683Z</time></trkpt><trkpt lat="45.7540332" lon="11.5339378"><ele>290.0</ele><time>2026-04-29T14:27:50.681Z</time></trkpt><trkpt lat="45.7541061" lon="11.5339161"><ele>290.0</ele><time>2026-04-29T14:27:51.678Z</time></trkpt><trkpt lat="45.7541779" lon="11.5338818"><ele>290.0</ele><time>2026-04-29T14:27:52.635Z</time></trkpt><trkpt lat="45.7542395" lon="11.5338326"><ele>290.0</ele><time>2026-04-29T14:27:53.694Z</time></trkpt><trkpt lat="45.7543429" lon="11.5337588"><ele>288.6666666666667</ele><time>2026-04-29T14:27:55.644Z</time></trkpt><trkpt lat="45.7544422" lon="11.5336771"><ele>287.33333333333337</ele><time>2026-04-29T14:27:57.666Z</time></trkpt><trkpt lat="45.7545027" lon="11.5336351"><ele>286.0</ele><time>2026-04-29T14:27:58.633Z</time></trkpt><trkpt lat="45.7545662" lon="11.5335941"><ele>284.6666666666667</ele><time>2026-04-29T14:27:59.649Z</time></trkpt><trkpt lat="45.7546306" lon="11.533547"><ele>283.3333333333333</ele><time>2026-04-29T14:28:00.643Z</time></trkpt><trkpt lat="45.7546999" lon="11.5334964"><ele>282.0</ele><time>2026-04-29T14:28:01.65Z</time></trkpt><trkpt lat="45.7547714" lon="11.5334556"><ele>282.0</ele><time>2026-04-29T14:28:02.661Z</time></trkpt><trkpt lat="45.7548475" lon="11.5334078"><ele>282.0</ele><time>2026-04-29T14:28:03.672Z</time></trkpt><trkpt lat="45.754924" lon="11.5333528"><ele>282.0</ele><time>2026-04-29T14:28:04.649Z</time></trkpt><trkpt lat="45.7549945" lon="11.5333089"><ele>282.0</ele><time>2026-04-29T14:28:05.641Z</time></trkpt><trkpt lat="45.7550656" lon="11.533247"><ele>282.0</ele><time>2026-04-29T14:28:06.672Z</time></trkpt><trkpt lat="45.7551319" lon="11.5331651"><ele>282.0</ele><time>2026-04-29T14:28:07.635Z</time></trkpt><trkpt lat="45.7551958" lon="11.5330741"><ele>282.8</ele><time>2026-04-29T14:28:08.637Z</time></trkpt><trkpt lat="45.7552566" lon="11.5329916"><ele>283.6</ele><time>2026-04-29T14:28:09.647Z</time></trkpt><trkpt lat="45.7553177" lon="11.532909"><ele>284.40000000000003</ele><time>2026-04-29T14:28:10.773Z</time></trkpt><trkpt lat="45.7554" lon="11.5327664"><ele>285.2</ele><time>2026-04-29T14:28:12.758Z</time></trkpt><trkpt lat="45.7554346" lon="11.5325928"><ele>286.0</ele><time>2026-04-29T14:28:14.655Z</time></trkpt><trkpt lat="45.7553986" lon="11.5324298"><ele>286.0</ele><time>2026-04-29T14:28:16.678Z</time></trkpt><trkpt lat="45.7553566" lon="11.5323294"><ele>286.0</ele><time>2026-04-29T14:28:18.647Z</time></trkpt><trkpt lat="45.7553361" lon="11.532218"><ele>286.0</ele><time>2026-04-29T14:28:21.679Z</time></trkpt><trkpt lat="45.7552909" lon="11.5320937"><ele>286.0</ele><time>2026-04-29T14:28:23.649Z</time></trkpt><trkpt lat="45.7552509" lon="11.5320043"><ele>286.0</ele><time>2026-04-29T14:28:24.661Z</time></trkpt><trkpt lat="45.7552188" lon="11.531916"><ele>286.0</ele><time>2026-04-29T14:28:25.67Z</time></trkpt><trkpt lat="45.7551921" lon="11.5318099"><ele>282.75</ele><time>2026-04-29T14:28:26.68Z</time></trkpt><trkpt lat="45.7551632" lon="11.5317008"><ele>279.5</ele><time>2026-04-29T14:28:27.682Z</time></trkpt><trkpt lat="45.7551327" lon="11.5315507"><ele>276.25</ele><time>2026-04-29T14:28:28.882Z</time></trkpt><trkpt lat="45.7550814" lon="11.5312986"><ele>273.0</ele><time>2026-04-29T14:28:30.633Z</time></trkpt><trkpt lat="45.7550484" lon="11.5311457"><ele>272.0</ele><time>2026-04-29T14:28:31.665Z</time></trkpt><trkpt lat="45.7550185" lon="11.530993"><ele>271.0</ele><time>2026-04-29T14:28:32.656Z</time></trkpt><trkpt lat="45.7549848" lon="11.5308428"><ele>270.0</ele><time>2026-04-29T14:28:33.673Z</time></trkpt><trkpt lat="45.754955" lon="11.5307024"><ele>269.0</ele><time>2026-04-29T14:28:34.689Z</time></trkpt><trkpt lat="45.7549209" lon="11.5305706"><ele>268.0</ele><time>2026-04-29T14:28:35.678Z</time></trkpt><trkpt lat="45.754899" lon="11.530445"><ele>267.0</ele><time>2026-04-29T14:28:36.681Z</time></trkpt><trkpt lat="45.7548785" lon="11.5303277"><ele>266.0</ele><time>2026-04-29T14:28:37.668Z</time></trkpt><trkpt lat="45.7548613" lon="11.5301961"><ele>265.0</ele><time>2026-04-29T14:28:38.683Z</time></trkpt><trkpt lat="45.754853" lon="11.5300347"><ele>264.0</ele><time>2026-04-29T14:28:39.797Z</time></trkpt><trkpt lat="45.75489" lon="11.5297587"><ele>264.0</ele><time>2026-04-29T14:28:41.663Z</time></trkpt><trkpt lat="45.7549316" lon="11.5296425"><ele>264.0</ele><time>2026-04-29T14:28:42.661Z</time></trkpt><trkpt lat="45.7549845" lon="11.5295532"><ele>264.0</ele><time>2026-04-29T14:28:43.654Z</time></trkpt><trkpt lat="45.755048" lon="11.52948"><ele>264.0</ele><time>2026-04-29T14:28:44.67Z</time></trkpt><trkpt lat="45.7551281" lon="11.5294432"><ele>264.0</ele><time>2026-04-29T14:28:47.681Z</time></trkpt><trkpt lat="45.7551645" lon="11.5293675"><ele>264.0</ele><time>2026-04-29T14:29:07.683Z</time></trkpt><trkpt lat="45.7552098" lon="11.5292609"><ele>262.6666666666667</ele><time>2026-04-29T14:29:09.685Z</time></trkpt><trkpt lat="45.75525" lon="11.5291685"><ele>261.3333333333333</ele><time>2026-04-29T14:29:10.75Z</time></trkpt><trkpt lat="45.7552846" lon="11.5290675"><ele>260.0</ele><time>2026-04-29T14:29:11.778Z</time></trkpt><trkpt lat="45.7553103" lon="11.5289667"><ele>258.66666666666663</ele><time>2026-04-29T14:29:12.686Z</time></trkpt><trkpt lat="45.7553323" lon="11.5288366"><ele>257.3333333333333</ele><time>2026-04-29T14:29:13.687Z</time></trkpt><trkpt lat="45.7553405" lon="11.5286991"><ele>256.0</ele><time>2026-04-29T14:29:14.657Z</time></trkpt><trkpt lat="45.7553393" lon="11.5285559"><ele>253.33333333333331</ele><time>2026-04-29T14:29:15.636Z</time></trkpt><trkpt lat="45.7553371" lon="11.5283878"><ele>250.66666666666669</ele><time>2026-04-29T14:29:16.774Z</time></trkpt><trkpt lat="45.7553371" lon="11.5280686"><ele>248.0</ele><time>2026-04-29T14:29:18.69Z</time></trkpt><trkpt lat="45.75534" lon="11.527904"><ele>246.5</ele><time>2026-04-29T14:29:19.669Z</time></trkpt><trkpt lat="45.7553569" lon="11.5277293"><ele>245.0</ele><time>2026-04-29T14:29:20.653Z</time></trkpt><trkpt lat="45.7553939" lon="11.5275469"><ele>243.5</ele><time>2026-04-29T14:29:21.653Z</time></trkpt><trkpt lat="45.7554382" lon="11.5273771"><ele>242.0</ele><time>2026-04-29T14:29:22.658Z</time></trkpt><trkpt lat="45.7554829" lon="11.5272234"><ele>242.0</ele><time>2026-04-29T14:29:23.664Z</time></trkpt><trkpt lat="45.7555164" lon="11.5270799"><ele>242.0</ele><time>2026-04-29T14:29:24.638Z</time></trkpt><trkpt lat="45.7555532" lon="11.526943"><ele>242.0</ele><time>2026-04-29T14:29:25.665Z</time></trkpt><trkpt lat="45.7555823" lon="11.5268083"><ele>242.0</ele><time>2026-04-29T14:29:26.647Z</time></trkpt><trkpt lat="45.755596" lon="11.5266641"><ele>242.0</ele><time>2026-04-29T14:29:27.667Z</time></trkpt><trkpt lat="45.7555984" lon="11.5265204"><ele>242.0</ele><time>2026-04-29T14:29:28.661Z</time></trkpt><trkpt lat="45.7555955" lon="11.5263728"><ele>242.0</ele><time>2026-04-29T14:29:29.652Z</time></trkpt><trkpt lat="45.7555886" lon="11.5262198"><ele>242.0</ele><time>2026-04-29T14:29:30.755Z</time></trkpt><trkpt lat="45.7555328" lon="11.5259671"><ele>242.0</ele><time>2026-04-29T14:29:32.658Z</time></trkpt><trkpt lat="45.7554749" lon="11.5258577"><ele>242.6</ele><time>2026-04-29T14:29:33.637Z</time></trkpt><trkpt lat="45.7554109" lon="11.5257485"><ele>243.2</ele><time>2026-04-29T14:29:34.637Z</time></trkpt><trkpt lat="45.7553438" lon="11.5256444"><ele>243.8</ele><time>2026-04-29T14:29:35.652Z</time></trkpt><trkpt lat="45.7552806" lon="11.5255403"><ele>244.4</ele><time>2026-04-29T14:29:36.629Z</time></trkpt><trkpt lat="45.7552212" lon="11.5254445"><ele>245.0</ele><time>2026-04-29T14:29:37.656Z</time></trkpt><trkpt lat="45.7551677" lon="11.5253557"><ele>243.66666666666669</ele><time>2026-04-29T14:29:38.615Z</time></trkpt><trkpt lat="45.7551215" lon="11.5252625"><ele>242.33333333333334</ele><time>2026-04-29T14:29:39.612Z</time></trkpt><trkpt lat="45.7550792" lon="11.5251531"><ele>241.0</ele><time>2026-04-29T14:29:40.628Z</time></trkpt><trkpt lat="45.7550547" lon="11.5250404"><ele>239.66666666666669</ele><time>2026-04-29T14:29:41.636Z</time></trkpt><trkpt lat="45.755055" lon="11.5249165"><ele>238.33333333333334</ele><time>2026-04-29T14:29:42.608Z</time></trkpt><trkpt lat="45.7550688" lon="11.5248153"><ele>237.0</ele><time>2026-04-29T14:29:43.542Z</time></trkpt><trkpt lat="45.755092" lon="11.524712"><ele>237.0</ele><time>2026-04-29T14:29:44.502Z</time></trkpt><trkpt lat="45.7551154" lon="11.5246086"><ele>237.0</ele><time>2026-04-29T14:29:45.532Z</time></trkpt><trkpt lat="45.755109" lon="11.5244434"><ele>237.0</ele><time>2026-04-29T14:29:47.47Z</time></trkpt><trkpt lat="45.7550739" lon="11.5243547"><ele>237.0</ele><time>2026-04-29T14:29:48.518Z</time></trkpt><trkpt lat="45.7550187" lon="11.5242839"><ele>237.0</ele><time>2026-04-29T14:29:49.502Z</time></trkpt><trkpt lat="45.7549545" lon="11.52422"><ele>237.0</ele><time>2026-04-29T14:29:50.524Z</time></trkpt><trkpt lat="45.7548911" lon="11.524155"><ele>233.83333333333334</ele><time>2026-04-29T14:29:51.488Z</time></trkpt><trkpt lat="45.7548276" lon="11.5240801"><ele>230.66666666666669</ele><time>2026-04-29T14:29:52.501Z</time></trkpt><trkpt lat="45.7547679" lon="11.5240048"><ele>227.5</ele><time>2026-04-29T14:29:53.505Z</time></trkpt><trkpt lat="45.7547051" lon="11.5239278"><ele>224.33333333333334</ele><time>2026-04-29T14:29:54.558Z</time></trkpt><trkpt lat="45.7546465" lon="11.5238549"><ele>221.16666666666669</ele><time>2026-04-29T14:29:55.565Z</time></trkpt><trkpt lat="45.7545905" lon="11.5237894"><ele>218.0</ele><time>2026-04-29T14:29:56.524Z</time></trkpt><trkpt lat="45.7545324" lon="11.5237237"><ele>216.50000000000003</ele><time>2026-04-29T14:29:57.526Z</time></trkpt><trkpt lat="45.7544754" lon="11.5236583"><ele>215.0</ele><time>2026-04-29T14:29:58.532Z</time></trkpt><trkpt lat="45.7544212" lon="11.5235964"><ele>213.5</ele><time>2026-04-29T14:29:59.518Z</time></trkpt><trkpt lat="45.7543691" lon="11.5235377"><ele>212.0</ele><time>2026-04-29T14:30:00.496Z</time></trkpt><trkpt lat="45.754276" lon="11.5234152"><ele>210.50000000000003</ele><time>2026-04-29T14:30:02.507Z</time></trkpt><trkpt lat="45.7542328" lon="11.5233431"><ele>209.0</ele><time>2026-04-29T14:30:03.523Z</time></trkpt><trkpt lat="45.7541856" lon="11.5232779"><ele>209.00000000000003</ele><time>2026-04-29T14:30:04.522Z</time></trkpt><trkpt lat="45.7541335" lon="11.5232135"><ele>209.0</ele><time>2026-04-29T14:30:05.531Z</time></trkpt><trkpt lat="45.7540757" lon="11.5231488"><ele>209.0</ele><time>2026-04-29T14:30:06.546Z</time></trkpt><trkpt lat="45.7540224" lon="11.5230853"><ele>209.0</ele><time>2026-04-29T14:30:07.567Z</time></trkpt><trkpt lat="45.7539731" lon="11.5230276"><ele>209.00000000000003</ele><time>2026-04-29T14:30:08.554Z</time></trkpt><trkpt lat="45.7538974" lon="11.5229063"><ele>209.0</ele><time>2026-04-29T14:30:10.506Z</time></trkpt><trkpt lat="45.753871" lon="11.5227615"><ele>207.66666666666669</ele><time>2026-04-29T14:30:12.637Z</time></trkpt><trkpt lat="45.7538794" lon="11.5226577"><ele>206.33333333333334</ele><time>2026-04-29T14:30:16.505Z</time></trkpt><trkpt lat="45.7538892" lon="11.5225634"><ele>205.0</ele><time>2026-04-29T14:31:25.517Z</time></trkpt><trkpt lat="45.7538228" lon="11.5224835"><ele>203.66666666666669</ele><time>2026-04-29T14:31:28.521Z</time></trkpt><trkpt lat="45.7537754" lon="11.5223774"><ele>202.33333333333334</ele><time>2026-04-29T14:31:31.548Z</time></trkpt><trkpt lat="45.7537418" lon="11.5222225"><ele>201.0</ele><time>2026-04-29T14:31:34.544Z</time></trkpt><trkpt lat="45.7536635" lon="11.5221647"><ele>201.0</ele><time>2026-04-29T14:31:36.523Z</time></trkpt><trkpt lat="45.7535588" lon="11.5221294"><ele>201.0</ele><time>2026-04-29T14:31:38.555Z</time></trkpt><trkpt lat="45.7534481" lon="11.5220874"><ele>201.0</ele><time>2026-04-29T14:31:40.538Z</time></trkpt><trkpt lat="45.7533774" lon="11.5220029"><ele>201.0</ele><time>2026-04-29T14:31:42.486Z</time></trkpt><trkpt lat="45.7532953" lon="11.5218735"><ele>201.0</ele><time>2026-04-29T14:31:44.486Z</time></trkpt><trkpt lat="45.7532488" lon="11.5217931"><ele>201.0</ele><time>2026-04-29T14:31:45.526Z</time></trkpt><trkpt lat="45.753207" lon="11.5217149"><ele>201.0</ele><time>2026-04-29T14:31:46.5Z</time></trkpt><trkpt lat="45.7531625" lon="11.5216306"><ele>201.0</ele><time>2026-04-29T14:31:47.492Z</time></trkpt><trkpt lat="45.7531168" lon="11.5215443"><ele>201.0</ele><time>2026-04-29T14:31:48.499Z</time></trkpt><trkpt lat="45.7530717" lon="11.5214546"><ele>201.0</ele><time>2026-04-29T14:31:49.5Z</time></trkpt><trkpt lat="45.753028" lon="11.5213633"><ele>201.0</ele><time>2026-04-29T14:31:50.506Z</time></trkpt><trkpt lat="45.7529773" lon="11.5212666"><ele>199.5</ele><time>2026-04-29T14:31:51.591Z</time></trkpt><trkpt lat="45.7529262" lon="11.5211869"><ele>198.0</ele><time>2026-04-29T14:31:52.505Z</time></trkpt><trkpt lat="45.7528691" lon="11.5210946"><ele>196.5</ele><time>2026-04-29T14:31:53.527Z</time></trkpt><trkpt lat="45.752816" lon="11.5210017"><ele>195.0</ele><time>2026-04-29T14:31:54.486Z</time></trkpt><trkpt lat="45.7527619" lon="11.5209003"><ele>193.5</ele><time>2026-04-29T14:31:55.508Z</time></trkpt><trkpt lat="45.752709" lon="11.5208067"><ele>192.0</ele><time>2026-04-29T14:31:56.516Z</time></trkpt><trkpt lat="45.7526577" lon="11.5207198"><ele>192.0</ele><time>2026-04-29T14:31:57.571Z</time></trkpt><trkpt lat="45.7525806" lon="11.5205867"><ele>192.0</ele><time>2026-04-29T14:31:59.517Z</time></trkpt><trkpt lat="45.7525062" lon="11.5204748"><ele>192.0</ele><time>2026-04-29T14:32:01.506Z</time></trkpt><trkpt lat="45.7524552" lon="11.5204141"><ele>192.0</ele><time>2026-04-29T14:32:02.537Z</time></trkpt><trkpt lat="45.7523598" lon="11.5202859"><ele>192.0</ele><time>2026-04-29T14:32:04.515Z</time></trkpt><trkpt lat="45.7523056" lon="11.5202318"><ele>192.6</ele><time>2026-04-29T14:32:05.512Z</time></trkpt><trkpt lat="45.752242" lon="11.5201831"><ele>193.2</ele><time>2026-04-29T14:32:06.619Z</time></trkpt><trkpt lat="45.7521297" lon="11.5201084"><ele>193.8</ele><time>2026-04-29T14:32:08.529Z</time></trkpt><trkpt lat="45.7520707" lon="11.5200664"><ele>194.4</ele><time>2026-04-29T14:32:09.503Z</time></trkpt><trkpt lat="45.7520151" lon="11.5200001"><ele>195.0</ele><time>2026-04-29T14:32:10.625Z</time></trkpt><trkpt lat="45.7519655" lon="11.519843"><ele>195.0</ele><time>2026-04-29T14:32:12.502Z</time></trkpt><trkpt lat="45.7519416" lon="11.5196738"><ele>195.0</ele><time>2026-04-29T14:32:14.51Z</time></trkpt><trkpt lat="45.7519284" lon="11.5195194"><ele>195.0</ele><time>2026-04-29T14:32:16.525Z</time></trkpt><trkpt lat="45.7518955" lon="11.5193472"><ele>195.0</ele><time>2026-04-29T14:32:18.544Z</time></trkpt><trkpt lat="45.7518517" lon="11.5192707"><ele>195.0</ele><time>2026-04-29T14:32:19.585Z</time></trkpt><trkpt lat="45.7517909" lon="11.5192139"><ele>191.4</ele><time>2026-04-29T14:32:20.513Z</time></trkpt><trkpt lat="45.7517203" lon="11.5191603"><ele>187.8</ele><time>2026-04-29T14:32:21.599Z</time></trkpt><trkpt lat="45.7515952" lon="11.5191145"><ele>184.2</ele><time>2026-04-29T14:32:23.55Z</time></trkpt><trkpt lat="45.7514898" lon="11.5190515"><ele>180.6</ele><time>2026-04-29T14:32:25.513Z</time></trkpt><trkpt lat="45.7514296" lon="11.5189284"><ele>177.0</ele><time>2026-04-29T14:32:27.529Z</time></trkpt><trkpt lat="45.7514987" lon="11.5187929"><ele>176.0</ele><time>2026-04-29T14:32:29.511Z</time></trkpt><trkpt lat="45.751566" lon="11.5187129"><ele>175.0</ele><time>2026-04-29T14:32:30.542Z</time></trkpt><trkpt lat="45.7516315" lon="11.5186345"><ele>174.0</ele><time>2026-04-29T14:32:31.501Z</time></trkpt><trkpt lat="45.7517008" lon="11.5185497"><ele>173.0</ele><time>2026-04-29T14:32:32.58Z</time></trkpt><trkpt lat="45.7517594" lon="11.5184706"><ele>172.0</ele><time>2026-04-29T14:32:33.548Z</time></trkpt><trkpt lat="45.7518233" lon="11.5183878"><ele>171.0</ele><time>2026-04-29T14:32:34.533Z</time></trkpt><trkpt lat="45.7518921" lon="11.5183067"><ele>171.0</ele><time>2026-04-29T14:32:35.523Z</time></trkpt><trkpt lat="45.7519597" lon="11.5182223"><ele>171.0</ele><time>2026-04-29T14:32:36.524Z</time></trkpt><trkpt lat="45.752023" lon="11.5181442"><ele>171.0</ele><time>2026-04-29T14:32:37.524Z</time></trkpt><trkpt lat="45.7520867" lon="11.5180861"><ele>171.0</ele><time>2026-04-29T14:32:38.505Z</time></trkpt><trkpt lat="45.7521689" lon="11.5180253"><ele>171.0</ele><time>2026-04-29T14:32:39.541Z</time></trkpt><trkpt lat="45.7522592" lon="11.5179626"><ele>171.0</ele><time>2026-04-29T14:32:40.63Z</time></trkpt><trkpt lat="45.7523276" lon="11.5179064"><ele>168.5</ele><time>2026-04-29T14:32:41.544Z</time></trkpt><trkpt lat="45.7523984" lon="11.5178425"><ele>166.0</ele><time>2026-04-29T14:32:42.572Z</time></trkpt><trkpt lat="45.7524588" lon="11.5177989"><ele>163.5</ele><time>2026-04-29T14:32:43.508Z</time></trkpt><trkpt lat="45.7525218" lon="11.5177492"><ele>161.0</ele><time>2026-04-29T14:32:44.604Z</time></trkpt><trkpt lat="45.7525822" lon="11.5177188"><ele>158.5</ele><time>2026-04-29T14:32:45.612Z</time></trkpt><trkpt lat="45.752686" lon="11.5176218"><ele>156.0</ele><time>2026-04-29T14:32:47.577Z</time></trkpt><trkpt lat="45.7527427" lon="11.5175805"><ele>156.0</ele><time>2026-04-29T14:32:48.609Z</time></trkpt><trkpt lat="45.7528238" lon="11.5175301"><ele>156.0</ele><time>2026-04-29T14:32:50.524Z</time></trkpt><trkpt lat="45.7528802" lon="11.5174884"><ele>156.0</ele><time>2026-04-29T14:35:01.538Z</time></trkpt><trkpt lat="45.7529411" lon="11.5174236"><ele>156.0</ele><time>2026-04-29T14:35:05.554Z</time></trkpt><trkpt lat="45.7528766" lon="11.5173267"><ele>156.0</ele><time>2026-04-29T14:35:34.524Z</time></trkpt><trkpt lat="45.7527724" lon="11.5173847"><ele>156.0</ele><time>2026-04-29T14:35:37.532Z</time></trkpt><trkpt lat="45.7527093" lon="11.5174585"><ele>155.25</ele><time>2026-04-29T14:35:38.551Z</time></trkpt><trkpt lat="45.7526326" lon="11.5175376"><ele>154.5</ele><time>2026-04-29T14:35:39.546Z</time></trkpt><trkpt lat="45.752528" lon="11.51763"><ele>153.75</ele><time>2026-04-29T14:35:40.586Z</time></trkpt><trkpt lat="45.7524147" lon="11.5177257"><ele>153.0</ele><time>2026-04-29T14:35:41.553Z</time></trkpt><trkpt lat="45.7522979" lon="11.5178204"><ele>155.66666666666666</ele><time>2026-04-29T14:35:42.522Z</time></trkpt><trkpt lat="45.7521748" lon="11.517909"><ele>158.33333333333331</ele><time>2026-04-29T14:35:43.537Z</time></trkpt><trkpt lat="45.7520458" lon="11.5179881"><ele>161.0</ele><time>2026-04-29T14:35:44.662Z</time></trkpt><trkpt lat="45.7518643" lon="11.5180948"><ele>161.0</ele><time>2026-04-29T14:35:46.575Z</time></trkpt><trkpt lat="45.751796" lon="11.5181368"><ele>161.0</ele><time>2026-04-29T14:35:47.527Z</time></trkpt><trkpt lat="45.7517366" lon="11.5181694"><ele>161.0</ele><time>2026-04-29T14:35:48.53Z</time></trkpt><trkpt lat="45.7516398" lon="11.5181444"><ele>161.0</ele><time>2026-04-29T14:35:50.533Z</time></trkpt><trkpt lat="45.7515653" lon="11.5179782"><ele>161.0</ele><time>2026-04-29T14:35:52.574Z</time></trkpt><trkpt lat="45.7515335" lon="11.5178868"><ele>161.0</ele><time>2026-04-29T14:35:53.509Z</time></trkpt><trkpt lat="45.751497" lon="11.5177922"><ele>159.16666666666666</ele><time>2026-04-29T14:35:54.523Z</time></trkpt><trkpt lat="45.7514635" lon="11.5177131"><ele>157.33333333333331</ele><time>2026-04-29T14:35:55.514Z</time></trkpt><trkpt lat="45.7514069" lon="11.5175827"><ele>155.5</ele><time>2026-04-29T14:35:57.559Z</time></trkpt><trkpt lat="45.7513679" lon="11.5174788"><ele>153.66666666666666</ele><time>2026-04-29T14:35:59.565Z</time></trkpt><trkpt lat="45.7512884" lon="11.517431"><ele>151.83333333333334</ele><time>2026-04-29T14:36:01.555Z</time></trkpt><trkpt lat="45.7512257" lon="11.5174602"><ele>150.0</ele><time>2026-04-29T14:36:02.539Z</time></trkpt><trkpt lat="45.7511583" lon="11.5175162"><ele>150.0</ele><time>2026-04-29T14:36:03.534Z</time></trkpt><trkpt lat="45.7510858" lon="11.517579"><ele>150.0</ele><time>2026-04-29T14:36:04.526Z</time></trkpt><trkpt lat="45.7510121" lon="11.5176428"><ele>150.0</ele><time>2026-04-29T14:36:05.54Z</time></trkpt><trkpt lat="45.7509411" lon="11.5177072"><ele>150.0</ele><time>2026-04-29T14:36:06.54Z</time></trkpt><trkpt lat="45.7508751" lon="11.5177719"><ele>150.0</ele><time>2026-04-29T14:36:07.517Z</time></trkpt><trkpt lat="45.7508133" lon="11.5178343"><ele>150.0</ele><time>2026-04-29T14:36:08.544Z</time></trkpt><trkpt lat="45.7507558" lon="11.5178876"><ele>150.33333333333334</ele><time>2026-04-29T14:36:09.552Z</time></trkpt><trkpt lat="45.7506991" lon="11.5179323"><ele>150.66666666666666</ele><time>2026-04-29T14:36:10.522Z</time></trkpt><trkpt lat="45.7506284" lon="11.5179799"><ele>151.0</ele><time>2026-04-29T14:36:11.58Z</time></trkpt><trkpt lat="45.7505527" lon="11.5180145"><ele>151.33333333333331</ele><time>2026-04-29T14:36:12.538Z</time></trkpt><trkpt lat="45.7504586" lon="11.5180274"><ele>151.66666666666666</ele><time>2026-04-29T14:36:13.542Z</time></trkpt><trkpt lat="45.7503527" lon="11.5179958"><ele>152.0</ele><time>2026-04-29T14:36:14.678Z</time></trkpt><trkpt lat="45.7502814" lon="11.5179224"><ele>151.79999999999998</ele><time>2026-04-29T14:36:15.588Z</time></trkpt><trkpt lat="45.7502224" lon="11.5178035"><ele>151.6</ele><time>2026-04-29T14:36:16.63Z</time></trkpt><trkpt lat="45.7501724" lon="11.5176762"><ele>151.39999999999998</ele><time>2026-04-29T14:36:17.601Z</time></trkpt><trkpt lat="45.7501106" lon="11.5175427"><ele>151.2</ele><time>2026-04-29T14:36:18.64Z</time></trkpt><trkpt lat="45.7500475" lon="11.5174203"><ele>151.0</ele><time>2026-04-29T14:36:19.62Z</time></trkpt><trkpt lat="45.7499891" lon="11.5173107"><ele>150.83333333333334</ele><time>2026-04-29T14:36:20.609Z</time></trkpt><trkpt lat="45.7499344" lon="11.5172117"><ele>150.66666666666669</ele><time>2026-04-29T14:36:21.625Z</time></trkpt><trkpt lat="45.7498856" lon="11.5171255"><ele>150.5</ele><time>2026-04-29T14:36:22.61Z</time></trkpt><trkpt lat="45.7498367" lon="11.5170477"><ele>150.33333333333334</ele><time>2026-04-29T14:36:23.614Z</time></trkpt><trkpt lat="45.7497854" lon="11.516986"><ele>150.16666666666666</ele><time>2026-04-29T14:36:24.618Z</time></trkpt><trkpt lat="45.74972" lon="11.5169461"><ele>150.0</ele><time>2026-04-29T14:36:25.685Z</time></trkpt><trkpt lat="45.7496472" lon="11.5169514"><ele>150.0</ele><time>2026-04-29T14:36:26.664Z</time></trkpt><trkpt lat="45.7495626" lon="11.5170028"><ele>150.0</ele><time>2026-04-29T14:36:27.75Z</time></trkpt><trkpt lat="45.7494219" lon="11.5171542"><ele>150.0</ele><time>2026-04-29T14:36:29.614Z</time></trkpt><trkpt lat="45.7493353" lon="11.5172388"><ele>150.0</ele><time>2026-04-29T14:36:30.67Z</time></trkpt><trkpt lat="45.7492488" lon="11.5173081"><ele>150.33333333333334</ele><time>2026-04-29T14:36:31.624Z</time></trkpt><trkpt lat="45.7491551" lon="11.517374"><ele>150.66666666666666</ele><time>2026-04-29T14:36:32.62Z</time></trkpt><trkpt lat="45.7490655" lon="11.5174323"><ele>151.0</ele><time>2026-04-29T14:36:33.652Z</time></trkpt><trkpt lat="45.7489898" lon="11.5174738"><ele>151.33333333333331</ele><time>2026-04-29T14:36:34.619Z</time></trkpt><trkpt lat="45.7489161" lon="11.5175081"><ele>151.66666666666666</ele><time>2026-04-29T14:36:35.651Z</time></trkpt><trkpt lat="45.7488381" lon="11.5175402"><ele>152.0</ele><time>2026-04-29T14:36:36.769Z</time></trkpt><trkpt lat="45.7486871" lon="11.5175671"><ele>152.0</ele><time>2026-04-29T14:36:38.772Z</time></trkpt><trkpt lat="45.7485526" lon="11.5175005"><ele>152.0</ele><time>2026-04-29T14:36:40.635Z</time></trkpt><trkpt lat="45.748497" lon="11.5174134"><ele>152.0</ele><time>2026-04-29T14:36:41.653Z</time></trkpt><trkpt lat="45.7484521" lon="11.517309"><ele>152.0</ele><time>2026-04-29T14:36:42.648Z</time></trkpt><trkpt lat="45.7484133" lon="11.5172059"><ele>152.0</ele><time>2026-04-29T14:36:43.619Z</time></trkpt><trkpt lat="45.7483722" lon="11.5171037"><ele>152.83333333333331</ele><time>2026-04-29T14:36:44.62Z</time></trkpt><trkpt lat="45.7483274" lon="11.5170014"><ele>153.66666666666666</ele><time>2026-04-29T14:36:45.635Z</time></trkpt><trkpt lat="45.7482819" lon="11.5169001"><ele>154.5</ele><time>2026-04-29T14:36:46.649Z</time></trkpt><trkpt lat="45.7482351" lon="11.5167941"><ele>155.33333333333334</ele><time>2026-04-29T14:36:47.683Z</time></trkpt><trkpt lat="45.7481944" lon="11.516693"><ele>156.16666666666669</ele><time>2026-04-29T14:36:48.649Z</time></trkpt><trkpt lat="45.7481511" lon="11.5165892"><ele>157.0</ele><time>2026-04-29T14:36:49.683Z</time></trkpt><trkpt lat="45.748064" lon="11.5164092"><ele>157.0</ele><time>2026-04-29T14:36:51.581Z</time></trkpt><trkpt lat="45.7480238" lon="11.5163173"><ele>157.0</ele><time>2026-04-29T14:36:52.55Z</time></trkpt><trkpt lat="45.7479822" lon="11.5162239"><ele>157.0</ele><time>2026-04-29T14:36:53.554Z</time></trkpt><trkpt lat="45.7479427" lon="11.5161268"><ele>157.0</ele><time>2026-04-29T14:36:54.586Z</time></trkpt><trkpt lat="45.747903" lon="11.516035"><ele>157.0</ele><time>2026-04-29T14:36:55.566Z</time></trkpt><trkpt lat="45.7478633" lon="11.5159457"><ele>157.0</ele><time>2026-04-29T14:36:56.561Z</time></trkpt><trkpt lat="45.7478186" lon="11.515868"><ele>157.33333333333334</ele><time>2026-04-29T14:36:57.531Z</time></trkpt><trkpt lat="45.7477582" lon="11.5157991"><ele>157.66666666666669</ele><time>2026-04-29T14:36:58.576Z</time></trkpt><trkpt lat="45.7476889" lon="11.5157493"><ele>158.0</ele><time>2026-04-29T14:36:59.565Z</time></trkpt><trkpt lat="45.7476126" lon="11.5157115"><ele>158.33333333333334</ele><time>2026-04-29T14:37:00.575Z</time></trkpt><trkpt lat="45.7475336" lon="11.5156872"><ele>158.66666666666666</ele><time>2026-04-29T14:37:01.563Z</time></trkpt><trkpt lat="45.7474539" lon="11.5156709"><ele>159.0</ele><time>2026-04-29T14:37:02.537Z</time></trkpt><trkpt lat="45.7473683" lon="11.5156655"><ele>160.2</ele><time>2026-04-29T14:37:03.548Z</time></trkpt><trkpt lat="45.7472802" lon="11.5156798"><ele>161.4</ele><time>2026-04-29T14:37:04.544Z</time></trkpt><trkpt lat="45.747191" lon="11.5157087"><ele>162.6</ele><time>2026-04-29T14:37:05.557Z</time></trkpt><trkpt lat="45.7471007" lon="11.5157449"><ele>163.8</ele><time>2026-04-29T14:37:06.551Z</time></trkpt><trkpt lat="45.747008" lon="11.5157792"><ele>165.0</ele><time>2026-04-29T14:37:07.551Z</time></trkpt><trkpt lat="45.7469079" lon="11.5158203"><ele>167.2</ele><time>2026-04-29T14:37:08.58Z</time></trkpt><trkpt lat="45.7468193" lon="11.5158695"><ele>169.4</ele><time>2026-04-29T14:37:09.551Z</time></trkpt><trkpt lat="45.7467327" lon="11.5159319"><ele>171.60000000000002</ele><time>2026-04-29T14:37:10.526Z</time></trkpt><trkpt lat="45.7466396" lon="11.5159982"><ele>173.8</ele><time>2026-04-29T14:37:11.577Z</time></trkpt><trkpt lat="45.746551" lon="11.5160457"><ele>176.0</ele><time>2026-04-29T14:37:12.552Z</time></trkpt><trkpt lat="45.7464584" lon="11.5160713"><ele>176.0</ele><time>2026-04-29T14:37:13.524Z</time></trkpt><trkpt lat="45.7463488" lon="11.51609"><ele>176.0</ele><time>2026-04-29T14:37:14.61Z</time></trkpt><trkpt lat="45.7462518" lon="11.516114"><ele>176.0</ele><time>2026-04-29T14:37:15.556Z</time></trkpt><trkpt lat="45.7461552" lon="11.5161619"><ele>176.0</ele><time>2026-04-29T14:37:16.527Z</time></trkpt><trkpt lat="45.7460514" lon="11.5162378"><ele>176.0</ele><time>2026-04-29T14:37:17.624Z</time></trkpt><trkpt lat="45.7458906" lon="11.5164085"><ele>175.8</ele><time>2026-04-29T14:37:19.555Z</time></trkpt><trkpt lat="45.7458173" lon="11.5164924"><ele>175.60000000000002</ele><time>2026-04-29T14:37:20.481Z</time></trkpt><trkpt lat="45.7457348" lon="11.5165878"><ele>175.4</ele><time>2026-04-29T14:37:21.521Z</time></trkpt><trkpt lat="45.7456561" lon="11.5166733"><ele>175.2</ele><time>2026-04-29T14:37:22.515Z</time></trkpt><trkpt lat="45.7455745" lon="11.5167553"><ele>175.0</ele><time>2026-04-29T14:37:23.505Z</time></trkpt><trkpt lat="45.7454941" lon="11.5168356"><ele>175.0</ele><time>2026-04-29T14:37:24.517Z</time></trkpt><trkpt lat="45.7454196" lon="11.5169199"><ele>175.0</ele><time>2026-04-29T14:37:25.515Z</time></trkpt><trkpt lat="45.7453417" lon="11.5170042"><ele>175.0</ele><time>2026-04-29T14:37:26.552Z</time></trkpt><trkpt lat="45.7452704" lon="11.5170842"><ele>175.0</ele><time>2026-04-29T14:37:27.542Z</time></trkpt><trkpt lat="45.7452013" lon="11.5171586"><ele>175.0</ele><time>2026-04-29T14:37:28.519Z</time></trkpt><trkpt lat="45.7451199" lon="11.5172127"><ele>174.66666666666669</ele><time>2026-04-29T14:37:29.577Z</time></trkpt><trkpt lat="45.7450367" lon="11.5172356"><ele>174.33333333333334</ele><time>2026-04-29T14:37:30.568Z</time></trkpt><trkpt lat="45.7449505" lon="11.5172461"><ele>174.0</ele><time>2026-04-29T14:37:31.542Z</time></trkpt><trkpt lat="45.7448629" lon="11.5172502"><ele>173.66666666666666</ele><time>2026-04-29T14:37:32.538Z</time></trkpt><trkpt lat="45.7447723" lon="11.5172576"><ele>173.33333333333331</ele><time>2026-04-29T14:37:33.541Z</time></trkpt><trkpt lat="45.7446781" lon="11.5172729"><ele>173.0</ele><time>2026-04-29T14:37:34.528Z</time></trkpt><trkpt lat="45.74458" lon="11.5172941"><ele>173.0</ele><time>2026-04-29T14:37:35.555Z</time></trkpt><trkpt lat="45.7444722" lon="11.5173189"><ele>173.0</ele><time>2026-04-29T14:37:36.649Z</time></trkpt><trkpt lat="45.7443813" lon="11.5173345"><ele>173.0</ele><time>2026-04-29T14:37:37.554Z</time></trkpt><trkpt lat="45.7442729" lon="11.5173562"><ele>173.0</ele><time>2026-04-29T14:37:38.611Z</time></trkpt><trkpt lat="45.7441791" lon="11.5173784"><ele>173.0</ele><time>2026-04-29T14:37:39.518Z</time></trkpt><trkpt lat="45.7440764" lon="11.5174009"><ele>176.2</ele><time>2026-04-29T14:37:40.506Z</time></trkpt><trkpt lat="45.7439735" lon="11.5174232"><ele>179.4</ele><time>2026-04-29T14:37:41.526Z</time></trkpt><trkpt lat="45.7438763" lon="11.5174438"><ele>182.6</ele><time>2026-04-29T14:37:42.503Z</time></trkpt><trkpt lat="45.7437717" lon="11.5174689"><ele>185.79999999999998</ele><time>2026-04-29T14:37:43.553Z</time></trkpt><trkpt lat="45.7436728" lon="11.5174944"><ele>189.0</ele><time>2026-04-29T14:37:44.545Z</time></trkpt><trkpt lat="45.7435728" lon="11.5175188"><ele>190.0</ele><time>2026-04-29T14:37:45.531Z</time></trkpt><trkpt lat="45.7434703" lon="11.5175449"><ele>191.0</ele><time>2026-04-29T14:37:46.539Z</time></trkpt><trkpt lat="45.7433663" lon="11.5175706"><ele>192.0</ele><time>2026-04-29T14:37:47.546Z</time></trkpt><trkpt lat="45.743267" lon="11.5175894"><ele>193.0</ele><time>2026-04-29T14:37:48.5Z</time></trkpt><trkpt lat="45.7431702" lon="11.5176092"><ele>194.0</ele><time>2026-04-29T14:37:49.524Z</time></trkpt><trkpt lat="45.7430796" lon="11.5176277"><ele>194.00000000000003</ele><time>2026-04-29T14:37:50.511Z</time></trkpt><trkpt lat="45.7429812" lon="11.5176507"><ele>194.0</ele><time>2026-04-29T14:37:51.534Z</time></trkpt><trkpt lat="45.742894" lon="11.5176725"><ele>194.0</ele><time>2026-04-29T14:37:52.513Z</time></trkpt><trkpt lat="45.74281" lon="11.5176925"><ele>194.0</ele><time>2026-04-29T14:37:53.523Z</time></trkpt><trkpt lat="45.7427294" lon="11.5177106"><ele>194.00000000000003</ele><time>2026-04-29T14:37:54.523Z</time></trkpt><trkpt lat="45.7426506" lon="11.5177296"><ele>194.0</ele><time>2026-04-29T14:37:55.528Z</time></trkpt><trkpt lat="45.7425704" lon="11.5177512"><ele>193.66666666666669</ele><time>2026-04-29T14:37:56.599Z</time></trkpt><trkpt lat="45.7424945" lon="11.5177722"><ele>193.33333333333334</ele><time>2026-04-29T14:37:57.605Z</time></trkpt><trkpt lat="45.7424199" lon="11.517805"><ele>193.0</ele><time>2026-04-29T14:37:58.6Z</time></trkpt><trkpt lat="45.7423482" lon="11.5178513"><ele>192.66666666666669</ele><time>2026-04-29T14:37:59.604Z</time></trkpt><trkpt lat="45.742276" lon="11.5179078"><ele>192.33333333333334</ele><time>2026-04-29T14:38:00.608Z</time></trkpt><trkpt lat="45.7422035" lon="11.5179734"><ele>192.0</ele><time>2026-04-29T14:38:01.599Z</time></trkpt><trkpt lat="45.742128" lon="11.5180415"><ele>189.83333333333334</ele><time>2026-04-29T14:38:02.615Z</time></trkpt><trkpt lat="45.7420536" lon="11.5181003"><ele>187.66666666666666</ele><time>2026-04-29T14:38:03.61Z</time></trkpt><trkpt lat="45.7419701" lon="11.5181484"><ele>185.5</ele><time>2026-04-29T14:38:04.628Z</time></trkpt><trkpt lat="45.741884" lon="11.5181812"><ele>183.33333333333331</ele><time>2026-04-29T14:38:05.63Z</time></trkpt><trkpt lat="45.7417959" lon="11.5181959"><ele>181.16666666666666</ele><time>2026-04-29T14:38:06.62Z</time></trkpt><trkpt lat="45.7417104" lon="11.5182001"><ele>179.0</ele><time>2026-04-29T14:38:07.623Z</time></trkpt><trkpt lat="45.741624" lon="11.5182059"><ele>179.0</ele><time>2026-04-29T14:38:08.627Z</time></trkpt><trkpt lat="45.7415282" lon="11.5182123"><ele>179.0</ele><time>2026-04-29T14:38:09.736Z</time></trkpt><trkpt lat="45.7413498" lon="11.5182125"><ele>179.0</ele><time>2026-04-29T14:38:11.677Z</time></trkpt><trkpt lat="45.7412647" lon="11.5182"><ele>179.0</ele><time>2026-04-29T14:38:12.634Z</time></trkpt><trkpt lat="45.7411719" lon="11.5181814"><ele>179.0</ele><time>2026-04-29T14:38:13.61Z</time></trkpt><trkpt lat="45.7410767" lon="11.5181632"><ele>179.0</ele><time>2026-04-29T14:38:14.632Z</time></trkpt><trkpt lat="45.7409829" lon="11.5181388"><ele>179.0</ele><time>2026-04-29T14:38:15.637Z</time></trkpt><trkpt lat="45.7408912" lon="11.5181065"><ele>179.0</ele><time>2026-04-29T14:38:16.643Z</time></trkpt><trkpt lat="45.7407765" lon="11.5180636"><ele>179.0</ele><time>2026-04-29T14:38:17.866Z</time></trkpt><trkpt lat="45.7405812" lon="11.5179927"><ele>178.5</ele><time>2026-04-29T14:38:19.684Z</time></trkpt><trkpt lat="45.7403885" lon="11.5179307"><ele>178.0</ele><time>2026-04-29T14:38:21.558Z</time></trkpt><trkpt lat="45.7402815" lon="11.5178946"><ele>177.5</ele><time>2026-04-29T14:38:22.577Z</time></trkpt><trkpt lat="45.7401703" lon="11.5178519"><ele>177.0</ele><time>2026-04-29T14:38:23.57Z</time></trkpt><trkpt lat="45.7400706" lon="11.517815"><ele>176.33333333333334</ele><time>2026-04-29T14:38:24.549Z</time></trkpt><trkpt lat="45.7399725" lon="11.5177797"><ele>175.66666666666666</ele><time>2026-04-29T14:38:25.566Z</time></trkpt><trkpt lat="45.7398789" lon="11.5177477"><ele>175.0</ele><time>2026-04-29T14:38:26.576Z</time></trkpt><trkpt lat="45.739795" lon="11.5177163"><ele>174.33333333333331</ele><time>2026-04-29T14:38:27.577Z</time></trkpt><trkpt lat="45.7397167" lon="11.5176882"><ele>173.66666666666666</ele><time>2026-04-29T14:38:28.561Z</time></trkpt><trkpt lat="45.7396404" lon="11.5176659"><ele>173.0</ele><time>2026-04-29T14:38:29.56Z</time></trkpt><trkpt lat="45.7395665" lon="11.5176435"><ele>173.0</ele><time>2026-04-29T14:38:30.559Z</time></trkpt><trkpt lat="45.7394953" lon="11.5176219"><ele>173.0</ele><time>2026-04-29T14:38:31.561Z</time></trkpt><trkpt lat="45.7394166" lon="11.5175956"><ele>173.0</ele><time>2026-04-29T14:38:32.541Z</time></trkpt><trkpt lat="45.7393334" lon="11.517569"><ele>173.0</ele><time>2026-04-29T14:38:33.54Z</time></trkpt><trkpt lat="45.7392493" lon="11.5175385"><ele>173.0</ele><time>2026-04-29T14:38:34.562Z</time></trkpt><trkpt lat="45.7391534" lon="11.5175044"><ele>173.0</ele><time>2026-04-29T14:38:35.679Z</time></trkpt><trkpt lat="45.7389947" lon="11.5174514"><ele>173.0</ele><time>2026-04-29T14:38:37.567Z</time></trkpt><trkpt lat="45.7389127" lon="11.5174213"><ele>173.0</ele><time>2026-04-29T14:38:38.555Z</time></trkpt><trkpt lat="45.7388351" lon="11.5173959"><ele>173.0</ele><time>2026-04-29T14:38:39.566Z</time></trkpt><trkpt lat="45.7387714" lon="11.5173826"><ele>173.0</ele><time>2026-04-29T14:38:40.545Z</time></trkpt><trkpt lat="45.7386739" lon="11.5173585"><ele>173.0</ele><time>2026-04-29T14:38:42.535Z</time></trkpt><trkpt lat="45.738625" lon="11.5172852"><ele>173.0</ele><time>2026-04-29T14:38:44.553Z</time></trkpt><trkpt lat="45.7386294" lon="11.5171468"><ele>173.4</ele><time>2026-04-29T14:38:46.574Z</time></trkpt><trkpt lat="45.7386774" lon="11.5169972"><ele>173.8</ele><time>2026-04-29T14:38:48.556Z</time></trkpt><trkpt lat="45.738695" lon="11.5168552"><ele>174.2</ele><time>2026-04-29T14:38:50.571Z</time></trkpt><trkpt lat="45.7386308" lon="11.5167812"><ele>174.6</ele><time>2026-04-29T14:38:52.532Z</time></trkpt><trkpt lat="45.7385208" lon="11.516735"><ele>175.0</ele><time>2026-04-29T14:38:54.513Z</time></trkpt><trkpt lat="45.7384505" lon="11.516701"><ele>175.0</ele><time>2026-04-29T14:38:55.608Z</time></trkpt><trkpt lat="45.7383897" lon="11.5166708"><ele>175.0</ele><time>2026-04-29T14:38:56.548Z</time></trkpt><trkpt lat="45.738326" lon="11.516637"><ele>175.0</ele><time>2026-04-29T14:38:57.569Z</time></trkpt><trkpt lat="45.7382649" lon="11.5165988"><ele>175.0</ele><time>2026-04-29T14:38:58.528Z</time></trkpt><trkpt lat="45.7381952" lon="11.5165529"><ele>175.0</ele><time>2026-04-29T14:38:59.568Z</time></trkpt><trkpt lat="45.7381237" lon="11.5165074"><ele>175.0</ele><time>2026-04-29T14:39:00.548Z</time></trkpt><trkpt lat="45.7380498" lon="11.5164592"><ele>175.0</ele><time>2026-04-29T14:39:01.55Z</time></trkpt><trkpt lat="45.7379686" lon="11.5164019"><ele>175.0</ele><time>2026-04-29T14:39:02.581Z</time></trkpt><trkpt lat="45.737893" lon="11.5163355"><ele>175.0</ele><time>2026-04-29T14:39:03.557Z</time></trkpt><trkpt lat="45.7378139" lon="11.5162613"><ele>175.0</ele><time>2026-04-29T14:39:04.561Z</time></trkpt><trkpt lat="45.7377352" lon="11.5161835"><ele>175.0</ele><time>2026-04-29T14:39:05.564Z</time></trkpt><trkpt lat="45.7376574" lon="11.5160909"><ele>175.0</ele><time>2026-04-29T14:39:06.651Z</time></trkpt><trkpt lat="45.7376003" lon="11.5160038"><ele>174.33333333333334</ele><time>2026-04-29T14:39:07.576Z</time></trkpt><trkpt lat="45.737547" lon="11.5159151"><ele>173.66666666666669</ele><time>2026-04-29T14:39:08.541Z</time></trkpt><trkpt lat="45.7374888" lon="11.5158258"><ele>173.0</ele><time>2026-04-29T14:39:09.576Z</time></trkpt><trkpt lat="45.7374343" lon="11.5157356"><ele>172.33333333333334</ele><time>2026-04-29T14:39:10.582Z</time></trkpt><trkpt lat="45.7373874" lon="11.5156484"><ele>171.66666666666666</ele><time>2026-04-29T14:39:11.543Z</time></trkpt><trkpt lat="45.7373376" lon="11.5155517"><ele>171.0</ele><time>2026-04-29T14:39:12.575Z</time></trkpt><trkpt lat="45.7372921" lon="11.5154517"><ele>171.5</ele><time>2026-04-29T14:39:13.552Z</time></trkpt><trkpt lat="45.7372559" lon="11.5153428"><ele>172.0</ele><time>2026-04-29T14:39:14.562Z</time></trkpt><trkpt lat="45.7372363" lon="11.5152307"><ele>172.5</ele><time>2026-04-29T14:39:15.561Z</time></trkpt><trkpt lat="45.7372207" lon="11.5151216"><ele>173.0</ele><time>2026-04-29T14:39:16.549Z</time></trkpt><trkpt lat="45.7372021" lon="11.5150166"><ele>173.5</ele><time>2026-04-29T14:39:17.545Z</time></trkpt><trkpt lat="45.7371787" lon="11.5149155"><ele>174.0</ele><time>2026-04-29T14:39:18.548Z</time></trkpt><trkpt lat="45.7371361" lon="11.5148183"><ele>174.0</ele><time>2026-04-29T14:39:19.528Z</time></trkpt><trkpt lat="45.7370742" lon="11.5147252"><ele>174.0</ele><time>2026-04-29T14:39:20.554Z</time></trkpt><trkpt lat="45.7370026" lon="11.5146545"><ele>174.0</ele><time>2026-04-29T14:39:21.541Z</time></trkpt><trkpt lat="45.736926" lon="11.5145893"><ele>174.0</ele><time>2026-04-29T14:39:22.568Z</time></trkpt><trkpt lat="45.736853" lon="11.514528"><ele>174.0</ele><time>2026-04-29T14:39:23.561Z</time></trkpt><trkpt lat="45.7367824" lon="11.5144727"><ele>174.0</ele><time>2026-04-29T14:39:24.554Z</time></trkpt><trkpt lat="45.736723" lon="11.5144303"><ele>177.0</ele><time>2026-04-29T14:39:25.531Z</time></trkpt><trkpt lat="45.7366302" lon="11.5143803"><ele>180.0</ele><time>2026-04-29T14:39:27.576Z</time></trkpt><trkpt lat="45.7365665" lon="11.5143493"><ele>183.0</ele><time>2026-04-29T14:39:31.759Z</time></trkpt><trkpt lat="45.7365023" lon="11.5143491"><ele>186.0</ele><time>2026-04-29T14:39:56.569Z</time></trkpt><trkpt lat="45.7365827" lon="11.5143227"><ele>189.0</ele><time>2026-04-29T15:13:26.61Z</time></trkpt><trkpt lat="45.7366646" lon="11.514381"><ele>192.0</ele><time>2026-04-29T15:13:28.808Z</time></trkpt><trkpt lat="45.7367571" lon="11.5144431"><ele>192.0</ele><time>2026-04-29T15:13:30.565Z</time></trkpt><trkpt lat="45.7368157" lon="11.5144839"><ele>192.0</ele><time>2026-04-29T15:13:31.613Z</time></trkpt><trkpt lat="45.7368793" lon="11.5145332"><ele>192.0</ele><time>2026-04-29T15:13:32.741Z</time></trkpt><trkpt lat="45.7370278" lon="11.5146944"><ele>192.0</ele><time>2026-04-29T15:13:35.621Z</time></trkpt><trkpt lat="45.7370927" lon="11.5147652"><ele>192.0</ele><time>2026-04-29T15:13:36.712Z</time></trkpt><trkpt lat="45.737172" lon="11.5149487"><ele>189.0</ele><time>2026-04-29T15:13:38.628Z</time></trkpt><trkpt lat="45.7372001" lon="11.5150574"><ele>186.0</ele><time>2026-04-29T15:13:39.62Z</time></trkpt><trkpt lat="45.737217" lon="11.5151773"><ele>183.0</ele><time>2026-04-29T15:13:40.671Z</time></trkpt><trkpt lat="45.7372335" lon="11.5152839"><ele>180.0</ele><time>2026-04-29T15:13:41.635Z</time></trkpt><trkpt lat="45.7372592" lon="11.5153858"><ele>177.0</ele><time>2026-04-29T15:13:42.637Z</time></trkpt><trkpt lat="45.7372927" lon="11.5154769"><ele>174.0</ele><time>2026-04-29T15:13:43.637Z</time></trkpt><trkpt lat="45.7373379" lon="11.5155779"><ele>173.39999999999998</ele><time>2026-04-29T15:13:44.652Z</time></trkpt><trkpt lat="45.7373987" lon="11.5156902"><ele>172.8</ele><time>2026-04-29T15:13:45.749Z</time></trkpt><trkpt lat="45.7374579" lon="11.515796"><ele>172.2</ele><time>2026-04-29T15:13:46.72Z</time></trkpt><trkpt lat="45.7375193" lon="11.5158982"><ele>171.60000000000002</ele><time>2026-04-29T15:13:47.643Z</time></trkpt><trkpt lat="45.7375835" lon="11.5160033"><ele>171.0</ele><time>2026-04-29T15:13:48.637Z</time></trkpt><trkpt lat="45.7376552" lon="11.5161086"><ele>171.0</ele><time>2026-04-29T15:13:49.732Z</time></trkpt><trkpt lat="45.7377154" lon="11.5161816"><ele>171.0</ele><time>2026-04-29T15:13:50.638Z</time></trkpt><trkpt lat="45.7377811" lon="11.5162515"><ele>171.0</ele><time>2026-04-29T15:13:51.631Z</time></trkpt><trkpt lat="45.737849" lon="11.5163029"><ele>171.0</ele><time>2026-04-29T15:13:52.625Z</time></trkpt><trkpt lat="45.7379156" lon="11.5163568"><ele>171.0</ele><time>2026-04-29T15:13:53.614Z</time></trkpt><trkpt lat="45.7379871" lon="11.5164116"><ele>171.0</ele><time>2026-04-29T15:13:54.64Z</time></trkpt><trkpt lat="45.7380507" lon="11.5164616"><ele>171.8</ele><time>2026-04-29T15:13:55.639Z</time></trkpt><trkpt lat="45.7381134" lon="11.5165066"><ele>172.60000000000002</ele><time>2026-04-29T15:13:56.677Z</time></trkpt><trkpt lat="45.7382237" lon="11.5165837"><ele>173.4</ele><time>2026-04-29T15:13:58.66Z</time></trkpt><trkpt lat="45.7383237" lon="11.5166461"><ele>174.2</ele><time>2026-04-29T15:14:00.669Z</time></trkpt><trkpt lat="45.7384155" lon="11.516704"><ele>175.0</ele><time>2026-04-29T15:14:02.633Z</time></trkpt><trkpt lat="45.7385199" lon="11.5167598"><ele>175.33333333333334</ele><time>2026-04-29T15:14:04.64Z</time></trkpt><trkpt lat="45.7386018" lon="11.5167996"><ele>175.66666666666669</ele><time>2026-04-29T15:14:06.627Z</time></trkpt><trkpt lat="45.738662" lon="11.5168454"><ele>176.0</ele><time>2026-04-29T15:14:09.653Z</time></trkpt><trkpt lat="45.7386505" lon="11.5169897"><ele>176.33333333333334</ele><time>2026-04-29T15:14:12.65Z</time></trkpt><trkpt lat="45.7386258" lon="11.5170754"><ele>176.66666666666666</ele><time>2026-04-29T15:14:13.626Z</time></trkpt><trkpt lat="45.7385976" lon="11.5171655"><ele>177.0</ele><time>2026-04-29T15:14:14.623Z</time></trkpt><trkpt lat="45.7385788" lon="11.5172765"><ele>176.25</ele><time>2026-04-29T15:14:15.641Z</time></trkpt><trkpt lat="45.7385483" lon="11.5174055"><ele>175.5</ele><time>2026-04-29T15:14:16.745Z</time></trkpt><trkpt lat="45.7384375" lon="11.5176159"><ele>174.75</ele><time>2026-04-29T15:14:18.652Z</time></trkpt><trkpt lat="45.7383641" lon="11.5177248"><ele>174.0</ele><time>2026-04-29T15:14:19.654Z</time></trkpt><trkpt lat="45.7382888" lon="11.5178319"><ele>173.5</ele><time>2026-04-29T15:14:20.644Z</time></trkpt><trkpt lat="45.7382152" lon="11.5179206"><ele>173.0</ele><time>2026-04-29T15:14:21.657Z</time></trkpt><trkpt lat="45.7381469" lon="11.5179994"><ele>172.5</ele><time>2026-04-29T15:14:22.613Z</time></trkpt><trkpt lat="45.7380681" lon="11.5180638"><ele>172.0</ele><time>2026-04-29T15:14:23.623Z</time></trkpt><trkpt lat="45.7379911" lon="11.5181225"><ele>171.5</ele><time>2026-04-29T15:14:24.622Z</time></trkpt><trkpt lat="45.7379136" lon="11.5181794"><ele>171.0</ele><time>2026-04-29T15:14:25.613Z</time></trkpt><trkpt lat="45.7378276" lon="11.5182345"><ele>171.0</ele><time>2026-04-29T15:14:26.638Z</time></trkpt><trkpt lat="45.7377429" lon="11.5182915"><ele>171.0</ele><time>2026-04-29T15:14:27.639Z</time></trkpt><trkpt lat="45.737656" lon="11.5183473"><ele>171.0</ele><time>2026-04-29T15:14:28.68Z</time></trkpt><trkpt lat="45.7375751" lon="11.5184048"><ele>171.0</ele><time>2026-04-29T15:14:29.638Z</time></trkpt><trkpt lat="45.7374872" lon="11.5184656"><ele>171.0</ele><time>2026-04-29T15:14:30.658Z</time></trkpt><trkpt lat="45.7374039" lon="11.5185339"><ele>171.0</ele><time>2026-04-29T15:14:31.718Z</time></trkpt><trkpt lat="45.7373498" lon="11.5186049"><ele>171.0</ele><time>2026-04-29T15:14:32.65Z</time></trkpt><trkpt lat="45.7373004" lon="11.5186886"><ele>171.0</ele><time>2026-04-29T15:14:33.644Z</time></trkpt><trkpt lat="45.7372523" lon="11.5187802"><ele>171.0</ele><time>2026-04-29T15:14:34.619Z</time></trkpt><trkpt lat="45.7372096" lon="11.5188792"><ele>171.0</ele><time>2026-04-29T15:14:35.62Z</time></trkpt><trkpt lat="45.7371676" lon="11.5189681"><ele>171.0</ele><time>2026-04-29T15:14:36.629Z</time></trkpt><trkpt lat="45.7371303" lon="11.5190586"><ele>170.60000000000002</ele><time>2026-04-29T15:14:37.722Z</time></trkpt><trkpt lat="45.7370659" lon="11.5191875"><ele>170.2</ele><time>2026-04-29T15:14:39.629Z</time></trkpt><trkpt lat="45.7369872" lon="11.5193195"><ele>169.8</ele><time>2026-04-29T15:14:41.687Z</time></trkpt><trkpt lat="45.7369012" lon="11.5194508"><ele>169.39999999999998</ele><time>2026-04-29T15:14:43.583Z</time></trkpt><trkpt lat="45.7368568" lon="11.5195156"><ele>169.0</ele><time>2026-04-29T15:14:44.589Z</time></trkpt><trkpt lat="45.7367738" lon="11.5196562"><ele>169.0</ele><time>2026-04-29T15:14:46.675Z</time></trkpt><trkpt lat="45.7367338" lon="11.5197265"><ele>169.0</ele><time>2026-04-29T15:14:47.616Z</time></trkpt><trkpt lat="45.7366861" lon="11.519807"><ele>169.0</ele><time>2026-04-29T15:14:48.685Z</time></trkpt><trkpt lat="45.7366472" lon="11.5198803"><ele>169.0</ele><time>2026-04-29T15:14:49.615Z</time></trkpt><trkpt lat="45.736611" lon="11.5199689"><ele>169.0</ele><time>2026-04-29T15:14:50.622Z</time></trkpt><trkpt lat="45.7365764" lon="11.5200622"><ele>169.0</ele><time>2026-04-29T15:14:51.612Z</time></trkpt><trkpt lat="45.7365403" lon="11.5201649"><ele>169.0</ele><time>2026-04-29T15:14:52.645Z</time></trkpt><trkpt lat="45.7364958" lon="11.5202771"><ele>169.0</ele><time>2026-04-29T15:14:53.778Z</time></trkpt><trkpt lat="45.7364582" lon="11.5203821"><ele>169.0</ele><time>2026-04-29T15:14:54.741Z</time></trkpt><trkpt lat="45.736377" lon="11.5205932"><ele>169.0</ele><time>2026-04-29T15:14:56.642Z</time></trkpt><trkpt lat="45.7363257" lon="11.5207117"><ele>169.0</ele><time>2026-04-29T15:14:57.629Z</time></trkpt><trkpt lat="45.7362853" lon="11.5208301"><ele>169.0</ele><time>2026-04-29T15:14:58.611Z</time></trkpt><trkpt lat="45.7362468" lon="11.5209552"><ele>168.66666666666669</ele><time>2026-04-29T15:14:59.662Z</time></trkpt><trkpt lat="45.7362109" lon="11.5210535"><ele>168.33333333333334</ele><time>2026-04-29T15:15:00.644Z</time></trkpt><trkpt lat="45.7361776" lon="11.5211405"><ele>168.0</ele><time>2026-04-29T15:15:01.641Z</time></trkpt><trkpt lat="45.7361152" lon="11.5212795"><ele>167.66666666666666</ele><time>2026-04-29T15:15:03.731Z</time></trkpt><trkpt lat="45.7360736" lon="11.521425"><ele>167.33333333333331</ele><time>2026-04-29T15:15:05.613Z</time></trkpt><trkpt lat="45.736055" lon="11.5215292"><ele>167.0</ele><time>2026-04-29T15:15:06.668Z</time></trkpt><trkpt lat="45.73604" lon="11.521635"><ele>166.28571428571428</ele><time>2026-04-29T15:15:07.715Z</time></trkpt><trkpt lat="45.7360277" lon="11.5217283"><ele>165.57142857142858</ele><time>2026-04-29T15:15:08.659Z</time></trkpt><trkpt lat="45.7360143" lon="11.5218237"><ele>164.85714285714286</ele><time>2026-04-29T15:15:09.633Z</time></trkpt><trkpt lat="45.7359983" lon="11.5219271"><ele>164.14285714285714</ele><time>2026-04-29T15:15:10.655Z</time></trkpt><trkpt lat="45.7359811" lon="11.5220267"><ele>163.42857142857142</ele><time>2026-04-29T15:15:11.64Z</time></trkpt><trkpt lat="45.73596" lon="11.522124"><ele>162.71428571428572</ele><time>2026-04-29T15:15:12.625Z</time></trkpt><trkpt lat="45.735925" lon="11.522213"><ele>162.0</ele><time>2026-04-29T15:15:13.624Z</time></trkpt><trkpt lat="45.7358805" lon="11.5223004"><ele>161.5</ele><time>2026-04-29T15:15:14.608Z</time></trkpt><trkpt lat="45.7358237" lon="11.5224021"><ele>161.0</ele><time>2026-04-29T15:15:15.729Z</time></trkpt><trkpt lat="45.7357833" lon="11.5224909"><ele>160.5</ele><time>2026-04-29T15:15:16.631Z</time></trkpt><trkpt lat="45.7357393" lon="11.5225893"><ele>160.0</ele><time>2026-04-29T15:15:17.623Z</time></trkpt><trkpt lat="45.7357021" lon="11.5226831"><ele>159.5</ele><time>2026-04-29T15:15:18.612Z</time></trkpt><trkpt lat="45.7356702" lon="11.5227826"><ele>159.0</ele><time>2026-04-29T15:15:19.638Z</time></trkpt><trkpt lat="45.7356417" lon="11.5228796"><ele>158.5</ele><time>2026-04-29T15:15:20.644Z</time></trkpt><trkpt lat="45.735613" lon="11.5229639"><ele>158.0</ele><time>2026-04-29T15:15:21.621Z</time></trkpt><trkpt lat="45.7355658" lon="11.5231221"><ele>157.5</ele><time>2026-04-29T15:15:23.607Z</time></trkpt><trkpt lat="45.7355445" lon="11.5232114"><ele>157.0</ele><time>2026-04-29T15:15:24.633Z</time></trkpt><trkpt lat="45.7355302" lon="11.5233052"><ele>156.5</ele><time>2026-04-29T15:15:25.642Z</time></trkpt><trkpt lat="45.7355304" lon="11.5234074"><ele>156.0</ele><time>2026-04-29T15:15:26.668Z</time></trkpt><trkpt lat="45.7355341" lon="11.5235052"><ele>156.0</ele><time>2026-04-29T15:15:27.637Z</time></trkpt><trkpt lat="45.7355457" lon="11.5236123"><ele>156.0</ele><time>2026-04-29T15:15:28.673Z</time></trkpt><trkpt lat="45.735558" lon="11.5237136"><ele>156.0</ele><time>2026-04-29T15:15:29.642Z</time></trkpt><trkpt lat="45.7355697" lon="11.5238181"><ele>156.0</ele><time>2026-04-29T15:15:30.634Z</time></trkpt><trkpt lat="45.7355735" lon="11.5239219"><ele>156.0</ele><time>2026-04-29T15:15:31.634Z</time></trkpt><trkpt lat="45.7355704" lon="11.524022"><ele>156.0</ele><time>2026-04-29T15:15:32.656Z</time></trkpt><trkpt lat="45.7355583" lon="11.5241731"><ele>155.66666666666666</ele><time>2026-04-29T15:15:34.62Z</time></trkpt><trkpt lat="45.7355399" lon="11.5242945"><ele>155.33333333333334</ele><time>2026-04-29T15:15:36.612Z</time></trkpt><trkpt lat="45.7355123" lon="11.524406"><ele>155.0</ele><time>2026-04-29T15:15:38.644Z</time></trkpt><trkpt lat="45.7354852" lon="11.5244962"><ele>154.66666666666669</ele><time>2026-04-29T15:15:40.64Z</time></trkpt><trkpt lat="45.7354594" lon="11.5245977"><ele>154.33333333333334</ele><time>2026-04-29T15:15:43.642Z</time></trkpt><trkpt lat="45.7354913" lon="11.5247072"><ele>154.0</ele><time>2026-04-29T15:16:03.682Z</time></trkpt><trkpt lat="45.7356179" lon="11.5247446"><ele>153.0</ele><time>2026-04-29T15:16:05.644Z</time></trkpt><trkpt lat="45.7356928" lon="11.5247698"><ele>152.0</ele><time>2026-04-29T15:16:06.65Z</time></trkpt><trkpt lat="45.7357779" lon="11.5247979"><ele>151.0</ele><time>2026-04-29T15:16:07.615Z</time></trkpt><trkpt lat="45.7358798" lon="11.5248352"><ele>150.0</ele><time>2026-04-29T15:16:08.676Z</time></trkpt><trkpt lat="45.7359812" lon="11.5248706"><ele>149.0</ele><time>2026-04-29T15:16:09.666Z</time></trkpt><trkpt lat="45.7360749" lon="11.5248986"><ele>148.4</ele><time>2026-04-29T15:16:10.621Z</time></trkpt><trkpt lat="45.7361711" lon="11.5249208"><ele>147.8</ele><time>2026-04-29T15:16:11.645Z</time></trkpt><trkpt lat="45.7362677" lon="11.5249289"><ele>147.2</ele><time>2026-04-29T15:16:12.653Z</time></trkpt><trkpt lat="45.7363617" lon="11.5249297"><ele>146.6</ele><time>2026-04-29T15:16:13.62Z</time></trkpt><trkpt lat="45.7364544" lon="11.524922"><ele>146.0</ele><time>2026-04-29T15:16:14.612Z</time></trkpt><trkpt lat="45.7365462" lon="11.5249099"><ele>146.0</ele><time>2026-04-29T15:16:15.642Z</time></trkpt><trkpt lat="45.7366399" lon="11.5248872"><ele>146.0</ele><time>2026-04-29T15:16:16.744Z</time></trkpt><trkpt lat="45.7368178" lon="11.5248168"><ele>146.0</ele><time>2026-04-29T15:16:18.632Z</time></trkpt><trkpt lat="45.736945" lon="11.5247474"><ele>146.0</ele><time>2026-04-29T15:16:19.877Z</time></trkpt><trkpt lat="45.7371475" lon="11.5246123"><ele>146.75</ele><time>2026-04-29T15:16:21.656Z</time></trkpt><trkpt lat="45.7372638" lon="11.5245356"><ele>147.5</ele><time>2026-04-29T15:16:22.624Z</time></trkpt><trkpt lat="45.7373899" lon="11.5244516"><ele>148.25</ele><time>2026-04-29T15:16:23.641Z</time></trkpt><trkpt lat="45.7375039" lon="11.5243785"><ele>149.0</ele><time>2026-04-29T15:16:24.597Z</time></trkpt><trkpt lat="45.7376224" lon="11.5243033"><ele>148.25</ele><time>2026-04-29T15:16:25.647Z</time></trkpt><trkpt lat="45.7377363" lon="11.5242286"><ele>147.5</ele><time>2026-04-29T15:16:26.646Z</time></trkpt><trkpt lat="45.7378506" lon="11.5241536"><ele>146.75</ele><time>2026-04-29T15:16:27.63Z</time></trkpt><trkpt lat="45.7379659" lon="11.5240787"><ele>146.0</ele><time>2026-04-29T15:16:28.656Z</time></trkpt><trkpt lat="45.7380738" lon="11.5240081"><ele>146.0</ele><time>2026-04-29T15:16:29.645Z</time></trkpt><trkpt lat="45.7381805" lon="11.5239385"><ele>146.0</ele><time>2026-04-29T15:16:30.61Z</time></trkpt><trkpt lat="45.738296" lon="11.523862"><ele>146.0</ele><time>2026-04-29T15:16:31.664Z</time></trkpt><trkpt lat="45.738401" lon="11.5237924"><ele>146.0</ele><time>2026-04-29T15:16:32.623Z</time></trkpt><trkpt lat="45.7385252" lon="11.5237143"><ele>146.33333333333331</ele><time>2026-04-29T15:16:33.748Z</time></trkpt><trkpt lat="45.7386386" lon="11.5236441"><ele>146.66666666666666</ele><time>2026-04-29T15:16:34.767Z</time></trkpt><trkpt lat="45.7388574" lon="11.5235387"><ele>147.0</ele><time>2026-04-29T15:16:36.628Z</time></trkpt><trkpt lat="45.7389786" lon="11.5234943"><ele>147.0</ele><time>2026-04-29T15:16:37.638Z</time></trkpt><trkpt lat="45.7391177" lon="11.5234496"><ele>147.0</ele><time>2026-04-29T15:16:38.795Z</time></trkpt><trkpt lat="45.7392322" lon="11.5234229"><ele>147.0</ele><time>2026-04-29T15:16:39.732Z</time></trkpt><trkpt lat="45.739354" lon="11.5234001"><ele>147.0</ele><time>2026-04-29T15:16:40.71Z</time></trkpt><trkpt lat="45.7394863" lon="11.5233805"><ele>146.0</ele><time>2026-04-29T15:16:41.738Z</time></trkpt><trkpt lat="45.7396306" lon="11.5233617"><ele>145.0</ele><time>2026-04-29T15:16:42.834Z</time></trkpt><trkpt lat="45.7397528" lon="11.5233458"><ele>144.0</ele><time>2026-04-29T15:16:43.739Z</time></trkpt><trkpt lat="45.739888" lon="11.5233205"><ele>143.0</ele><time>2026-04-29T15:16:44.741Z</time></trkpt><trkpt lat="45.7400199" lon="11.5232978"><ele>143.0</ele><time>2026-04-29T15:16:45.729Z</time></trkpt><trkpt lat="45.7401537" lon="11.5232777"><ele>143.0</ele><time>2026-04-29T15:16:46.73Z</time></trkpt><trkpt lat="45.7402842" lon="11.5232602"><ele>143.0</ele><time>2026-04-29T15:16:47.711Z</time></trkpt><trkpt lat="45.7404223" lon="11.5232434"><ele>143.0</ele><time>2026-04-29T15:16:48.759Z</time></trkpt><trkpt lat="45.7405443" lon="11.5232283"><ele>143.25</ele><time>2026-04-29T15:16:49.728Z</time></trkpt><trkpt lat="45.7406653" lon="11.5232167"><ele>143.5</ele><time>2026-04-29T15:16:50.742Z</time></trkpt><trkpt lat="45.7407777" lon="11.5232044"><ele>143.75</ele><time>2026-04-29T15:16:51.698Z</time></trkpt><trkpt lat="45.7408951" lon="11.5231911"><ele>144.0</ele><time>2026-04-29T15:16:52.727Z</time></trkpt><trkpt lat="45.7410183" lon="11.5231743"><ele>144.25</ele><time>2026-04-29T15:16:53.846Z</time></trkpt><trkpt lat="45.7411167" lon="11.5231613"><ele>144.5</ele><time>2026-04-29T15:16:54.746Z</time></trkpt><trkpt lat="45.7412244" lon="11.5231469"><ele>144.75</ele><time>2026-04-29T15:16:55.723Z</time></trkpt><trkpt lat="45.7413492" lon="11.5231295"><ele>145.0</ele><time>2026-04-29T15:16:56.841Z</time></trkpt><trkpt lat="45.7415646" lon="11.5230998"><ele>145.0</ele><time>2026-04-29T15:16:58.744Z</time></trkpt><trkpt lat="45.7416822" lon="11.5230834"><ele>145.0</ele><time>2026-04-29T15:16:59.761Z</time></trkpt><trkpt lat="45.7417984" lon="11.5230723"><ele>145.0</ele><time>2026-04-29T15:17:00.742Z</time></trkpt><trkpt lat="45.7419185" lon="11.523054"><ele>145.0</ele><time>2026-04-29T15:17:01.725Z</time></trkpt><trkpt lat="45.742046" lon="11.5230372"><ele>145.0</ele><time>2026-04-29T15:17:02.757Z</time></trkpt><trkpt lat="45.7421639" lon="11.5230205"><ele>145.0</ele><time>2026-04-29T15:17:03.727Z</time></trkpt><trkpt lat="45.742288" lon="11.5230062"><ele>145.0</ele><time>2026-04-29T15:17:04.737Z</time></trkpt><trkpt lat="45.742411" lon="11.5229842"><ele>145.0</ele><time>2026-04-29T15:17:05.733Z</time></trkpt><trkpt lat="45.7425264" lon="11.5229689"><ele>145.0</ele><time>2026-04-29T15:17:06.672Z</time></trkpt><trkpt lat="45.742642" lon="11.5229523"><ele>145.0</ele><time>2026-04-29T15:17:07.636Z</time></trkpt><trkpt lat="45.7427659" lon="11.5229339"><ele>145.0</ele><time>2026-04-29T15:17:08.654Z</time></trkpt><trkpt lat="45.7428802" lon="11.5229165"><ele>145.0</ele><time>2026-04-29T15:17:09.608Z</time></trkpt><trkpt lat="45.7430047" lon="11.5229057"><ele>145.5</ele><time>2026-04-29T15:17:10.618Z</time></trkpt><trkpt lat="45.7431346" lon="11.5228925"><ele>146.0</ele><time>2026-04-29T15:17:11.658Z</time></trkpt><trkpt lat="45.7432609" lon="11.522875"><ele>146.5</ele><time>2026-04-29T15:17:12.662Z</time></trkpt><trkpt lat="45.7433891" lon="11.5228537"><ele>147.0</ele><time>2026-04-29T15:17:13.68Z</time></trkpt><trkpt lat="45.7435221" lon="11.5228344"><ele>147.0</ele><time>2026-04-29T15:17:14.693Z</time></trkpt><trkpt lat="45.7436494" lon="11.5228174"><ele>147.0</ele><time>2026-04-29T15:17:15.655Z</time></trkpt><trkpt lat="45.7437851" lon="11.5227972"><ele>147.0</ele><time>2026-04-29T15:17:16.665Z</time></trkpt><trkpt lat="45.7439195" lon="11.522778"><ele>147.0</ele><time>2026-04-29T15:17:17.654Z</time></trkpt><trkpt lat="45.7440514" lon="11.5227592"><ele>147.0</ele><time>2026-04-29T15:17:18.657Z</time></trkpt><trkpt lat="45.7441778" lon="11.5227429"><ele>147.0</ele><time>2026-04-29T15:17:19.65Z</time></trkpt><trkpt lat="45.7443037" lon="11.522727"><ele>147.0</ele><time>2026-04-29T15:17:20.644Z</time></trkpt><trkpt lat="45.7444285" lon="11.5227087"><ele>147.0</ele><time>2026-04-29T15:17:21.617Z</time></trkpt><trkpt lat="45.7445602" lon="11.5226887"><ele>147.33333333333334</ele><time>2026-04-29T15:17:22.64Z</time></trkpt><trkpt lat="45.7447043" lon="11.5226713"><ele>147.66666666666669</ele><time>2026-04-29T15:17:23.73Z</time></trkpt><trkpt lat="45.7449633" lon="11.5226369"><ele>148.0</ele><time>2026-04-29T15:17:25.647Z</time></trkpt><trkpt lat="45.7450985" lon="11.5226318"><ele>148.33333333333334</ele><time>2026-04-29T15:17:26.637Z</time></trkpt><trkpt lat="45.7452355" lon="11.5226573"><ele>148.66666666666666</ele><time>2026-04-29T15:17:27.66Z</time></trkpt><trkpt lat="45.7453795" lon="11.5227111"><ele>149.0</ele><time>2026-04-29T15:17:28.754Z</time></trkpt><trkpt lat="45.745611" lon="11.5228868"><ele>151.75</ele><time>2026-04-29T15:17:30.646Z</time></trkpt><trkpt lat="45.7457243" lon="11.5230086"><ele>154.5</ele><time>2026-04-29T15:17:31.647Z</time></trkpt><trkpt lat="45.7458351" lon="11.5231449"><ele>157.25</ele><time>2026-04-29T15:17:32.673Z</time></trkpt><trkpt lat="45.7459354" lon="11.5232709"><ele>160.0</ele><time>2026-04-29T15:17:33.628Z</time></trkpt><trkpt lat="45.7460406" lon="11.5234089"><ele>160.75</ele><time>2026-04-29T15:17:34.664Z</time></trkpt><trkpt lat="45.7461372" lon="11.5235473"><ele>161.5</ele><time>2026-04-29T15:17:35.656Z</time></trkpt><trkpt lat="45.7462325" lon="11.523685"><ele>162.25</ele><time>2026-04-29T15:17:36.63Z</time></trkpt><trkpt lat="45.7463374" lon="11.5238361"><ele>163.0</ele><time>2026-04-29T15:17:37.658Z</time></trkpt><trkpt lat="45.746433" lon="11.5239783"><ele>163.0</ele><time>2026-04-29T15:17:38.645Z</time></trkpt><trkpt lat="45.746552" lon="11.5241133"><ele>163.0</ele><time>2026-04-29T15:17:39.763Z</time></trkpt><trkpt lat="45.7467562" lon="11.5242845"><ele>163.0</ele><time>2026-04-29T15:17:41.647Z</time></trkpt><trkpt lat="45.7468524" lon="11.5243601"><ele>164.0</ele><time>2026-04-29T15:17:42.647Z</time></trkpt><trkpt lat="45.7469375" lon="11.5244189"><ele>165.0</ele><time>2026-04-29T15:17:43.627Z</time></trkpt><trkpt lat="45.747008" lon="11.5244705"><ele>166.0</ele><time>2026-04-29T15:17:44.64Z</time></trkpt><trkpt lat="45.7470756" lon="11.5245294"><ele>167.0</ele><time>2026-04-29T15:17:45.75Z</time></trkpt><trkpt lat="45.7471774" lon="11.5246313"><ele>168.0</ele><time>2026-04-29T15:17:47.631Z</time></trkpt><trkpt lat="45.7472393" lon="11.5247237"><ele>168.0</ele><time>2026-04-29T15:17:48.741Z</time></trkpt><trkpt lat="45.7473417" lon="11.5249178"><ele>168.0</ele><time>2026-04-29T15:17:50.625Z</time></trkpt><trkpt lat="45.7474083" lon="11.5250494"><ele>168.0</ele><time>2026-04-29T15:17:51.772Z</time></trkpt><trkpt lat="45.7475331" lon="11.5252871"><ele>168.60000000000002</ele><time>2026-04-29T15:17:53.64Z</time></trkpt><trkpt lat="45.7475985" lon="11.5254125"><ele>169.20000000000002</ele><time>2026-04-29T15:17:54.616Z</time></trkpt><trkpt lat="45.7476631" lon="11.525533"><ele>169.8</ele><time>2026-04-29T15:17:55.624Z</time></trkpt><trkpt lat="45.7477188" lon="11.5256252"><ele>170.4</ele><time>2026-04-29T15:17:56.628Z</time></trkpt><trkpt lat="45.7477692" lon="11.5257191"><ele>171.0</ele><time>2026-04-29T15:17:57.759Z</time></trkpt><trkpt lat="45.7477966" lon="11.5258856"><ele>171.0</ele><time>2026-04-29T15:17:59.59Z</time></trkpt><trkpt lat="45.7477853" lon="11.5260132"><ele>171.0</ele><time>2026-04-29T15:18:00.754Z</time></trkpt><trkpt lat="45.7477364" lon="11.5262286"><ele>171.0</ele><time>2026-04-29T15:18:02.596Z</time></trkpt><trkpt lat="45.7477019" lon="11.5263444"><ele>171.0</ele><time>2026-04-29T15:18:03.61Z</time></trkpt><trkpt lat="45.7476648" lon="11.526464"><ele>171.0</ele><time>2026-04-29T15:18:04.592Z</time></trkpt><trkpt lat="45.7476248" lon="11.5265918"><ele>171.0</ele><time>2026-04-29T15:18:05.593Z</time></trkpt><trkpt lat="45.7475764" lon="11.5267234"><ele>171.0</ele><time>2026-04-29T15:18:06.611Z</time></trkpt><trkpt lat="45.7475434" lon="11.5268485"><ele>171.0</ele><time>2026-04-29T15:18:07.666Z</time></trkpt><trkpt lat="45.7475068" lon="11.5269772"><ele>171.0</ele><time>2026-04-29T15:18:08.823Z</time></trkpt><trkpt lat="45.7474567" lon="11.5271565"><ele>171.0</ele><time>2026-04-29T15:18:10.58Z</time></trkpt><trkpt lat="45.7474245" lon="11.5272662"><ele>171.20000000000002</ele><time>2026-04-29T15:18:11.601Z</time></trkpt><trkpt lat="45.7473897" lon="11.5273846"><ele>171.4</ele><time>2026-04-29T15:18:12.611Z</time></trkpt><trkpt lat="45.7473567" lon="11.5275157"><ele>171.6</ele><time>2026-04-29T15:18:13.653Z</time></trkpt><trkpt lat="45.7473251" lon="11.5276384"><ele>171.8</ele><time>2026-04-29T15:18:14.588Z</time></trkpt><trkpt lat="45.7472876" lon="11.527781"><ele>172.0</ele><time>2026-04-29T15:18:15.628Z</time></trkpt><trkpt lat="45.7472537" lon="11.5279239"><ele>172.2</ele><time>2026-04-29T15:18:16.621Z</time></trkpt><trkpt lat="45.7472175" lon="11.5280743"><ele>172.39999999999998</ele><time>2026-04-29T15:18:17.628Z</time></trkpt><trkpt lat="45.7471813" lon="11.528229"><ele>172.60000000000002</ele><time>2026-04-29T15:18:18.637Z</time></trkpt><trkpt lat="45.7471431" lon="11.5283863"><ele>172.8</ele><time>2026-04-29T15:18:19.722Z</time></trkpt><trkpt lat="45.7471132" lon="11.528506"><ele>173.0</ele><time>2026-04-29T15:18:20.636Z</time></trkpt><trkpt lat="45.7470827" lon="11.5286238"><ele>173.2</ele><time>2026-04-29T15:18:21.624Z</time></trkpt><trkpt lat="45.7470552" lon="11.5287343"><ele>173.4</ele><time>2026-04-29T15:18:22.666Z</time></trkpt><trkpt lat="45.7470331" lon="11.528822"><ele>173.6</ele><time>2026-04-29T15:18:23.608Z</time></trkpt><trkpt lat="45.7469931" lon="11.5289771"><ele>173.79999999999998</ele><time>2026-04-29T15:18:25.622Z</time></trkpt><trkpt lat="45.7469432" lon="11.529129"><ele>174.0</ele><time>2026-04-29T15:18:27.638Z</time></trkpt><trkpt lat="45.7469162" lon="11.529229"><ele>174.0</ele><time>2026-04-29T15:18:28.652Z</time></trkpt><trkpt lat="45.7468941" lon="11.5293402"><ele>174.0</ele><time>2026-04-29T15:18:29.629Z</time></trkpt><trkpt lat="45.7468725" lon="11.5294701"><ele>174.0</ele><time>2026-04-29T15:18:30.692Z</time></trkpt><trkpt lat="45.7468439" lon="11.5295925"><ele>174.0</ele><time>2026-04-29T15:18:31.728Z</time></trkpt><trkpt lat="45.7468166" lon="11.5297068"><ele>174.0</ele><time>2026-04-29T15:18:32.679Z</time></trkpt><trkpt lat="45.7467879" lon="11.5298177"><ele>174.0</ele><time>2026-04-29T15:18:33.584Z</time></trkpt><trkpt lat="45.7467557" lon="11.5299458"><ele>173.75</ele><time>2026-04-29T15:18:34.613Z</time></trkpt><trkpt lat="45.7467176" lon="11.5300756"><ele>173.5</ele><time>2026-04-29T15:18:35.638Z</time></trkpt><trkpt lat="45.7466819" lon="11.53022"><ele>173.25</ele><time>2026-04-29T15:18:36.786Z</time></trkpt><trkpt lat="45.7466105" lon="11.5304516"><ele>173.0</ele><time>2026-04-29T15:18:38.628Z</time></trkpt><trkpt lat="45.7465844" lon="11.5305715"><ele>173.83333333333331</ele><time>2026-04-29T15:18:39.624Z</time></trkpt><trkpt lat="45.7465582" lon="11.5306917"><ele>174.66666666666666</ele><time>2026-04-29T15:18:40.659Z</time></trkpt><trkpt lat="45.7465309" lon="11.5308054"><ele>175.5</ele><time>2026-04-29T15:18:41.628Z</time></trkpt><trkpt lat="45.7465059" lon="11.5309262"><ele>176.33333333333334</ele><time>2026-04-29T15:18:42.634Z</time></trkpt><trkpt lat="45.7464868" lon="11.5310403"><ele>177.16666666666669</ele><time>2026-04-29T15:18:43.582Z</time></trkpt><trkpt lat="45.746463" lon="11.5311766"><ele>178.0</ele><time>2026-04-29T15:18:44.634Z</time></trkpt><trkpt lat="45.7464318" lon="11.5313048"><ele>181.0</ele><time>2026-04-29T15:18:45.625Z</time></trkpt><trkpt lat="45.7463987" lon="11.5314445"><ele>184.0</ele><time>2026-04-29T15:18:46.624Z</time></trkpt><trkpt lat="45.7463607" lon="11.5315938"><ele>187.0</ele><time>2026-04-29T15:18:47.687Z</time></trkpt><trkpt lat="45.7463192" lon="11.5317637"><ele>190.0</ele><time>2026-04-29T15:18:48.821Z</time></trkpt><trkpt lat="45.7462438" lon="11.5320243"><ele>192.0</ele><time>2026-04-29T15:18:50.597Z</time></trkpt><trkpt lat="45.7462086" lon="11.5321588"><ele>194.0</ele><time>2026-04-29T15:18:51.616Z</time></trkpt><trkpt lat="45.7461774" lon="11.5322762"><ele>196.0</ele><time>2026-04-29T15:18:52.594Z</time></trkpt><trkpt lat="45.746147" lon="11.5323857"><ele>198.0</ele><time>2026-04-29T15:18:53.598Z</time></trkpt><trkpt lat="45.7461237" lon="11.5325043"><ele>200.0</ele><time>2026-04-29T15:18:54.583Z</time></trkpt><trkpt lat="45.7460975" lon="11.5326396"><ele>200.0</ele><time>2026-04-29T15:18:55.642Z</time></trkpt><trkpt lat="45.7460677" lon="11.5327575"><ele>200.0</ele><time>2026-04-29T15:18:56.591Z</time></trkpt><trkpt lat="45.7460243" lon="11.5328724"><ele>200.0</ele><time>2026-04-29T15:18:57.595Z</time></trkpt><trkpt lat="45.7459759" lon="11.5329849"><ele>200.0</ele><time>2026-04-29T15:18:58.606Z</time></trkpt><trkpt lat="45.7459226" lon="11.5330996"><ele>200.0</ele><time>2026-04-29T15:18:59.638Z</time></trkpt><trkpt lat="45.7458637" lon="11.5332207"><ele>200.25</ele><time>2026-04-29T15:19:00.73Z</time></trkpt><trkpt lat="45.7457557" lon="11.5334452"><ele>200.5</ele><time>2026-04-29T15:19:02.705Z</time></trkpt><trkpt lat="45.7457019" lon="11.5335352"><ele>200.75</ele><time>2026-04-29T15:19:03.723Z</time></trkpt><trkpt lat="45.7456185" lon="11.5336551"><ele>201.0</ele><time>2026-04-29T15:19:05.654Z</time></trkpt><trkpt lat="45.7455518" lon="11.5337746"><ele>201.0</ele><time>2026-04-29T15:19:07.633Z</time></trkpt><trkpt lat="45.7455118" lon="11.5339048"><ele>201.0</ele><time>2026-04-29T15:19:09.734Z</time></trkpt><trkpt lat="45.7455842" lon="11.533987"><ele>201.0</ele><time>2026-04-29T15:19:11.656Z</time></trkpt><trkpt lat="45.7456778" lon="11.5339178"><ele>201.0</ele><time>2026-04-29T15:19:13.565Z</time></trkpt><trkpt lat="45.7457267" lon="11.5338446"><ele>201.0</ele><time>2026-04-29T15:19:14.725Z</time></trkpt><trkpt lat="45.7458127" lon="11.5337729"><ele>201.0</ele><time>2026-04-29T15:19:16.591Z</time></trkpt><trkpt lat="45.7458939" lon="11.5338409"><ele>201.0</ele><time>2026-04-29T15:19:18.631Z</time></trkpt><trkpt lat="45.7459152" lon="11.5339708"><ele>201.0</ele><time>2026-04-29T15:19:20.618Z</time></trkpt><trkpt lat="45.7459311" lon="11.5341132"><ele>201.0</ele><time>2026-04-29T15:19:22.66Z</time></trkpt><trkpt lat="45.7459453" lon="11.5342082"><ele>201.0</ele><time>2026-04-29T15:19:24.769Z</time></trkpt><trkpt lat="45.7459895" lon="11.5342751"><ele>201.0</ele><time>2026-04-29T15:20:20.682Z</time></trkpt><trkpt lat="45.7460858" lon="11.534255"><ele>203.60000000000002</ele><time>2026-04-29T15:20:23.659Z</time></trkpt><trkpt lat="45.7461712" lon="11.5341958"><ele>206.2</ele><time>2026-04-29T15:20:25.644Z</time></trkpt><trkpt lat="45.7462743" lon="11.5341468"><ele>208.79999999999998</ele><time>2026-04-29T15:20:27.652Z</time></trkpt><trkpt lat="45.7463819" lon="11.5340994"><ele>211.39999999999998</ele><time>2026-04-29T15:20:29.622Z</time></trkpt><trkpt lat="45.7464869" lon="11.534045"><ele>214.0</ele><time>2026-04-29T15:20:31.639Z</time></trkpt><trkpt lat="45.7465566" lon="11.5340053"><ele>214.00000000000003</ele><time>2026-04-29T15:20:33.702Z</time></trkpt><trkpt lat="45.746621" lon="11.5339817"><ele>214.0</ele><time>2026-04-29T15:20:35.625Z</time></trkpt><trkpt lat="45.7466905" lon="11.53397"><ele>214.0</ele><time>2026-04-29T15:20:37.652Z</time></trkpt><trkpt lat="45.7467512" lon="11.5339327"><ele>214.0</ele><time>2026-04-29T15:21:20.642Z</time></trkpt><trkpt lat="45.7467396" lon="11.5338349"><ele>214.0</ele><time>2026-04-29T15:21:24.677Z</time></trkpt><trkpt lat="45.7466747" lon="11.5338748"><ele>214.00000000000003</ele><time>2026-04-29T15:21:49.647Z</time></trkpt><trkpt lat="45.7465897" lon="11.5339326"><ele>214.0</ele><time>2026-04-29T15:21:52.641Z</time></trkpt><trkpt lat="45.7465115" lon="11.533967"><ele>214.0</ele><time>2026-04-29T15:21:54.66Z</time></trkpt><trkpt lat="45.7464305" lon="11.5340021"><ele>213.99999999999997</ele><time>2026-04-29T15:21:56.661Z</time></trkpt><trkpt lat="45.7463464" lon="11.5340435"><ele>213.99999999999997</ele><time>2026-04-29T15:21:58.621Z</time></trkpt><trkpt lat="45.7462521" lon="11.5340962"><ele>214.0</ele><time>2026-04-29T15:22:00.718Z</time></trkpt><trkpt lat="45.7461677" lon="11.5341487"><ele>214.0</ele><time>2026-04-29T15:22:02.633Z</time></trkpt><trkpt lat="45.7460789" lon="11.5341932"><ele>211.83333333333331</ele><time>2026-04-29T15:22:04.641Z</time></trkpt><trkpt lat="45.7459864" lon="11.5341742"><ele>209.66666666666666</ele><time>2026-04-29T15:22:06.767Z</time></trkpt><trkpt lat="45.745948" lon="11.5340663"><ele>207.5</ele><time>2026-04-29T15:22:08.677Z</time></trkpt><trkpt lat="45.7459366" lon="11.5339485"><ele>205.33333333333331</ele><time>2026-04-29T15:22:10.679Z</time></trkpt><trkpt lat="45.7459261" lon="11.5338394"><ele>203.16666666666666</ele><time>2026-04-29T15:22:12.704Z</time></trkpt><trkpt lat="45.7459123" lon="11.5337413"><ele>201.0</ele><time>2026-04-29T15:22:14.649Z</time></trkpt><trkpt lat="45.7458435" lon="11.5337095"><ele>201.0</ele><time>2026-04-29T15:22:16.653Z</time></trkpt><trkpt lat="45.7457535" lon="11.5337821"><ele>201.0</ele><time>2026-04-29T15:22:18.739Z</time></trkpt><trkpt lat="45.7456821" lon="11.5339146"><ele>201.0</ele><time>2026-04-29T15:22:20.644Z</time></trkpt><trkpt lat="45.7456006" lon="11.5339662"><ele>201.0</ele><time>2026-04-29T15:22:22.628Z</time></trkpt><trkpt lat="45.7455444" lon="11.5338598"><ele>201.0</ele><time>2026-04-29T15:22:24.634Z</time></trkpt><trkpt lat="45.7455581" lon="11.5336396"><ele>198.8</ele><time>2026-04-29T15:22:27.614Z</time></trkpt><trkpt lat="45.7456772" lon="11.5334767"><ele>196.60000000000002</ele><time>2026-04-29T15:22:29.626Z</time></trkpt><trkpt lat="45.7457557" lon="11.5333966"><ele>194.4</ele><time>2026-04-29T15:22:30.626Z</time></trkpt><trkpt lat="45.7458085" lon="11.5333133"><ele>192.2</ele><time>2026-04-29T15:22:31.605Z</time></trkpt><trkpt lat="45.7458654" lon="11.5332192"><ele>190.0</ele><time>2026-04-29T15:22:32.637Z</time></trkpt><trkpt lat="45.7459263" lon="11.533114"><ele>190.0</ele><time>2026-04-29T15:22:33.718Z</time></trkpt><trkpt lat="45.7460225" lon="11.5329047"><ele>190.0</ele><time>2026-04-29T15:22:35.64Z</time></trkpt><trkpt lat="45.7460606" lon="11.5328075"><ele>190.0</ele><time>2026-04-29T15:22:36.624Z</time></trkpt><trkpt lat="45.7460976" lon="11.5326705"><ele>190.0</ele><time>2026-04-29T15:22:38.627Z</time></trkpt><trkpt lat="45.7461334" lon="11.5325891"><ele>190.0</ele><time>2026-04-29T15:22:42.594Z</time></trkpt><trkpt lat="45.74606" lon="11.5325718"><ele>190.0</ele><time>2026-04-29T15:22:47.678Z</time></trkpt><trkpt lat="45.7459725" lon="11.5327349"><ele>190.0</ele><time>2026-04-29T15:22:49.628Z</time></trkpt><trkpt lat="45.7459064" lon="11.5328113"><ele>190.0</ele><time>2026-04-29T15:22:50.589Z</time></trkpt><trkpt lat="45.7458115" lon="11.5329023"><ele>190.0</ele><time>2026-04-29T15:22:51.695Z</time></trkpt><trkpt lat="45.7457224" lon="11.5329699"><ele>190.0</ele><time>2026-04-29T15:22:52.622Z</time></trkpt><trkpt lat="45.7456309" lon="11.5330337"><ele>190.0</ele><time>2026-04-29T15:22:53.592Z</time></trkpt><trkpt lat="45.7455363" lon="11.5331005"><ele>190.0</ele><time>2026-04-29T15:22:54.635Z</time></trkpt><trkpt lat="45.7454461" lon="11.5331643"><ele>190.0</ele><time>2026-04-29T15:22:55.624Z</time></trkpt><trkpt lat="45.7453577" lon="11.5332304"><ele>190.0</ele><time>2026-04-29T15:22:56.658Z</time></trkpt><trkpt lat="45.7452719" lon="11.5332912"><ele>190.0</ele><time>2026-04-29T15:22:57.618Z</time></trkpt><trkpt lat="45.7451735" lon="11.5333665"><ele>186.5</ele><time>2026-04-29T15:22:58.635Z</time></trkpt><trkpt lat="45.7450844" lon="11.5334332"><ele>183.0</ele><time>2026-04-29T15:22:59.582Z</time></trkpt><trkpt lat="45.7449837" lon="11.5335071"><ele>179.5</ele><time>2026-04-29T15:23:00.606Z</time></trkpt><trkpt lat="45.7448829" lon="11.5335912"><ele>176.0</ele><time>2026-04-29T15:23:01.62Z</time></trkpt><trkpt lat="45.7447777" lon="11.5336814"><ele>175.5</ele><time>2026-04-29T15:23:02.604Z</time></trkpt><trkpt lat="45.7446652" lon="11.533772"><ele>175.0</ele><time>2026-04-29T15:23:03.635Z</time></trkpt><trkpt lat="45.7445523" lon="11.5338554"><ele>174.5</ele><time>2026-04-29T15:23:04.614Z</time></trkpt><trkpt lat="45.7444171" lon="11.5339492"><ele>174.0</ele><time>2026-04-29T15:23:05.711Z</time></trkpt><trkpt lat="45.7443009" lon="11.5340273"><ele>174.0</ele><time>2026-04-29T15:23:06.647Z</time></trkpt><trkpt lat="45.7441844" lon="11.5341098"><ele>174.0</ele><time>2026-04-29T15:23:07.62Z</time></trkpt><trkpt lat="45.7440712" lon="11.53419"><ele>174.0</ele><time>2026-04-29T15:23:08.653Z</time></trkpt><trkpt lat="45.7439659" lon="11.5342671"><ele>174.0</ele><time>2026-04-29T15:23:09.662Z</time></trkpt><trkpt lat="45.7438637" lon="11.5343399"><ele>174.0</ele><time>2026-04-29T15:23:10.671Z</time></trkpt><trkpt lat="45.7437703" lon="11.5344111"><ele>174.0</ele><time>2026-04-29T15:23:11.644Z</time></trkpt><trkpt lat="45.7436773" lon="11.53448"><ele>174.0</ele><time>2026-04-29T15:23:12.648Z</time></trkpt><trkpt lat="45.7435919" lon="11.5345463"><ele>174.0</ele><time>2026-04-29T15:23:13.626Z</time></trkpt><trkpt lat="45.7435074" lon="11.5346103"><ele>174.0</ele><time>2026-04-29T15:23:14.636Z</time></trkpt><trkpt lat="45.7434247" lon="11.5346814"><ele>173.6</ele><time>2026-04-29T15:23:15.62Z</time></trkpt><trkpt lat="45.7433478" lon="11.534776"><ele>173.2</ele><time>2026-04-29T15:23:16.606Z</time></trkpt><trkpt lat="45.7432884" lon="11.5349043"><ele>172.79999999999998</ele><time>2026-04-29T15:23:17.621Z</time></trkpt><trkpt lat="45.743253" lon="11.5350624"><ele>172.39999999999998</ele><time>2026-04-29T15:23:18.647Z</time></trkpt><trkpt lat="45.7432479" lon="11.5352406"><ele>172.0</ele><time>2026-04-29T15:23:19.683Z</time></trkpt><trkpt lat="45.7432703" lon="11.5354334"><ele>172.0</ele><time>2026-04-29T15:23:20.767Z</time></trkpt><trkpt lat="45.7433277" lon="11.5357973"><ele>172.0</ele><time>2026-04-29T15:23:22.767Z</time></trkpt><trkpt lat="45.7433667" lon="11.5361188"><ele>170.6</ele><time>2026-04-29T15:23:24.643Z</time></trkpt><trkpt lat="45.7433851" lon="11.5362802"><ele>169.2</ele><time>2026-04-29T15:23:25.685Z</time></trkpt><trkpt lat="45.7434012" lon="11.5364308"><ele>167.8</ele><time>2026-04-29T15:23:26.648Z</time></trkpt><trkpt lat="45.7434193" lon="11.5365719"><ele>166.4</ele><time>2026-04-29T15:23:27.66Z</time></trkpt><trkpt lat="45.7434388" lon="11.5367138"><ele>165.0</ele><time>2026-04-29T15:23:28.638Z</time></trkpt><trkpt lat="45.7434571" lon="11.5368592"><ele>165.0</ele><time>2026-04-29T15:23:29.653Z</time></trkpt><trkpt lat="45.7434753" lon="11.5370051"><ele>165.0</ele><time>2026-04-29T15:23:30.645Z</time></trkpt><trkpt lat="45.7434949" lon="11.5371576"><ele>165.0</ele><time>2026-04-29T15:23:31.762Z</time></trkpt><trkpt lat="45.7434868" lon="11.5373223"><ele>165.0</ele><time>2026-04-29T15:23:33.619Z</time></trkpt><trkpt lat="45.7434084" lon="11.5374385"><ele>165.0</ele><time>2026-04-29T15:23:35.649Z</time></trkpt><trkpt lat="45.7433458" lon="11.5374666"><ele>165.0</ele><time>2026-04-29T15:23:36.635Z</time></trkpt><trkpt lat="45.7432587" lon="11.5374823"><ele>165.0</ele><time>2026-04-29T15:23:37.746Z</time></trkpt><trkpt lat="45.7431436" lon="11.5375014"><ele>165.0</ele><time>2026-04-29T15:23:39.625Z</time></trkpt><trkpt lat="45.7430576" lon="11.5375198"><ele>165.0</ele><time>2026-04-29T15:23:41.651Z</time></trkpt><trkpt lat="45.7429904" lon="11.5375323"><ele>165.0</ele><time>2026-04-29T15:23:44.682Z</time></trkpt><trkpt lat="45.7429281" lon="11.5375681"><ele>165.0</ele><time>2026-04-29T15:23:52.684Z</time></trkpt><trkpt lat="45.7430141" lon="11.5375844"><ele>165.0</ele><time>2026-04-29T15:23:56.668Z</time></trkpt><trkpt lat="45.7431312" lon="11.537547"><ele>165.0</ele><time>2026-04-29T15:23:58.646Z</time></trkpt><trkpt lat="45.7432084" lon="11.5375292"><ele>165.0</ele><time>2026-04-29T15:23:59.645Z</time></trkpt><trkpt lat="45.7432921" lon="11.5375073"><ele>165.0</ele><time>2026-04-29T15:24:00.666Z</time></trkpt><trkpt lat="45.7433622" lon="11.5374775"><ele>165.0</ele><time>2026-04-29T15:24:01.619Z</time></trkpt><trkpt lat="45.7434231" lon="11.5374522"><ele>165.0</ele><time>2026-04-29T15:24:02.643Z</time></trkpt><trkpt lat="45.7434941" lon="11.5374342"><ele>165.0</ele><time>2026-04-29T15:24:04.668Z</time></trkpt><trkpt lat="45.7435455" lon="11.5375463"><ele>165.0</ele><time>2026-04-29T15:24:07.63Z</time></trkpt><trkpt lat="45.7435619" lon="11.5376395"><ele>165.0</ele><time>2026-04-29T15:24:08.736Z</time></trkpt><trkpt lat="45.7435796" lon="11.5377385"><ele>165.0</ele><time>2026-04-29T15:24:09.674Z</time></trkpt><trkpt lat="45.7435998" lon="11.5378477"><ele>165.0</ele><time>2026-04-29T15:24:10.686Z</time></trkpt><trkpt lat="45.7436154" lon="11.5379661"><ele>165.0</ele><time>2026-04-29T15:24:11.64Z</time></trkpt><trkpt lat="45.7436269" lon="11.5381027"><ele>165.0</ele><time>2026-04-29T15:24:12.637Z</time></trkpt><trkpt lat="45.7436442" lon="11.5382581"><ele>165.0</ele><time>2026-04-29T15:24:13.638Z</time></trkpt><trkpt lat="45.7436611" lon="11.5384154"><ele>165.0</ele><time>2026-04-29T15:24:14.606Z</time></trkpt><trkpt lat="45.74368" lon="11.5385685"><ele>165.0</ele><time>2026-04-29T15:24:15.653Z</time></trkpt><trkpt lat="45.7436966" lon="11.5386921"><ele>165.0</ele><time>2026-04-29T15:24:16.639Z</time></trkpt><trkpt lat="45.743714" lon="11.5388347"><ele>165.0</ele><time>2026-04-29T15:24:17.861Z</time></trkpt><trkpt lat="45.7437372" lon="11.5390119"><ele>165.0</ele><time>2026-04-29T15:24:19.745Z</time></trkpt><trkpt lat="45.7437485" lon="11.5391028"><ele>165.0</ele><time>2026-04-29T15:24:20.753Z</time></trkpt><trkpt lat="45.7437569" lon="11.5392899"><ele>165.0</ele><time>2026-04-29T15:24:22.689Z</time></trkpt><trkpt lat="45.7437459" lon="11.5394002"><ele>165.0</ele><time>2026-04-29T15:24:23.736Z</time></trkpt><trkpt lat="45.7437172" lon="11.5395083"><ele>165.2</ele><time>2026-04-29T15:24:24.706Z</time></trkpt><trkpt lat="45.7436841" lon="11.539621"><ele>165.4</ele><time>2026-04-29T15:24:25.701Z</time></trkpt><trkpt lat="45.743648" lon="11.5397425"><ele>165.60000000000002</ele><time>2026-04-29T15:24:26.725Z</time></trkpt><trkpt lat="45.7436163" lon="11.5398719"><ele>165.8</ele><time>2026-04-29T15:24:27.736Z</time></trkpt><trkpt lat="45.7435937" lon="11.5400092"><ele>166.0</ele><time>2026-04-29T15:24:28.738Z</time></trkpt><trkpt lat="45.743573" lon="11.5401562"><ele>166.0</ele><time>2026-04-29T15:24:29.807Z</time></trkpt><trkpt lat="45.74356" lon="11.5402868"><ele>166.0</ele><time>2026-04-29T15:24:30.733Z</time></trkpt><trkpt lat="45.7435422" lon="11.5404303"><ele>166.0</ele><time>2026-04-29T15:24:31.734Z</time></trkpt><trkpt lat="45.7435156" lon="11.5405665"><ele>166.0</ele><time>2026-04-29T15:24:32.735Z</time></trkpt><trkpt lat="45.7434748" lon="11.5406775"><ele>166.0</ele><time>2026-04-29T15:24:33.736Z</time></trkpt><trkpt lat="45.7434247" lon="11.5407659"><ele>165.5</ele><time>2026-04-29T15:24:34.743Z</time></trkpt><trkpt lat="45.7433856" lon="11.5408452"><ele>165.0</ele><time>2026-04-29T15:24:35.743Z</time></trkpt><trkpt lat="45.7433523" lon="11.5409262"><ele>164.5</ele><time>2026-04-29T15:24:36.865Z</time></trkpt><trkpt lat="45.7432988" lon="11.5410662"><ele>164.0</ele><time>2026-04-29T15:24:38.735Z</time></trkpt><trkpt lat="45.7432375" lon="11.5412259"><ele>163.5</ele><time>2026-04-29T15:24:40.793Z</time></trkpt><trkpt lat="45.7432031" lon="11.5413167"><ele>163.0</ele><time>2026-04-29T15:24:41.748Z</time></trkpt><trkpt lat="45.7431644" lon="11.5414135"><ele>164.16666666666669</ele><time>2026-04-29T15:24:43.767Z</time></trkpt><trkpt lat="45.7431113" lon="11.5414678"><ele>165.33333333333334</ele><time>2026-04-29T15:25:03.629Z</time></trkpt><trkpt lat="45.7429864" lon="11.5415298"><ele>166.5</ele><time>2026-04-29T15:25:05.723Z</time></trkpt><trkpt lat="45.7429141" lon="11.541532"><ele>167.66666666666666</ele><time>2026-04-29T15:25:06.718Z</time></trkpt><trkpt lat="45.7428384" lon="11.5415258"><ele>168.83333333333331</ele><time>2026-04-29T15:25:07.708Z</time></trkpt><trkpt lat="45.7427558" lon="11.5415081"><ele>170.0</ele><time>2026-04-29T15:25:08.759Z</time></trkpt><trkpt lat="45.7426781" lon="11.5414633"><ele>170.0</ele><time>2026-04-29T15:25:09.766Z</time></trkpt><trkpt lat="45.7425587" lon="11.5413979"><ele>170.0</ele><time>2026-04-29T15:25:11.631Z</time></trkpt><trkpt lat="45.7424655" lon="11.5414452"><ele>170.0</ele><time>2026-04-29T15:25:13.725Z</time></trkpt><trkpt lat="45.7423696" lon="11.5415106"><ele>170.0</ele><time>2026-04-29T15:25:15.646Z</time></trkpt><trkpt lat="45.7422747" lon="11.5416077"><ele>170.0</ele><time>2026-04-29T15:25:17.659Z</time></trkpt><trkpt lat="45.742211" lon="11.5417504"><ele>170.0</ele><time>2026-04-29T15:25:19.629Z</time></trkpt><trkpt lat="45.7421682" lon="11.5419176"><ele>170.0</ele><time>2026-04-29T15:25:21.606Z</time></trkpt><trkpt lat="45.7421454" lon="11.5420049"><ele>170.0</ele><time>2026-04-29T15:25:22.609Z</time></trkpt><trkpt lat="45.7421216" lon="11.5420952"><ele>170.0</ele><time>2026-04-29T15:25:23.647Z</time></trkpt><trkpt lat="45.7420941" lon="11.5421854"><ele>170.0</ele><time>2026-04-29T15:25:24.625Z</time></trkpt><trkpt lat="45.7420676" lon="11.5422811"><ele>170.0</ele><time>2026-04-29T15:25:25.616Z</time></trkpt><trkpt lat="45.7420403" lon="11.5423888"><ele>172.0</ele><time>2026-04-29T15:25:26.668Z</time></trkpt><trkpt lat="45.7420212" lon="11.5424936"><ele>174.0</ele><time>2026-04-29T15:25:27.638Z</time></trkpt><trkpt lat="45.742016" lon="11.5426176"><ele>176.0</ele><time>2026-04-29T15:25:28.734Z</time></trkpt><trkpt lat="45.742045" lon="11.5428309"><ele>178.0</ele><time>2026-04-29T15:25:30.636Z</time></trkpt><trkpt lat="45.7420562" lon="11.5429467"><ele>180.0</ele><time>2026-04-29T15:25:31.616Z</time></trkpt><trkpt lat="45.7420679" lon="11.5430625"><ele>181.33333333333334</ele><time>2026-04-29T15:25:32.637Z</time></trkpt><trkpt lat="45.7420841" lon="11.5431834"><ele>182.66666666666666</ele><time>2026-04-29T15:25:33.714Z</time></trkpt><trkpt lat="45.7421022" lon="11.5432935"><ele>184.0</ele><time>2026-04-29T15:25:34.703Z</time></trkpt><trkpt lat="45.7421273" lon="11.5433914"><ele>185.33333333333331</ele><time>2026-04-29T15:25:35.613Z</time></trkpt><trkpt lat="45.7421735" lon="11.543484"><ele>186.66666666666666</ele><time>2026-04-29T15:25:36.586Z</time></trkpt><trkpt lat="45.7422289" lon="11.5435859"><ele>188.0</ele><time>2026-04-29T15:25:37.621Z</time></trkpt><trkpt lat="45.742279" lon="11.5436976"><ele>189.60000000000002</ele><time>2026-04-29T15:25:38.633Z</time></trkpt><trkpt lat="45.7423286" lon="11.5438167"><ele>191.20000000000002</ele><time>2026-04-29T15:25:39.65Z</time></trkpt><trkpt lat="45.7423794" lon="11.5439403"><ele>192.8</ele><time>2026-04-29T15:25:40.642Z</time></trkpt><trkpt lat="45.7424306" lon="11.544067"><ele>194.4</ele><time>2026-04-29T15:25:41.63Z</time></trkpt><trkpt lat="45.7424844" lon="11.5442007"><ele>196.0</ele><time>2026-04-29T15:25:42.659Z</time></trkpt><trkpt lat="45.7425311" lon="11.5443354"><ele>196.0</ele><time>2026-04-29T15:25:43.653Z</time></trkpt><trkpt lat="45.7425656" lon="11.5444759"><ele>196.0</ele><time>2026-04-29T15:25:44.637Z</time></trkpt><trkpt lat="45.7425886" lon="11.5446104"><ele>196.0</ele><time>2026-04-29T15:25:45.666Z</time></trkpt><trkpt lat="45.7426076" lon="11.5447387"><ele>196.0</ele><time>2026-04-29T15:25:46.641Z</time></trkpt><trkpt lat="45.7426282" lon="11.5448687"><ele>196.0</ele><time>2026-04-29T15:25:47.604Z</time></trkpt><trkpt lat="45.7426512" lon="11.5450087"><ele>197.49999999999997</ele><time>2026-04-29T15:25:48.626Z</time></trkpt><trkpt lat="45.7426704" lon="11.545146"><ele>199.0</ele><time>2026-04-29T15:25:49.648Z</time></trkpt><trkpt lat="45.7426704" lon="11.5452603"><ele>200.5</ele><time>2026-04-29T15:25:50.649Z</time></trkpt><trkpt lat="45.742647" lon="11.5453515"><ele>202.0</ele><time>2026-04-29T15:25:51.659Z</time></trkpt><trkpt lat="45.7426055" lon="11.5454348"><ele>203.49999999999997</ele><time>2026-04-29T15:25:52.62Z</time></trkpt><trkpt lat="45.7425499" lon="11.5455184"><ele>205.0</ele><time>2026-04-29T15:25:53.631Z</time></trkpt><trkpt lat="45.7424862" lon="11.545593"><ele>206.49999999999997</ele><time>2026-04-29T15:25:54.618Z</time></trkpt><trkpt lat="45.7424248" lon="11.5456672"><ele>208.0</ele><time>2026-04-29T15:25:55.664Z</time></trkpt><trkpt lat="45.7423813" lon="11.5457414"><ele>209.5</ele><time>2026-04-29T15:25:56.622Z</time></trkpt><trkpt lat="45.742362" lon="11.5458355"><ele>211.0</ele><time>2026-04-29T15:25:57.723Z</time></trkpt><trkpt lat="45.7424154" lon="11.5460001"><ele>212.49999999999997</ele><time>2026-04-29T15:25:59.603Z</time></trkpt><trkpt lat="45.7424688" lon="11.5460858"><ele>214.0</ele><time>2026-04-29T15:26:00.626Z</time></trkpt><trkpt lat="45.7425198" lon="11.5461691"><ele>214.49999999999997</ele><time>2026-04-29T15:26:01.636Z</time></trkpt><trkpt lat="45.7425597" lon="11.5462433"><ele>215.0</ele><time>2026-04-29T15:26:02.701Z</time></trkpt><trkpt lat="45.7426029" lon="11.5463247"><ele>215.5</ele><time>2026-04-29T15:26:04.629Z</time></trkpt><trkpt lat="45.7425982" lon="11.5464178"><ele>216.0</ele><time>2026-04-29T15:26:11.639Z</time></trkpt><trkpt lat="45.7425412" lon="11.5464873"><ele>216.49999999999997</ele><time>2026-04-29T15:27:08.74Z</time></trkpt><trkpt lat="45.7424082" lon="11.5465044"><ele>217.0</ele><time>2026-04-29T15:27:10.65Z</time></trkpt><trkpt lat="45.7423419" lon="11.5465124"><ele>217.0</ele><time>2026-04-29T15:27:11.627Z</time></trkpt><trkpt lat="45.7422246" lon="11.5465278"><ele>217.0</ele><time>2026-04-29T15:27:13.634Z</time></trkpt><trkpt lat="45.7421211" lon="11.5465536"><ele>217.0</ele><time>2026-04-29T15:27:15.655Z</time></trkpt><trkpt lat="45.7419985" lon="11.5466145"><ele>217.0</ele><time>2026-04-29T15:27:17.655Z</time></trkpt><trkpt lat="45.7419334" lon="11.5466532"><ele>217.0</ele><time>2026-04-29T15:27:18.629Z</time></trkpt><trkpt lat="45.7418135" lon="11.5467164"><ele>217.39999999999998</ele><time>2026-04-29T15:27:20.615Z</time></trkpt><trkpt lat="45.74175" lon="11.5467505"><ele>217.79999999999998</ele><time>2026-04-29T15:27:21.588Z</time></trkpt><trkpt lat="45.7416841" lon="11.5467881"><ele>218.2</ele><time>2026-04-29T15:27:22.605Z</time></trkpt><trkpt lat="45.7416091" lon="11.5468403"><ele>218.6</ele><time>2026-04-29T15:27:23.74Z</time></trkpt><trkpt lat="45.741468" lon="11.5469313"><ele>219.0</ele><time>2026-04-29T15:27:25.638Z</time></trkpt><trkpt lat="45.7413861" lon="11.5469862"><ele>219.0</ele><time>2026-04-29T15:27:26.661Z</time></trkpt><trkpt lat="45.7413064" lon="11.5470365"><ele>218.99999999999997</ele><time>2026-04-29T15:27:27.621Z</time></trkpt><trkpt lat="45.741222" lon="11.5470864"><ele>218.99999999999997</ele><time>2026-04-29T15:27:28.606Z</time></trkpt><trkpt lat="45.7411292" lon="11.5471419"><ele>219.0</ele><time>2026-04-29T15:27:29.648Z</time></trkpt><trkpt lat="45.7410437" lon="11.5471901"><ele>219.0</ele><time>2026-04-29T15:27:30.631Z</time></trkpt><trkpt lat="45.7409644" lon="11.5472289"><ele>217.33333333333334</ele><time>2026-04-29T15:27:31.581Z</time></trkpt><trkpt lat="45.7408729" lon="11.5472645"><ele>215.66666666666669</ele><time>2026-04-29T15:27:32.71Z</time></trkpt><trkpt lat="45.7408024" lon="11.5472892"><ele>214.0</ele><time>2026-04-29T15:27:33.65Z</time></trkpt><trkpt lat="45.7407347" lon="11.5473184"><ele>212.33333333333334</ele><time>2026-04-29T15:27:34.635Z</time></trkpt><trkpt lat="45.740665" lon="11.5473605"><ele>210.66666666666669</ele><time>2026-04-29T15:27:35.734Z</time></trkpt><trkpt lat="45.7405621" lon="11.5474549"><ele>209.0</ele><time>2026-04-29T15:27:37.619Z</time></trkpt><trkpt lat="45.7405064" lon="11.5475102"><ele>209.00000000000003</ele><time>2026-04-29T15:27:38.636Z</time></trkpt><trkpt lat="45.7403983" lon="11.5475875"><ele>209.0</ele><time>2026-04-29T15:27:40.608Z</time></trkpt><trkpt lat="45.7403383" lon="11.5476241"><ele>209.0</ele><time>2026-04-29T15:27:41.688Z</time></trkpt><trkpt lat="45.7402749" lon="11.5476534"><ele>209.0</ele><time>2026-04-29T15:27:42.625Z</time></trkpt><trkpt lat="45.7401987" lon="11.5476986"><ele>209.00000000000003</ele><time>2026-04-29T15:27:43.635Z</time></trkpt><trkpt lat="45.7401143" lon="11.5477437"><ele>209.0</ele><time>2026-04-29T15:27:44.639Z</time></trkpt><trkpt lat="45.7400323" lon="11.5477976"><ele>208.16666666666669</ele><time>2026-04-29T15:27:45.62Z</time></trkpt><trkpt lat="45.7399579" lon="11.547858"><ele>207.33333333333334</ele><time>2026-04-29T15:27:46.593Z</time></trkpt><trkpt lat="45.7398848" lon="11.547925"><ele>206.5</ele><time>2026-04-29T15:27:47.637Z</time></trkpt><trkpt lat="45.7398197" lon="11.5479878"><ele>205.66666666666669</ele><time>2026-04-29T15:27:48.616Z</time></trkpt><trkpt lat="45.7397589" lon="11.5480606"><ele>204.83333333333334</ele><time>2026-04-29T15:27:49.633Z</time></trkpt><trkpt lat="45.7396952" lon="11.5481336"><ele>204.0</ele><time>2026-04-29T15:27:50.627Z</time></trkpt><trkpt lat="45.73963" lon="11.5482074"><ele>203.0</ele><time>2026-04-29T15:27:51.636Z</time></trkpt><trkpt lat="45.7395724" lon="11.5482764"><ele>202.0</ele><time>2026-04-29T15:27:52.592Z</time></trkpt><trkpt lat="45.7395158" lon="11.5483534"><ele>201.0</ele><time>2026-04-29T15:27:53.666Z</time></trkpt><trkpt lat="45.73947" lon="11.5484202"><ele>200.0</ele><time>2026-04-29T15:27:54.641Z</time></trkpt><trkpt lat="45.7393721" lon="11.5485302"><ele>199.0</ele><time>2026-04-29T15:27:56.588Z</time></trkpt><trkpt lat="45.7393033" lon="11.5485816"><ele>198.0</ele><time>2026-04-29T15:27:57.653Z</time></trkpt><trkpt lat="45.7392199" lon="11.5486294"><ele>196.60000000000002</ele><time>2026-04-29T15:27:58.653Z</time></trkpt><trkpt lat="45.7391253" lon="11.5486622"><ele>195.20000000000002</ele><time>2026-04-29T15:27:59.616Z</time></trkpt><trkpt lat="45.7390231" lon="11.548679"><ele>193.8</ele><time>2026-04-29T15:28:00.573Z</time></trkpt><trkpt lat="45.7389043" lon="11.5486696"><ele>192.4</ele><time>2026-04-29T15:28:01.625Z</time></trkpt><trkpt lat="45.7387884" lon="11.5486381"><ele>191.0</ele><time>2026-04-29T15:28:02.658Z</time></trkpt><trkpt lat="45.7386784" lon="11.5486103"><ele>191.0</ele><time>2026-04-29T15:28:03.637Z</time></trkpt><trkpt lat="45.7385865" lon="11.5485802"><ele>191.0</ele><time>2026-04-29T15:28:04.587Z</time></trkpt><trkpt lat="45.7385066" lon="11.5485555"><ele>191.0</ele><time>2026-04-29T15:28:05.59Z</time></trkpt><trkpt lat="45.7384372" lon="11.5485328"><ele>191.0</ele><time>2026-04-29T15:28:06.677Z</time></trkpt><trkpt lat="45.7383217" lon="11.5484725"><ele>191.0</ele><time>2026-04-29T15:28:08.639Z</time></trkpt><trkpt lat="45.7382274" lon="11.548434"><ele>189.33333333333331</ele><time>2026-04-29T15:28:10.627Z</time></trkpt><trkpt lat="45.7381721" lon="11.5485242"><ele>187.66666666666666</ele><time>2026-04-29T15:28:13.671Z</time></trkpt><trkpt lat="45.7381648" lon="11.5486278"><ele>186.0</ele><time>2026-04-29T15:28:14.616Z</time></trkpt><trkpt lat="45.7381472" lon="11.548771"><ele>184.33333333333334</ele><time>2026-04-29T15:28:15.654Z</time></trkpt><trkpt lat="45.7381348" lon="11.5488869"><ele>182.66666666666669</ele><time>2026-04-29T15:28:16.639Z</time></trkpt><trkpt lat="45.7381164" lon="11.549016"><ele>181.0</ele><time>2026-04-29T15:28:17.554Z</time></trkpt><trkpt lat="45.7381102" lon="11.5491854"><ele>181.0</ele><time>2026-04-29T15:28:18.647Z</time></trkpt><trkpt lat="45.738116" lon="11.5493526"><ele>181.0</ele><time>2026-04-29T15:28:19.598Z</time></trkpt><trkpt lat="45.7381305" lon="11.5495312"><ele>181.0</ele><time>2026-04-29T15:28:20.594Z</time></trkpt><trkpt lat="45.7381569" lon="11.5497187"><ele>181.0</ele><time>2026-04-29T15:28:21.618Z</time></trkpt><trkpt lat="45.7381891" lon="11.5499174"><ele>179.0</ele><time>2026-04-29T15:28:22.658Z</time></trkpt><trkpt lat="45.7382241" lon="11.5501049"><ele>177.0</ele><time>2026-04-29T15:28:23.626Z</time></trkpt><trkpt lat="45.7382625" lon="11.5502979"><ele>175.0</ele><time>2026-04-29T15:28:24.608Z</time></trkpt><trkpt lat="45.7383054" lon="11.5505072"><ele>173.0</ele><time>2026-04-29T15:28:25.657Z</time></trkpt><trkpt lat="45.7383394" lon="11.5506936"><ele>171.5</ele><time>2026-04-29T15:28:26.613Z</time></trkpt><trkpt lat="45.7383706" lon="11.5508853"><ele>170.0</ele><time>2026-04-29T15:28:27.583Z</time></trkpt><trkpt lat="45.7384006" lon="11.5510898"><ele>168.5</ele><time>2026-04-29T15:28:28.64Z</time></trkpt><trkpt lat="45.738424" lon="11.5512772"><ele>167.0</ele><time>2026-04-29T15:28:29.62Z</time></trkpt><trkpt lat="45.7384408" lon="11.5514786"><ele>166.0</ele><time>2026-04-29T15:28:30.667Z</time></trkpt><trkpt lat="45.7384425" lon="11.551663"><ele>165.0</ele><time>2026-04-29T15:28:31.64Z</time></trkpt><trkpt lat="45.7384395" lon="11.551846"><ele>164.0</ele><time>2026-04-29T15:28:32.6Z</time></trkpt><trkpt lat="45.7384363" lon="11.5520348"><ele>163.0</ele><time>2026-04-29T15:28:33.595Z</time></trkpt><trkpt lat="45.7384346" lon="11.5522191"><ele>162.66666666666669</ele><time>2026-04-29T15:28:34.585Z</time></trkpt><trkpt lat="45.7384339" lon="11.5524103"><ele>162.33333333333334</ele><time>2026-04-29T15:28:35.622Z</time></trkpt><trkpt lat="45.7384374" lon="11.5526212"><ele>162.0</ele><time>2026-04-29T15:28:36.772Z</time></trkpt><trkpt lat="45.7384527" lon="11.5529585"><ele>163.0</ele><time>2026-04-29T15:28:38.63Z</time></trkpt><trkpt lat="45.738473" lon="11.5531369"><ele>164.0</ele><time>2026-04-29T15:28:39.636Z</time></trkpt><trkpt lat="45.7385" lon="11.5533155"><ele>165.0</ele><time>2026-04-29T15:28:40.681Z</time></trkpt><trkpt lat="45.7385297" lon="11.5534808"><ele>166.0</ele><time>2026-04-29T15:28:41.662Z</time></trkpt><trkpt lat="45.7385659" lon="11.5536344"><ele>168.0</ele><time>2026-04-29T15:28:42.621Z</time></trkpt><trkpt lat="45.7386066" lon="11.5537771"><ele>170.0</ele><time>2026-04-29T15:28:43.655Z</time></trkpt><trkpt lat="45.7386427" lon="11.553896"><ele>172.0</ele><time>2026-04-29T15:28:44.593Z</time></trkpt><trkpt lat="45.7386772" lon="11.554006"><ele>174.0</ele><time>2026-04-29T15:28:45.621Z</time></trkpt><trkpt lat="45.7386998" lon="11.5541038"><ele>176.0</ele><time>2026-04-29T15:28:46.607Z</time></trkpt><trkpt lat="45.7387039" lon="11.5542213"><ele>178.0</ele><time>2026-04-29T15:28:47.741Z</time></trkpt><trkpt lat="45.7386904" lon="11.5543128"><ele>178.0</ele><time>2026-04-29T15:28:48.667Z</time></trkpt><trkpt lat="45.7386145" lon="11.5544272"><ele>178.0</ele><time>2026-04-29T15:28:50.675Z</time></trkpt><trkpt lat="45.7385193" lon="11.5544401"><ele>178.0</ele><time>2026-04-29T15:28:51.637Z</time></trkpt><trkpt lat="45.7384212" lon="11.5544481"><ele>178.0</ele><time>2026-04-29T15:28:52.581Z</time></trkpt><trkpt lat="45.7383245" lon="11.5544651"><ele>178.0</ele><time>2026-04-29T15:28:53.622Z</time></trkpt><trkpt lat="45.7382286" lon="11.5544879"><ele>177.0</ele><time>2026-04-29T15:28:54.624Z</time></trkpt><trkpt lat="45.7381421" lon="11.554518"><ele>176.0</ele><time>2026-04-29T15:28:55.614Z</time></trkpt><trkpt lat="45.7380517" lon="11.5545642"><ele>175.0</ele><time>2026-04-29T15:28:56.847Z</time></trkpt><trkpt lat="45.7379706" lon="11.5546599"><ele>174.0</ele><time>2026-04-29T15:28:58.592Z</time></trkpt><trkpt lat="45.7379283" lon="11.5547367"><ele>173.0</ele><time>2026-04-29T15:28:59.66Z</time></trkpt><trkpt lat="45.7379176" lon="11.5548332"><ele>172.0</ele><time>2026-04-29T15:29:00.607Z</time></trkpt><trkpt lat="45.7379428" lon="11.5549354"><ele>174.16666666666669</ele><time>2026-04-29T15:29:01.622Z</time></trkpt><trkpt lat="45.7379873" lon="11.5550384"><ele>176.33333333333334</ele><time>2026-04-29T15:29:02.583Z</time></trkpt><trkpt lat="45.7380601" lon="11.5551119"><ele>178.5</ele><time>2026-04-29T15:29:03.598Z</time></trkpt><trkpt lat="45.7381445" lon="11.5551271"><ele>180.66666666666666</ele><time>2026-04-29T15:29:04.564Z</time></trkpt><trkpt lat="45.7382365" lon="11.5551345"><ele>182.83333333333331</ele><time>2026-04-29T15:29:05.595Z</time></trkpt><trkpt lat="45.7383305" lon="11.5551273"><ele>185.0</ele><time>2026-04-29T15:29:06.599Z</time></trkpt><trkpt lat="45.7384332" lon="11.5551205"><ele>185.0</ele><time>2026-04-29T15:29:07.635Z</time></trkpt><trkpt lat="45.7385267" lon="11.5551258"><ele>185.0</ele><time>2026-04-29T15:29:08.57Z</time></trkpt><trkpt lat="45.7386181" lon="11.5551267"><ele>185.0</ele><time>2026-04-29T15:29:09.626Z</time></trkpt><trkpt lat="45.7386976" lon="11.5551446"><ele>185.0</ele><time>2026-04-29T15:29:10.655Z</time></trkpt><trkpt lat="45.7387621" lon="11.5551932"><ele>185.0</ele><time>2026-04-29T15:29:11.633Z</time></trkpt><trkpt lat="45.7388084" lon="11.5553773"><ele>189.0</ele><time>2026-04-29T15:29:13.602Z</time></trkpt><trkpt lat="45.7387831" lon="11.5555203"><ele>193.0</ele><time>2026-04-29T15:29:14.592Z</time></trkpt><trkpt lat="45.7387267" lon="11.5556444"><ele>197.0</ele><time>2026-04-29T15:29:15.593Z</time></trkpt><trkpt lat="45.7386571" lon="11.5557825"><ele>201.0</ele><time>2026-04-29T15:29:16.627Z</time></trkpt><trkpt lat="45.7385798" lon="11.5559253"><ele>202.0</ele><time>2026-04-29T15:29:17.631Z</time></trkpt><trkpt lat="45.7385131" lon="11.5560656"><ele>203.0</ele><time>2026-04-29T15:29:18.609Z</time></trkpt><trkpt lat="45.7384346" lon="11.5562298"><ele>204.0</ele><time>2026-04-29T15:29:19.761Z</time></trkpt><trkpt lat="45.7383271" lon="11.5564882"><ele>204.0</ele><time>2026-04-29T15:29:21.719Z</time></trkpt><trkpt lat="45.738299" lon="11.5567343"><ele>204.0</ele><time>2026-04-29T15:29:23.593Z</time></trkpt><trkpt lat="45.7383102" lon="11.5568666"><ele>204.0</ele><time>2026-04-29T15:29:24.613Z</time></trkpt><trkpt lat="45.7383377" lon="11.5569872"><ele>204.0</ele><time>2026-04-29T15:29:25.634Z</time></trkpt><trkpt lat="45.7383768" lon="11.5571008"><ele>204.0</ele><time>2026-04-29T15:29:26.64Z</time></trkpt><trkpt lat="45.7384174" lon="11.5572059"><ele>205.0</ele><time>2026-04-29T15:29:27.656Z</time></trkpt><trkpt lat="45.7384425" lon="11.5573198"><ele>206.0</ele><time>2026-04-29T15:29:28.638Z</time></trkpt><trkpt lat="45.7384451" lon="11.5574439"><ele>207.0</ele><time>2026-04-29T15:29:29.608Z</time></trkpt><trkpt lat="45.7384277" lon="11.5575839"><ele>208.0</ele><time>2026-04-29T15:29:30.653Z</time></trkpt><trkpt lat="45.7383791" lon="11.5577127"><ele>209.0</ele><time>2026-04-29T15:29:31.651Z</time></trkpt><trkpt lat="45.7383014" lon="11.5578237"><ele>211.25</ele><time>2026-04-29T15:29:32.628Z</time></trkpt><trkpt lat="45.7381867" lon="11.5579419"><ele>213.5</ele><time>2026-04-29T15:29:33.831Z</time></trkpt><trkpt lat="45.7380134" lon="11.5580962"><ele>215.75</ele><time>2026-04-29T15:29:35.591Z</time></trkpt><trkpt lat="45.7379281" lon="11.5581796"><ele>218.0</ele><time>2026-04-29T15:29:36.596Z</time></trkpt><trkpt lat="45.7378489" lon="11.5582591"><ele>218.00000000000003</ele><time>2026-04-29T15:29:37.637Z</time></trkpt><trkpt lat="45.7377739" lon="11.5583308"><ele>218.0</ele><time>2026-04-29T15:29:38.642Z</time></trkpt><trkpt lat="45.7377023" lon="11.5583981"><ele>218.0</ele><time>2026-04-29T15:29:39.637Z</time></trkpt><trkpt lat="45.7376316" lon="11.5584685"><ele>218.0</ele><time>2026-04-29T15:29:40.66Z</time></trkpt><trkpt lat="45.7375687" lon="11.558543"><ele>218.00000000000003</ele><time>2026-04-29T15:29:41.634Z</time></trkpt><trkpt lat="45.7375139" lon="11.5586268"><ele>218.0</ele><time>2026-04-29T15:29:42.614Z</time></trkpt><trkpt lat="45.7374773" lon="11.558726"><ele>219.16666666666669</ele><time>2026-04-29T15:29:43.642Z</time></trkpt><trkpt lat="45.7374703" lon="11.5588262"><ele>220.33333333333334</ele><time>2026-04-29T15:29:44.626Z</time></trkpt><trkpt lat="45.7374969" lon="11.5589205"><ele>221.5</ele><time>2026-04-29T15:29:45.612Z</time></trkpt><trkpt lat="45.7375403" lon="11.5590123"><ele>222.66666666666669</ele><time>2026-04-29T15:29:46.644Z</time></trkpt><trkpt lat="45.7375867" lon="11.5591045"><ele>223.83333333333334</ele><time>2026-04-29T15:29:47.635Z</time></trkpt><trkpt lat="45.7376375" lon="11.55921"><ele>225.0</ele><time>2026-04-29T15:29:48.595Z</time></trkpt><trkpt lat="45.737692" lon="11.5593254"><ele>224.75</ele><time>2026-04-29T15:29:49.579Z</time></trkpt><trkpt lat="45.7377538" lon="11.5594602"><ele>224.5</ele><time>2026-04-29T15:29:50.632Z</time></trkpt><trkpt lat="45.7378214" lon="11.5596101"><ele>224.25</ele><time>2026-04-29T15:29:51.689Z</time></trkpt><trkpt lat="45.737889" lon="11.5597536"><ele>224.0</ele><time>2026-04-29T15:29:52.611Z</time></trkpt><trkpt lat="45.7379595" lon="11.5599156"><ele>224.0</ele><time>2026-04-29T15:29:53.714Z</time></trkpt><trkpt lat="45.7380194" lon="11.5600482"><ele>224.0</ele><time>2026-04-29T15:29:54.629Z</time></trkpt><trkpt lat="45.7380831" lon="11.5601793"><ele>224.0</ele><time>2026-04-29T15:29:55.608Z</time></trkpt><trkpt lat="45.7381494" lon="11.5603241"><ele>224.0</ele><time>2026-04-29T15:29:56.659Z</time></trkpt><trkpt lat="45.7382126" lon="11.5604567"><ele>225.75</ele><time>2026-04-29T15:29:57.644Z</time></trkpt><trkpt lat="45.7382753" lon="11.5605963"><ele>227.5</ele><time>2026-04-29T15:29:58.637Z</time></trkpt><trkpt lat="45.7383368" lon="11.5607236"><ele>229.25</ele><time>2026-04-29T15:29:59.606Z</time></trkpt><trkpt lat="45.738406" lon="11.5608572"><ele>231.0</ele><time>2026-04-29T15:30:00.612Z</time></trkpt><trkpt lat="45.7384854" lon="11.5609704"><ele>231.25</ele><time>2026-04-29T15:30:01.595Z</time></trkpt><trkpt lat="45.7385772" lon="11.5610713"><ele>231.5</ele><time>2026-04-29T15:30:02.623Z</time></trkpt><trkpt lat="45.7386798" lon="11.5611697"><ele>231.75</ele><time>2026-04-29T15:30:03.658Z</time></trkpt><trkpt lat="45.7387752" lon="11.5612724"><ele>232.0</ele><time>2026-04-29T15:30:04.64Z</time></trkpt><trkpt lat="45.73887" lon="11.5613717"><ele>233.25</ele><time>2026-04-29T15:30:05.596Z</time></trkpt><trkpt lat="45.7389726" lon="11.5614837"><ele>234.5</ele><time>2026-04-29T15:30:06.618Z</time></trkpt><trkpt lat="45.7390803" lon="11.5616003"><ele>235.75</ele><time>2026-04-29T15:30:07.796Z</time></trkpt><trkpt lat="45.7391851" lon="11.5617196"><ele>237.0</ele><time>2026-04-29T15:30:09.582Z</time></trkpt><trkpt lat="45.7392033" lon="11.5618684"><ele>237.0</ele><time>2026-04-29T15:30:11.661Z</time></trkpt><trkpt lat="45.7391832" lon="11.562014"><ele>237.0</ele><time>2026-04-29T15:30:13.624Z</time></trkpt><trkpt lat="45.7391726" lon="11.5621736"><ele>237.0</ele><time>2026-04-29T15:30:15.689Z</time></trkpt><trkpt lat="45.7391757" lon="11.562327"><ele>237.0</ele><time>2026-04-29T15:30:17.626Z</time></trkpt><trkpt lat="45.739243" lon="11.5624737"><ele>237.0</ele><time>2026-04-29T15:30:19.675Z</time></trkpt><trkpt lat="45.739301" lon="11.5625224"><ele>237.16666666666666</ele><time>2026-04-29T15:30:20.673Z</time></trkpt><trkpt lat="45.7393599" lon="11.5625718"><ele>237.33333333333331</ele><time>2026-04-29T15:30:21.632Z</time></trkpt><trkpt lat="45.7394204" lon="11.5626332"><ele>237.5</ele><time>2026-04-29T15:30:22.608Z</time></trkpt><trkpt lat="45.7394914" lon="11.5626978"><ele>237.66666666666666</ele><time>2026-04-29T15:30:23.658Z</time></trkpt><trkpt lat="45.739565" lon="11.5627632"><ele>237.83333333333331</ele><time>2026-04-29T15:30:24.625Z</time></trkpt><trkpt lat="45.7396454" lon="11.5628376"><ele>238.0</ele><time>2026-04-29T15:30:25.605Z</time></trkpt><trkpt lat="45.7397349" lon="11.5629187"><ele>238.0</ele><time>2026-04-29T15:30:26.596Z</time></trkpt><trkpt lat="45.7398274" lon="11.5630032"><ele>238.0</ele><time>2026-04-29T15:30:27.65Z</time></trkpt><trkpt lat="45.7399115" lon="11.5630887"><ele>238.0</ele><time>2026-04-29T15:30:28.684Z</time></trkpt><trkpt lat="45.739987" lon="11.5631668"><ele>238.0</ele><time>2026-04-29T15:30:29.623Z</time></trkpt><trkpt lat="45.7400703" lon="11.5632485"><ele>238.0</ele><time>2026-04-29T15:30:30.64Z</time></trkpt><trkpt lat="45.7401541" lon="11.5633309"><ele>239.25</ele><time>2026-04-29T15:30:31.642Z</time></trkpt><trkpt lat="45.7402348" lon="11.563414"><ele>240.5</ele><time>2026-04-29T15:30:32.646Z</time></trkpt><trkpt lat="45.7403124" lon="11.5634988"><ele>241.75</ele><time>2026-04-29T15:30:33.675Z</time></trkpt><trkpt lat="45.7403909" lon="11.5635855"><ele>243.0</ele><time>2026-04-29T15:30:34.775Z</time></trkpt><trkpt lat="45.7405272" lon="11.5637376"><ele>240.33333333333334</ele><time>2026-04-29T15:30:36.653Z</time></trkpt><trkpt lat="45.7405988" lon="11.5637936"><ele>237.66666666666669</ele><time>2026-04-29T15:30:37.623Z</time></trkpt><trkpt lat="45.740674" lon="11.5638303"><ele>235.0</ele><time>2026-04-29T15:30:38.592Z</time></trkpt><trkpt lat="45.7407623" lon="11.5638501"><ele>232.33333333333334</ele><time>2026-04-29T15:30:39.652Z</time></trkpt><trkpt lat="45.74085" lon="11.563855"><ele>229.66666666666669</ele><time>2026-04-29T15:30:40.568Z</time></trkpt><trkpt lat="45.7409591" lon="11.5638471"><ele>227.0</ele><time>2026-04-29T15:30:41.603Z</time></trkpt><trkpt lat="45.7410761" lon="11.5638146"><ele>226.2</ele><time>2026-04-29T15:30:42.628Z</time></trkpt><trkpt lat="45.7411828" lon="11.5637834"><ele>225.39999999999998</ele><time>2026-04-29T15:30:43.587Z</time></trkpt><trkpt lat="45.7412994" lon="11.5637545"><ele>224.60000000000002</ele><time>2026-04-29T15:30:44.677Z</time></trkpt><trkpt lat="45.7413927" lon="11.5637298"><ele>223.8</ele><time>2026-04-29T15:30:45.594Z</time></trkpt><trkpt lat="45.7414959" lon="11.5637046"><ele>223.0</ele><time>2026-04-29T15:30:46.689Z</time></trkpt><trkpt lat="45.7415782" lon="11.5636839"><ele>224.99999999999997</ele><time>2026-04-29T15:30:47.627Z</time></trkpt><trkpt lat="45.7416607" lon="11.5636642"><ele>227.0</ele><time>2026-04-29T15:30:48.618Z</time></trkpt><trkpt lat="45.7417444" lon="11.5636432"><ele>229.0</ele><time>2026-04-29T15:30:49.679Z</time></trkpt><trkpt lat="45.7418186" lon="11.5636274"><ele>231.0</ele><time>2026-04-29T15:30:50.656Z</time></trkpt><trkpt lat="45.7418952" lon="11.5636194"><ele>232.99999999999997</ele><time>2026-04-29T15:30:51.651Z</time></trkpt><trkpt lat="45.7419766" lon="11.5636188"><ele>235.0</ele><time>2026-04-29T15:30:52.634Z</time></trkpt><trkpt lat="45.7420565" lon="11.5636395"><ele>232.6</ele><time>2026-04-29T15:30:53.589Z</time></trkpt><trkpt lat="45.7421424" lon="11.5637029"><ele>230.2</ele><time>2026-04-29T15:30:54.68Z</time></trkpt><trkpt lat="45.7422066" lon="11.563797"><ele>227.8</ele><time>2026-04-29T15:30:55.627Z</time></trkpt><trkpt lat="45.7422597" lon="11.5639228"><ele>225.4</ele><time>2026-04-29T15:30:56.597Z</time></trkpt><trkpt lat="45.7423071" lon="11.564102"><ele>223.0</ele><time>2026-04-29T15:30:57.751Z</time></trkpt><trkpt lat="45.7423317" lon="11.5642565"><ele>223.0</ele><time>2026-04-29T15:30:58.67Z</time></trkpt><trkpt lat="45.7423623" lon="11.5644393"><ele>223.0</ele><time>2026-04-29T15:30:59.684Z</time></trkpt><trkpt lat="45.7423884" lon="11.5646082"><ele>223.0</ele><time>2026-04-29T15:31:00.614Z</time></trkpt><trkpt lat="45.7424184" lon="11.5647826"><ele>223.0</ele><time>2026-04-29T15:31:01.587Z</time></trkpt><trkpt lat="45.7424501" lon="11.564967"><ele>223.2</ele><time>2026-04-29T15:31:02.653Z</time></trkpt><trkpt lat="45.7424776" lon="11.5651277"><ele>223.4</ele><time>2026-04-29T15:31:03.611Z</time></trkpt><trkpt lat="45.7425052" lon="11.5652961"><ele>223.59999999999997</ele><time>2026-04-29T15:31:04.657Z</time></trkpt><trkpt lat="45.7425297" lon="11.5654446"><ele>223.79999999999998</ele><time>2026-04-29T15:31:05.617Z</time></trkpt><trkpt lat="45.7425542" lon="11.5655892"><ele>224.0</ele><time>2026-04-29T15:31:06.605Z</time></trkpt><trkpt lat="45.7425794" lon="11.5657289"><ele>225.0</ele><time>2026-04-29T15:31:07.618Z</time></trkpt><trkpt lat="45.7426007" lon="11.5658674"><ele>225.99999999999997</ele><time>2026-04-29T15:31:08.615Z</time></trkpt><trkpt lat="45.7426219" lon="11.5660092"><ele>226.99999999999997</ele><time>2026-04-29T15:31:09.613Z</time></trkpt><trkpt lat="45.7426484" lon="11.5661755"><ele>228.0</ele><time>2026-04-29T15:31:10.765Z</time></trkpt><trkpt lat="45.7426688" lon="11.5663006"><ele>229.0</ele><time>2026-04-29T15:31:11.627Z</time></trkpt><trkpt lat="45.7426939" lon="11.5664525"><ele>232.25</ele><time>2026-04-29T15:31:12.628Z</time></trkpt><trkpt lat="45.7427184" lon="11.5665983"><ele>235.5</ele><time>2026-04-29T15:31:13.613Z</time></trkpt><trkpt lat="45.7427438" lon="11.5667666"><ele>238.75</ele><time>2026-04-29T15:31:14.738Z</time></trkpt><trkpt lat="45.7427735" lon="11.5670166"><ele>242.0</ele><time>2026-04-29T15:31:16.757Z</time></trkpt><trkpt lat="45.7427854" lon="11.5672276"><ele>242.0</ele><time>2026-04-29T15:31:18.732Z</time></trkpt><trkpt lat="45.7427378" lon="11.5674424"><ele>242.0</ele><time>2026-04-29T15:31:20.627Z</time></trkpt><trkpt lat="45.7427051" lon="11.5675554"><ele>242.0</ele><time>2026-04-29T15:31:21.636Z</time></trkpt><trkpt lat="45.7426764" lon="11.5676621"><ele>242.0</ele><time>2026-04-29T15:31:22.622Z</time></trkpt><trkpt lat="45.7426491" lon="11.5677684"><ele>242.0</ele><time>2026-04-29T15:31:23.645Z</time></trkpt><trkpt lat="45.7426206" lon="11.5678652"><ele>240.00000000000003</ele><time>2026-04-29T15:31:24.628Z</time></trkpt><trkpt lat="45.7425784" lon="11.5679547"><ele>238.0</ele><time>2026-04-29T15:31:25.652Z</time></trkpt><trkpt lat="45.7425226" lon="11.5680281"><ele>236.0</ele><time>2026-04-29T15:31:26.671Z</time></trkpt><trkpt lat="45.7424547" lon="11.5680718"><ele>234.0</ele><time>2026-04-29T15:31:27.657Z</time></trkpt><trkpt lat="45.7423759" lon="11.5680824"><ele>232.00000000000003</ele><time>2026-04-29T15:31:28.613Z</time></trkpt><trkpt lat="45.7422797" lon="11.568058"><ele>230.0</ele><time>2026-04-29T15:31:29.608Z</time></trkpt><trkpt lat="45.7421608" lon="11.5680139"><ele>230.0</ele><time>2026-04-29T15:31:30.796Z</time></trkpt><trkpt lat="45.7419713" lon="11.567955"><ele>230.0</ele><time>2026-04-29T15:31:32.642Z</time></trkpt><trkpt lat="45.7418556" lon="11.5679234"><ele>230.0</ele><time>2026-04-29T15:31:33.765Z</time></trkpt><trkpt lat="45.7417526" lon="11.5678962"><ele>230.0</ele><time>2026-04-29T15:31:34.666Z</time></trkpt><trkpt lat="45.7416473" lon="11.5678723"><ele>229.75</ele><time>2026-04-29T15:31:35.618Z</time></trkpt><trkpt lat="45.7415335" lon="11.5678469"><ele>229.5</ele><time>2026-04-29T15:31:36.668Z</time></trkpt><trkpt lat="45.741419" lon="11.5678324"><ele>229.25</ele><time>2026-04-29T15:31:37.731Z</time></trkpt><trkpt lat="45.7412152" lon="11.567835"><ele>229.0</ele><time>2026-04-29T15:31:39.649Z</time></trkpt><trkpt lat="45.7410912" lon="11.5678535"><ele>226.5</ele><time>2026-04-29T15:31:40.831Z</time></trkpt><trkpt lat="45.7408953" lon="11.5678704"><ele>224.0</ele><time>2026-04-29T15:31:42.633Z</time></trkpt><trkpt lat="45.7407881" lon="11.5678853"><ele>221.5</ele><time>2026-04-29T15:31:43.654Z</time></trkpt><trkpt lat="45.7406871" lon="11.5678972"><ele>219.0</ele><time>2026-04-29T15:31:44.581Z</time></trkpt><trkpt lat="45.7405751" lon="11.567911"><ele>219.0</ele><time>2026-04-29T15:31:45.594Z</time></trkpt><trkpt lat="45.7404667" lon="11.5679286"><ele>219.0</ele><time>2026-04-29T15:31:46.594Z</time></trkpt><trkpt lat="45.7403344" lon="11.5679522"><ele>219.0</ele><time>2026-04-29T15:31:47.779Z</time></trkpt><trkpt lat="45.7401365" lon="11.567993"><ele>219.0</ele><time>2026-04-29T15:31:49.638Z</time></trkpt><trkpt lat="45.7400375" lon="11.5680166"><ele>218.6</ele><time>2026-04-29T15:31:50.642Z</time></trkpt><trkpt lat="45.7399511" lon="11.5680667"><ele>218.2</ele><time>2026-04-29T15:31:51.639Z</time></trkpt><trkpt lat="45.7398776" lon="11.5681395"><ele>217.79999999999998</ele><time>2026-04-29T15:31:52.595Z</time></trkpt><trkpt lat="45.7398112" lon="11.5682525"><ele>217.39999999999998</ele><time>2026-04-29T15:31:53.653Z</time></trkpt><trkpt lat="45.739772" lon="11.5683712"><ele>217.0</ele><time>2026-04-29T15:31:54.585Z</time></trkpt><trkpt lat="45.7397458" lon="11.5685133"><ele>217.0</ele><time>2026-04-29T15:31:55.599Z</time></trkpt><trkpt lat="45.7397232" lon="11.5686922"><ele>217.0</ele><time>2026-04-29T15:31:56.764Z</time></trkpt><trkpt lat="45.7397228" lon="11.5688409"><ele>217.0</ele><time>2026-04-29T15:31:57.764Z</time></trkpt><trkpt lat="45.7396969" lon="11.5690833"><ele>217.0</ele><time>2026-04-29T15:31:59.66Z</time></trkpt><trkpt lat="45.7396616" lon="11.5692099"><ele>217.66666666666666</ele><time>2026-04-29T15:32:00.708Z</time></trkpt><trkpt lat="45.7396013" lon="11.5692953"><ele>218.33333333333331</ele><time>2026-04-29T15:32:01.695Z</time></trkpt><trkpt lat="45.7395364" lon="11.5693485"><ele>219.0</ele><time>2026-04-29T15:32:02.677Z</time></trkpt><trkpt lat="45.7394455" lon="11.5693655"><ele>219.66666666666669</ele><time>2026-04-29T15:32:03.668Z</time></trkpt><trkpt lat="45.739368" lon="11.569375"><ele>220.33333333333334</ele><time>2026-04-29T15:32:04.692Z</time></trkpt><trkpt lat="45.7392961" lon="11.569389"><ele>221.0</ele><time>2026-04-29T15:32:05.686Z</time></trkpt><trkpt lat="45.7392376" lon="11.569429"><ele>223.16666666666669</ele><time>2026-04-29T15:32:06.668Z</time></trkpt><trkpt lat="45.7391866" lon="11.5694903"><ele>225.33333333333334</ele><time>2026-04-29T15:32:07.7Z</time></trkpt><trkpt lat="45.7391432" lon="11.5696658"><ele>227.5</ele><time>2026-04-29T15:32:09.626Z</time></trkpt><trkpt lat="45.7391392" lon="11.5697685"><ele>229.66666666666669</ele><time>2026-04-29T15:32:10.617Z</time></trkpt><trkpt lat="45.7391314" lon="11.5698592"><ele>231.83333333333334</ele><time>2026-04-29T15:32:11.623Z</time></trkpt><trkpt lat="45.7391138" lon="11.5699506"><ele>234.0</ele><time>2026-04-29T15:32:12.612Z</time></trkpt><trkpt lat="45.7390745" lon="11.5700289"><ele>235.5</ele><time>2026-04-29T15:32:13.573Z</time></trkpt><trkpt lat="45.7390077" lon="11.5700869"><ele>237.0</ele><time>2026-04-29T15:32:14.578Z</time></trkpt><trkpt lat="45.7389308" lon="11.5700874"><ele>238.5</ele><time>2026-04-29T15:32:15.595Z</time></trkpt><trkpt lat="45.7388528" lon="11.5700682"><ele>240.0</ele><time>2026-04-29T15:32:16.643Z</time></trkpt><trkpt lat="45.738736" lon="11.5700298"><ele>241.5</ele><time>2026-04-29T15:32:18.633Z</time></trkpt><trkpt lat="45.7386637" lon="11.5700334"><ele>243.0</ele><time>2026-04-29T15:32:19.757Z</time></trkpt><trkpt lat="45.7385734" lon="11.5701409"><ele>243.0</ele><time>2026-04-29T15:32:21.666Z</time></trkpt><trkpt lat="45.7385827" lon="11.5703075"><ele>243.0</ele><time>2026-04-29T15:32:23.685Z</time></trkpt><trkpt lat="45.7386221" lon="11.5703868"><ele>243.0</ele><time>2026-04-29T15:32:24.618Z</time></trkpt><trkpt lat="45.7386744" lon="11.5704744"><ele>243.0</ele><time>2026-04-29T15:32:25.656Z</time></trkpt><trkpt lat="45.7387261" lon="11.5705543"><ele>243.0</ele><time>2026-04-29T15:32:26.608Z</time></trkpt><trkpt lat="45.7387809" lon="11.570653"><ele>243.0</ele><time>2026-04-29T15:32:27.651Z</time></trkpt><trkpt lat="45.7388356" lon="11.5707485"><ele>244.16666666666666</ele><time>2026-04-29T15:32:28.657Z</time></trkpt><trkpt lat="45.7388875" lon="11.5708357"><ele>245.33333333333331</ele><time>2026-04-29T15:32:29.594Z</time></trkpt><trkpt lat="45.738939" lon="11.5709319"><ele>246.5</ele><time>2026-04-29T15:32:30.594Z</time></trkpt><trkpt lat="45.7389838" lon="11.5710457"><ele>247.66666666666666</ele><time>2026-04-29T15:32:31.715Z</time></trkpt><trkpt lat="45.7390149" lon="11.571147"><ele>248.83333333333331</ele><time>2026-04-29T15:32:32.617Z</time></trkpt><trkpt lat="45.7390452" lon="11.5712636"><ele>250.0</ele><time>2026-04-29T15:32:33.618Z</time></trkpt><trkpt lat="45.7390729" lon="11.571382"><ele>251.66666666666666</ele><time>2026-04-29T15:32:34.607Z</time></trkpt><trkpt lat="45.7390969" lon="11.5715097"><ele>253.33333333333331</ele><time>2026-04-29T15:32:35.616Z</time></trkpt><trkpt lat="45.7391083" lon="11.5716312"><ele>255.0</ele><time>2026-04-29T15:32:36.61Z</time></trkpt><trkpt lat="45.7391063" lon="11.571753"><ele>256.6666666666667</ele><time>2026-04-29T15:32:37.608Z</time></trkpt><trkpt lat="45.7390916" lon="11.5718767"><ele>258.33333333333337</ele><time>2026-04-29T15:32:38.596Z</time></trkpt><trkpt lat="45.739067" lon="11.5720009"><ele>260.0</ele><time>2026-04-29T15:32:39.595Z</time></trkpt><trkpt lat="45.7390318" lon="11.5721356"><ele>262.25</ele><time>2026-04-29T15:32:40.669Z</time></trkpt><trkpt lat="45.7389868" lon="11.5722502"><ele>264.5</ele><time>2026-04-29T15:32:41.733Z</time></trkpt><trkpt lat="45.7388709" lon="11.5724342"><ele>266.75</ele><time>2026-04-29T15:32:43.606Z</time></trkpt><trkpt lat="45.7387972" lon="11.5725269"><ele>269.0</ele><time>2026-04-29T15:32:44.624Z</time></trkpt><trkpt lat="45.7387263" lon="11.572611"><ele>269.0</ele><time>2026-04-29T15:32:45.583Z</time></trkpt><trkpt lat="45.7386473" lon="11.57271"><ele>269.0</ele><time>2026-04-29T15:32:46.643Z</time></trkpt><trkpt lat="45.7385778" lon="11.5728124"><ele>269.0</ele><time>2026-04-29T15:32:47.676Z</time></trkpt><trkpt lat="45.7385221" lon="11.5729077"><ele>269.0</ele><time>2026-04-29T15:32:48.605Z</time></trkpt><trkpt lat="45.7384622" lon="11.5730266"><ele>269.0</ele><time>2026-04-29T15:32:49.708Z</time></trkpt><trkpt lat="45.7384193" lon="11.5731318"><ele>270.0</ele><time>2026-04-29T15:32:50.629Z</time></trkpt><trkpt lat="45.7383751" lon="11.5732471"><ele>271.0</ele><time>2026-04-29T15:32:51.622Z</time></trkpt><trkpt lat="45.7383276" lon="11.5733645"><ele>272.0</ele><time>2026-04-29T15:32:52.643Z</time></trkpt><trkpt lat="45.7382699" lon="11.5734622"><ele>273.0</ele><time>2026-04-29T15:32:53.617Z</time></trkpt><trkpt lat="45.7381945" lon="11.5735357"><ele>274.0</ele><time>2026-04-29T15:32:54.633Z</time></trkpt><trkpt lat="45.738099" lon="11.57357"><ele>274.0</ele><time>2026-04-29T15:32:55.75Z</time></trkpt><trkpt lat="45.7379345" lon="11.5735686"><ele>274.0</ele><time>2026-04-29T15:32:57.629Z</time></trkpt><trkpt lat="45.7378447" lon="11.5735612"><ele>274.0</ele><time>2026-04-29T15:32:58.638Z</time></trkpt><trkpt lat="45.7377556" lon="11.5735689"><ele>274.0</ele><time>2026-04-29T15:32:59.678Z</time></trkpt><trkpt lat="45.7376699" lon="11.573609"><ele>274.0</ele><time>2026-04-29T15:33:00.745Z</time></trkpt><trkpt lat="45.7375356" lon="11.5737625"><ele>274.0</ele><time>2026-04-29T15:33:02.647Z</time></trkpt><trkpt lat="45.737486" lon="11.5738638"><ele>274.0</ele><time>2026-04-29T15:33:03.609Z</time></trkpt><trkpt lat="45.7374521" lon="11.5739841"><ele>274.0</ele><time>2026-04-29T15:33:04.623Z</time></trkpt><trkpt lat="45.7374157" lon="11.5741007"><ele>274.0</ele><time>2026-04-29T15:33:05.675Z</time></trkpt><trkpt lat="45.7373818" lon="11.5742086"><ele>274.0</ele><time>2026-04-29T15:33:06.672Z</time></trkpt><trkpt lat="45.7373403" lon="11.5743052"><ele>274.0</ele><time>2026-04-29T15:33:07.638Z</time></trkpt><trkpt lat="45.7372795" lon="11.5743999"><ele>274.0</ele><time>2026-04-29T15:33:08.632Z</time></trkpt><trkpt lat="45.7372002" lon="11.5744836"><ele>274.0</ele><time>2026-04-29T15:33:09.696Z</time></trkpt><trkpt lat="45.7371245" lon="11.5745466"><ele>274.0</ele><time>2026-04-29T15:33:10.658Z</time></trkpt><trkpt lat="45.7370424" lon="11.5746173"><ele>274.0</ele><time>2026-04-29T15:33:11.672Z</time></trkpt><trkpt lat="45.736966" lon="11.5746815"><ele>274.0</ele><time>2026-04-29T15:33:12.613Z</time></trkpt><trkpt lat="45.7368874" lon="11.5747541"><ele>275.16666666666663</ele><time>2026-04-29T15:33:13.612Z</time></trkpt><trkpt lat="45.7368002" lon="11.5748265"><ele>276.3333333333333</ele><time>2026-04-29T15:33:14.729Z</time></trkpt><trkpt lat="45.7367252" lon="11.5748727"><ele>277.5</ele><time>2026-04-29T15:33:15.631Z</time></trkpt><trkpt lat="45.7366423" lon="11.5749144"><ele>278.6666666666667</ele><time>2026-04-29T15:33:16.633Z</time></trkpt><trkpt lat="45.736558" lon="11.5749561"><ele>279.83333333333337</ele><time>2026-04-29T15:33:17.649Z</time></trkpt><trkpt lat="45.736486" lon="11.5749919"><ele>281.0</ele><time>2026-04-29T15:33:18.681Z</time></trkpt><trkpt lat="45.7363762" lon="11.5750587"><ele>281.0</ele><time>2026-04-29T15:33:20.621Z</time></trkpt><trkpt lat="45.7363187" lon="11.5751165"><ele>281.0</ele><time>2026-04-29T15:33:21.606Z</time></trkpt><trkpt lat="45.7362895" lon="11.5752367"><ele>281.0</ele><time>2026-04-29T15:33:22.802Z</time></trkpt><trkpt lat="45.7362873" lon="11.5754489"><ele>281.0</ele><time>2026-04-29T15:33:24.745Z</time></trkpt><trkpt lat="45.7362907" lon="11.5755703"><ele>281.0</ele><time>2026-04-29T15:33:25.701Z</time></trkpt><trkpt lat="45.7362896" lon="11.575716"><ele>281.6666666666667</ele><time>2026-04-29T15:33:26.855Z</time></trkpt><trkpt lat="45.7362874" lon="11.575835"><ele>282.33333333333337</ele><time>2026-04-29T15:33:27.849Z</time></trkpt><trkpt lat="45.7362857" lon="11.5759451"><ele>283.0</ele><time>2026-04-29T15:33:28.756Z</time></trkpt><trkpt lat="45.7362898" lon="11.5760586"><ele>283.6666666666667</ele><time>2026-04-29T15:33:29.688Z</time></trkpt><trkpt lat="45.7362871" lon="11.5761872"><ele>284.3333333333333</ele><time>2026-04-29T15:33:30.722Z</time></trkpt><trkpt lat="45.7362837" lon="11.5763053"><ele>285.0</ele><time>2026-04-29T15:33:31.716Z</time></trkpt><trkpt lat="45.7362816" lon="11.5764309"><ele>286.1428571428571</ele><time>2026-04-29T15:33:32.777Z</time></trkpt><trkpt lat="45.7362794" lon="11.5765446"><ele>287.2857142857143</ele><time>2026-04-29T15:33:33.763Z</time></trkpt><trkpt lat="45.7362783" lon="11.5766532"><ele>288.42857142857144</ele><time>2026-04-29T15:33:34.736Z</time></trkpt><trkpt lat="45.7362899" lon="11.5767532"><ele>289.57142857142856</ele><time>2026-04-29T15:33:35.727Z</time></trkpt><trkpt lat="45.7363239" lon="11.5768312"><ele>290.7142857142857</ele><time>2026-04-29T15:33:36.751Z</time></trkpt><trkpt lat="45.7363858" lon="11.5768562"><ele>291.85714285714283</ele><time>2026-04-29T15:33:37.74Z</time></trkpt><trkpt lat="45.7364501" lon="11.576845"><ele>293.0</ele><time>2026-04-29T15:33:38.754Z</time></trkpt><trkpt lat="45.7365157" lon="11.5768354"><ele>293.0</ele><time>2026-04-29T15:33:39.717Z</time></trkpt><trkpt lat="45.7365793" lon="11.5768253"><ele>293.0</ele><time>2026-04-29T15:33:40.747Z</time></trkpt><trkpt lat="45.7366426" lon="11.5768256"><ele>293.0</ele><time>2026-04-29T15:33:41.693Z</time></trkpt><trkpt lat="45.7367476" lon="11.5768708"><ele>293.0</ele><time>2026-04-29T15:33:43.735Z</time></trkpt><trkpt lat="45.7367845" lon="11.5769735"><ele>293.0</ele><time>2026-04-29T15:33:45.666Z</time></trkpt><trkpt lat="45.7367972" lon="11.5771111"><ele>293.0</ele><time>2026-04-29T15:33:47.752Z</time></trkpt><trkpt lat="45.7367985" lon="11.577237"><ele>294.2</ele><time>2026-04-29T15:33:50.7Z</time></trkpt><trkpt lat="45.736798" lon="11.577345"><ele>295.4</ele><time>2026-04-29T15:33:54.76Z</time></trkpt><trkpt lat="45.7368039" lon="11.5774677"><ele>296.59999999999997</ele><time>2026-04-29T15:33:57.75Z</time></trkpt><trkpt lat="45.7367984" lon="11.5775625"><ele>297.8</ele><time>2026-04-29T15:33:59.726Z</time></trkpt><trkpt lat="45.7367933" lon="11.5776712"><ele>299.0</ele><time>2026-04-29T15:34:50.826Z</time></trkpt><trkpt lat="45.7367701" lon="11.5779376"><ele>299.0</ele><time>2026-04-29T15:34:53.732Z</time></trkpt><trkpt lat="45.73675" lon="11.5780559"><ele>299.0</ele><time>2026-04-29T15:34:54.827Z</time></trkpt><trkpt lat="45.7367241" lon="11.5781737"><ele>299.0</ele><time>2026-04-29T15:34:55.782Z</time></trkpt><trkpt lat="45.7366855" lon="11.5783048"><ele>299.0</ele><time>2026-04-29T15:34:56.794Z</time></trkpt><trkpt lat="45.7366486" lon="11.5784324"><ele>299.0</ele><time>2026-04-29T15:34:57.81Z</time></trkpt><trkpt lat="45.7365955" lon="11.5786394"><ele>298.85714285714283</ele><time>2026-04-29T15:34:59.645Z</time></trkpt><trkpt lat="45.7365691" lon="11.5787429"><ele>298.7142857142857</ele><time>2026-04-29T15:35:00.629Z</time></trkpt><trkpt lat="45.7365425" lon="11.5788436"><ele>298.57142857142856</ele><time>2026-04-29T15:35:01.622Z</time></trkpt><trkpt lat="45.7365163" lon="11.5789411"><ele>298.42857142857144</ele><time>2026-04-29T15:35:02.627Z</time></trkpt><trkpt lat="45.7364914" lon="11.5790309"><ele>298.2857142857143</ele><time>2026-04-29T15:35:03.608Z</time></trkpt><trkpt lat="45.7364655" lon="11.5791266"><ele>298.1428571428571</ele><time>2026-04-29T15:35:04.651Z</time></trkpt><trkpt lat="45.7364412" lon="11.5792243"><ele>298.0</ele><time>2026-04-29T15:35:05.636Z</time></trkpt><trkpt lat="45.7364111" lon="11.5793342"><ele>298.0</ele><time>2026-04-29T15:35:06.644Z</time></trkpt><trkpt lat="45.7363704" lon="11.5794444"><ele>298.0</ele><time>2026-04-29T15:35:07.629Z</time></trkpt><trkpt lat="45.7363154" lon="11.5795559"><ele>298.0</ele><time>2026-04-29T15:35:08.642Z</time></trkpt><trkpt lat="45.7362461" lon="11.5796547"><ele>298.0</ele><time>2026-04-29T15:35:09.645Z</time></trkpt><trkpt lat="45.7361638" lon="11.5797403"><ele>298.0</ele><time>2026-04-29T15:35:10.647Z</time></trkpt><trkpt lat="45.7360663" lon="11.5798163"><ele>298.0</ele><time>2026-04-29T15:35:11.745Z</time></trkpt><trkpt lat="45.7359192" lon="11.5799655"><ele>298.0</ele><time>2026-04-29T15:35:13.578Z</time></trkpt><trkpt lat="45.7358453" lon="11.580071"><ele>298.0</ele><time>2026-04-29T15:35:14.641Z</time></trkpt><trkpt lat="45.7357774" lon="11.5801716"><ele>298.0</ele><time>2026-04-29T15:35:15.617Z</time></trkpt><trkpt lat="45.7357036" lon="11.5802748"><ele>299.2</ele><time>2026-04-29T15:35:16.628Z</time></trkpt><trkpt lat="45.7356343" lon="11.580375"><ele>300.4</ele><time>2026-04-29T15:35:17.592Z</time></trkpt><trkpt lat="45.7355617" lon="11.5804789"><ele>301.59999999999997</ele><time>2026-04-29T15:35:18.599Z</time></trkpt><trkpt lat="45.7354904" lon="11.5805823"><ele>302.8</ele><time>2026-04-29T15:35:19.627Z</time></trkpt><trkpt lat="45.7354117" lon="11.5807056"><ele>304.0</ele><time>2026-04-29T15:35:20.851Z</time></trkpt><trkpt lat="45.7353132" lon="11.5808763"><ele>304.0</ele><time>2026-04-29T15:35:22.589Z</time></trkpt><trkpt lat="45.7352577" lon="11.5809722"><ele>304.0</ele><time>2026-04-29T15:35:23.605Z</time></trkpt><trkpt lat="45.7352" lon="11.5810687"><ele>304.0</ele><time>2026-04-29T15:35:24.651Z</time></trkpt><trkpt lat="45.7351459" lon="11.5811591"><ele>304.0</ele><time>2026-04-29T15:35:25.605Z</time></trkpt><trkpt lat="45.7350871" lon="11.5812577"><ele>304.0</ele><time>2026-04-29T15:35:26.617Z</time></trkpt><trkpt lat="45.7350321" lon="11.5813505"><ele>304.0</ele><time>2026-04-29T15:35:27.627Z</time></trkpt><trkpt lat="45.7349811" lon="11.5814394"><ele>302.66666666666663</ele><time>2026-04-29T15:35:28.657Z</time></trkpt><trkpt lat="45.7349357" lon="11.5815214"><ele>301.3333333333333</ele><time>2026-04-29T15:35:29.607Z</time></trkpt><trkpt lat="45.7348849" lon="11.5816141"><ele>300.0</ele><time>2026-04-29T15:35:30.689Z</time></trkpt><trkpt lat="45.7348458" lon="11.581697"><ele>298.6666666666667</ele><time>2026-04-29T15:35:31.63Z</time></trkpt><trkpt lat="45.7348126" lon="11.581796"><ele>297.33333333333337</ele><time>2026-04-29T15:35:32.666Z</time></trkpt><trkpt lat="45.7347935" lon="11.5818951"><ele>296.0</ele><time>2026-04-29T15:35:33.603Z</time></trkpt><trkpt lat="45.7347824" lon="11.5820204"><ele>295.33333333333337</ele><time>2026-04-29T15:35:34.642Z</time></trkpt><trkpt lat="45.7347815" lon="11.5821574"><ele>294.6666666666667</ele><time>2026-04-29T15:35:35.695Z</time></trkpt><trkpt lat="45.7347847" lon="11.5822894"><ele>294.0</ele><time>2026-04-29T15:35:36.67Z</time></trkpt><trkpt lat="45.7347909" lon="11.5824162"><ele>293.3333333333333</ele><time>2026-04-29T15:35:37.65Z</time></trkpt><trkpt lat="45.7347985" lon="11.5825172"><ele>292.66666666666663</ele><time>2026-04-29T15:35:38.594Z</time></trkpt><trkpt lat="45.7348027" lon="11.582609"><ele>292.0</ele><time>2026-04-29T15:35:39.641Z</time></trkpt><trkpt lat="45.7348008" lon="11.5827357"><ele>292.0</ele><time>2026-04-29T15:35:41.581Z</time></trkpt><trkpt lat="45.7347989" lon="11.5828274"><ele>292.0</ele><time>2026-04-29T15:35:43.656Z</time></trkpt><trkpt lat="45.7347903" lon="11.5829277"><ele>292.0</ele><time>2026-04-29T15:37:02.702Z</time></trkpt><trkpt lat="45.7347395" lon="11.5830272"><ele>292.0</ele><time>2026-04-29T15:38:03.644Z</time></trkpt><trkpt lat="45.7346833" lon="11.5830685"><ele>292.0</ele><time>2026-04-29T15:38:04.648Z</time></trkpt><trkpt lat="45.7346131" lon="11.5831128"><ele>292.0</ele><time>2026-04-29T15:38:05.633Z</time></trkpt><trkpt lat="45.7345342" lon="11.5831559"><ele>292.0</ele><time>2026-04-29T15:38:06.682Z</time></trkpt><trkpt lat="45.7344481" lon="11.5831997"><ele>290.5</ele><time>2026-04-29T15:38:07.677Z</time></trkpt><trkpt lat="45.7343498" lon="11.5832366"><ele>289.0</ele><time>2026-04-29T15:38:08.66Z</time></trkpt><trkpt lat="45.734214" lon="11.5832658"><ele>287.5</ele><time>2026-04-29T15:38:09.675Z</time></trkpt><trkpt lat="45.7340808" lon="11.583272"><ele>286.0</ele><time>2026-04-29T15:38:10.646Z</time></trkpt><trkpt lat="45.733967" lon="11.5832533"><ele>286.0</ele><time>2026-04-29T15:38:11.596Z</time></trkpt><trkpt lat="45.7338591" lon="11.583223"><ele>286.0</ele><time>2026-04-29T15:38:12.65Z</time></trkpt><trkpt lat="45.7337519" lon="11.5831842"><ele>286.0</ele><time>2026-04-29T15:38:13.673Z</time></trkpt><trkpt lat="45.7336475" lon="11.5831472"><ele>286.0</ele><time>2026-04-29T15:38:14.633Z</time></trkpt><trkpt lat="45.7335395" lon="11.5831052"><ele>286.0</ele><time>2026-04-29T15:38:15.593Z</time></trkpt><trkpt lat="45.7334014" lon="11.5830515"><ele>286.0</ele><time>2026-04-29T15:38:16.754Z</time></trkpt><trkpt lat="45.7331979" lon="11.5829739"><ele>286.0</ele><time>2026-04-29T15:38:18.651Z</time></trkpt><trkpt lat="45.7330912" lon="11.5829428"><ele>286.0</ele><time>2026-04-29T15:38:19.623Z</time></trkpt><trkpt lat="45.7329751" lon="11.5828987"><ele>286.0</ele><time>2026-04-29T15:38:20.709Z</time></trkpt><trkpt lat="45.7328856" lon="11.5828648"><ele>286.0</ele><time>2026-04-29T15:38:21.637Z</time></trkpt><trkpt lat="45.732787" lon="11.5828239"><ele>286.0</ele><time>2026-04-29T15:38:22.603Z</time></trkpt><trkpt lat="45.732688" lon="11.5827892"><ele>286.0</ele><time>2026-04-29T15:38:23.607Z</time></trkpt><trkpt lat="45.7325917" lon="11.5827494"><ele>286.0</ele><time>2026-04-29T15:38:24.612Z</time></trkpt><trkpt lat="45.7324964" lon="11.5827138"><ele>286.0</ele><time>2026-04-29T15:38:25.71Z</time></trkpt><trkpt lat="45.7324238" lon="11.5826849"><ele>286.0</ele><time>2026-04-29T15:38:26.645Z</time></trkpt><trkpt lat="45.7323512" lon="11.5826519"><ele>286.0</ele><time>2026-04-29T15:38:27.631Z</time></trkpt><trkpt lat="45.7322536" lon="11.5826162"><ele>286.0</ele><time>2026-04-29T15:38:29.599Z</time></trkpt><trkpt lat="45.7321928" lon="11.5826598"><ele>286.0</ele><time>2026-04-29T15:38:34.656Z</time></trkpt><trkpt lat="45.7322184" lon="11.5827837"><ele>286.0</ele><time>2026-04-29T15:38:36.646Z</time></trkpt><trkpt lat="45.7322675" lon="11.5828463"><ele>286.0</ele><time>2026-04-29T15:38:37.611Z</time></trkpt><trkpt lat="45.7323265" lon="11.5829256"><ele>285.25</ele><time>2026-04-29T15:38:38.675Z</time></trkpt><trkpt lat="45.7323894" lon="11.5830072"><ele>284.5</ele><time>2026-04-29T15:38:39.604Z</time></trkpt><trkpt lat="45.7324645" lon="11.5831289"><ele>283.75</ele><time>2026-04-29T15:38:40.716Z</time></trkpt><trkpt lat="45.7325746" lon="11.5833383"><ele>283.0</ele><time>2026-04-29T15:38:42.593Z</time></trkpt><trkpt lat="45.7326314" lon="11.5834405"><ele>283.0</ele><time>2026-04-29T15:38:43.623Z</time></trkpt><trkpt lat="45.7326876" lon="11.5835438"><ele>283.0</ele><time>2026-04-29T15:38:44.612Z</time></trkpt><trkpt lat="45.7327508" lon="11.5836477"><ele>283.0</ele><time>2026-04-29T15:38:45.619Z</time></trkpt><trkpt lat="45.7328058" lon="11.5837425"><ele>283.0</ele><time>2026-04-29T15:38:46.601Z</time></trkpt><trkpt lat="45.7328629" lon="11.5838459"><ele>283.0</ele><time>2026-04-29T15:38:47.636Z</time></trkpt><trkpt lat="45.7329187" lon="11.5839436"><ele>281.3333333333333</ele><time>2026-04-29T15:38:48.616Z</time></trkpt><trkpt lat="45.7329759" lon="11.5840393"><ele>279.66666666666663</ele><time>2026-04-29T15:38:49.627Z</time></trkpt><trkpt lat="45.733037" lon="11.5841264"><ele>278.0</ele><time>2026-04-29T15:38:50.619Z</time></trkpt><trkpt lat="45.73311" lon="11.5842065"><ele>276.3333333333333</ele><time>2026-04-29T15:38:51.621Z</time></trkpt><trkpt lat="45.7331825" lon="11.5842648"><ele>274.6666666666667</ele><time>2026-04-29T15:38:52.586Z</time></trkpt><trkpt lat="45.733267" lon="11.5842914"><ele>273.0</ele><time>2026-04-29T15:38:53.591Z</time></trkpt><trkpt lat="45.7333589" lon="11.5842946"><ele>273.0</ele><time>2026-04-29T15:38:54.63Z</time></trkpt><trkpt lat="45.7334458" lon="11.5842982"><ele>273.0</ele><time>2026-04-29T15:38:55.645Z</time></trkpt><trkpt lat="45.7335265" lon="11.5843125"><ele>273.0</ele><time>2026-04-29T15:38:56.605Z</time></trkpt><trkpt lat="45.7336066" lon="11.584348"><ele>273.0</ele><time>2026-04-29T15:38:57.583Z</time></trkpt><trkpt lat="45.7336946" lon="11.5844149"><ele>273.0</ele><time>2026-04-29T15:38:58.751Z</time></trkpt><trkpt lat="45.7338159" lon="11.5845678"><ele>270.1666666666667</ele><time>2026-04-29T15:39:00.634Z</time></trkpt><trkpt lat="45.7338845" lon="11.5846383"><ele>267.3333333333333</ele><time>2026-04-29T15:39:01.626Z</time></trkpt><trkpt lat="45.7339567" lon="11.5846933"><ele>264.5</ele><time>2026-04-29T15:39:02.617Z</time></trkpt><trkpt lat="45.7340364" lon="11.5847426"><ele>261.66666666666663</ele><time>2026-04-29T15:39:03.654Z</time></trkpt><trkpt lat="45.734114" lon="11.5847971"><ele>258.8333333333333</ele><time>2026-04-29T15:39:04.662Z</time></trkpt><trkpt lat="45.7341849" lon="11.5848563"><ele>256.0</ele><time>2026-04-29T15:39:05.607Z</time></trkpt><trkpt lat="45.7342603" lon="11.584936"><ele>255.99999999999997</ele><time>2026-04-29T15:39:06.639Z</time></trkpt><trkpt lat="45.7343317" lon="11.5850106"><ele>256.0</ele><time>2026-04-29T15:39:07.637Z</time></trkpt><trkpt lat="45.7343994" lon="11.5850681"><ele>256.0</ele><time>2026-04-29T15:39:08.61Z</time></trkpt><trkpt lat="45.7344815" lon="11.5851112"><ele>256.0</ele><time>2026-04-29T15:39:09.606Z</time></trkpt><trkpt lat="45.7345665" lon="11.5851284"><ele>255.99999999999997</ele><time>2026-04-29T15:39:10.642Z</time></trkpt><trkpt lat="45.7346554" lon="11.5851146"><ele>256.0</ele><time>2026-04-29T15:39:11.613Z</time></trkpt><trkpt lat="45.7347517" lon="11.5850902"><ele>253.8</ele><time>2026-04-29T15:39:12.662Z</time></trkpt><trkpt lat="45.7348426" lon="11.5850689"><ele>251.60000000000002</ele><time>2026-04-29T15:39:13.644Z</time></trkpt><trkpt lat="45.7349367" lon="11.5850435"><ele>249.4</ele><time>2026-04-29T15:39:14.644Z</time></trkpt><trkpt lat="45.7350266" lon="11.5850112"><ele>247.2</ele><time>2026-04-29T15:39:15.593Z</time></trkpt><trkpt lat="45.7351222" lon="11.5849735"><ele>245.0</ele><time>2026-04-29T15:39:16.605Z</time></trkpt><trkpt lat="45.7352192" lon="11.5849413"><ele>243.83333333333334</ele><time>2026-04-29T15:39:17.624Z</time></trkpt><trkpt lat="45.7353164" lon="11.5849132"><ele>242.66666666666669</ele><time>2026-04-29T15:39:18.631Z</time></trkpt><trkpt lat="45.7354071" lon="11.5848932"><ele>241.5</ele><time>2026-04-29T15:39:19.63Z</time></trkpt><trkpt lat="45.7354782" lon="11.584884"><ele>240.33333333333331</ele><time>2026-04-29T15:39:20.631Z</time></trkpt><trkpt lat="45.7355776" lon="11.5848985"><ele>239.16666666666666</ele><time>2026-04-29T15:39:22.604Z</time></trkpt><trkpt lat="45.7356109" lon="11.5849843"><ele>238.0</ele><time>2026-04-29T15:39:24.592Z</time></trkpt><trkpt lat="45.735561" lon="11.5850609"><ele>238.0</ele><time>2026-04-29T15:39:26.583Z</time></trkpt><trkpt lat="45.7354254" lon="11.5850986"><ele>238.0</ele><time>2026-04-29T15:39:28.602Z</time></trkpt><trkpt lat="45.7353306" lon="11.5851263"><ele>238.0</ele><time>2026-04-29T15:39:29.598Z</time></trkpt><trkpt lat="45.7352397" lon="11.585172"><ele>238.0</ele><time>2026-04-29T15:39:30.623Z</time></trkpt><trkpt lat="45.7351657" lon="11.5852334"><ele>238.0</ele><time>2026-04-29T15:39:31.628Z</time></trkpt><trkpt lat="45.7351163" lon="11.5853032"><ele>232.5</ele><time>2026-04-29T15:39:32.612Z</time></trkpt><trkpt lat="45.7351018" lon="11.5854597"><ele>227.0</ele><time>2026-04-29T15:39:34.641Z</time></trkpt><trkpt lat="45.7351687" lon="11.5856044"><ele>221.5</ele><time>2026-04-29T15:39:36.687Z</time></trkpt><trkpt lat="45.7352634" lon="11.5856922"><ele>216.0</ele><time>2026-04-29T15:39:38.605Z</time></trkpt><trkpt lat="45.7353543" lon="11.5857714"><ele>215.60000000000002</ele><time>2026-04-29T15:39:40.598Z</time></trkpt><trkpt lat="45.7354542" lon="11.5858781"><ele>215.20000000000002</ele><time>2026-04-29T15:39:42.582Z</time></trkpt><trkpt lat="45.7355187" lon="11.5859515"><ele>214.79999999999998</ele><time>2026-04-29T15:39:43.616Z</time></trkpt><trkpt lat="45.7355812" lon="11.5860295"><ele>214.39999999999998</ele><time>2026-04-29T15:39:44.636Z</time></trkpt><trkpt lat="45.7356341" lon="11.5861109"><ele>214.0</ele><time>2026-04-29T15:39:45.651Z</time></trkpt><trkpt lat="45.7356938" lon="11.5862052"><ele>212.83333333333331</ele><time>2026-04-29T15:39:46.71Z</time></trkpt><trkpt lat="45.7357486" lon="11.5862838"><ele>211.66666666666666</ele><time>2026-04-29T15:39:47.603Z</time></trkpt><trkpt lat="45.7358082" lon="11.5863609"><ele>210.5</ele><time>2026-04-29T15:39:48.59Z</time></trkpt><trkpt lat="45.7358658" lon="11.5864255"><ele>209.33333333333331</ele><time>2026-04-29T15:39:49.644Z</time></trkpt><trkpt lat="45.7359444" lon="11.5864758"><ele>208.16666666666666</ele><time>2026-04-29T15:39:51.617Z</time></trkpt><trkpt lat="45.7360044" lon="11.5865068"><ele>207.0</ele><time>2026-04-29T15:40:10.66Z</time></trkpt><trkpt lat="45.7360932" lon="11.586547"><ele>206.5</ele><time>2026-04-29T15:40:12.736Z</time></trkpt><trkpt lat="45.7361627" lon="11.5865589"><ele>206.0</ele><time>2026-04-29T15:40:13.68Z</time></trkpt><trkpt lat="45.7362274" lon="11.5865597"><ele>205.5</ele><time>2026-04-29T15:40:14.704Z</time></trkpt><trkpt lat="45.7362988" lon="11.5865635"><ele>205.0</ele><time>2026-04-29T15:40:15.701Z</time></trkpt><trkpt lat="45.7363739" lon="11.5865719"><ele>204.5</ele><time>2026-04-29T15:40:16.693Z</time></trkpt><trkpt lat="45.7364581" lon="11.5865747"><ele>204.0</ele><time>2026-04-29T15:40:17.745Z</time></trkpt><trkpt lat="45.7365501" lon="11.5865818"><ele>204.0</ele><time>2026-04-29T15:40:18.852Z</time></trkpt><trkpt lat="45.736629" lon="11.5865878"><ele>204.0</ele><time>2026-04-29T15:40:19.849Z</time></trkpt><trkpt lat="45.736762" lon="11.586599"><ele>204.0</ele><time>2026-04-29T15:40:21.688Z</time></trkpt><trkpt lat="45.7368392" lon="11.5866069"><ele>204.0</ele><time>2026-04-29T15:40:22.699Z</time></trkpt><trkpt lat="45.7369209" lon="11.5866127"><ele>204.0</ele><time>2026-04-29T15:40:23.687Z</time></trkpt><trkpt lat="45.7370073" lon="11.586617"><ele>202.5</ele><time>2026-04-29T15:40:24.703Z</time></trkpt><trkpt lat="45.7370905" lon="11.5866182"><ele>201.0</ele><time>2026-04-29T15:40:25.731Z</time></trkpt><trkpt lat="45.7371642" lon="11.5866044"><ele>199.5</ele><time>2026-04-29T15:40:26.702Z</time></trkpt><trkpt lat="45.7372357" lon="11.5865757"><ele>198.0</ele><time>2026-04-29T15:40:27.73Z</time></trkpt><trkpt lat="45.7372903" lon="11.5865213"><ele>196.5</ele><time>2026-04-29T15:40:28.716Z</time></trkpt><trkpt lat="45.7373321" lon="11.5864439"><ele>195.0</ele><time>2026-04-29T15:40:29.737Z</time></trkpt><trkpt lat="45.7374069" lon="11.5862864"><ele>195.0</ele><time>2026-04-29T15:40:31.837Z</time></trkpt><trkpt lat="45.7375533" lon="11.5862012"><ele>195.0</ele><time>2026-04-29T15:40:33.702Z</time></trkpt><trkpt lat="45.7376311" lon="11.5862205"><ele>195.0</ele><time>2026-04-29T15:40:34.634Z</time></trkpt><trkpt lat="45.7377069" lon="11.586254"><ele>195.0</ele><time>2026-04-29T15:40:35.701Z</time></trkpt><trkpt lat="45.7377867" lon="11.5862926"><ele>195.0</ele><time>2026-04-29T15:40:36.758Z</time></trkpt><trkpt lat="45.7378544" lon="11.5863229"><ele>194.83333333333334</ele><time>2026-04-29T15:40:37.681Z</time></trkpt><trkpt lat="45.7379296" lon="11.5863521"><ele>194.66666666666669</ele><time>2026-04-29T15:40:38.695Z</time></trkpt><trkpt lat="45.738009" lon="11.5863906"><ele>194.5</ele><time>2026-04-29T15:40:39.713Z</time></trkpt><trkpt lat="45.7380808" lon="11.5864422"><ele>194.33333333333334</ele><time>2026-04-29T15:40:40.697Z</time></trkpt><trkpt lat="45.738144" lon="11.5865169"><ele>194.16666666666669</ele><time>2026-04-29T15:40:41.678Z</time></trkpt><trkpt lat="45.7381958" lon="11.5866083"><ele>194.0</ele><time>2026-04-29T15:40:42.71Z</time></trkpt><trkpt lat="45.7382369" lon="11.586695"><ele>194.00000000000003</ele><time>2026-04-29T15:40:43.717Z</time></trkpt><trkpt lat="45.738279" lon="11.5867701"><ele>194.0</ele><time>2026-04-29T15:40:44.679Z</time></trkpt><trkpt lat="45.7383288" lon="11.5868374"><ele>194.0</ele><time>2026-04-29T15:40:45.674Z</time></trkpt><trkpt lat="45.7383918" lon="11.5868969"><ele>194.0</ele><time>2026-04-29T15:40:46.722Z</time></trkpt><trkpt lat="45.7384559" lon="11.5869407"><ele>194.00000000000003</ele><time>2026-04-29T15:40:47.725Z</time></trkpt><trkpt lat="45.738587" lon="11.5870002"><ele>194.0</ele><time>2026-04-29T15:40:49.693Z</time></trkpt><trkpt lat="45.7387175" lon="11.5870244"><ele>193.16666666666669</ele><time>2026-04-29T15:40:51.709Z</time></trkpt><trkpt lat="45.7387848" lon="11.5869985"><ele>192.33333333333334</ele><time>2026-04-29T15:40:52.668Z</time></trkpt><trkpt lat="45.7388518" lon="11.5869551"><ele>191.5</ele><time>2026-04-29T15:40:53.661Z</time></trkpt><trkpt lat="45.7389392" lon="11.5868986"><ele>190.66666666666669</ele><time>2026-04-29T15:40:54.694Z</time></trkpt><trkpt lat="45.7390144" lon="11.58684"><ele>189.83333333333334</ele><time>2026-04-29T15:40:55.635Z</time></trkpt><trkpt lat="45.7391077" lon="11.5867784"><ele>189.0</ele><time>2026-04-29T15:40:56.659Z</time></trkpt><trkpt lat="45.739202" lon="11.5867267"><ele>189.0</ele><time>2026-04-29T15:40:57.701Z</time></trkpt><trkpt lat="45.739296" lon="11.586699"><ele>189.0</ele><time>2026-04-29T15:40:58.696Z</time></trkpt><trkpt lat="45.7394064" lon="11.5866888"><ele>189.0</ele><time>2026-04-29T15:40:59.828Z</time></trkpt><trkpt lat="45.739494" lon="11.5867059"><ele>189.0</ele><time>2026-04-29T15:41:00.736Z</time></trkpt><trkpt lat="45.7395793" lon="11.5867314"><ele>189.0</ele><time>2026-04-29T15:41:01.725Z</time></trkpt><trkpt lat="45.7396653" lon="11.5867634"><ele>186.71428571428572</ele><time>2026-04-29T15:41:02.753Z</time></trkpt><trkpt lat="45.7397249" lon="11.5867966"><ele>184.42857142857144</ele><time>2026-04-29T15:41:03.69Z</time></trkpt><trkpt lat="45.7397862" lon="11.5868382"><ele>182.14285714285714</ele><time>2026-04-29T15:41:04.691Z</time></trkpt><trkpt lat="45.7398332" lon="11.5869034"><ele>179.85714285714286</ele><time>2026-04-29T15:41:05.703Z</time></trkpt><trkpt lat="45.7398749" lon="11.5869756"><ele>177.57142857142858</ele><time>2026-04-29T15:41:06.703Z</time></trkpt><trkpt lat="45.739913" lon="11.5870648"><ele>175.28571428571428</ele><time>2026-04-29T15:41:07.702Z</time></trkpt><trkpt lat="45.7399563" lon="11.5871644"><ele>173.0</ele><time>2026-04-29T15:41:08.744Z</time></trkpt><trkpt lat="45.7400025" lon="11.5872624"><ele>172.0</ele><time>2026-04-29T15:41:09.746Z</time></trkpt><trkpt lat="45.7400571" lon="11.5873617"><ele>171.0</ele><time>2026-04-29T15:41:10.796Z</time></trkpt><trkpt lat="45.7401014" lon="11.5874556"><ele>170.0</ele><time>2026-04-29T15:41:11.727Z</time></trkpt><trkpt lat="45.7401376" lon="11.5875711"><ele>169.0</ele><time>2026-04-29T15:41:12.835Z</time></trkpt><trkpt lat="45.7401718" lon="11.587775"><ele>168.0</ele><time>2026-04-29T15:41:14.837Z</time></trkpt><trkpt lat="45.7401885" lon="11.5879622"><ele>166.20000000000002</ele><time>2026-04-29T15:41:16.69Z</time></trkpt><trkpt lat="45.7401983" lon="11.5880545"><ele>164.4</ele><time>2026-04-29T15:41:17.689Z</time></trkpt><trkpt lat="45.7402426" lon="11.5882097"><ele>162.60000000000002</ele><time>2026-04-29T15:41:19.608Z</time></trkpt><trkpt lat="45.7403472" lon="11.5882944"><ele>160.8</ele><time>2026-04-29T15:41:21.582Z</time></trkpt><trkpt lat="45.740418" lon="11.5882875"><ele>159.0</ele><time>2026-04-29T15:41:22.611Z</time></trkpt><trkpt lat="45.7404922" lon="11.5882577"><ele>156.6</ele><time>2026-04-29T15:41:23.609Z</time></trkpt><trkpt lat="45.7405704" lon="11.5882212"><ele>154.2</ele><time>2026-04-29T15:41:24.605Z</time></trkpt><trkpt lat="45.7406497" lon="11.5881842"><ele>151.79999999999998</ele><time>2026-04-29T15:41:25.581Z</time></trkpt><trkpt lat="45.740739" lon="11.5881445"><ele>149.4</ele><time>2026-04-29T15:41:26.786Z</time></trkpt><trkpt lat="45.7408601" lon="11.5881064"><ele>147.0</ele><time>2026-04-29T15:41:28.596Z</time></trkpt><trkpt lat="45.7409251" lon="11.5880868"><ele>147.0</ele><time>2026-04-29T15:41:29.628Z</time></trkpt><trkpt lat="45.7410387" lon="11.5880518"><ele>147.0</ele><time>2026-04-29T15:41:31.569Z</time></trkpt><trkpt lat="45.7411338" lon="11.5880381"><ele>147.0</ele><time>2026-04-29T15:41:33.617Z</time></trkpt><trkpt lat="45.74117" lon="11.5881509"><ele>147.0</ele><time>2026-04-29T15:41:36.646Z</time></trkpt><trkpt lat="45.7411016" lon="11.5882309"><ele>147.0</ele><time>2026-04-29T15:41:38.644Z</time></trkpt><trkpt lat="45.7410201" lon="11.5882967"><ele>147.0</ele><time>2026-04-29T15:41:39.701Z</time></trkpt><trkpt lat="45.7409471" lon="11.5883563"><ele>147.0</ele><time>2026-04-29T15:41:40.636Z</time></trkpt><trkpt lat="45.7408678" lon="11.5884262"><ele>147.0</ele><time>2026-04-29T15:41:41.62Z</time></trkpt><trkpt lat="45.7407773" lon="11.5885087"><ele>147.0</ele><time>2026-04-29T15:41:42.636Z</time></trkpt><trkpt lat="45.7406727" lon="11.5886047"><ele>147.0</ele><time>2026-04-29T15:41:43.643Z</time></trkpt><trkpt lat="45.7405671" lon="11.5886983"><ele>146.25</ele><time>2026-04-29T15:41:44.607Z</time></trkpt><trkpt lat="45.7404575" lon="11.5887901"><ele>145.5</ele><time>2026-04-29T15:41:45.614Z</time></trkpt><trkpt lat="45.7403391" lon="11.5888783"><ele>144.75</ele><time>2026-04-29T15:41:46.628Z</time></trkpt><trkpt lat="45.7402248" lon="11.5889524"><ele>144.0</ele><time>2026-04-29T15:41:47.608Z</time></trkpt><trkpt lat="45.7401115" lon="11.5890237"><ele>144.0</ele><time>2026-04-29T15:41:48.654Z</time></trkpt><trkpt lat="45.7400039" lon="11.5890951"><ele>144.0</ele><time>2026-04-29T15:41:49.617Z</time></trkpt><trkpt lat="45.7398918" lon="11.5891677"><ele>144.0</ele><time>2026-04-29T15:41:50.619Z</time></trkpt><trkpt lat="45.7397731" lon="11.5892413"><ele>144.0</ele><time>2026-04-29T15:41:51.631Z</time></trkpt><trkpt lat="45.7396576" lon="11.5893125"><ele>144.0</ele><time>2026-04-29T15:41:52.621Z</time></trkpt><trkpt lat="45.7395393" lon="11.5893846"><ele>144.0</ele><time>2026-04-29T15:41:53.608Z</time></trkpt><trkpt lat="45.739414" lon="11.5894615"><ele>144.0</ele><time>2026-04-29T15:41:54.633Z</time></trkpt><trkpt lat="45.7392929" lon="11.5895374"><ele>144.0</ele><time>2026-04-29T15:41:55.613Z</time></trkpt><trkpt lat="45.7391732" lon="11.589612"><ele>142.5</ele><time>2026-04-29T15:41:56.588Z</time></trkpt><trkpt lat="45.7390358" lon="11.5896959"><ele>141.0</ele><time>2026-04-29T15:41:57.701Z</time></trkpt><trkpt lat="45.7389244" lon="11.589765"><ele>139.5</ele><time>2026-04-29T15:41:58.604Z</time></trkpt><trkpt lat="45.7387991" lon="11.5898526"><ele>138.0</ele><time>2026-04-29T15:41:59.624Z</time></trkpt><trkpt lat="45.738672" lon="11.5899595"><ele>138.66666666666666</ele><time>2026-04-29T15:42:00.658Z</time></trkpt><trkpt lat="45.738544" lon="11.590082"><ele>139.33333333333331</ele><time>2026-04-29T15:42:01.679Z</time></trkpt><trkpt lat="45.7384133" lon="11.5902121"><ele>140.0</ele><time>2026-04-29T15:42:02.685Z</time></trkpt><trkpt lat="45.7382919" lon="11.590336"><ele>138.0</ele><time>2026-04-29T15:42:03.591Z</time></trkpt><trkpt lat="45.7381474" lon="11.590478"><ele>136.0</ele><time>2026-04-29T15:42:04.626Z</time></trkpt><trkpt lat="45.7380059" lon="11.5906272"><ele>134.0</ele><time>2026-04-29T15:42:05.64Z</time></trkpt><trkpt lat="45.7378688" lon="11.5907698"><ele>134.0</ele><time>2026-04-29T15:42:06.644Z</time></trkpt><trkpt lat="45.7377429" lon="11.5908987"><ele>134.0</ele><time>2026-04-29T15:42:07.569Z</time></trkpt><trkpt lat="45.7375994" lon="11.5910402"><ele>134.0</ele><time>2026-04-29T15:42:08.636Z</time></trkpt><trkpt lat="45.7374783" lon="11.5911607"><ele>133.33333333333331</ele><time>2026-04-29T15:42:09.595Z</time></trkpt><trkpt lat="45.7373487" lon="11.5912809"><ele>132.66666666666666</ele><time>2026-04-29T15:42:10.614Z</time></trkpt><trkpt lat="45.7372165" lon="11.5913747"><ele>132.0</ele><time>2026-04-29T15:42:11.569Z</time></trkpt><trkpt lat="45.7370592" lon="11.5914851"><ele>132.0</ele><time>2026-04-29T15:42:12.686Z</time></trkpt><trkpt lat="45.7369204" lon="11.5915861"><ele>132.0</ele><time>2026-04-29T15:42:13.655Z</time></trkpt><trkpt lat="45.7367799" lon="11.5916916"><ele>132.0</ele><time>2026-04-29T15:42:14.599Z</time></trkpt><trkpt lat="45.7366289" lon="11.5918041"><ele>132.66666666666666</ele><time>2026-04-29T15:42:15.628Z</time></trkpt><trkpt lat="45.7364693" lon="11.5919202"><ele>133.33333333333331</ele><time>2026-04-29T15:42:16.671Z</time></trkpt><trkpt lat="45.7363273" lon="11.5920214"><ele>134.0</ele><time>2026-04-29T15:42:17.599Z</time></trkpt><trkpt lat="45.7361776" lon="11.5921234"><ele>132.33333333333331</ele><time>2026-04-29T15:42:18.57Z</time></trkpt><trkpt lat="45.7360184" lon="11.5922206"><ele>130.66666666666666</ele><time>2026-04-29T15:42:19.584Z</time></trkpt><trkpt lat="45.7358638" lon="11.592299"><ele>129.0</ele><time>2026-04-29T15:42:20.586Z</time></trkpt><trkpt lat="45.7357119" lon="11.5923613"><ele>129.0</ele><time>2026-04-29T15:42:21.608Z</time></trkpt><trkpt lat="45.7355732" lon="11.5924147"><ele>129.0</ele><time>2026-04-29T15:42:22.598Z</time></trkpt><trkpt lat="45.7354381" lon="11.5924591"><ele>129.0</ele><time>2026-04-29T15:42:23.595Z</time></trkpt><trkpt lat="45.7353041" lon="11.5925093"><ele>129.0</ele><time>2026-04-29T15:42:24.638Z</time></trkpt><trkpt lat="45.7351823" lon="11.5925547"><ele>129.25</ele><time>2026-04-29T15:42:25.632Z</time></trkpt><trkpt lat="45.7350685" lon="11.5925937"><ele>129.5</ele><time>2026-04-29T15:42:26.599Z</time></trkpt><trkpt lat="45.734948" lon="11.5926374"><ele>129.75</ele><time>2026-04-29T15:42:27.592Z</time></trkpt><trkpt lat="45.7348136" lon="11.5926825"><ele>130.0</ele><time>2026-04-29T15:42:28.614Z</time></trkpt><trkpt lat="45.7346858" lon="11.5927228"><ele>130.0</ele><time>2026-04-29T15:42:29.575Z</time></trkpt><trkpt lat="45.7345564" lon="11.5927607"><ele>130.0</ele><time>2026-04-29T15:42:30.574Z</time></trkpt><trkpt lat="45.7344199" lon="11.5928019"><ele>130.0</ele><time>2026-04-29T15:42:31.598Z</time></trkpt><trkpt lat="45.7342826" lon="11.5928472"><ele>130.0</ele><time>2026-04-29T15:42:32.591Z</time></trkpt><trkpt lat="45.7341438" lon="11.5929054"><ele>128.33333333333334</ele><time>2026-04-29T15:42:33.594Z</time></trkpt><trkpt lat="45.734011" lon="11.5929833"><ele>126.66666666666666</ele><time>2026-04-29T15:42:34.598Z</time></trkpt><trkpt lat="45.7338784" lon="11.593112"><ele>125.0</ele><time>2026-04-29T15:42:35.746Z</time></trkpt><trkpt lat="45.7336633" lon="11.59335"><ele>125.66666666666666</ele><time>2026-04-29T15:42:37.591Z</time></trkpt><trkpt lat="45.7335289" lon="11.5934642"><ele>126.33333333333334</ele><time>2026-04-29T15:42:38.645Z</time></trkpt><trkpt lat="45.733386" lon="11.5935442"><ele>127.0</ele><time>2026-04-29T15:42:39.657Z</time></trkpt><trkpt lat="45.7332191" lon="11.5936165"><ele>126.0</ele><time>2026-04-29T15:42:40.789Z</time></trkpt><trkpt lat="45.7330886" lon="11.5936756"><ele>125.0</ele><time>2026-04-29T15:42:41.712Z</time></trkpt><trkpt lat="45.7329464" lon="11.5937402"><ele>124.0</ele><time>2026-04-29T15:42:42.682Z</time></trkpt><trkpt lat="45.7328049" lon="11.593805"><ele>123.0</ele><time>2026-04-29T15:42:43.638Z</time></trkpt><trkpt lat="45.7326277" lon="11.5938916"><ele>123.0</ele><time>2026-04-29T15:42:44.866Z</time></trkpt><trkpt lat="45.7323835" lon="11.5940158"><ele>123.0</ele><time>2026-04-29T15:42:46.586Z</time></trkpt><trkpt lat="45.7322516" lon="11.5941048"><ele>123.0</ele><time>2026-04-29T15:42:47.582Z</time></trkpt><trkpt lat="45.7321315" lon="11.5942295"><ele>123.0</ele><time>2026-04-29T15:42:48.605Z</time></trkpt><trkpt lat="45.7320211" lon="11.594376"><ele>123.0</ele><time>2026-04-29T15:42:49.638Z</time></trkpt><trkpt lat="45.7319161" lon="11.5945147"><ele>123.0</ele><time>2026-04-29T15:42:50.625Z</time></trkpt><trkpt lat="45.731804" lon="11.5946536"><ele>123.0</ele><time>2026-04-29T15:42:51.622Z</time></trkpt><trkpt lat="45.7316787" lon="11.5947952"><ele>122.33333333333334</ele><time>2026-04-29T15:42:52.66Z</time></trkpt><trkpt lat="45.7315487" lon="11.594924"><ele>121.66666666666667</ele><time>2026-04-29T15:42:53.668Z</time></trkpt><trkpt lat="45.7314204" lon="11.5950248"><ele>121.0</ele><time>2026-04-29T15:42:54.597Z</time></trkpt><trkpt lat="45.7312726" lon="11.5951218"><ele>121.0</ele><time>2026-04-29T15:42:55.621Z</time></trkpt><trkpt lat="45.7311294" lon="11.5952155"><ele>121.0</ele><time>2026-04-29T15:42:56.609Z</time></trkpt><trkpt lat="45.7309828" lon="11.5953104"><ele>121.0</ele><time>2026-04-29T15:42:57.618Z</time></trkpt><trkpt lat="45.7308191" lon="11.5954164"><ele>119.5</ele><time>2026-04-29T15:42:58.752Z</time></trkpt><trkpt lat="45.7305551" lon="11.595591"><ele>118.0</ele><time>2026-04-29T15:43:00.598Z</time></trkpt><trkpt lat="45.7304097" lon="11.595685"><ele>118.0</ele><time>2026-04-29T15:43:01.605Z</time></trkpt><trkpt lat="45.7302593" lon="11.5957824"><ele>118.0</ele><time>2026-04-29T15:43:02.641Z</time></trkpt><trkpt lat="45.7301175" lon="11.595873"><ele>118.0</ele><time>2026-04-29T15:43:03.61Z</time></trkpt><trkpt lat="45.7299696" lon="11.5959684"><ele>117.33333333333334</ele><time>2026-04-29T15:43:04.607Z</time></trkpt><trkpt lat="45.7298046" lon="11.5960666"><ele>116.66666666666666</ele><time>2026-04-29T15:43:05.704Z</time></trkpt><trkpt lat="45.7296615" lon="11.5961491"><ele>116.0</ele><time>2026-04-29T15:43:06.661Z</time></trkpt><trkpt lat="45.7295084" lon="11.596241"><ele>115.66666666666666</ele><time>2026-04-29T15:43:07.675Z</time></trkpt><trkpt lat="45.7293684" lon="11.5963342"><ele>115.33333333333334</ele><time>2026-04-29T15:43:08.632Z</time></trkpt><trkpt lat="45.729226" lon="11.596451"><ele>115.0</ele><time>2026-04-29T15:43:09.645Z</time></trkpt><trkpt lat="45.7290984" lon="11.596588"><ele>115.0</ele><time>2026-04-29T15:43:10.633Z</time></trkpt><trkpt lat="45.7289683" lon="11.5967806"><ele>115.0</ele><time>2026-04-29T15:43:11.788Z</time></trkpt><trkpt lat="45.7287929" lon="11.5971269"><ele>115.0</ele><time>2026-04-29T15:43:13.583Z</time></trkpt><trkpt lat="45.7286983" lon="11.5973358"><ele>115.0</ele><time>2026-04-29T15:43:14.609Z</time></trkpt><trkpt lat="45.7286144" lon="11.5975601"><ele>115.0</ele><time>2026-04-29T15:43:15.646Z</time></trkpt><trkpt lat="45.7285472" lon="11.5977764"><ele>114.0</ele><time>2026-04-29T15:43:16.594Z</time></trkpt><trkpt lat="45.7284757" lon="11.5980186"><ele>113.0</ele><time>2026-04-29T15:43:17.624Z</time></trkpt><trkpt lat="45.7284066" lon="11.5982476"><ele>112.0</ele><time>2026-04-29T15:43:18.594Z</time></trkpt><trkpt lat="45.7283336" lon="11.5984912"><ele>111.66666666666667</ele><time>2026-04-29T15:43:19.629Z</time></trkpt><trkpt lat="45.7282677" lon="11.5987187"><ele>111.33333333333334</ele><time>2026-04-29T15:43:20.65Z</time></trkpt><trkpt lat="45.728208" lon="11.5989281"><ele>111.0</ele><time>2026-04-29T15:43:21.633Z</time></trkpt><trkpt lat="45.7281327" lon="11.5991376"><ele>111.0</ele><time>2026-04-29T15:43:22.704Z</time></trkpt><trkpt lat="45.7280452" lon="11.5992815"><ele>111.0</ele><time>2026-04-29T15:43:23.603Z</time></trkpt><trkpt lat="45.7279313" lon="11.5994099"><ele>111.0</ele><time>2026-04-29T15:43:24.63Z</time></trkpt><trkpt lat="45.7278129" lon="11.5995018"><ele>111.0</ele><time>2026-04-29T15:43:25.604Z</time></trkpt><trkpt lat="45.7276899" lon="11.599575"><ele>110.25</ele><time>2026-04-29T15:43:26.612Z</time></trkpt><trkpt lat="45.7275547" lon="11.5996549"><ele>109.5</ele><time>2026-04-29T15:43:27.713Z</time></trkpt><trkpt lat="45.7274425" lon="11.5997256"><ele>108.75</ele><time>2026-04-29T15:43:28.615Z</time></trkpt><trkpt lat="45.7273186" lon="11.5997965"><ele>108.0</ele><time>2026-04-29T15:43:29.587Z</time></trkpt><trkpt lat="45.7271808" lon="11.5998782"><ele>108.0</ele><time>2026-04-29T15:43:30.651Z</time></trkpt><trkpt lat="45.7270561" lon="11.5999537"><ele>108.0</ele><time>2026-04-29T15:43:31.6Z</time></trkpt><trkpt lat="45.726906" lon="11.6000423"><ele>108.0</ele><time>2026-04-29T15:43:32.747Z</time></trkpt><trkpt lat="45.7266796" lon="11.6001869"><ele>108.0</ele><time>2026-04-29T15:43:34.613Z</time></trkpt><trkpt lat="45.7265636" lon="11.600262"><ele>108.0</ele><time>2026-04-29T15:43:35.632Z</time></trkpt><trkpt lat="45.7264557" lon="11.6003587"><ele>108.0</ele><time>2026-04-29T15:43:36.702Z</time></trkpt><trkpt lat="45.7263779" lon="11.6004619"><ele>108.0</ele><time>2026-04-29T15:43:37.612Z</time></trkpt><trkpt lat="45.7262895" lon="11.6006012"><ele>108.5</ele><time>2026-04-29T15:43:38.677Z</time></trkpt><trkpt lat="45.7262094" lon="11.6007342"><ele>109.0</ele><time>2026-04-29T15:43:39.648Z</time></trkpt><trkpt lat="45.7261269" lon="11.6008722"><ele>109.5</ele><time>2026-04-29T15:43:40.634Z</time></trkpt><trkpt lat="45.7260358" lon="11.601022"><ele>110.0</ele><time>2026-04-29T15:43:41.648Z</time></trkpt><trkpt lat="45.7259448" lon="11.6011744"><ele>109.0</ele><time>2026-04-29T15:43:42.631Z</time></trkpt><trkpt lat="45.7258559" lon="11.6013297"><ele>108.0</ele><time>2026-04-29T15:43:43.603Z</time></trkpt><trkpt lat="45.7257603" lon="11.6014995"><ele>107.0</ele><time>2026-04-29T15:43:44.63Z</time></trkpt><trkpt lat="45.725667" lon="11.6016531"><ele>106.0</ele><time>2026-04-29T15:43:45.637Z</time></trkpt><trkpt lat="45.7255791" lon="11.6017944"><ele>106.0</ele><time>2026-04-29T15:43:46.63Z</time></trkpt><trkpt lat="45.7254949" lon="11.6019305"><ele>106.0</ele><time>2026-04-29T15:43:47.625Z</time></trkpt><trkpt lat="45.7254128" lon="11.602068"><ele>106.0</ele><time>2026-04-29T15:43:48.637Z</time></trkpt><trkpt lat="45.7253307" lon="11.6022044"><ele>106.0</ele><time>2026-04-29T15:43:49.636Z</time></trkpt><trkpt lat="45.7252525" lon="11.6023371"><ele>105.6</ele><time>2026-04-29T15:43:50.647Z</time></trkpt><trkpt lat="45.7251816" lon="11.6024562"><ele>105.19999999999999</ele><time>2026-04-29T15:43:51.623Z</time></trkpt><trkpt lat="45.7251152" lon="11.6025697"><ele>104.80000000000001</ele><time>2026-04-29T15:43:52.609Z</time></trkpt><trkpt lat="45.7250534" lon="11.6026739"><ele>104.4</ele><time>2026-04-29T15:43:53.642Z</time></trkpt><trkpt lat="45.7250062" lon="11.6027678"><ele>104.0</ele><time>2026-04-29T15:43:54.635Z</time></trkpt><trkpt lat="45.7250177" lon="11.6029326"><ele>104.0</ele><time>2026-04-29T15:43:56.687Z</time></trkpt><trkpt lat="45.725143" lon="11.6030348"><ele>104.0</ele><time>2026-04-29T15:43:58.766Z</time></trkpt><trkpt lat="45.7252664" lon="11.60312"><ele>104.0</ele><time>2026-04-29T15:44:00.647Z</time></trkpt><trkpt lat="45.7253249" lon="11.6031549"><ele>104.0</ele><time>2026-04-29T15:44:01.639Z</time></trkpt><trkpt lat="45.7254433" lon="11.6032343"><ele>104.66666666666666</ele><time>2026-04-29T15:44:03.643Z</time></trkpt><trkpt lat="45.7255047" lon="11.6032815"><ele>105.33333333333333</ele><time>2026-04-29T15:44:04.609Z</time></trkpt><trkpt lat="45.72557" lon="11.603339"><ele>106.0</ele><time>2026-04-29T15:44:05.613Z</time></trkpt><trkpt lat="45.7256389" lon="11.6034078"><ele>106.66666666666666</ele><time>2026-04-29T15:44:06.652Z</time></trkpt><trkpt lat="45.7257018" lon="11.6034784"><ele>107.33333333333333</ele><time>2026-04-29T15:44:07.649Z</time></trkpt><trkpt lat="45.7257591" lon="11.6035551"><ele>108.0</ele><time>2026-04-29T15:44:08.654Z</time></trkpt><trkpt lat="45.7258004" lon="11.6036233"><ele>107.80000000000001</ele><time>2026-04-29T15:44:09.611Z</time></trkpt><trkpt lat="45.7258579" lon="11.6037542"><ele>107.60000000000001</ele><time>2026-04-29T15:44:11.641Z</time></trkpt><trkpt lat="45.7259142" lon="11.603889"><ele>107.39999999999999</ele><time>2026-04-29T15:44:13.658Z</time></trkpt><trkpt lat="45.7259774" lon="11.6040516"><ele>107.19999999999999</ele><time>2026-04-29T15:44:15.612Z</time></trkpt><trkpt lat="45.7260218" lon="11.604165"><ele>107.0</ele><time>2026-04-29T15:44:16.778Z</time></trkpt><trkpt lat="45.7261019" lon="11.6043646"><ele>106.85714285714286</ele><time>2026-04-29T15:44:18.737Z</time></trkpt><trkpt lat="45.726139" lon="11.6044521"><ele>106.71428571428572</ele><time>2026-04-29T15:44:19.643Z</time></trkpt><trkpt lat="45.7261824" lon="11.6045512"><ele>106.57142857142858</ele><time>2026-04-29T15:44:20.703Z</time></trkpt><trkpt lat="45.7262178" lon="11.6046339"><ele>106.42857142857143</ele><time>2026-04-29T15:44:21.61Z</time></trkpt><trkpt lat="45.7262566" lon="11.6047308"><ele>106.28571428571428</ele><time>2026-04-29T15:44:22.667Z</time></trkpt><trkpt lat="45.7262899" lon="11.6048196"><ele>106.14285714285715</ele><time>2026-04-29T15:44:23.666Z</time></trkpt><trkpt lat="45.7263177" lon="11.6049063"><ele>106.0</ele><time>2026-04-29T15:44:24.654Z</time></trkpt><trkpt lat="45.7263426" lon="11.6049929"><ele>105.5</ele><time>2026-04-29T15:44:25.64Z</time></trkpt><trkpt lat="45.7263643" lon="11.6050994"><ele>105.0</ele><time>2026-04-29T15:44:26.647Z</time></trkpt><trkpt lat="45.7263819" lon="11.6052264"><ele>104.5</ele><time>2026-04-29T15:44:27.665Z</time></trkpt><trkpt lat="45.7263916" lon="11.6053865"><ele>104.0</ele><time>2026-04-29T15:44:28.792Z</time></trkpt><trkpt lat="45.726383" lon="11.6056872"><ele>103.6</ele><time>2026-04-29T15:44:30.649Z</time></trkpt><trkpt lat="45.7263635" lon="11.6058451"><ele>103.2</ele><time>2026-04-29T15:44:31.622Z</time></trkpt><trkpt lat="45.7263383" lon="11.6059949"><ele>102.8</ele><time>2026-04-29T15:44:32.619Z</time></trkpt><trkpt lat="45.7263144" lon="11.6061354"><ele>102.39999999999999</ele><time>2026-04-29T15:44:33.634Z</time></trkpt><trkpt lat="45.7262933" lon="11.6062694"><ele>102.0</ele><time>2026-04-29T15:44:34.658Z</time></trkpt><trkpt lat="45.7262784" lon="11.606392"><ele>101.8</ele><time>2026-04-29T15:44:35.631Z</time></trkpt><trkpt lat="45.7262694" lon="11.6065217"><ele>101.6</ele><time>2026-04-29T15:44:36.635Z</time></trkpt><trkpt lat="45.726266" lon="11.6066679"><ele>101.39999999999999</ele><time>2026-04-29T15:44:37.688Z</time></trkpt><trkpt lat="45.7262615" lon="11.6068069"><ele>101.19999999999999</ele><time>2026-04-29T15:44:38.628Z</time></trkpt><trkpt lat="45.7262665" lon="11.6069589"><ele>101.0</ele><time>2026-04-29T15:44:39.634Z</time></trkpt><trkpt lat="45.72627" lon="11.6071181"><ele>100.6</ele><time>2026-04-29T15:44:40.613Z</time></trkpt><trkpt lat="45.7262731" lon="11.607289"><ele>100.19999999999999</ele><time>2026-04-29T15:44:41.696Z</time></trkpt><trkpt lat="45.7262791" lon="11.6074332"><ele>99.80000000000001</ele><time>2026-04-29T15:44:42.674Z</time></trkpt><trkpt lat="45.726285" lon="11.6075687"><ele>99.4</ele><time>2026-04-29T15:44:43.658Z</time></trkpt><trkpt lat="45.7262932" lon="11.6077033"><ele>99.0</ele><time>2026-04-29T15:44:44.661Z</time></trkpt><trkpt lat="45.7263042" lon="11.6078561"><ele>99.0</ele><time>2026-04-29T15:44:45.752Z</time></trkpt><trkpt lat="45.726349" lon="11.6081636"><ele>99.0</ele><time>2026-04-29T15:44:47.856Z</time></trkpt><trkpt lat="45.7263684" lon="11.6082896"><ele>99.0</ele><time>2026-04-29T15:44:48.664Z</time></trkpt><trkpt lat="45.7263846" lon="11.6084556"><ele>99.0</ele><time>2026-04-29T15:44:49.691Z</time></trkpt><trkpt lat="45.7264016" lon="11.6086194"><ele>98.80000000000001</ele><time>2026-04-29T15:44:50.693Z</time></trkpt><trkpt lat="45.7264186" lon="11.6087723"><ele>98.60000000000001</ele><time>2026-04-29T15:44:51.712Z</time></trkpt><trkpt lat="45.7264344" lon="11.608909"><ele>98.4</ele><time>2026-04-29T15:44:52.676Z</time></trkpt><trkpt lat="45.7264489" lon="11.6090455"><ele>98.2</ele><time>2026-04-29T15:44:53.706Z</time></trkpt><trkpt lat="45.7264647" lon="11.609176"><ele>98.0</ele><time>2026-04-29T15:44:54.794Z</time></trkpt><trkpt lat="45.7264934" lon="11.6093831"><ele>97.99999999999999</ele><time>2026-04-29T15:44:56.636Z</time></trkpt><trkpt lat="45.7265022" lon="11.6094748"><ele>98.0</ele><time>2026-04-29T15:44:57.647Z</time></trkpt><trkpt lat="45.7265138" lon="11.6096043"><ele>98.0</ele><time>2026-04-29T15:44:59.639Z</time></trkpt><trkpt lat="45.7265273" lon="11.6096958"><ele>98.0</ele><time>2026-04-29T15:45:03.716Z</time></trkpt><trkpt lat="45.7265737" lon="11.609758"><ele>97.99999999999999</ele><time>2026-04-29T15:45:10.711Z</time></trkpt><trkpt lat="45.7267207" lon="11.6097172"><ele>98.0</ele><time>2026-04-29T15:45:12.868Z</time></trkpt><trkpt lat="45.7268842" lon="11.6096565"><ele>99.0</ele><time>2026-04-29T15:45:14.704Z</time></trkpt><trkpt lat="45.7270184" lon="11.609598"><ele>100.0</ele><time>2026-04-29T15:45:15.733Z</time></trkpt><trkpt lat="45.7271869" lon="11.6095182"><ele>101.0</ele><time>2026-04-29T15:45:16.728Z</time></trkpt><trkpt lat="45.727372" lon="11.6094284"><ele>101.0</ele><time>2026-04-29T15:45:17.738Z</time></trkpt><trkpt lat="45.7275455" lon="11.6093293"><ele>101.0</ele><time>2026-04-29T15:45:18.748Z</time></trkpt><trkpt lat="45.727692" lon="11.6092507"><ele>101.0</ele><time>2026-04-29T15:45:19.746Z</time></trkpt><trkpt lat="45.7278022" lon="11.6091792"><ele>103.0</ele><time>2026-04-29T15:45:20.73Z</time></trkpt><trkpt lat="45.7278965" lon="11.6091201"><ele>105.0</ele><time>2026-04-29T15:45:21.733Z</time></trkpt><trkpt lat="45.7279787" lon="11.6090543"><ele>107.0</ele><time>2026-04-29T15:45:22.717Z</time></trkpt><trkpt lat="45.7280688" lon="11.608989"><ele>109.0</ele><time>2026-04-29T15:45:23.746Z</time></trkpt><trkpt lat="45.7281596" lon="11.6089513"><ele>111.0</ele><time>2026-04-29T15:45:24.774Z</time></trkpt><trkpt lat="45.7282508" lon="11.6089407"><ele>111.0</ele><time>2026-04-29T15:45:25.728Z</time></trkpt><trkpt lat="45.7283625" lon="11.608967"><ele>111.0</ele><time>2026-04-29T15:45:26.715Z</time></trkpt><trkpt lat="45.7284869" lon="11.6090094"><ele>111.0</ele><time>2026-04-29T15:45:27.841Z</time></trkpt><trkpt lat="45.7286853" lon="11.6090876"><ele>111.0</ele><time>2026-04-29T15:45:29.698Z</time></trkpt><trkpt lat="45.7287769" lon="11.6091223"><ele>111.5</ele><time>2026-04-29T15:45:30.708Z</time></trkpt><trkpt lat="45.7288944" lon="11.6091646"><ele>112.0</ele><time>2026-04-29T15:45:31.872Z</time></trkpt><trkpt lat="45.7290977" lon="11.6091842"><ele>112.5</ele><time>2026-04-29T15:45:33.696Z</time></trkpt><trkpt lat="45.7292207" lon="11.6091818"><ele>113.0</ele><time>2026-04-29T15:45:34.736Z</time></trkpt><trkpt lat="45.7293323" lon="11.6091712"><ele>112.4</ele><time>2026-04-29T15:45:35.704Z</time></trkpt><trkpt lat="45.7294433" lon="11.6091623"><ele>111.80000000000001</ele><time>2026-04-29T15:45:36.784Z</time></trkpt><trkpt lat="45.7295478" lon="11.6091429"><ele>111.2</ele><time>2026-04-29T15:45:37.754Z</time></trkpt><trkpt lat="45.7296472" lon="11.6091181"><ele>110.6</ele><time>2026-04-29T15:45:38.707Z</time></trkpt><trkpt lat="45.7297486" lon="11.6090754"><ele>110.0</ele><time>2026-04-29T15:45:39.713Z</time></trkpt><trkpt lat="45.7298584" lon="11.6090398"><ele>110.0</ele><time>2026-04-29T15:45:40.736Z</time></trkpt><trkpt lat="45.7299573" lon="11.6089825"><ele>110.0</ele><time>2026-04-29T15:45:41.716Z</time></trkpt><trkpt lat="45.7300632" lon="11.6089005"><ele>110.0</ele><time>2026-04-29T15:45:42.797Z</time></trkpt><trkpt lat="45.7301508" lon="11.6087974"><ele>110.0</ele><time>2026-04-29T15:45:43.784Z</time></trkpt><trkpt lat="45.730236" lon="11.6086759"><ele>112.5</ele><time>2026-04-29T15:45:44.804Z</time></trkpt><trkpt lat="45.7303247" lon="11.608562"><ele>115.0</ele><time>2026-04-29T15:45:45.78Z</time></trkpt><trkpt lat="45.7304246" lon="11.6084561"><ele>117.5</ele><time>2026-04-29T15:45:46.72Z</time></trkpt><trkpt lat="45.7305333" lon="11.6083706"><ele>120.0</ele><time>2026-04-29T15:45:47.727Z</time></trkpt><trkpt lat="45.7306497" lon="11.6083054"><ele>120.0</ele><time>2026-04-29T15:45:48.698Z</time></trkpt><trkpt lat="45.7307823" lon="11.6082345"><ele>120.0</ele><time>2026-04-29T15:45:49.726Z</time></trkpt><trkpt lat="45.730918" lon="11.6081626"><ele>120.0</ele><time>2026-04-29T15:45:50.749Z</time></trkpt><trkpt lat="45.7310401" lon="11.6080973"><ele>120.0</ele><time>2026-04-29T15:45:51.706Z</time></trkpt><trkpt lat="45.7311406" lon="11.6080364"><ele>121.33333333333333</ele><time>2026-04-29T15:45:52.723Z</time></trkpt><trkpt lat="45.731209" lon="11.6079865"><ele>122.66666666666666</ele><time>2026-04-29T15:45:53.748Z</time></trkpt><trkpt lat="45.7313079" lon="11.6079157"><ele>124.0</ele><time>2026-04-29T15:45:55.76Z</time></trkpt><trkpt lat="45.7313904" lon="11.6079602"><ele>125.33333333333333</ele><time>2026-04-29T15:45:57.848Z</time></trkpt><trkpt lat="45.7314249" lon="11.6080593"><ele>126.66666666666666</ele><time>2026-04-29T15:45:59.908Z</time></trkpt><trkpt lat="45.7314466" lon="11.6081927"><ele>128.0</ele><time>2026-04-29T15:46:51.793Z</time></trkpt><trkpt lat="45.7314866" lon="11.6083475"><ele>128.0</ele><time>2026-04-29T15:46:53.777Z</time></trkpt><trkpt lat="45.7315405" lon="11.6085194"><ele>128.0</ele><time>2026-04-29T15:46:55.769Z</time></trkpt><trkpt lat="45.7315761" lon="11.6086185"><ele>128.0</ele><time>2026-04-29T15:46:56.753Z</time></trkpt><trkpt lat="45.7316141" lon="11.6087364"><ele>128.0</ele><time>2026-04-29T15:46:57.794Z</time></trkpt><trkpt lat="45.7316601" lon="11.6088383"><ele>128.0</ele><time>2026-04-29T15:46:58.788Z</time></trkpt><trkpt lat="45.731693" lon="11.6089422"><ele>125.80000000000001</ele><time>2026-04-29T15:46:59.749Z</time></trkpt><trkpt lat="45.731728" lon="11.609051"><ele>123.60000000000001</ele><time>2026-04-29T15:47:00.768Z</time></trkpt><trkpt lat="45.731761" lon="11.609157"><ele>121.39999999999999</ele><time>2026-04-29T15:47:01.778Z</time></trkpt><trkpt lat="45.7317986" lon="11.6092726"><ele>119.19999999999999</ele><time>2026-04-29T15:47:02.888Z</time></trkpt><trkpt lat="45.7318632" lon="11.6094582"><ele>117.0</ele><time>2026-04-29T15:47:04.774Z</time></trkpt><trkpt lat="45.7318955" lon="11.6095602"><ele>116.0</ele><time>2026-04-29T15:47:05.812Z</time></trkpt><trkpt lat="45.7319201" lon="11.6096551"><ele>115.0</ele><time>2026-04-29T15:47:06.78Z</time></trkpt><trkpt lat="45.7319396" lon="11.6097491"><ele>114.0</ele><time>2026-04-29T15:47:07.736Z</time></trkpt><trkpt lat="45.7319613" lon="11.6098585"><ele>113.0</ele><time>2026-04-29T15:47:08.825Z</time></trkpt><trkpt lat="45.731983" lon="11.6099563"><ele>112.0</ele><time>2026-04-29T15:47:09.782Z</time></trkpt><trkpt lat="45.7320093" lon="11.6100666"><ele>111.0</ele><time>2026-04-29T15:47:10.799Z</time></trkpt><trkpt lat="45.7320412" lon="11.6101825"><ele>111.0</ele><time>2026-04-29T15:47:11.79Z</time></trkpt><trkpt lat="45.7320857" lon="11.6103033"><ele>111.0</ele><time>2026-04-29T15:47:12.791Z</time></trkpt><trkpt lat="45.7321426" lon="11.6104261"><ele>111.0</ele><time>2026-04-29T15:47:13.777Z</time></trkpt><trkpt lat="45.7322009" lon="11.6105465"><ele>111.0</ele><time>2026-04-29T15:47:14.758Z</time></trkpt><trkpt lat="45.7322534" lon="11.610658"><ele>111.0</ele><time>2026-04-29T15:47:15.748Z</time></trkpt><trkpt lat="45.7322955" lon="11.6107688"><ele>110.16666666666667</ele><time>2026-04-29T15:47:16.761Z</time></trkpt><trkpt lat="45.7323274" lon="11.6108798"><ele>109.33333333333334</ele><time>2026-04-29T15:47:17.751Z</time></trkpt><trkpt lat="45.7323513" lon="11.6109952"><ele>108.5</ele><time>2026-04-29T15:47:18.773Z</time></trkpt><trkpt lat="45.7323665" lon="11.6111046"><ele>107.66666666666667</ele><time>2026-04-29T15:47:19.78Z</time></trkpt><trkpt lat="45.7323759" lon="11.6112011"><ele>106.83333333333334</ele><time>2026-04-29T15:47:20.769Z</time></trkpt><trkpt lat="45.7323787" lon="11.6113084"><ele>106.0</ele><time>2026-04-29T15:47:21.765Z</time></trkpt><trkpt lat="45.7323822" lon="11.6114219"><ele>105.33333333333334</ele><time>2026-04-29T15:47:22.741Z</time></trkpt><trkpt lat="45.7323838" lon="11.6115188"><ele>104.66666666666667</ele><time>2026-04-29T15:47:23.8Z</time></trkpt><trkpt lat="45.7323873" lon="11.6116131"><ele>104.0</ele><time>2026-04-29T15:47:24.826Z</time></trkpt><trkpt lat="45.7323935" lon="11.6117779"><ele>103.33333333333334</ele><time>2026-04-29T15:47:26.788Z</time></trkpt><trkpt lat="45.7324104" lon="11.6118862"><ele>102.66666666666667</ele><time>2026-04-29T15:47:28.846Z</time></trkpt><trkpt lat="45.7324179" lon="11.6119813"><ele>102.0</ele><time>2026-04-29T15:47:31.785Z</time></trkpt><trkpt lat="45.7324831" lon="11.6120675"><ele>102.0</ele><time>2026-04-29T15:47:34.052Z</time></trkpt><trkpt lat="45.7326091" lon="11.6120275"><ele>102.0</ele><time>2026-04-29T15:47:35.746Z</time></trkpt><trkpt lat="45.7326929" lon="11.6120111"><ele>102.0</ele><time>2026-04-29T15:47:36.802Z</time></trkpt><trkpt lat="45.7327823" lon="11.6120031"><ele>102.0</ele><time>2026-04-29T15:47:37.815Z</time></trkpt><trkpt lat="45.7328884" lon="11.612007"><ele>102.0</ele><time>2026-04-29T15:47:38.828Z</time></trkpt><trkpt lat="45.7330044" lon="11.612028"><ele>102.75</ele><time>2026-04-29T15:47:39.815Z</time></trkpt><trkpt lat="45.7331313" lon="11.6120647"><ele>103.5</ele><time>2026-04-29T15:47:40.787Z</time></trkpt><trkpt lat="45.7332587" lon="11.6121151"><ele>104.25</ele><time>2026-04-29T15:47:41.796Z</time></trkpt><trkpt lat="45.7333935" lon="11.612165"><ele>105.0</ele><time>2026-04-29T15:47:42.832Z</time></trkpt><trkpt lat="45.7335296" lon="11.6122155"><ele>105.75</ele><time>2026-04-29T15:47:43.851Z</time></trkpt><trkpt lat="45.73365" lon="11.612263"><ele>106.5</ele><time>2026-04-29T15:47:44.78Z</time></trkpt><trkpt lat="45.7337636" lon="11.6123053"><ele>107.25</ele><time>2026-04-29T15:47:45.781Z</time></trkpt><trkpt lat="45.733875" lon="11.612346"><ele>108.0</ele><time>2026-04-29T15:47:46.836Z</time></trkpt><trkpt lat="45.7339663" lon="11.6123824"><ele>108.0</ele><time>2026-04-29T15:47:47.804Z</time></trkpt><trkpt lat="45.7340575" lon="11.6124195"><ele>108.00000000000001</ele><time>2026-04-29T15:47:48.788Z</time></trkpt><trkpt lat="45.7341449" lon="11.6124554"><ele>108.00000000000001</ele><time>2026-04-29T15:47:49.777Z</time></trkpt><trkpt lat="45.7342297" lon="11.6124887"><ele>108.0</ele><time>2026-04-29T15:47:50.78Z</time></trkpt><trkpt lat="45.7343169" lon="11.6125206"><ele>108.0</ele><time>2026-04-29T15:47:51.833Z</time></trkpt><trkpt lat="45.7344057" lon="11.6125523"><ele>108.16666666666667</ele><time>2026-04-29T15:47:52.89Z</time></trkpt><trkpt lat="45.7344819" lon="11.6125797"><ele>108.33333333333334</ele><time>2026-04-29T15:47:53.795Z</time></trkpt><trkpt lat="45.734564" lon="11.6126284"><ele>108.5</ele><time>2026-04-29T15:47:54.826Z</time></trkpt><trkpt lat="45.7346238" lon="11.6127126"><ele>108.66666666666667</ele><time>2026-04-29T15:47:55.821Z</time></trkpt><trkpt lat="45.7346434" lon="11.6128305"><ele>108.83333333333334</ele><time>2026-04-29T15:47:56.788Z</time></trkpt><trkpt lat="45.7346401" lon="11.612949"><ele>109.0</ele><time>2026-04-29T15:47:57.788Z</time></trkpt><trkpt lat="45.7346429" lon="11.613058"><ele>109.00000000000001</ele><time>2026-04-29T15:47:58.756Z</time></trkpt><trkpt lat="45.7346511" lon="11.613169"><ele>109.0</ele><time>2026-04-29T15:47:59.813Z</time></trkpt><trkpt lat="45.7346697" lon="11.6132763"><ele>109.0</ele><time>2026-04-29T15:48:00.797Z</time></trkpt><trkpt lat="45.734695" lon="11.613386"><ele>109.0</ele><time>2026-04-29T15:48:01.818Z</time></trkpt><trkpt lat="45.7347196" lon="11.61348"><ele>109.00000000000001</ele><time>2026-04-29T15:48:02.78Z</time></trkpt><trkpt lat="45.7347492" lon="11.6135748"><ele>109.0</ele><time>2026-04-29T15:48:03.781Z</time></trkpt><trkpt lat="45.7347803" lon="11.6136726"><ele>108.50000000000001</ele><time>2026-04-29T15:48:04.801Z</time></trkpt><trkpt lat="45.7348126" lon="11.6137672"><ele>108.0</ele><time>2026-04-29T15:48:05.768Z</time></trkpt><trkpt lat="45.7348453" lon="11.6138663"><ele>107.5</ele><time>2026-04-29T15:48:06.785Z</time></trkpt><trkpt lat="45.7348769" lon="11.6139681"><ele>107.0</ele><time>2026-04-29T15:48:07.807Z</time></trkpt><trkpt lat="45.7349115" lon="11.6140673"><ele>106.50000000000001</ele><time>2026-04-29T15:48:08.768Z</time></trkpt><trkpt lat="45.7349492" lon="11.6141697"><ele>106.0</ele><time>2026-04-29T15:48:09.775Z</time></trkpt><trkpt lat="45.7349943" lon="11.6142682"><ele>106.00000000000001</ele><time>2026-04-29T15:48:10.769Z</time></trkpt><trkpt lat="45.7350471" lon="11.6143542"><ele>106.0</ele><time>2026-04-29T15:48:11.824Z</time></trkpt><trkpt lat="45.7350996" lon="11.6144107"><ele>106.0</ele><time>2026-04-29T15:48:12.768Z</time></trkpt><trkpt lat="45.7351577" lon="11.6144577"><ele>106.0</ele><time>2026-04-29T15:48:13.795Z</time></trkpt><trkpt lat="45.7352194" lon="11.6145005"><ele>106.00000000000001</ele><time>2026-04-29T15:48:14.745Z</time></trkpt><trkpt lat="45.7353024" lon="11.6145815"><ele>106.0</ele><time>2026-04-29T15:48:16.033Z</time></trkpt><trkpt lat="45.73538" lon="11.6147579"><ele>106.33333333333334</ele><time>2026-04-29T15:48:17.775Z</time></trkpt><trkpt lat="45.7354102" lon="11.6148738"><ele>106.66666666666667</ele><time>2026-04-29T15:48:18.755Z</time></trkpt><trkpt lat="45.7354322" lon="11.6149888"><ele>107.0</ele><time>2026-04-29T15:48:19.736Z</time></trkpt><trkpt lat="45.7354531" lon="11.6150948"><ele>107.33333333333334</ele><time>2026-04-29T15:48:20.743Z</time></trkpt><trkpt lat="45.7354705" lon="11.6152038"><ele>107.66666666666667</ele><time>2026-04-29T15:48:21.853Z</time></trkpt><trkpt lat="45.735476" lon="11.6153062"><ele>108.0</ele><time>2026-04-29T15:48:22.81Z</time></trkpt><trkpt lat="45.7354676" lon="11.6154286"><ele>108.0</ele><time>2026-04-29T15:48:23.803Z</time></trkpt><trkpt lat="45.7354505" lon="11.6155503"><ele>108.0</ele><time>2026-04-29T15:48:24.76Z</time></trkpt><trkpt lat="45.7354277" lon="11.6156699"><ele>108.0</ele><time>2026-04-29T15:48:25.856Z</time></trkpt><trkpt lat="45.7354118" lon="11.6157643"><ele>108.0</ele><time>2026-04-29T15:48:26.827Z</time></trkpt><trkpt lat="45.7353996" lon="11.6158663"><ele>108.0</ele><time>2026-04-29T15:48:27.816Z</time></trkpt><trkpt lat="45.7353884" lon="11.6159763"><ele>108.0</ele><time>2026-04-29T15:48:28.789Z</time></trkpt><trkpt lat="45.7353849" lon="11.6160883"><ele>108.0</ele><time>2026-04-29T15:48:29.797Z</time></trkpt><trkpt lat="45.7353865" lon="11.6162123"><ele>108.0</ele><time>2026-04-29T15:48:30.835Z</time></trkpt><trkpt lat="45.7353918" lon="11.6163348"><ele>108.0</ele><time>2026-04-29T15:48:31.824Z</time></trkpt><trkpt lat="45.7354003" lon="11.6164395"><ele>108.0</ele><time>2026-04-29T15:48:32.786Z</time></trkpt><trkpt lat="45.7354068" lon="11.6165485"><ele>108.0</ele><time>2026-04-29T15:48:33.796Z</time></trkpt><trkpt lat="45.7354148" lon="11.6166636"><ele>108.0</ele><time>2026-04-29T15:48:34.797Z</time></trkpt><trkpt lat="45.7354247" lon="11.6167876"><ele>108.0</ele><time>2026-04-29T15:48:35.886Z</time></trkpt><trkpt lat="45.7354327" lon="11.616889"><ele>108.0</ele><time>2026-04-29T15:48:36.837Z</time></trkpt><trkpt lat="45.7354346" lon="11.6170551"><ele>108.0</ele><time>2026-04-29T15:48:38.79Z</time></trkpt><trkpt lat="45.7354156" lon="11.6172156"><ele>108.0</ele><time>2026-04-29T15:48:40.862Z</time></trkpt><trkpt lat="45.7353951" lon="11.6173046"><ele>108.0</ele><time>2026-04-29T15:48:43.784Z</time></trkpt><trkpt lat="45.7353746" lon="11.6173979"><ele>108.0</ele><time>2026-04-29T15:49:25.82Z</time></trkpt><trkpt lat="45.7353629" lon="11.617529"><ele>108.4</ele><time>2026-04-29T15:49:27.808Z</time></trkpt><trkpt lat="45.7353563" lon="11.6176194"><ele>108.80000000000001</ele><time>2026-04-29T15:49:28.806Z</time></trkpt><trkpt lat="45.7353307" lon="11.6177733"><ele>109.2</ele><time>2026-04-29T15:49:30.803Z</time></trkpt><trkpt lat="45.7353009" lon="11.6179259"><ele>109.6</ele><time>2026-04-29T15:49:32.788Z</time></trkpt><trkpt lat="45.735282" lon="11.6180228"><ele>110.0</ele><time>2026-04-29T15:49:33.937Z</time></trkpt><trkpt lat="45.7352457" lon="11.6182066"><ele>110.0</ele><time>2026-04-29T15:49:35.796Z</time></trkpt><trkpt lat="45.7352247" lon="11.6183248"><ele>110.0</ele><time>2026-04-29T15:49:36.79Z</time></trkpt><trkpt lat="45.7352029" lon="11.6184476"><ele>110.0</ele><time>2026-04-29T15:49:37.781Z</time></trkpt><trkpt lat="45.7351854" lon="11.6185834"><ele>110.0</ele><time>2026-04-29T15:49:38.896Z</time></trkpt><trkpt lat="45.7351515" lon="11.6188069"><ele>110.0</ele><time>2026-04-29T15:49:40.787Z</time></trkpt><trkpt lat="45.7351338" lon="11.6189295"><ele>110.66666666666666</ele><time>2026-04-29T15:49:41.795Z</time></trkpt><trkpt lat="45.7351093" lon="11.6190524"><ele>111.33333333333333</ele><time>2026-04-29T15:49:42.836Z</time></trkpt><trkpt lat="45.7350832" lon="11.6191557"><ele>112.0</ele><time>2026-04-29T15:49:43.791Z</time></trkpt><trkpt lat="45.73506" lon="11.6192507"><ele>112.66666666666666</ele><time>2026-04-29T15:49:44.801Z</time></trkpt><trkpt lat="45.7350118" lon="11.6193729"><ele>113.33333333333333</ele><time>2026-04-29T15:49:46.782Z</time></trkpt><trkpt lat="45.7349589" lon="11.6194509"><ele>114.0</ele><time>2026-04-29T15:49:49.823Z</time></trkpt><trkpt lat="45.734902" lon="11.6195029"><ele>116.0</ele><time>2026-04-29T15:49:51.758Z</time></trkpt><trkpt lat="45.7348175" lon="11.6195315"><ele>118.0</ele><time>2026-04-29T15:49:53.776Z</time></trkpt><trkpt lat="45.7346986" lon="11.6195584"><ele>120.0</ele><time>2026-04-29T15:49:55.877Z</time></trkpt><trkpt lat="45.7345731" lon="11.6195878"><ele>122.0</ele><time>2026-04-29T15:49:57.75Z</time></trkpt><trkpt lat="45.7344458" lon="11.6195852"><ele>122.49999999999999</ele><time>2026-04-29T15:49:59.753Z</time></trkpt><trkpt lat="45.7343756" lon="11.6195897"><ele>123.0</ele><time>2026-04-29T15:50:01.703Z</time></trkpt><trkpt lat="45.7343108" lon="11.6195902"><ele>123.5</ele><time>2026-04-29T15:50:03.73Z</time></trkpt><trkpt lat="45.7342347" lon="11.6195828"><ele>124.0</ele><time>2026-04-29T15:50:05.769Z</time></trkpt><trkpt lat="45.734153" lon="11.6195822"><ele>124.49999999999999</ele><time>2026-04-29T15:50:07.772Z</time></trkpt><trkpt lat="45.7340538" lon="11.6195585"><ele>125.0</ele><time>2026-04-29T15:50:10.774Z</time></trkpt><trkpt lat="45.7339946" lon="11.6195964"><ele>124.99999999999999</ele><time>2026-04-29T15:55:12.845Z</time></trkpt><trkpt lat="45.7340576" lon="11.6196389"><ele>125.0</ele><time>2026-04-29T15:55:19.784Z</time></trkpt><trkpt lat="45.7341625" lon="11.619625"><ele>125.0</ele><time>2026-04-29T15:55:21.784Z</time></trkpt><trkpt lat="45.734237" lon="11.6196317"><ele>125.0</ele><time>2026-04-29T15:55:22.797Z</time></trkpt><trkpt lat="45.7343064" lon="11.619639"><ele>124.99999999999999</ele><time>2026-04-29T15:55:23.776Z</time></trkpt><trkpt lat="45.7343728" lon="11.6196445"><ele>125.0</ele><time>2026-04-29T15:55:24.76Z</time></trkpt><trkpt lat="45.7344398" lon="11.6196585"><ele>124.49999999999999</ele><time>2026-04-29T15:55:25.777Z</time></trkpt><trkpt lat="45.7345049" lon="11.6197005"><ele>124.0</ele><time>2026-04-29T15:55:26.789Z</time></trkpt><trkpt lat="45.7345766" lon="11.6197754"><ele>123.5</ele><time>2026-04-29T15:55:27.77Z</time></trkpt><trkpt lat="45.734651" lon="11.6198529"><ele>123.0</ele><time>2026-04-29T15:55:28.783Z</time></trkpt><trkpt lat="45.7347247" lon="11.6199347"><ele>122.49999999999999</ele><time>2026-04-29T15:55:29.806Z</time></trkpt><trkpt lat="45.7347882" lon="11.6200256"><ele>122.0</ele><time>2026-04-29T15:55:30.774Z</time></trkpt><trkpt lat="45.7348474" lon="11.6201223"><ele>122.0</ele><time>2026-04-29T15:55:31.783Z</time></trkpt><trkpt lat="45.7348983" lon="11.620231"><ele>121.99999999999999</ele><time>2026-04-29T15:55:32.883Z</time></trkpt><trkpt lat="45.7349331" lon="11.620344"><ele>121.99999999999999</ele><time>2026-04-29T15:55:33.915Z</time></trkpt><trkpt lat="45.7349804" lon="11.6205377"><ele>122.0</ele><time>2026-04-29T15:55:35.723Z</time></trkpt><trkpt lat="45.7349993" lon="11.6206328"><ele>122.0</ele><time>2026-04-29T15:55:36.747Z</time></trkpt><trkpt lat="45.7350154" lon="11.6207346"><ele>123.16666666666666</ele><time>2026-04-29T15:55:37.743Z</time></trkpt><trkpt lat="45.7350217" lon="11.6208396"><ele>124.33333333333333</ele><time>2026-04-29T15:55:38.722Z</time></trkpt><trkpt lat="45.735033" lon="11.6209552"><ele>125.5</ele><time>2026-04-29T15:55:39.768Z</time></trkpt><trkpt lat="45.7350425" lon="11.6210791"><ele>126.66666666666666</ele><time>2026-04-29T15:55:40.769Z</time></trkpt><trkpt lat="45.7350574" lon="11.6212069"><ele>127.83333333333333</ele><time>2026-04-29T15:55:41.794Z</time></trkpt><trkpt lat="45.7350724" lon="11.6213355"><ele>129.0</ele><time>2026-04-29T15:55:42.768Z</time></trkpt><trkpt lat="45.7350903" lon="11.6214765"><ele>129.0</ele><time>2026-04-29T15:55:43.797Z</time></trkpt><trkpt lat="45.735115" lon="11.621613"><ele>129.0</ele><time>2026-04-29T15:55:44.766Z</time></trkpt><trkpt lat="45.7351462" lon="11.6217564"><ele>129.0</ele><time>2026-04-29T15:55:45.796Z</time></trkpt><trkpt lat="45.7351774" lon="11.6218913"><ele>129.0</ele><time>2026-04-29T15:55:46.779Z</time></trkpt><trkpt lat="45.7352052" lon="11.6220132"><ele>129.0</ele><time>2026-04-29T15:55:47.799Z</time></trkpt><trkpt lat="45.7352319" lon="11.6221267"><ele>131.2</ele><time>2026-04-29T15:55:48.799Z</time></trkpt><trkpt lat="45.7352598" lon="11.6222392"><ele>133.4</ele><time>2026-04-29T15:55:49.807Z</time></trkpt><trkpt lat="45.7352863" lon="11.622347"><ele>135.6</ele><time>2026-04-29T15:55:50.785Z</time></trkpt><trkpt lat="45.7353161" lon="11.6224706"><ele>137.8</ele><time>2026-04-29T15:55:51.915Z</time></trkpt><trkpt lat="45.7353904" lon="11.622677"><ele>140.0</ele><time>2026-04-29T15:55:53.768Z</time></trkpt><trkpt lat="45.7354499" lon="11.6227852"><ele>139.6</ele><time>2026-04-29T15:55:54.786Z</time></trkpt><trkpt lat="45.7355164" lon="11.6228878"><ele>139.2</ele><time>2026-04-29T15:55:55.739Z</time></trkpt><trkpt lat="45.7355959" lon="11.6230025"><ele>138.8</ele><time>2026-04-29T15:55:56.781Z</time></trkpt><trkpt lat="45.7356729" lon="11.6231043"><ele>138.4</ele><time>2026-04-29T15:55:57.792Z</time></trkpt><trkpt lat="45.7357389" lon="11.6231796"><ele>138.0</ele><time>2026-04-29T15:55:58.765Z</time></trkpt><trkpt lat="45.7358051" lon="11.6232405"><ele>138.0</ele><time>2026-04-29T15:55:59.754Z</time></trkpt><trkpt lat="45.7358796" lon="11.6232965"><ele>138.0</ele><time>2026-04-29T15:56:00.754Z</time></trkpt><trkpt lat="45.7359653" lon="11.6233482"><ele>138.0</ele><time>2026-04-29T15:56:01.767Z</time></trkpt><trkpt lat="45.7360552" lon="11.6233933"><ele>138.0</ele><time>2026-04-29T15:56:02.76Z</time></trkpt><trkpt lat="45.7361456" lon="11.6234358"><ele>138.0</ele><time>2026-04-29T15:56:03.75Z</time></trkpt><trkpt lat="45.7362547" lon="11.6234758"><ele>140.4</ele><time>2026-04-29T15:56:04.888Z</time></trkpt><trkpt lat="45.7364239" lon="11.6234952"><ele>142.8</ele><time>2026-04-29T15:56:06.742Z</time></trkpt><trkpt lat="45.7365109" lon="11.6234939"><ele>145.2</ele><time>2026-04-29T15:56:07.729Z</time></trkpt><trkpt lat="45.7365986" lon="11.623499"><ele>147.6</ele><time>2026-04-29T15:56:08.796Z</time></trkpt><trkpt lat="45.7366807" lon="11.6235068"><ele>150.0</ele><time>2026-04-29T15:56:09.829Z</time></trkpt><trkpt lat="45.7367635" lon="11.6235126"><ele>150.0</ele><time>2026-04-29T15:56:10.88Z</time></trkpt><trkpt lat="45.7368338" lon="11.6235205"><ele>150.0</ele><time>2026-04-29T15:56:11.788Z</time></trkpt><trkpt lat="45.7369089" lon="11.6235421"><ele>150.0</ele><time>2026-04-29T15:56:12.74Z</time></trkpt><trkpt lat="45.73698" lon="11.6235943"><ele>150.0</ele><time>2026-04-29T15:56:13.775Z</time></trkpt><trkpt lat="45.7370363" lon="11.6236667"><ele>150.0</ele><time>2026-04-29T15:56:14.716Z</time></trkpt><trkpt lat="45.7370709" lon="11.6237807"><ele>150.0</ele><time>2026-04-29T15:56:15.775Z</time></trkpt><trkpt lat="45.7370916" lon="11.623886"><ele>152.6</ele><time>2026-04-29T15:56:16.706Z</time></trkpt><trkpt lat="45.7370976" lon="11.6240216"><ele>155.2</ele><time>2026-04-29T15:56:17.75Z</time></trkpt><trkpt lat="45.737101" lon="11.6241552"><ele>157.8</ele><time>2026-04-29T15:56:18.738Z</time></trkpt><trkpt lat="45.7371143" lon="11.6242754"><ele>160.4</ele><time>2026-04-29T15:56:19.716Z</time></trkpt><trkpt lat="45.7371432" lon="11.624395"><ele>163.0</ele><time>2026-04-29T15:56:20.88Z</time></trkpt><trkpt lat="45.7372125" lon="11.6245665"><ele>163.0</ele><time>2026-04-29T15:56:22.772Z</time></trkpt><trkpt lat="45.7372626" lon="11.6246289"><ele>163.0</ele><time>2026-04-29T15:56:23.74Z</time></trkpt><trkpt lat="45.7373324" lon="11.6246734"><ele>163.0</ele><time>2026-04-29T15:56:24.786Z</time></trkpt><trkpt lat="45.7374204" lon="11.6246894"><ele>163.0</ele><time>2026-04-29T15:56:25.748Z</time></trkpt><trkpt lat="45.73753" lon="11.6246717"><ele>163.0</ele><time>2026-04-29T15:56:26.728Z</time></trkpt><trkpt lat="45.7376426" lon="11.624663"><ele>164.60000000000002</ele><time>2026-04-29T15:56:27.737Z</time></trkpt><trkpt lat="45.7377586" lon="11.6246649"><ele>166.20000000000002</ele><time>2026-04-29T15:56:28.798Z</time></trkpt><trkpt lat="45.737866" lon="11.6246776"><ele>167.8</ele><time>2026-04-29T15:56:29.759Z</time></trkpt><trkpt lat="45.7379719" lon="11.6246902"><ele>169.4</ele><time>2026-04-29T15:56:30.726Z</time></trkpt><trkpt lat="45.7380833" lon="11.6247044"><ele>171.0</ele><time>2026-04-29T15:56:31.746Z</time></trkpt><trkpt lat="45.7381922" lon="11.6247159"><ele>171.0</ele><time>2026-04-29T15:56:32.747Z</time></trkpt><trkpt lat="45.7383005" lon="11.6247273"><ele>171.0</ele><time>2026-04-29T15:56:33.782Z</time></trkpt><trkpt lat="45.7383972" lon="11.6247394"><ele>171.0</ele><time>2026-04-29T15:56:34.763Z</time></trkpt><trkpt lat="45.7384919" lon="11.6247503"><ele>171.0</ele><time>2026-04-29T15:56:35.736Z</time></trkpt><trkpt lat="45.7385803" lon="11.6247592"><ele>171.0</ele><time>2026-04-29T15:56:36.761Z</time></trkpt><trkpt lat="45.7386441" lon="11.6247736"><ele>170.83333333333334</ele><time>2026-04-29T15:56:37.784Z</time></trkpt><trkpt lat="45.7387464" lon="11.6248647"><ele>170.66666666666666</ele><time>2026-04-29T15:56:39.731Z</time></trkpt><trkpt lat="45.7388091" lon="11.6249468"><ele>170.5</ele><time>2026-04-29T15:56:40.826Z</time></trkpt><trkpt lat="45.7388648" lon="11.6250344"><ele>170.33333333333331</ele><time>2026-04-29T15:56:41.749Z</time></trkpt><trkpt lat="45.7389196" lon="11.6251162"><ele>170.16666666666666</ele><time>2026-04-29T15:56:42.708Z</time></trkpt><trkpt lat="45.7389729" lon="11.6251876"><ele>170.0</ele><time>2026-04-29T15:56:43.759Z</time></trkpt><trkpt lat="45.7390696" lon="11.6253223"><ele>170.0</ele><time>2026-04-29T15:56:45.619Z</time></trkpt><trkpt lat="45.7391284" lon="11.6254056"><ele>170.0</ele><time>2026-04-29T15:56:46.64Z</time></trkpt><trkpt lat="45.7391917" lon="11.6254989"><ele>170.0</ele><time>2026-04-29T15:56:47.648Z</time></trkpt><trkpt lat="45.7392576" lon="11.6256015"><ele>170.0</ele><time>2026-04-29T15:56:48.673Z</time></trkpt><trkpt lat="45.739321" lon="11.625701"><ele>170.0</ele><time>2026-04-29T15:56:49.635Z</time></trkpt><trkpt lat="45.7393836" lon="11.6258017"><ele>169.2</ele><time>2026-04-29T15:56:50.657Z</time></trkpt><trkpt lat="45.73944" lon="11.6258905"><ele>168.4</ele><time>2026-04-29T15:56:51.64Z</time></trkpt><trkpt lat="45.7394992" lon="11.6259816"><ele>167.60000000000002</ele><time>2026-04-29T15:56:52.744Z</time></trkpt><trkpt lat="45.7396142" lon="11.6261473"><ele>166.8</ele><time>2026-04-29T15:56:54.667Z</time></trkpt><trkpt lat="45.7396672" lon="11.6262262"><ele>166.0</ele><time>2026-04-29T15:56:55.647Z</time></trkpt><trkpt lat="45.7397184" lon="11.6262992"><ele>165.8</ele><time>2026-04-29T15:56:56.643Z</time></trkpt><trkpt lat="45.739767" lon="11.626367"><ele>165.60000000000002</ele><time>2026-04-29T15:56:57.676Z</time></trkpt><trkpt lat="45.739842" lon="11.6264927"><ele>165.4</ele><time>2026-04-29T15:56:59.631Z</time></trkpt><trkpt lat="45.7398988" lon="11.626584"><ele>165.2</ele><time>2026-04-29T15:57:01.616Z</time></trkpt><trkpt lat="45.7399464" lon="11.6266665"><ele>165.0</ele><time>2026-04-29T15:57:04.698Z</time></trkpt><trkpt lat="45.7400662" lon="11.6267494"><ele>165.0</ele><time>2026-04-29T15:57:09.314Z</time></trkpt><trkpt lat="45.7401288" lon="11.6268024"><ele>165.0</ele><time>2026-04-29T15:57:10.314Z</time></trkpt><trkpt lat="45.7401898" lon="11.6268755"><ele>165.0</ele><time>2026-04-29T15:57:11.314Z</time></trkpt><trkpt lat="45.7402467" lon="11.6269622"><ele>165.0</ele><time>2026-04-29T15:57:12.314Z</time></trkpt><trkpt lat="45.7403245" lon="11.6270716"><ele>165.0</ele><time>2026-04-29T15:57:13.629Z</time></trkpt><trkpt lat="45.7404026" lon="11.627179"><ele>165.33333333333334</ele><time>2026-04-29T15:57:14.638Z</time></trkpt><trkpt lat="45.7404459" lon="11.6273026"><ele>165.66666666666666</ele><time>2026-04-29T15:57:15.624Z</time></trkpt><trkpt lat="45.7404844" lon="11.6274064"><ele>166.0</ele><time>2026-04-29T15:57:16.637Z</time></trkpt><trkpt lat="45.7405189" lon="11.6274855"><ele>166.33333333333331</ele><time>2026-04-29T15:57:17.61Z</time></trkpt><trkpt lat="45.7405742" lon="11.6275376"><ele>166.66666666666666</ele><time>2026-04-29T15:57:18.627Z</time></trkpt><trkpt lat="45.7406433" lon="11.6275773"><ele>167.0</ele><time>2026-04-29T15:57:19.626Z</time></trkpt><trkpt lat="45.7407119" lon="11.6276372"><ele>167.0</ele><time>2026-04-29T15:57:21.683Z</time></trkpt><trkpt lat="45.7408362" lon="11.627618"><ele>167.0</ele><time>2026-04-29T15:57:23.639Z</time></trkpt><trkpt lat="45.7409424" lon="11.6275632"><ele>167.0</ele><time>2026-04-29T15:57:24.641Z</time></trkpt><trkpt lat="45.7409967" lon="11.6274848"><ele>167.0</ele><time>2026-04-29T15:57:25.613Z</time></trkpt><trkpt lat="45.7410589" lon="11.6273936"><ele>167.0</ele><time>2026-04-29T15:57:26.612Z</time></trkpt><trkpt lat="45.7411243" lon="11.6273"><ele>166.2</ele><time>2026-04-29T15:57:27.627Z</time></trkpt><trkpt lat="45.7411843" lon="11.6272071"><ele>165.39999999999998</ele><time>2026-04-29T15:57:28.781Z</time></trkpt><trkpt lat="45.7412795" lon="11.6270366"><ele>164.60000000000002</ele><time>2026-04-29T15:57:30.64Z</time></trkpt><trkpt lat="45.7413233" lon="11.6269396"><ele>163.8</ele><time>2026-04-29T15:57:31.623Z</time></trkpt><trkpt lat="45.7413727" lon="11.6268248"><ele>163.0</ele><time>2026-04-29T15:57:32.673Z</time></trkpt><trkpt lat="45.7414193" lon="11.6267239"><ele>162.8</ele><time>2026-04-29T15:57:33.628Z</time></trkpt><trkpt lat="45.7414754" lon="11.6266148"><ele>162.60000000000002</ele><time>2026-04-29T15:57:34.618Z</time></trkpt><trkpt lat="45.7415418" lon="11.6265152"><ele>162.39999999999998</ele><time>2026-04-29T15:57:35.629Z</time></trkpt><trkpt lat="45.7416197" lon="11.6264072"><ele>162.2</ele><time>2026-04-29T15:57:36.717Z</time></trkpt><trkpt lat="45.741694" lon="11.6263207"><ele>162.0</ele><time>2026-04-29T15:57:37.621Z</time></trkpt><trkpt lat="45.7417747" lon="11.6262206"><ele>162.25</ele><time>2026-04-29T15:57:38.591Z</time></trkpt><trkpt lat="45.7418718" lon="11.6261023"><ele>162.5</ele><time>2026-04-29T15:57:39.649Z</time></trkpt><trkpt lat="45.7419608" lon="11.6259796"><ele>162.75</ele><time>2026-04-29T15:57:40.607Z</time></trkpt><trkpt lat="45.7420443" lon="11.6258584"><ele>163.0</ele><time>2026-04-29T15:57:41.595Z</time></trkpt><trkpt lat="45.7421282" lon="11.6257133"><ele>166.25</ele><time>2026-04-29T15:57:42.657Z</time></trkpt><trkpt lat="45.7422087" lon="11.6255729"><ele>169.5</ele><time>2026-04-29T15:57:43.674Z</time></trkpt><trkpt lat="45.7422835" lon="11.6254326"><ele>172.75</ele><time>2026-04-29T15:57:44.66Z</time></trkpt><trkpt lat="45.742362" lon="11.6253029"><ele>176.0</ele><time>2026-04-29T15:57:45.637Z</time></trkpt><trkpt lat="45.7424496" lon="11.6252028"><ele>177.0</ele><time>2026-04-29T15:57:46.642Z</time></trkpt><trkpt lat="45.7425324" lon="11.6251152"><ele>178.0</ele><time>2026-04-29T15:57:47.608Z</time></trkpt><trkpt lat="45.7426127" lon="11.6249916"><ele>179.0</ele><time>2026-04-29T15:57:48.705Z</time></trkpt><trkpt lat="45.7426776" lon="11.6248655"><ele>180.0</ele><time>2026-04-29T15:57:49.67Z</time></trkpt><trkpt lat="45.7427424" lon="11.6247359"><ele>181.0</ele><time>2026-04-29T15:57:50.628Z</time></trkpt><trkpt lat="45.7428101" lon="11.6245997"><ele>184.0</ele><time>2026-04-29T15:57:51.627Z</time></trkpt><trkpt lat="45.742876" lon="11.6244522"><ele>187.0</ele><time>2026-04-29T15:57:52.647Z</time></trkpt><trkpt lat="45.7429306" lon="11.6243038"><ele>190.0</ele><time>2026-04-29T15:57:53.623Z</time></trkpt><trkpt lat="45.7429893" lon="11.6241574"><ele>193.0</ele><time>2026-04-29T15:57:54.608Z</time></trkpt><trkpt lat="45.7430479" lon="11.624008"><ele>193.0</ele><time>2026-04-29T15:57:55.6Z</time></trkpt><trkpt lat="45.7431066" lon="11.6238617"><ele>193.0</ele><time>2026-04-29T15:57:56.648Z</time></trkpt><trkpt lat="45.7431623" lon="11.6237238"><ele>193.0</ele><time>2026-04-29T15:57:57.605Z</time></trkpt><trkpt lat="45.7432239" lon="11.6235936"><ele>193.0</ele><time>2026-04-29T15:57:58.62Z</time></trkpt><trkpt lat="45.7432854" lon="11.6234669"><ele>193.0</ele><time>2026-04-29T15:57:59.637Z</time></trkpt><trkpt lat="45.7433378" lon="11.6233396"><ele>194.0</ele><time>2026-04-29T15:58:00.631Z</time></trkpt><trkpt lat="45.7433886" lon="11.6232323"><ele>195.0</ele><time>2026-04-29T15:58:01.618Z</time></trkpt><trkpt lat="45.7434282" lon="11.6231405"><ele>196.0</ele><time>2026-04-29T15:58:02.645Z</time></trkpt><trkpt lat="45.7435003" lon="11.6229876"><ele>197.0</ele><time>2026-04-29T15:58:04.625Z</time></trkpt><trkpt lat="45.743549" lon="11.6229114"><ele>198.0</ele><time>2026-04-29T15:58:05.612Z</time></trkpt><trkpt lat="45.7436186" lon="11.622836"><ele>199.2</ele><time>2026-04-29T15:58:06.641Z</time></trkpt><trkpt lat="45.7436982" lon="11.6227735"><ele>200.4</ele><time>2026-04-29T15:58:07.619Z</time></trkpt><trkpt lat="45.7437919" lon="11.6227101"><ele>201.6</ele><time>2026-04-29T15:58:08.639Z</time></trkpt><trkpt lat="45.7438831" lon="11.6226653"><ele>202.79999999999998</ele><time>2026-04-29T15:58:09.583Z</time></trkpt><trkpt lat="45.7439876" lon="11.6226467"><ele>204.0</ele><time>2026-04-29T15:58:10.636Z</time></trkpt><trkpt lat="45.7440813" lon="11.6226595"><ele>204.0</ele><time>2026-04-29T15:58:11.626Z</time></trkpt><trkpt lat="45.7441749" lon="11.6226809"><ele>204.0</ele><time>2026-04-29T15:58:12.632Z</time></trkpt><trkpt lat="45.7442682" lon="11.6226978"><ele>204.0</ele><time>2026-04-29T15:58:13.678Z</time></trkpt><trkpt lat="45.744354" lon="11.6227117"><ele>204.0</ele><time>2026-04-29T15:58:14.631Z</time></trkpt><trkpt lat="45.7444529" lon="11.6227325"><ele>204.0</ele><time>2026-04-29T15:58:15.757Z</time></trkpt><trkpt lat="45.7445388" lon="11.6227715"><ele>206.5</ele><time>2026-04-29T15:58:16.767Z</time></trkpt><trkpt lat="45.7446123" lon="11.622817"><ele>209.0</ele><time>2026-04-29T15:58:17.69Z</time></trkpt><trkpt lat="45.7446843" lon="11.622866"><ele>211.5</ele><time>2026-04-29T15:58:18.624Z</time></trkpt><trkpt lat="45.7447536" lon="11.6229197"><ele>214.0</ele><time>2026-04-29T15:58:19.632Z</time></trkpt><trkpt lat="45.7448171" lon="11.6229541"><ele>216.5</ele><time>2026-04-29T15:58:20.64Z</time></trkpt><trkpt lat="45.7448889" lon="11.6229919"><ele>219.0</ele><time>2026-04-29T15:58:21.736Z</time></trkpt><trkpt lat="45.7450315" lon="11.6230507"><ele>219.0</ele><time>2026-04-29T15:58:23.623Z</time></trkpt><trkpt lat="45.74513" lon="11.6230785"><ele>219.0</ele><time>2026-04-29T15:58:24.784Z</time></trkpt><trkpt lat="45.7452999" lon="11.6231224"><ele>219.0</ele><time>2026-04-29T15:58:26.643Z</time></trkpt><trkpt lat="45.7453941" lon="11.623148"><ele>219.0</ele><time>2026-04-29T15:58:27.652Z</time></trkpt><trkpt lat="45.7455068" lon="11.6231764"><ele>221.16666666666666</ele><time>2026-04-29T15:58:28.878Z</time></trkpt><trkpt lat="45.7456311" lon="11.6231875"><ele>223.33333333333331</ele><time>2026-04-29T15:58:30.608Z</time></trkpt><trkpt lat="45.74571" lon="11.6232692"><ele>225.5</ele><time>2026-04-29T15:58:33.68Z</time></trkpt><trkpt lat="45.745694" lon="11.6233578"><ele>227.66666666666666</ele><time>2026-04-29T15:58:34.642Z</time></trkpt><trkpt lat="45.745655" lon="11.6234497"><ele>229.83333333333331</ele><time>2026-04-29T15:58:35.627Z</time></trkpt><trkpt lat="45.7456132" lon="11.6235513"><ele>232.0</ele><time>2026-04-29T15:58:36.648Z</time></trkpt><trkpt lat="45.745592" lon="11.6236584"><ele>233.0</ele><time>2026-04-29T15:58:37.648Z</time></trkpt><trkpt lat="45.7455945" lon="11.6237753"><ele>234.0</ele><time>2026-04-29T15:58:38.782Z</time></trkpt><trkpt lat="45.7456495" lon="11.623975"><ele>235.0</ele><time>2026-04-29T15:58:40.669Z</time></trkpt><trkpt lat="45.7456878" lon="11.6240837"><ele>236.0</ele><time>2026-04-29T15:58:41.618Z</time></trkpt><trkpt lat="45.7457325" lon="11.6242177"><ele>237.0</ele><time>2026-04-29T15:58:42.735Z</time></trkpt><trkpt lat="45.7457599" lon="11.6243073"><ele>237.0</ele><time>2026-04-29T15:58:43.652Z</time></trkpt><trkpt lat="45.7458098" lon="11.6244746"><ele>237.0</ele><time>2026-04-29T15:58:45.657Z</time></trkpt><trkpt lat="45.7458797" lon="11.6245522"><ele>237.0</ele><time>2026-04-29T15:58:47.602Z</time></trkpt><trkpt lat="45.7459613" lon="11.6244519"><ele>237.0</ele><time>2026-04-29T15:58:49.658Z</time></trkpt><trkpt lat="45.7459839" lon="11.6243481"><ele>237.0</ele><time>2026-04-29T15:58:50.655Z</time></trkpt><trkpt lat="45.746014" lon="11.6242478"><ele>240.6</ele><time>2026-04-29T15:58:51.621Z</time></trkpt><trkpt lat="45.7460568" lon="11.6241407"><ele>244.2</ele><time>2026-04-29T15:58:52.638Z</time></trkpt><trkpt lat="45.7461063" lon="11.6240327"><ele>247.8</ele><time>2026-04-29T15:58:53.6Z</time></trkpt><trkpt lat="45.7461645" lon="11.6239154"><ele>251.4</ele><time>2026-04-29T15:58:54.635Z</time></trkpt><trkpt lat="45.7462309" lon="11.623789"><ele>255.0</ele><time>2026-04-29T15:58:55.69Z</time></trkpt><trkpt lat="45.7462818" lon="11.6236777"><ele>255.0</ele><time>2026-04-29T15:58:56.6Z</time></trkpt><trkpt lat="45.7463254" lon="11.6235702"><ele>255.0</ele><time>2026-04-29T15:58:57.627Z</time></trkpt><trkpt lat="45.7463719" lon="11.6234671"><ele>255.0</ele><time>2026-04-29T15:58:58.713Z</time></trkpt><trkpt lat="45.7464202" lon="11.6234062"><ele>255.0</ele><time>2026-04-29T15:58:59.67Z</time></trkpt><trkpt lat="45.746499" lon="11.6234267"><ele>255.0</ele><time>2026-04-29T15:59:01.618Z</time></trkpt><trkpt lat="45.7465287" lon="11.6235983"><ele>255.0</ele><time>2026-04-29T15:59:03.728Z</time></trkpt><trkpt lat="45.7465254" lon="11.623694"><ele>255.0</ele><time>2026-04-29T15:59:04.66Z</time></trkpt><trkpt lat="45.7465285" lon="11.6238124"><ele>255.0</ele><time>2026-04-29T15:59:05.617Z</time></trkpt><trkpt lat="45.7465318" lon="11.6239508"><ele>255.0</ele><time>2026-04-29T15:59:06.633Z</time></trkpt><trkpt lat="45.7465323" lon="11.624087"><ele>255.0</ele><time>2026-04-29T15:59:07.64Z</time></trkpt><trkpt lat="45.7465296" lon="11.6242208"><ele>255.0</ele><time>2026-04-29T15:59:08.653Z</time></trkpt><trkpt lat="45.7465294" lon="11.6243465"><ele>255.83333333333334</ele><time>2026-04-29T15:59:09.609Z</time></trkpt><trkpt lat="45.7465282" lon="11.6244927"><ele>256.6666666666667</ele><time>2026-04-29T15:59:10.643Z</time></trkpt><trkpt lat="45.7465213" lon="11.6245979"><ele>257.5</ele><time>2026-04-29T15:59:11.603Z</time></trkpt><trkpt lat="45.7465092" lon="11.6246996"><ele>258.33333333333337</ele><time>2026-04-29T15:59:12.648Z</time></trkpt><trkpt lat="45.7464966" lon="11.6248011"><ele>259.1666666666667</ele><time>2026-04-29T15:59:13.621Z</time></trkpt><trkpt lat="45.7464802" lon="11.6249188"><ele>260.0</ele><time>2026-04-29T15:59:14.706Z</time></trkpt><trkpt lat="45.7464675" lon="11.6250205"><ele>260.0</ele><time>2026-04-29T15:59:15.609Z</time></trkpt><trkpt lat="45.7464646" lon="11.6251453"><ele>260.0</ele><time>2026-04-29T15:59:16.715Z</time></trkpt><trkpt lat="45.746514" lon="11.6253987"><ele>260.0</ele><time>2026-04-29T15:59:18.754Z</time></trkpt><trkpt lat="45.7465838" lon="11.6256458"><ele>260.0</ele><time>2026-04-29T15:59:20.684Z</time></trkpt><trkpt lat="45.7466199" lon="11.6257662"><ele>260.0</ele><time>2026-04-29T15:59:21.606Z</time></trkpt><trkpt lat="45.7466588" lon="11.6259"><ele>260.0</ele><time>2026-04-29T15:59:22.644Z</time></trkpt><trkpt lat="45.7466914" lon="11.6260283"><ele>260.0</ele><time>2026-04-29T15:59:23.653Z</time></trkpt><trkpt lat="45.7467147" lon="11.6261237"><ele>260.0</ele><time>2026-04-29T15:59:24.622Z</time></trkpt><trkpt lat="45.7467365" lon="11.6262122"><ele>260.0</ele><time>2026-04-29T15:59:25.626Z</time></trkpt><trkpt lat="45.7467922" lon="11.6263463"><ele>258.6</ele><time>2026-04-29T15:59:27.627Z</time></trkpt><trkpt lat="45.7468776" lon="11.6263283"><ele>257.2</ele><time>2026-04-29T15:59:29.617Z</time></trkpt><trkpt lat="45.7469064" lon="11.6261734"><ele>255.8</ele><time>2026-04-29T15:59:31.651Z</time></trkpt><trkpt lat="45.746903" lon="11.6260563"><ele>254.4</ele><time>2026-04-29T15:59:32.733Z</time></trkpt><trkpt lat="45.7469073" lon="11.6259388"><ele>253.0</ele><time>2026-04-29T15:59:33.679Z</time></trkpt><trkpt lat="45.7469168" lon="11.6258061"><ele>257.3333333333333</ele><time>2026-04-29T15:59:34.629Z</time></trkpt><trkpt lat="45.7469314" lon="11.6256651"><ele>261.66666666666663</ele><time>2026-04-29T15:59:35.629Z</time></trkpt><trkpt lat="45.7469349" lon="11.6255456"><ele>266.0</ele><time>2026-04-29T15:59:36.617Z</time></trkpt><trkpt lat="45.7469486" lon="11.6254318"><ele>270.3333333333333</ele><time>2026-04-29T15:59:37.8Z</time></trkpt><trkpt lat="45.7469782" lon="11.6253466"><ele>274.6666666666667</ele><time>2026-04-29T15:59:38.717Z</time></trkpt><trkpt lat="45.7470232" lon="11.6252553"><ele>279.0</ele><time>2026-04-29T15:59:39.815Z</time></trkpt><trkpt lat="45.7470676" lon="11.6251659"><ele>279.0</ele><time>2026-04-29T15:59:40.73Z</time></trkpt><trkpt lat="45.7471216" lon="11.6250658"><ele>279.0</ele><time>2026-04-29T15:59:41.716Z</time></trkpt><trkpt lat="45.7471772" lon="11.624957"><ele>279.0</ele><time>2026-04-29T15:59:42.722Z</time></trkpt><trkpt lat="45.747227" lon="11.6248599"><ele>279.0</ele><time>2026-04-29T15:59:43.709Z</time></trkpt><trkpt lat="45.7472673" lon="11.6247867"><ele>279.0</ele><time>2026-04-29T15:59:44.73Z</time></trkpt><trkpt lat="45.7473334" lon="11.6247006"><ele>279.0</ele><time>2026-04-29T15:59:46.71Z</time></trkpt><trkpt lat="45.7474206" lon="11.624726"><ele>279.0</ele><time>2026-04-29T15:59:48.705Z</time></trkpt><trkpt lat="45.7474498" lon="11.6248692"><ele>279.0</ele><time>2026-04-29T15:59:50.745Z</time></trkpt><trkpt lat="45.747448" lon="11.6249649"><ele>279.0</ele><time>2026-04-29T15:59:51.716Z</time></trkpt><trkpt lat="45.7474421" lon="11.6250707"><ele>279.0</ele><time>2026-04-29T15:59:52.707Z</time></trkpt><trkpt lat="45.7474332" lon="11.6252013"><ele>279.0</ele><time>2026-04-29T15:59:53.773Z</time></trkpt><trkpt lat="45.7474265" lon="11.6253198"><ele>279.0</ele><time>2026-04-29T15:59:54.703Z</time></trkpt><trkpt lat="45.7474244" lon="11.625459"><ele>279.5</ele><time>2026-04-29T15:59:55.705Z</time></trkpt><trkpt lat="45.7474195" lon="11.6255763"><ele>280.0</ele><time>2026-04-29T15:59:56.684Z</time></trkpt><trkpt lat="45.7474112" lon="11.6256876"><ele>280.5</ele><time>2026-04-29T15:59:57.699Z</time></trkpt><trkpt lat="45.7474081" lon="11.6258044"><ele>281.0</ele><time>2026-04-29T15:59:58.778Z</time></trkpt><trkpt lat="45.7474106" lon="11.625903"><ele>281.5</ele><time>2026-04-29T15:59:59.708Z</time></trkpt><trkpt lat="45.7474246" lon="11.6259991"><ele>282.0</ele><time>2026-04-29T16:00:00.667Z</time></trkpt><trkpt lat="45.7475007" lon="11.6261165"><ele>282.0</ele><time>2026-04-29T16:00:02.707Z</time></trkpt><trkpt lat="45.7475693" lon="11.6260796"><ele>282.0</ele><time>2026-04-29T16:00:04.689Z</time></trkpt><trkpt lat="45.7475827" lon="11.6259291"><ele>282.0</ele><time>2026-04-29T16:00:06.676Z</time></trkpt><trkpt lat="45.7475976" lon="11.6257432"><ele>282.0</ele><time>2026-04-29T16:00:08.633Z</time></trkpt><trkpt lat="45.7476316" lon="11.6256318"><ele>282.0</ele><time>2026-04-29T16:00:09.653Z</time></trkpt><trkpt lat="45.7477085" lon="11.6255236"><ele>285.4</ele><time>2026-04-29T16:00:11.667Z</time></trkpt><trkpt lat="45.7478029" lon="11.6255719"><ele>288.79999999999995</ele><time>2026-04-29T16:00:13.658Z</time></trkpt><trkpt lat="45.747883" lon="11.6257008"><ele>292.2</ele><time>2026-04-29T16:00:15.624Z</time></trkpt><trkpt lat="45.7479746" lon="11.6258144"><ele>295.59999999999997</ele><time>2026-04-29T16:00:17.629Z</time></trkpt><trkpt lat="45.7480284" lon="11.6258652"><ele>299.0</ele><time>2026-04-29T16:00:18.601Z</time></trkpt><trkpt lat="45.7480915" lon="11.6259216"><ele>299.0</ele><time>2026-04-29T16:00:19.661Z</time></trkpt><trkpt lat="45.748153" lon="11.6259785"><ele>299.0</ele><time>2026-04-29T16:00:20.651Z</time></trkpt><trkpt lat="45.7482192" lon="11.6260583"><ele>299.0</ele><time>2026-04-29T16:00:21.662Z</time></trkpt><trkpt lat="45.7482889" lon="11.6261424"><ele>299.0</ele><time>2026-04-29T16:00:22.662Z</time></trkpt><trkpt lat="45.7483506" lon="11.6262313"><ele>299.0</ele><time>2026-04-29T16:00:23.622Z</time></trkpt><trkpt lat="45.7484025" lon="11.6263184"><ele>299.0</ele><time>2026-04-29T16:00:24.626Z</time></trkpt><trkpt lat="45.7484441" lon="11.6263873"><ele>299.0</ele><time>2026-04-29T16:00:25.67Z</time></trkpt><trkpt lat="45.7485111" lon="11.6264983"><ele>299.0</ele><time>2026-04-29T16:00:27.631Z</time></trkpt><trkpt lat="45.7485851" lon="11.6265138"><ele>299.0</ele><time>2026-04-29T16:00:29.673Z</time></trkpt><trkpt lat="45.7486051" lon="11.626409"><ele>299.0</ele><time>2026-04-29T16:00:31.656Z</time></trkpt><trkpt lat="45.7485734" lon="11.6263281"><ele>299.0</ele><time>2026-04-29T16:00:32.638Z</time></trkpt><trkpt lat="45.7485322" lon="11.6262427"><ele>299.0</ele><time>2026-04-29T16:00:33.629Z</time></trkpt><trkpt lat="45.7485034" lon="11.626133"><ele>299.0</ele><time>2026-04-29T16:00:34.706Z</time></trkpt><trkpt lat="45.7484947" lon="11.626024"><ele>299.0</ele><time>2026-04-29T16:00:35.626Z</time></trkpt><trkpt lat="45.7484774" lon="11.6259161"><ele>299.0</ele><time>2026-04-29T16:00:36.604Z</time></trkpt><trkpt lat="45.7484799" lon="11.6258164"><ele>299.0</ele><time>2026-04-29T16:00:37.641Z</time></trkpt><trkpt lat="45.7485097" lon="11.6257282"><ele>299.0</ele><time>2026-04-29T16:00:38.675Z</time></trkpt><trkpt lat="45.7485603" lon="11.6256587"><ele>299.0</ele><time>2026-04-29T16:00:39.652Z</time></trkpt><trkpt lat="45.7486216" lon="11.625609"><ele>299.0</ele><time>2026-04-29T16:00:40.657Z</time></trkpt><trkpt lat="45.7486864" lon="11.6255667"><ele>301.0</ele><time>2026-04-29T16:00:41.621Z</time></trkpt><trkpt lat="45.748761" lon="11.6255184"><ele>303.0</ele><time>2026-04-29T16:00:42.629Z</time></trkpt><trkpt lat="45.7488473" lon="11.6254817"><ele>305.0</ele><time>2026-04-29T16:00:43.668Z</time></trkpt><trkpt lat="45.7489452" lon="11.6254701"><ele>307.0</ele><time>2026-04-29T16:00:44.74Z</time></trkpt><trkpt lat="45.7490322" lon="11.6254762"><ele>309.0</ele><time>2026-04-29T16:00:45.664Z</time></trkpt><trkpt lat="45.7491293" lon="11.6254956"><ele>309.0</ele><time>2026-04-29T16:00:46.64Z</time></trkpt><trkpt lat="45.7492294" lon="11.6255184"><ele>309.0</ele><time>2026-04-29T16:00:47.625Z</time></trkpt><trkpt lat="45.7493329" lon="11.6255398"><ele>309.0</ele><time>2026-04-29T16:00:48.706Z</time></trkpt><trkpt lat="45.7494015" lon="11.6255534"><ele>309.0</ele><time>2026-04-29T16:00:49.632Z</time></trkpt><trkpt lat="45.7494693" lon="11.6255708"><ele>309.0</ele><time>2026-04-29T16:00:50.666Z</time></trkpt><trkpt lat="45.7495536" lon="11.6256078"><ele>309.0</ele><time>2026-04-29T16:00:51.881Z</time></trkpt><trkpt lat="45.7496717" lon="11.625717"><ele>310.6666666666667</ele><time>2026-04-29T16:00:53.606Z</time></trkpt><trkpt lat="45.7497527" lon="11.625804"><ele>312.3333333333333</ele><time>2026-04-29T16:00:54.647Z</time></trkpt><trkpt lat="45.7498336" lon="11.6258863"><ele>314.0</ele><time>2026-04-29T16:00:55.655Z</time></trkpt><trkpt lat="45.749895" lon="11.6259456"><ele>315.66666666666663</ele><time>2026-04-29T16:00:56.62Z</time></trkpt><trkpt lat="45.7499533" lon="11.6260019"><ele>317.3333333333333</ele><time>2026-04-29T16:00:57.619Z</time></trkpt><trkpt lat="45.7500194" lon="11.626066"><ele>319.0</ele><time>2026-04-29T16:00:58.658Z</time></trkpt><trkpt lat="45.7500892" lon="11.6261335"><ele>318.8333333333333</ele><time>2026-04-29T16:00:59.69Z</time></trkpt><trkpt lat="45.7501559" lon="11.6262008"><ele>318.66666666666663</ele><time>2026-04-29T16:01:00.677Z</time></trkpt><trkpt lat="45.750223" lon="11.6262769"><ele>318.5</ele><time>2026-04-29T16:01:01.67Z</time></trkpt><trkpt lat="45.7502846" lon="11.6263564"><ele>318.3333333333333</ele><time>2026-04-29T16:01:02.629Z</time></trkpt><trkpt lat="45.7503466" lon="11.626447"><ele>318.1666666666667</ele><time>2026-04-29T16:01:03.661Z</time></trkpt><trkpt lat="45.7504076" lon="11.6265414"><ele>318.0</ele><time>2026-04-29T16:01:04.657Z</time></trkpt><trkpt lat="45.7504493" lon="11.6266146"><ele>321.6666666666667</ele><time>2026-04-29T16:01:05.604Z</time></trkpt><trkpt lat="45.7504855" lon="11.626695"><ele>325.3333333333333</ele><time>2026-04-29T16:01:06.61Z</time></trkpt><trkpt lat="45.750516" lon="11.6267853"><ele>329.0</ele><time>2026-04-29T16:01:07.615Z</time></trkpt><trkpt lat="45.7505403" lon="11.6268837"><ele>332.66666666666663</ele><time>2026-04-29T16:01:08.618Z</time></trkpt><trkpt lat="45.750555" lon="11.6269932"><ele>336.3333333333333</ele><time>2026-04-29T16:01:09.597Z</time></trkpt><trkpt lat="45.7505609" lon="11.6270911"><ele>340.0</ele><time>2026-04-29T16:01:10.627Z</time></trkpt><trkpt lat="45.7505489" lon="11.6272274"><ele>340.66666666666663</ele><time>2026-04-29T16:01:12.585Z</time></trkpt><trkpt lat="45.7505297" lon="11.6273371"><ele>341.3333333333333</ele><time>2026-04-29T16:01:15.623Z</time></trkpt><trkpt lat="45.750524" lon="11.6274373"><ele>342.0</ele><time>2026-04-29T16:01:17.707Z</time></trkpt><trkpt lat="45.7504723" lon="11.6275972"><ele>342.6666666666667</ele><time>2026-04-29T16:01:19.673Z</time></trkpt><trkpt lat="45.750426" lon="11.6276774"><ele>343.33333333333337</ele><time>2026-04-29T16:01:20.658Z</time></trkpt><trkpt lat="45.7503742" lon="11.6277365"><ele>344.0</ele><time>2026-04-29T16:01:21.612Z</time></trkpt><trkpt lat="45.750319" lon="11.6277932"><ele>342.7142857142857</ele><time>2026-04-29T16:01:22.638Z</time></trkpt><trkpt lat="45.7502629" lon="11.6278454"><ele>341.42857142857144</ele><time>2026-04-29T16:01:23.632Z</time></trkpt><trkpt lat="45.7502026" lon="11.6278957"><ele>340.1428571428571</ele><time>2026-04-29T16:01:24.619Z</time></trkpt><trkpt lat="45.7501429" lon="11.6279428"><ele>338.8571428571429</ele><time>2026-04-29T16:01:25.623Z</time></trkpt><trkpt lat="45.7500793" lon="11.6279876"><ele>337.57142857142856</ele><time>2026-04-29T16:01:26.634Z</time></trkpt><trkpt lat="45.7500182" lon="11.6280316"><ele>336.2857142857143</ele><time>2026-04-29T16:01:27.635Z</time></trkpt><trkpt lat="45.7499549" lon="11.6280798"><ele>335.0</ele><time>2026-04-29T16:01:28.66Z</time></trkpt><trkpt lat="45.7498966" lon="11.6281188"><ele>335.0</ele><time>2026-04-29T16:01:29.603Z</time></trkpt><trkpt lat="45.7498318" lon="11.6281683"><ele>335.0</ele><time>2026-04-29T16:01:30.626Z</time></trkpt><trkpt lat="45.7497716" lon="11.6282169"><ele>335.0</ele><time>2026-04-29T16:01:31.621Z</time></trkpt><trkpt lat="45.7497128" lon="11.6282585"><ele>335.0</ele><time>2026-04-29T16:01:32.627Z</time></trkpt><trkpt lat="45.7496106" lon="11.6283363"><ele>335.0</ele><time>2026-04-29T16:01:34.587Z</time></trkpt><trkpt lat="45.7495026" lon="11.6284322"><ele>335.0</ele><time>2026-04-29T16:01:36.651Z</time></trkpt><trkpt lat="45.7494173" lon="11.6285713"><ele>335.0</ele><time>2026-04-29T16:01:38.664Z</time></trkpt><trkpt lat="45.7493833" lon="11.6286552"><ele>335.0</ele><time>2026-04-29T16:01:39.63Z</time></trkpt><trkpt lat="45.7493412" lon="11.6287294"><ele>335.0</ele><time>2026-04-29T16:01:40.614Z</time></trkpt><trkpt lat="45.7492881" lon="11.6287833"><ele>335.0</ele><time>2026-04-29T16:01:41.645Z</time></trkpt><trkpt lat="45.749225" lon="11.6288869"><ele>335.0</ele><time>2026-04-29T16:01:43.913Z</time></trkpt><trkpt lat="45.749254" lon="11.6289764"><ele>335.83333333333337</ele><time>2026-04-29T16:01:45.78Z</time></trkpt><trkpt lat="45.7493308" lon="11.628979"><ele>336.6666666666667</ele><time>2026-04-29T16:01:47.664Z</time></trkpt><trkpt lat="45.7494383" lon="11.6289228"><ele>337.5</ele><time>2026-04-29T16:01:49.657Z</time></trkpt><trkpt lat="45.7495033" lon="11.6288872"><ele>338.3333333333333</ele><time>2026-04-29T16:01:50.669Z</time></trkpt><trkpt lat="45.7495685" lon="11.6288597"><ele>339.16666666666663</ele><time>2026-04-29T16:01:51.624Z</time></trkpt><trkpt lat="45.7496369" lon="11.6288433"><ele>340.0</ele><time>2026-04-29T16:01:52.625Z</time></trkpt><trkpt lat="45.7497056" lon="11.6288421"><ele>340.0</ele><time>2026-04-29T16:01:53.619Z</time></trkpt><trkpt lat="45.7497808" lon="11.6288317"><ele>340.0</ele><time>2026-04-29T16:01:54.63Z</time></trkpt><trkpt lat="45.7498733" lon="11.628808"><ele>340.0</ele><time>2026-04-29T16:01:55.726Z</time></trkpt><trkpt lat="45.7499504" lon="11.6287895"><ele>340.0</ele><time>2026-04-29T16:01:56.654Z</time></trkpt><trkpt lat="45.7500342" lon="11.6287765"><ele>340.0</ele><time>2026-04-29T16:01:57.654Z</time></trkpt><trkpt lat="45.7501244" lon="11.6287717"><ele>340.0</ele><time>2026-04-29T16:01:58.702Z</time></trkpt><trkpt lat="45.7502072" lon="11.6287624"><ele>342.16666666666663</ele><time>2026-04-29T16:01:59.632Z</time></trkpt><trkpt lat="45.7503006" lon="11.6287527"><ele>344.3333333333333</ele><time>2026-04-29T16:02:00.667Z</time></trkpt><trkpt lat="45.75039" lon="11.6287468"><ele>346.5</ele><time>2026-04-29T16:02:01.661Z</time></trkpt><trkpt lat="45.7504868" lon="11.6287606"><ele>348.6666666666667</ele><time>2026-04-29T16:02:02.783Z</time></trkpt><trkpt lat="45.7505632" lon="11.628804"><ele>350.83333333333337</ele><time>2026-04-29T16:02:03.776Z</time></trkpt><trkpt lat="45.7506227" lon="11.6288555"><ele>353.0</ele><time>2026-04-29T16:02:04.7Z</time></trkpt><trkpt lat="45.7506939" lon="11.62892"><ele>353.0</ele><time>2026-04-29T16:02:06.664Z</time></trkpt><trkpt lat="45.7507475" lon="11.6289817"><ele>353.0</ele><time>2026-04-29T16:02:10.652Z</time></trkpt><trkpt lat="45.7507975" lon="11.6290604"><ele>353.0</ele><time>2026-04-29T16:02:38.736Z</time></trkpt><trkpt lat="45.7508459" lon="11.6291585"><ele>353.0</ele><time>2026-04-29T16:02:40.616Z</time></trkpt><trkpt lat="45.7508747" lon="11.6292564"><ele>353.0</ele><time>2026-04-29T16:02:42.63Z</time></trkpt><trkpt lat="45.750893" lon="11.6293524"><ele>353.0</ele><time>2026-04-29T16:02:44.676Z</time></trkpt><trkpt lat="45.7509323" lon="11.6294512"><ele>353.0</ele><time>2026-04-29T16:02:56.772Z</time></trkpt><trkpt lat="45.7509967" lon="11.6294485"><ele>353.0</ele><time>2026-04-29T16:02:58.652Z</time></trkpt><trkpt lat="45.7511075" lon="11.6293865"><ele>353.0</ele><time>2026-04-29T16:03:00.755Z</time></trkpt><trkpt lat="45.7511873" lon="11.6293275"><ele>353.0</ele><time>2026-04-29T16:03:02.663Z</time></trkpt><trkpt lat="45.7512892" lon="11.6293097"><ele>353.0</ele><time>2026-04-29T16:03:04.643Z</time></trkpt><trkpt lat="45.7513584" lon="11.6293047"><ele>353.0</ele><time>2026-04-29T16:03:05.788Z</time></trkpt><trkpt lat="45.7514865" lon="11.629313"><ele>352.0</ele><time>2026-04-29T16:03:07.817Z</time></trkpt><trkpt lat="45.7515959" lon="11.629397"><ele>351.0</ele><time>2026-04-29T16:03:09.7Z</time></trkpt><trkpt lat="45.7516478" lon="11.6294638"><ele>350.0</ele><time>2026-04-29T16:03:10.736Z</time></trkpt><trkpt lat="45.7516963" lon="11.6295381"><ele>349.0</ele><time>2026-04-29T16:03:11.792Z</time></trkpt><trkpt lat="45.7517795" lon="11.6296616"><ele>348.0</ele><time>2026-04-29T16:03:13.718Z</time></trkpt><trkpt lat="45.7518581" lon="11.6297798"><ele>347.79999999999995</ele><time>2026-04-29T16:03:15.71Z</time></trkpt><trkpt lat="45.751931" lon="11.6299001"><ele>347.6</ele><time>2026-04-29T16:03:17.699Z</time></trkpt><trkpt lat="45.752033" lon="11.6300067"><ele>347.4</ele><time>2026-04-29T16:03:19.791Z</time></trkpt><trkpt lat="45.7520941" lon="11.630041"><ele>347.20000000000005</ele><time>2026-04-29T16:03:20.727Z</time></trkpt><trkpt lat="45.7521734" lon="11.6300677"><ele>347.0</ele><time>2026-04-29T16:03:21.782Z</time></trkpt><trkpt lat="45.7522549" lon="11.6300771"><ele>347.0</ele><time>2026-04-29T16:03:22.821Z</time></trkpt><trkpt lat="45.7523218" lon="11.6300718"><ele>347.0</ele><time>2026-04-29T16:03:23.777Z</time></trkpt><trkpt lat="45.7523873" lon="11.6300623"><ele>347.0</ele><time>2026-04-29T16:03:24.761Z</time></trkpt><trkpt lat="45.7524519" lon="11.6300656"><ele>347.0</ele><time>2026-04-29T16:03:25.73Z</time></trkpt><trkpt lat="45.7525152" lon="11.6300843"><ele>347.0</ele><time>2026-04-29T16:03:26.781Z</time></trkpt><trkpt lat="45.7526357" lon="11.6301152"><ele>347.0</ele><time>2026-04-29T16:03:28.746Z</time></trkpt><trkpt lat="45.7527042" lon="11.6301231"><ele>346.33333333333337</ele><time>2026-04-29T16:03:29.712Z</time></trkpt><trkpt lat="45.7527818" lon="11.630126"><ele>345.6666666666667</ele><time>2026-04-29T16:03:30.747Z</time></trkpt><trkpt lat="45.7528459" lon="11.6301279"><ele>345.0</ele><time>2026-04-29T16:03:31.712Z</time></trkpt><trkpt lat="45.7529267" lon="11.6301188"><ele>344.3333333333333</ele><time>2026-04-29T16:03:32.802Z</time></trkpt><trkpt lat="45.7529968" lon="11.6301055"><ele>343.66666666666663</ele><time>2026-04-29T16:03:33.734Z</time></trkpt><trkpt lat="45.7530757" lon="11.6300686"><ele>343.0</ele><time>2026-04-29T16:03:34.861Z</time></trkpt><trkpt lat="45.7532041" lon="11.6299407"><ele>343.0</ele><time>2026-04-29T16:03:36.761Z</time></trkpt><trkpt lat="45.7533051" lon="11.6298026"><ele>343.0</ele><time>2026-04-29T16:03:38.859Z</time></trkpt><trkpt lat="45.7533857" lon="11.6296388"><ele>343.0</ele><time>2026-04-29T16:03:40.835Z</time></trkpt><trkpt lat="45.75347" lon="11.6294728"><ele>343.0</ele><time>2026-04-29T16:03:42.81Z</time></trkpt><trkpt lat="45.7535189" lon="11.6293965"><ele>338.59999999999997</ele><time>2026-04-29T16:03:43.891Z</time></trkpt><trkpt lat="45.7536039" lon="11.6293264"><ele>334.2</ele><time>2026-04-29T16:03:45.709Z</time></trkpt><trkpt lat="45.7536715" lon="11.6293405"><ele>329.8</ele><time>2026-04-29T16:03:46.771Z</time></trkpt><trkpt lat="45.7537516" lon="11.6293822"><ele>325.4</ele><time>2026-04-29T16:03:47.868Z</time></trkpt><trkpt lat="45.7538906" lon="11.6294558"><ele>321.0</ele><time>2026-04-29T16:03:49.743Z</time></trkpt><trkpt lat="45.7539687" lon="11.6294955"><ele>321.0</ele><time>2026-04-29T16:03:50.728Z</time></trkpt><trkpt lat="45.7540471" lon="11.6295321"><ele>321.0</ele><time>2026-04-29T16:03:51.718Z</time></trkpt><trkpt lat="45.7541223" lon="11.6295752"><ele>321.0</ele><time>2026-04-29T16:03:52.719Z</time></trkpt><trkpt lat="45.7541834" lon="11.6296332"><ele>321.0</ele><time>2026-04-29T16:03:53.771Z</time></trkpt><trkpt lat="45.7542286" lon="11.6297134"><ele>321.0</ele><time>2026-04-29T16:03:54.824Z</time></trkpt><trkpt lat="45.7542519" lon="11.6298937"><ele>321.0</ele><time>2026-04-29T16:03:56.757Z</time></trkpt><trkpt lat="45.7542676" lon="11.6300701"><ele>321.0</ele><time>2026-04-29T16:03:58.734Z</time></trkpt><trkpt lat="45.7543346" lon="11.6302308"><ele>321.0</ele><time>2026-04-29T16:04:00.744Z</time></trkpt><trkpt lat="45.7543718" lon="11.630304"><ele>321.0</ele><time>2026-04-29T16:04:01.774Z</time></trkpt><trkpt lat="45.7544049" lon="11.6304287"><ele>321.0</ele><time>2026-04-29T16:04:03.772Z</time></trkpt><trkpt lat="45.7543742" lon="11.6305609"><ele>321.0</ele><time>2026-04-29T16:04:05.791Z</time></trkpt><trkpt lat="45.754327" lon="11.630694"><ele>320.1666666666667</ele><time>2026-04-29T16:04:07.784Z</time></trkpt><trkpt lat="45.7542812" lon="11.6308163"><ele>319.3333333333333</ele><time>2026-04-29T16:04:09.786Z</time></trkpt><trkpt lat="45.7542414" lon="11.6309164"><ele>318.5</ele><time>2026-04-29T16:04:11.799Z</time></trkpt><trkpt lat="45.7542256" lon="11.631009"><ele>317.66666666666663</ele><time>2026-04-29T16:04:13.779Z</time></trkpt><trkpt lat="45.7542834" lon="11.631049"><ele>316.8333333333333</ele><time>2026-04-29T16:04:15.783Z</time></trkpt><trkpt lat="45.7543545" lon="11.6309969"><ele>316.0</ele><time>2026-04-29T16:04:17.794Z</time></trkpt><trkpt lat="45.7544309" lon="11.6309185"><ele>311.66666666666663</ele><time>2026-04-29T16:04:19.765Z</time></trkpt><trkpt lat="45.7545382" lon="11.6308362"><ele>307.3333333333333</ele><time>2026-04-29T16:04:21.734Z</time></trkpt><trkpt lat="45.7546122" lon="11.6308061"><ele>303.0</ele><time>2026-04-29T16:04:22.797Z</time></trkpt><trkpt lat="45.7546927" lon="11.6308071"><ele>298.6666666666667</ele><time>2026-04-29T16:04:23.778Z</time></trkpt><trkpt lat="45.7547755" lon="11.6308317"><ele>294.33333333333337</ele><time>2026-04-29T16:04:24.773Z</time></trkpt><trkpt lat="45.7548564" lon="11.6308675"><ele>290.0</ele><time>2026-04-29T16:04:25.767Z</time></trkpt><trkpt lat="45.7549401" lon="11.6308981"><ele>290.0</ele><time>2026-04-29T16:04:26.772Z</time></trkpt><trkpt lat="45.7550233" lon="11.6309261"><ele>290.0</ele><time>2026-04-29T16:04:27.788Z</time></trkpt><trkpt lat="45.7551022" lon="11.6309567"><ele>290.0</ele><time>2026-04-29T16:04:28.809Z</time></trkpt><trkpt lat="45.7551789" lon="11.6309894"><ele>290.0</ele><time>2026-04-29T16:04:29.808Z</time></trkpt><trkpt lat="45.7552484" lon="11.6310183"><ele>290.0</ele><time>2026-04-29T16:04:30.788Z</time></trkpt><trkpt lat="45.7553207" lon="11.6310502"><ele>290.0</ele><time>2026-04-29T16:04:31.769Z</time></trkpt><trkpt lat="45.7553961" lon="11.6310903"><ele>288.33333333333337</ele><time>2026-04-29T16:04:32.788Z</time></trkpt><trkpt lat="45.7554685" lon="11.6311278"><ele>286.6666666666667</ele><time>2026-04-29T16:04:33.749Z</time></trkpt><trkpt lat="45.7555425" lon="11.6311598"><ele>285.0</ele><time>2026-04-29T16:04:34.761Z</time></trkpt><trkpt lat="45.7556148" lon="11.6311928"><ele>283.3333333333333</ele><time>2026-04-29T16:04:35.813Z</time></trkpt><trkpt lat="45.7556821" lon="11.6312219"><ele>281.66666666666663</ele><time>2026-04-29T16:04:36.757Z</time></trkpt><trkpt lat="45.7557561" lon="11.631246"><ele>280.0</ele><time>2026-04-29T16:04:37.874Z</time></trkpt><trkpt lat="45.7558261" lon="11.6312775"><ele>280.0</ele><time>2026-04-29T16:04:38.776Z</time></trkpt><trkpt lat="45.7559011" lon="11.631309"><ele>280.0</ele><time>2026-04-29T16:04:39.802Z</time></trkpt><trkpt lat="45.7559597" lon="11.6313522"><ele>280.0</ele><time>2026-04-29T16:04:40.782Z</time></trkpt><trkpt lat="45.7560348" lon="11.6314573"><ele>280.0</ele><time>2026-04-29T16:04:42.791Z</time></trkpt><trkpt lat="45.7560378" lon="11.6315843"><ele>280.0</ele><time>2026-04-29T16:04:44.872Z</time></trkpt><trkpt lat="45.7560079" lon="11.6316707"><ele>280.0</ele><time>2026-04-29T16:04:50.83Z</time></trkpt><trkpt lat="45.7559408" lon="11.6317676"><ele>280.0</ele><time>2026-04-29T16:04:56.914Z</time></trkpt><trkpt lat="45.7558417" lon="11.6318293"><ele>280.0</ele><time>2026-04-29T16:04:58.798Z</time></trkpt><trkpt lat="45.7557247" lon="11.6318393"><ele>280.0</ele><time>2026-04-29T16:05:00.796Z</time></trkpt><trkpt lat="45.7556596" lon="11.6318113"><ele>280.0</ele><time>2026-04-29T16:05:01.809Z</time></trkpt><trkpt lat="45.7555968" lon="11.6317817"><ele>280.0</ele><time>2026-04-29T16:05:02.784Z</time></trkpt><trkpt lat="45.75553" lon="11.6317543"><ele>280.0</ele><time>2026-04-29T16:05:03.727Z</time></trkpt><trkpt lat="45.7554531" lon="11.6317254"><ele>280.0</ele><time>2026-04-29T16:05:04.783Z</time></trkpt><trkpt lat="45.7553793" lon="11.6317056"><ele>280.0</ele><time>2026-04-29T16:05:05.762Z</time></trkpt><trkpt lat="45.7552996" lon="11.6316949"><ele>280.0</ele><time>2026-04-29T16:05:06.77Z</time></trkpt><trkpt lat="45.7552143" lon="11.631693"><ele>280.0</ele><time>2026-04-29T16:05:07.819Z</time></trkpt><trkpt lat="45.7551421" lon="11.631696"><ele>280.0</ele><time>2026-04-29T16:05:08.747Z</time></trkpt><trkpt lat="45.7550639" lon="11.6317095"><ele>280.0</ele><time>2026-04-29T16:05:09.789Z</time></trkpt><trkpt lat="45.7549933" lon="11.6317476"><ele>279.57142857142856</ele><time>2026-04-29T16:05:10.803Z</time></trkpt><trkpt lat="45.7549342" lon="11.6318056"><ele>279.1428571428571</ele><time>2026-04-29T16:05:11.767Z</time></trkpt><trkpt lat="45.7548846" lon="11.6318804"><ele>278.7142857142857</ele><time>2026-04-29T16:05:12.732Z</time></trkpt><trkpt lat="45.7548383" lon="11.6319659"><ele>278.2857142857143</ele><time>2026-04-29T16:05:13.758Z</time></trkpt><trkpt lat="45.7548043" lon="11.6320559"><ele>277.85714285714283</ele><time>2026-04-29T16:05:14.765Z</time></trkpt><trkpt lat="45.7547869" lon="11.6321463"><ele>277.42857142857144</ele><time>2026-04-29T16:05:15.793Z</time></trkpt><trkpt lat="45.7547671" lon="11.6322453"><ele>277.0</ele><time>2026-04-29T16:05:16.792Z</time></trkpt><trkpt lat="45.7547518" lon="11.632351"><ele>274.0</ele><time>2026-04-29T16:05:17.758Z</time></trkpt><trkpt lat="45.7547378" lon="11.6324789"><ele>271.0</ele><time>2026-04-29T16:05:18.752Z</time></trkpt><trkpt lat="45.7547324" lon="11.6325959"><ele>268.0</ele><time>2026-04-29T16:05:19.743Z</time></trkpt><trkpt lat="45.7547277" lon="11.6327058"><ele>265.0</ele><time>2026-04-29T16:05:20.752Z</time></trkpt><trkpt lat="45.7547282" lon="11.6328105"><ele>262.0</ele><time>2026-04-29T16:05:21.743Z</time></trkpt><trkpt lat="45.7547317" lon="11.6329186"><ele>259.0</ele><time>2026-04-29T16:05:22.729Z</time></trkpt><trkpt lat="45.7547433" lon="11.6330346"><ele>257.0</ele><time>2026-04-29T16:05:23.752Z</time></trkpt><trkpt lat="45.7547506" lon="11.6331467"><ele>254.99999999999997</ele><time>2026-04-29T16:05:24.723Z</time></trkpt><trkpt lat="45.754778" lon="11.6332834"><ele>252.99999999999997</ele><time>2026-04-29T16:05:25.887Z</time></trkpt><trkpt lat="45.7548418" lon="11.6335078"><ele>251.0</ele><time>2026-04-29T16:05:27.743Z</time></trkpt><trkpt lat="45.7548901" lon="11.6336224"><ele>249.0</ele><time>2026-04-29T16:05:28.734Z</time></trkpt><trkpt lat="45.7549489" lon="11.6337314"><ele>248.2</ele><time>2026-04-29T16:05:29.753Z</time></trkpt><trkpt lat="45.7550103" lon="11.6338443"><ele>247.39999999999998</ele><time>2026-04-29T16:05:30.774Z</time></trkpt><trkpt lat="45.7550706" lon="11.6339583"><ele>246.6</ele><time>2026-04-29T16:05:31.77Z</time></trkpt><trkpt lat="45.755123" lon="11.6340676"><ele>245.8</ele><time>2026-04-29T16:05:32.705Z</time></trkpt><trkpt lat="45.7551829" lon="11.6341893"><ele>245.0</ele><time>2026-04-29T16:05:33.768Z</time></trkpt><trkpt lat="45.755242" lon="11.634302"><ele>245.8</ele><time>2026-04-29T16:05:34.76Z</time></trkpt><trkpt lat="45.755301" lon="11.6344163"><ele>246.6</ele><time>2026-04-29T16:05:35.787Z</time></trkpt><trkpt lat="45.7553563" lon="11.6345226"><ele>247.39999999999998</ele><time>2026-04-29T16:05:36.754Z</time></trkpt><trkpt lat="45.7554122" lon="11.6346328"><ele>248.2</ele><time>2026-04-29T16:05:37.75Z</time></trkpt><trkpt lat="45.7554612" lon="11.6347449"><ele>249.0</ele><time>2026-04-29T16:05:38.78Z</time></trkpt><trkpt lat="45.755503" lon="11.63485"><ele>249.0</ele><time>2026-04-29T16:05:39.788Z</time></trkpt><trkpt lat="45.7555374" lon="11.6349426"><ele>249.0</ele><time>2026-04-29T16:05:40.733Z</time></trkpt><trkpt lat="45.7555732" lon="11.6350372"><ele>249.0</ele><time>2026-04-29T16:05:41.793Z</time></trkpt><trkpt lat="45.7556318" lon="11.6351856"><ele>249.0</ele><time>2026-04-29T16:05:43.75Z</time></trkpt><trkpt lat="45.7556636" lon="11.6352717"><ele>249.0</ele><time>2026-04-29T16:05:44.748Z</time></trkpt><trkpt lat="45.7556975" lon="11.6353653"><ele>249.0</ele><time>2026-04-29T16:05:45.736Z</time></trkpt><trkpt lat="45.7557426" lon="11.6354606"><ele>248.33333333333334</ele><time>2026-04-29T16:05:46.752Z</time></trkpt><trkpt lat="45.7557995" lon="11.6355437"><ele>247.66666666666669</ele><time>2026-04-29T16:05:47.728Z</time></trkpt><trkpt lat="45.755868" lon="11.6356196"><ele>247.0</ele><time>2026-04-29T16:05:48.784Z</time></trkpt><trkpt lat="45.7559366" lon="11.6356858"><ele>246.33333333333334</ele><time>2026-04-29T16:05:49.803Z</time></trkpt><trkpt lat="45.7559938" lon="11.6357508"><ele>245.66666666666669</ele><time>2026-04-29T16:05:50.734Z</time></trkpt><trkpt lat="45.7560553" lon="11.6358281"><ele>245.0</ele><time>2026-04-29T16:05:51.79Z</time></trkpt><trkpt lat="45.7561126" lon="11.6358986"><ele>243.66666666666669</ele><time>2026-04-29T16:05:52.742Z</time></trkpt><trkpt lat="45.7561761" lon="11.6359705"><ele>242.33333333333334</ele><time>2026-04-29T16:05:53.768Z</time></trkpt><trkpt lat="45.7562396" lon="11.6360487"><ele>241.0</ele><time>2026-04-29T16:05:54.853Z</time></trkpt><trkpt lat="45.7563049" lon="11.6361188"><ele>239.66666666666669</ele><time>2026-04-29T16:05:55.829Z</time></trkpt><trkpt lat="45.756375" lon="11.6361869"><ele>238.33333333333334</ele><time>2026-04-29T16:05:56.792Z</time></trkpt><trkpt lat="45.7564505" lon="11.6362492"><ele>237.0</ele><time>2026-04-29T16:05:57.774Z</time></trkpt><trkpt lat="45.756525" lon="11.6363151"><ele>236.99999999999997</ele><time>2026-04-29T16:05:58.782Z</time></trkpt><trkpt lat="45.7566006" lon="11.6363667"><ele>237.0</ele><time>2026-04-29T16:05:59.784Z</time></trkpt><trkpt lat="45.7566745" lon="11.6363896"><ele>236.99999999999997</ele><time>2026-04-29T16:06:00.773Z</time></trkpt><trkpt lat="45.7567337" lon="11.6364248"><ele>236.99999999999997</ele><time>2026-04-29T16:06:01.73Z</time></trkpt><trkpt lat="45.7567834" lon="11.6364879"><ele>237.0</ele><time>2026-04-29T16:06:02.841Z</time></trkpt><trkpt lat="45.7568154" lon="11.6365769"><ele>236.99999999999997</ele><time>2026-04-29T16:06:03.766Z</time></trkpt><trkpt lat="45.7568445" lon="11.6366687"><ele>236.99999999999997</ele><time>2026-04-29T16:06:04.755Z</time></trkpt><trkpt lat="45.756882" lon="11.6367626"><ele>235.66666666666666</ele><time>2026-04-29T16:06:05.727Z</time></trkpt><trkpt lat="45.756925" lon="11.6368634"><ele>234.33333333333331</ele><time>2026-04-29T16:06:06.732Z</time></trkpt><trkpt lat="45.7569882" lon="11.6369651"><ele>233.0</ele><time>2026-04-29T16:06:07.775Z</time></trkpt><trkpt lat="45.7570523" lon="11.6370335"><ele>231.66666666666666</ele><time>2026-04-29T16:06:08.749Z</time></trkpt><trkpt lat="45.7571084" lon="11.6370993"><ele>230.33333333333331</ele><time>2026-04-29T16:06:09.75Z</time></trkpt><trkpt lat="45.7571555" lon="11.6371753"><ele>229.0</ele><time>2026-04-29T16:06:10.746Z</time></trkpt><trkpt lat="45.7571632" lon="11.6372802"><ele>228.99999999999997</ele><time>2026-04-29T16:06:11.734Z</time></trkpt><trkpt lat="45.7571667" lon="11.6374837"><ele>229.0</ele><time>2026-04-29T16:06:13.758Z</time></trkpt><trkpt lat="45.7571814" lon="11.637593"><ele>229.0</ele><time>2026-04-29T16:06:14.777Z</time></trkpt><trkpt lat="45.7572183" lon="11.6376948"><ele>229.0</ele><time>2026-04-29T16:06:15.718Z</time></trkpt><trkpt lat="45.7572676" lon="11.6377821"><ele>228.99999999999997</ele><time>2026-04-29T16:06:16.763Z</time></trkpt><trkpt lat="45.7573312" lon="11.6378164"><ele>229.0</ele><time>2026-04-29T16:06:17.747Z</time></trkpt><trkpt lat="45.7574095" lon="11.6378515"><ele>229.2</ele><time>2026-04-29T16:06:18.751Z</time></trkpt><trkpt lat="45.7574812" lon="11.6378898"><ele>229.39999999999998</ele><time>2026-04-29T16:06:19.835Z</time></trkpt><trkpt lat="45.7576047" lon="11.6379599"><ele>229.6</ele><time>2026-04-29T16:06:21.723Z</time></trkpt><trkpt lat="45.7577129" lon="11.638012"><ele>229.8</ele><time>2026-04-29T16:06:23.717Z</time></trkpt><trkpt lat="45.7578088" lon="11.6380382"><ele>230.0</ele><time>2026-04-29T16:06:25.729Z</time></trkpt><trkpt lat="45.7579159" lon="11.6380413"><ele>230.33333333333334</ele><time>2026-04-29T16:06:27.803Z</time></trkpt><trkpt lat="45.7579832" lon="11.6380572"><ele>230.66666666666669</ele><time>2026-04-29T16:06:28.744Z</time></trkpt><trkpt lat="45.758053" lon="11.6380672"><ele>231.0</ele><time>2026-04-29T16:06:29.764Z</time></trkpt><trkpt lat="45.7581741" lon="11.6380964"><ele>231.33333333333331</ele><time>2026-04-29T16:06:31.811Z</time></trkpt><trkpt lat="45.7582423" lon="11.6381232"><ele>231.66666666666666</ele><time>2026-04-29T16:06:32.784Z</time></trkpt><trkpt lat="45.7583175" lon="11.6381803"><ele>232.0</ele><time>2026-04-29T16:06:33.836Z</time></trkpt><trkpt lat="45.7583765" lon="11.6382483"><ele>232.0</ele><time>2026-04-29T16:06:34.753Z</time></trkpt><trkpt lat="45.7584238" lon="11.6383411"><ele>232.0</ele><time>2026-04-29T16:06:35.763Z</time></trkpt><trkpt lat="45.758458" lon="11.6384474"><ele>232.0</ele><time>2026-04-29T16:06:36.785Z</time></trkpt><trkpt lat="45.7584753" lon="11.6385601"><ele>232.0</ele><time>2026-04-29T16:06:37.768Z</time></trkpt><trkpt lat="45.7585029" lon="11.638682"><ele>232.0</ele><time>2026-04-29T16:06:38.883Z</time></trkpt><trkpt lat="45.7585254" lon="11.6389171"><ele>232.75</ele><time>2026-04-29T16:06:40.793Z</time></trkpt><trkpt lat="45.7585425" lon="11.6390669"><ele>233.5</ele><time>2026-04-29T16:06:41.957Z</time></trkpt><trkpt lat="45.7585821" lon="11.6392963"><ele>234.25</ele><time>2026-04-29T16:06:43.786Z</time></trkpt><trkpt lat="45.7586072" lon="11.6394419"><ele>235.0</ele><time>2026-04-29T16:06:44.928Z</time></trkpt><trkpt lat="45.7586486" lon="11.6396674"><ele>234.99999999999997</ele><time>2026-04-29T16:06:46.755Z</time></trkpt><trkpt lat="45.7586671" lon="11.6397899"><ele>235.0</ele><time>2026-04-29T16:06:47.767Z</time></trkpt><trkpt lat="45.7586848" lon="11.6399108"><ele>235.0</ele><time>2026-04-29T16:06:48.77Z</time></trkpt><trkpt lat="45.7587018" lon="11.6400226"><ele>235.0</ele><time>2026-04-29T16:06:49.771Z</time></trkpt><trkpt lat="45.7587189" lon="11.640131"><ele>234.99999999999997</ele><time>2026-04-29T16:06:50.767Z</time></trkpt><trkpt lat="45.7587433" lon="11.6402632"><ele>235.0</ele><time>2026-04-29T16:06:51.903Z</time></trkpt><trkpt lat="45.7587854" lon="11.6404825"><ele>234.8</ele><time>2026-04-29T16:06:53.732Z</time></trkpt><trkpt lat="45.7588149" lon="11.6406149"><ele>234.6</ele><time>2026-04-29T16:06:54.797Z</time></trkpt><trkpt lat="45.7588401" lon="11.6407556"><ele>234.39999999999998</ele><time>2026-04-29T16:06:55.822Z</time></trkpt><trkpt lat="45.758855" lon="11.6408936"><ele>234.2</ele><time>2026-04-29T16:06:56.772Z</time></trkpt><trkpt lat="45.7588633" lon="11.6410409"><ele>234.0</ele><time>2026-04-29T16:06:57.774Z</time></trkpt><trkpt lat="45.758868" lon="11.6411935"><ele>233.66666666666666</ele><time>2026-04-29T16:06:58.818Z</time></trkpt><trkpt lat="45.7588758" lon="11.6413231"><ele>233.33333333333331</ele><time>2026-04-29T16:06:59.768Z</time></trkpt><trkpt lat="45.7588816" lon="11.6414599"><ele>233.0</ele><time>2026-04-29T16:07:00.862Z</time></trkpt><trkpt lat="45.7588849" lon="11.6415977"><ele>232.66666666666666</ele><time>2026-04-29T16:07:02.325Z</time></trkpt><trkpt lat="45.7588896" lon="11.6416956"><ele>232.33333333333331</ele><time>2026-04-29T16:07:03.325Z</time></trkpt><trkpt lat="45.758895" lon="11.6417878"><ele>232.0</ele><time>2026-04-29T16:07:04.325Z</time></trkpt><trkpt lat="45.7589028" lon="11.6419714"><ele>230.75</ele><time>2026-04-29T16:07:06.871Z</time></trkpt><trkpt lat="45.7589248" lon="11.6422206"><ele>229.5</ele><time>2026-04-29T16:07:08.734Z</time></trkpt><trkpt lat="45.7589426" lon="11.6423592"><ele>228.25</ele><time>2026-04-29T16:07:09.754Z</time></trkpt><trkpt lat="45.7589643" lon="11.6424912"><ele>227.0</ele><time>2026-04-29T16:07:10.792Z</time></trkpt><trkpt lat="45.7589867" lon="11.6426124"><ele>227.0</ele><time>2026-04-29T16:07:11.775Z</time></trkpt><trkpt lat="45.759009" lon="11.6427329"><ele>227.0</ele><time>2026-04-29T16:07:12.77Z</time></trkpt><trkpt lat="45.7590301" lon="11.6428501"><ele>227.0</ele><time>2026-04-29T16:07:13.756Z</time></trkpt><trkpt lat="45.7590631" lon="11.6430785"><ele>227.0</ele><time>2026-04-29T16:07:15.643Z</time></trkpt><trkpt lat="45.7590716" lon="11.6432073"><ele>227.0</ele><time>2026-04-29T16:07:16.663Z</time></trkpt><trkpt lat="45.7590586" lon="11.6433393"><ele>224.2</ele><time>2026-04-29T16:07:17.657Z</time></trkpt><trkpt lat="45.7590346" lon="11.643471"><ele>221.39999999999998</ele><time>2026-04-29T16:07:18.628Z</time></trkpt><trkpt lat="45.7590049" lon="11.6435841"><ele>218.60000000000002</ele><time>2026-04-29T16:07:19.61Z</time></trkpt><trkpt lat="45.7589773" lon="11.6436658"><ele>215.8</ele><time>2026-04-29T16:07:20.631Z</time></trkpt><trkpt lat="45.7588849" lon="11.6437722"><ele>213.0</ele><time>2026-04-29T16:07:22.654Z</time></trkpt><trkpt lat="45.7587817" lon="11.6437024"><ele>213.0</ele><time>2026-04-29T16:07:24.634Z</time></trkpt><trkpt lat="45.7587294" lon="11.6436462"><ele>213.0</ele><time>2026-04-29T16:07:25.644Z</time></trkpt><trkpt lat="45.7586671" lon="11.643573"><ele>213.0</ele><time>2026-04-29T16:07:26.639Z</time></trkpt><trkpt lat="45.7586003" lon="11.6434933"><ele>213.0</ele><time>2026-04-29T16:07:27.636Z</time></trkpt><trkpt lat="45.7585311" lon="11.6434073"><ele>213.0</ele><time>2026-04-29T16:07:28.622Z</time></trkpt><trkpt lat="45.7584592" lon="11.6433167"><ele>213.0</ele><time>2026-04-29T16:07:29.708Z</time></trkpt><trkpt lat="45.7584051" lon="11.6432387"><ele>212.0</ele><time>2026-04-29T16:07:30.646Z</time></trkpt><trkpt lat="45.7583493" lon="11.6431508"><ele>211.0</ele><time>2026-04-29T16:07:31.634Z</time></trkpt><trkpt lat="45.758298" lon="11.643059"><ele>210.0</ele><time>2026-04-29T16:07:32.63Z</time></trkpt><trkpt lat="45.758247" lon="11.6429563"><ele>209.0</ele><time>2026-04-29T16:07:33.613Z</time></trkpt><trkpt lat="45.7581935" lon="11.642838"><ele>208.0</ele><time>2026-04-29T16:07:34.652Z</time></trkpt><trkpt lat="45.7581393" lon="11.6427248"><ele>207.0</ele><time>2026-04-29T16:07:35.64Z</time></trkpt><trkpt lat="45.7580897" lon="11.6426187"><ele>207.0</ele><time>2026-04-29T16:07:36.642Z</time></trkpt><trkpt lat="45.75804" lon="11.6425056"><ele>207.0</ele><time>2026-04-29T16:07:37.737Z</time></trkpt><trkpt lat="45.7579996" lon="11.6424167"><ele>207.0</ele><time>2026-04-29T16:07:38.653Z</time></trkpt><trkpt lat="45.7579639" lon="11.6423276"><ele>207.0</ele><time>2026-04-29T16:07:39.609Z</time></trkpt><trkpt lat="45.7579274" lon="11.6422371"><ele>207.0</ele><time>2026-04-29T16:07:40.655Z</time></trkpt><trkpt lat="45.7578367" lon="11.6421611"><ele>207.0</ele><time>2026-04-29T16:07:42.687Z</time></trkpt><trkpt lat="45.7577809" lon="11.6422516"><ele>207.0</ele><time>2026-04-29T16:07:44.613Z</time></trkpt><trkpt lat="45.7577774" lon="11.6424168"><ele>207.0</ele><time>2026-04-29T16:07:46.633Z</time></trkpt><trkpt lat="45.7577847" lon="11.6425233"><ele>207.0</ele><time>2026-04-29T16:07:47.625Z</time></trkpt><trkpt lat="45.757798" lon="11.6426493"><ele>207.0</ele><time>2026-04-29T16:07:48.68Z</time></trkpt><trkpt lat="45.7578116" lon="11.6427834"><ele>207.0</ele><time>2026-04-29T16:07:49.721Z</time></trkpt><trkpt lat="45.7578228" lon="11.6429116"><ele>205.2</ele><time>2026-04-29T16:07:50.655Z</time></trkpt><trkpt lat="45.7578349" lon="11.6430447"><ele>203.39999999999998</ele><time>2026-04-29T16:07:51.628Z</time></trkpt><trkpt lat="45.7578537" lon="11.6432054"><ele>201.60000000000002</ele><time>2026-04-29T16:07:52.757Z</time></trkpt><trkpt lat="45.7578723" lon="11.643345"><ele>199.8</ele><time>2026-04-29T16:07:53.676Z</time></trkpt><trkpt lat="45.7578905" lon="11.6434894"><ele>198.0</ele><time>2026-04-29T16:07:54.628Z</time></trkpt><trkpt lat="45.7579124" lon="11.6436409"><ele>196.0</ele><time>2026-04-29T16:07:55.629Z</time></trkpt><trkpt lat="45.7579391" lon="11.6437894"><ele>194.0</ele><time>2026-04-29T16:07:56.609Z</time></trkpt><trkpt lat="45.7579708" lon="11.6439414"><ele>192.0</ele><time>2026-04-29T16:07:57.629Z</time></trkpt><trkpt lat="45.7579993" lon="11.6440964"><ele>190.0</ele><time>2026-04-29T16:07:58.629Z</time></trkpt><trkpt lat="45.7580173" lon="11.6442483"><ele>188.0</ele><time>2026-04-29T16:07:59.618Z</time></trkpt><trkpt lat="45.7580316" lon="11.644393"><ele>186.0</ele><time>2026-04-29T16:08:00.597Z</time></trkpt><trkpt lat="45.7580479" lon="11.6445564"><ele>184.0</ele><time>2026-04-29T16:08:01.725Z</time></trkpt><trkpt lat="45.7580649" lon="11.6446855"><ele>182.0</ele><time>2026-04-29T16:08:02.649Z</time></trkpt><trkpt lat="45.7580875" lon="11.6448179"><ele>180.0</ele><time>2026-04-29T16:08:03.632Z</time></trkpt><trkpt lat="45.7581175" lon="11.6449516"><ele>178.0</ele><time>2026-04-29T16:08:04.665Z</time></trkpt><trkpt lat="45.7581467" lon="11.6450519"><ele>178.0</ele><time>2026-04-29T16:08:05.611Z</time></trkpt><trkpt lat="45.7581693" lon="11.6451515"><ele>178.0</ele><time>2026-04-29T16:08:06.644Z</time></trkpt><trkpt lat="45.7581728" lon="11.6452995"><ele>178.0</ele><time>2026-04-29T16:08:08.692Z</time></trkpt><trkpt lat="45.758098" lon="11.6453662"><ele>178.0</ele><time>2026-04-29T16:08:10.594Z</time></trkpt><trkpt lat="45.7580003" lon="11.6452642"><ele>178.0</ele><time>2026-04-29T16:08:12.65Z</time></trkpt><trkpt lat="45.7579524" lon="11.6451606"><ele>178.0</ele><time>2026-04-29T16:08:13.695Z</time></trkpt><trkpt lat="45.7579057" lon="11.6450588"><ele>178.0</ele><time>2026-04-29T16:08:14.602Z</time></trkpt><trkpt lat="45.7578518" lon="11.6449463"><ele>178.0</ele><time>2026-04-29T16:08:15.632Z</time></trkpt><trkpt lat="45.7577985" lon="11.6448399"><ele>178.0</ele><time>2026-04-29T16:08:16.622Z</time></trkpt><trkpt lat="45.7577455" lon="11.6447376"><ele>178.0</ele><time>2026-04-29T16:08:17.632Z</time></trkpt><trkpt lat="45.757694" lon="11.6446251"><ele>173.0</ele><time>2026-04-29T16:08:18.677Z</time></trkpt><trkpt lat="45.7576362" lon="11.644508"><ele>168.0</ele><time>2026-04-29T16:08:19.615Z</time></trkpt><trkpt lat="45.7575695" lon="11.644379"><ele>163.0</ele><time>2026-04-29T16:08:20.624Z</time></trkpt><trkpt lat="45.7574985" lon="11.6442387"><ele>158.0</ele><time>2026-04-29T16:08:21.642Z</time></trkpt><trkpt lat="45.7574286" lon="11.6440867"><ele>158.0</ele><time>2026-04-29T16:08:22.633Z</time></trkpt><trkpt lat="45.7573592" lon="11.6439223"><ele>158.0</ele><time>2026-04-29T16:08:23.655Z</time></trkpt><trkpt lat="45.7572914" lon="11.6437618"><ele>158.0</ele><time>2026-04-29T16:08:24.652Z</time></trkpt><trkpt lat="45.7572331" lon="11.6436131"><ele>158.0</ele><time>2026-04-29T16:08:25.618Z</time></trkpt><trkpt lat="45.7571752" lon="11.6434473"><ele>160.33333333333331</ele><time>2026-04-29T16:08:26.63Z</time></trkpt><trkpt lat="45.7571195" lon="11.6432819"><ele>162.66666666666666</ele><time>2026-04-29T16:08:27.617Z</time></trkpt><trkpt lat="45.7570604" lon="11.6430829"><ele>165.0</ele><time>2026-04-29T16:08:28.791Z</time></trkpt><trkpt lat="45.7569832" lon="11.6427998"><ele>166.6</ele><time>2026-04-29T16:08:30.631Z</time></trkpt><trkpt lat="45.7569432" lon="11.6426718"><ele>168.2</ele><time>2026-04-29T16:08:31.614Z</time></trkpt><trkpt lat="45.7568878" lon="11.6425446"><ele>169.8</ele><time>2026-04-29T16:08:32.741Z</time></trkpt><trkpt lat="45.7568298" lon="11.6424614"><ele>171.4</ele><time>2026-04-29T16:08:33.673Z</time></trkpt><trkpt lat="45.7567582" lon="11.6423977"><ele>173.0</ele><time>2026-04-29T16:08:34.636Z</time></trkpt><trkpt lat="45.7566777" lon="11.6423647"><ele>169.85714285714286</ele><time>2026-04-29T16:08:35.634Z</time></trkpt><trkpt lat="45.7566065" lon="11.6423792"><ele>166.71428571428572</ele><time>2026-04-29T16:08:36.608Z</time></trkpt><trkpt lat="45.7565445" lon="11.6424395"><ele>163.57142857142858</ele><time>2026-04-29T16:08:37.612Z</time></trkpt><trkpt lat="45.7565018" lon="11.6425333"><ele>160.42857142857144</ele><time>2026-04-29T16:08:38.639Z</time></trkpt><trkpt lat="45.7564752" lon="11.6426302"><ele>157.28571428571428</ele><time>2026-04-29T16:08:39.625Z</time></trkpt><trkpt lat="45.756453" lon="11.6427236"><ele>154.14285714285717</ele><time>2026-04-29T16:08:40.625Z</time></trkpt><trkpt lat="45.7564285" lon="11.642817"><ele>151.0</ele><time>2026-04-29T16:08:41.616Z</time></trkpt><trkpt lat="45.7563987" lon="11.6429242"><ele>149.6</ele><time>2026-04-29T16:08:42.644Z</time></trkpt><trkpt lat="45.7563663" lon="11.6430385"><ele>148.2</ele><time>2026-04-29T16:08:43.637Z</time></trkpt><trkpt lat="45.7563337" lon="11.6431774"><ele>146.8</ele><time>2026-04-29T16:08:44.634Z</time></trkpt><trkpt lat="45.7563049" lon="11.6433435"><ele>145.4</ele><time>2026-04-29T16:08:45.641Z</time></trkpt><trkpt lat="45.7562829" lon="11.6435073"><ele>144.0</ele><time>2026-04-29T16:08:46.613Z</time></trkpt><trkpt lat="45.7562633" lon="11.6436771"><ele>143.2</ele><time>2026-04-29T16:08:47.658Z</time></trkpt><trkpt lat="45.7562451" lon="11.6438368"><ele>142.4</ele><time>2026-04-29T16:08:48.679Z</time></trkpt><trkpt lat="45.7562268" lon="11.6439967"><ele>141.6</ele><time>2026-04-29T16:08:49.74Z</time></trkpt><trkpt lat="45.7562117" lon="11.6441337"><ele>140.8</ele><time>2026-04-29T16:08:50.652Z</time></trkpt><trkpt lat="45.7561961" lon="11.6442844"><ele>140.0</ele><time>2026-04-29T16:08:51.695Z</time></trkpt><trkpt lat="45.7561774" lon="11.644436"><ele>139.0</ele><time>2026-04-29T16:08:52.81Z</time></trkpt><trkpt lat="45.7561378" lon="11.6446691"><ele>138.0</ele><time>2026-04-29T16:08:54.623Z</time></trkpt><trkpt lat="45.7561134" lon="11.6447934"><ele>137.0</ele><time>2026-04-29T16:08:55.681Z</time></trkpt><trkpt lat="45.756098" lon="11.6449041"><ele>136.0</ele><time>2026-04-29T16:08:56.653Z</time></trkpt><trkpt lat="45.7560908" lon="11.6450134"><ele>135.0</ele><time>2026-04-29T16:08:57.642Z</time></trkpt><trkpt lat="45.756093" lon="11.6451109"><ele>135.0</ele><time>2026-04-29T16:08:58.599Z</time></trkpt><trkpt lat="45.7560981" lon="11.6452138"><ele>135.0</ele><time>2026-04-29T16:08:59.65Z</time></trkpt><trkpt lat="45.7561056" lon="11.6453125"><ele>135.0</ele><time>2026-04-29T16:09:00.73Z</time></trkpt><trkpt lat="45.7561251" lon="11.6454777"><ele>135.0</ele><time>2026-04-29T16:09:02.588Z</time></trkpt><trkpt lat="45.756142" lon="11.6455735"><ele>135.0</ele><time>2026-04-29T16:09:03.616Z</time></trkpt><trkpt lat="45.756163" lon="11.6456736"><ele>135.0</ele><time>2026-04-29T16:09:04.658Z</time></trkpt><trkpt lat="45.7561841" lon="11.6457622"><ele>134.33333333333334</ele><time>2026-04-29T16:09:05.604Z</time></trkpt><trkpt lat="45.7562144" lon="11.6458599"><ele>133.66666666666666</ele><time>2026-04-29T16:09:06.632Z</time></trkpt><trkpt lat="45.7562516" lon="11.6459686"><ele>133.0</ele><time>2026-04-29T16:09:07.745Z</time></trkpt><trkpt lat="45.7562892" lon="11.6460659"><ele>132.33333333333331</ele><time>2026-04-29T16:09:08.745Z</time></trkpt><trkpt lat="45.7563562" lon="11.6462335"><ele>131.66666666666666</ele><time>2026-04-29T16:09:10.637Z</time></trkpt><trkpt lat="45.7563905" lon="11.6463165"><ele>131.0</ele><time>2026-04-29T16:09:11.641Z</time></trkpt><trkpt lat="45.7564272" lon="11.6464055"><ele>131.0</ele><time>2026-04-29T16:09:12.689Z</time></trkpt><trkpt lat="45.7564632" lon="11.6464893"><ele>131.0</ele><time>2026-04-29T16:09:13.621Z</time></trkpt><trkpt lat="45.7565036" lon="11.6465848"><ele>131.0</ele><time>2026-04-29T16:09:14.615Z</time></trkpt><trkpt lat="45.7565432" lon="11.646674"><ele>131.0</ele><time>2026-04-29T16:09:15.637Z</time></trkpt><trkpt lat="45.7565773" lon="11.6467639"><ele>131.0</ele><time>2026-04-29T16:09:16.622Z</time></trkpt><trkpt lat="45.7566096" lon="11.6468584"><ele>131.0</ele><time>2026-04-29T16:09:17.606Z</time></trkpt><trkpt lat="45.7566373" lon="11.6469536"><ele>131.0</ele><time>2026-04-29T16:09:18.625Z</time></trkpt><trkpt lat="45.7566632" lon="11.6470532"><ele>131.5</ele><time>2026-04-29T16:09:19.614Z</time></trkpt><trkpt lat="45.7566884" lon="11.6471482"><ele>132.0</ele><time>2026-04-29T16:09:20.611Z</time></trkpt><trkpt lat="45.7567104" lon="11.6472371"><ele>132.5</ele><time>2026-04-29T16:09:21.616Z</time></trkpt><trkpt lat="45.7567322" lon="11.6473296"><ele>133.0</ele><time>2026-04-29T16:09:22.806Z</time></trkpt><trkpt lat="45.7567722" lon="11.6474646"><ele>133.5</ele><time>2026-04-29T16:09:24.685Z</time></trkpt><trkpt lat="45.7568174" lon="11.6476259"><ele>134.0</ele><time>2026-04-29T16:09:26.757Z</time></trkpt><trkpt lat="45.7568586" lon="11.6477855"><ele>131.4</ele><time>2026-04-29T16:09:28.678Z</time></trkpt><trkpt lat="45.7569018" lon="11.6479445"><ele>128.8</ele><time>2026-04-29T16:09:30.64Z</time></trkpt><trkpt lat="45.7569584" lon="11.6481788"><ele>126.19999999999999</ele><time>2026-04-29T16:09:33.599Z</time></trkpt><trkpt lat="45.7569789" lon="11.6482692"><ele>123.6</ele><time>2026-04-29T16:09:34.611Z</time></trkpt><trkpt lat="45.7569944" lon="11.6483642"><ele>121.0</ele><time>2026-04-29T16:09:35.614Z</time></trkpt><trkpt lat="45.7570081" lon="11.6484635"><ele>121.0</ele><time>2026-04-29T16:09:36.589Z</time></trkpt><trkpt lat="45.7570238" lon="11.6485688"><ele>120.99999999999999</ele><time>2026-04-29T16:09:37.603Z</time></trkpt><trkpt lat="45.7570376" lon="11.6486801"><ele>121.0</ele><time>2026-04-29T16:09:38.624Z</time></trkpt><trkpt lat="45.7570498" lon="11.6487898"><ele>121.0</ele><time>2026-04-29T16:09:39.617Z</time></trkpt><trkpt lat="45.7570612" lon="11.6488913"><ele>120.99999999999999</ele><time>2026-04-29T16:09:40.621Z</time></trkpt><trkpt lat="45.7570742" lon="11.6489848"><ele>121.0</ele><time>2026-04-29T16:09:41.612Z</time></trkpt><trkpt lat="45.7570883" lon="11.6490782"><ele>121.0</ele><time>2026-04-29T16:09:42.583Z</time></trkpt><trkpt lat="45.7571047" lon="11.6491797"><ele>120.66666666666667</ele><time>2026-04-29T16:09:43.614Z</time></trkpt><trkpt lat="45.7571249" lon="11.6492822"><ele>120.33333333333334</ele><time>2026-04-29T16:09:44.644Z</time></trkpt><trkpt lat="45.7571478" lon="11.6493829"><ele>120.0</ele><time>2026-04-29T16:09:45.651Z</time></trkpt><trkpt lat="45.7571723" lon="11.649482"><ele>119.66666666666666</ele><time>2026-04-29T16:09:46.632Z</time></trkpt><trkpt lat="45.7572006" lon="11.6495765"><ele>119.33333333333333</ele><time>2026-04-29T16:09:47.604Z</time></trkpt><trkpt lat="45.7572365" lon="11.6496621"><ele>119.0</ele><time>2026-04-29T16:09:48.604Z</time></trkpt><trkpt lat="45.7573052" lon="11.6497813"><ele>118.0</ele><time>2026-04-29T16:09:50.638Z</time></trkpt><trkpt lat="45.757368" lon="11.6498657"><ele>118.0</ele><time>2026-04-29T16:09:52.642Z</time></trkpt><trkpt lat="45.7574271" lon="11.6499482"><ele>118.0</ele><time>2026-04-29T16:09:55.653Z</time></trkpt></trkseg></trk></gpx>